<?xml version="1.0" encoding="UTF-8" standalone="no" ?>
<gpx xmlns="http://www.topografix.com/GPX/1/1" xmlns:xsi="http://www.w3.org/2001/XMLSchema-instance" xsi:schemaLocation="http://www.topografix.com/GPX/1/1 http://www.topografix.com/GPX/1/1/gpx.xsd" version="1.1" creator="VisuGPX - https://www.visugpx.com">
  <metadata>
    <name>Carcassonne-Pyrenees 2000-Carcassonne</name>
  </metadata>
  <wpt lat="42.88867" lon="2.13354">
    <ele>556.3</ele>
    <name><![CDATA[Ravitaillement]]></name>
    <type><![CDATA[restaurant]]></type>
  </wpt>
  <wpt lat="42.7374" lon="2.12646">
    <ele>1019.6</ele>
    <name><![CDATA[Ravitaillement salé]]></name>
    <type><![CDATA[restaurant]]></type>
  </wpt>
  <wpt lat="42.68177" lon="2.12459">
    <ele>1486.2</ele>
    <name><![CDATA[Eau]]></name>
    <type><![CDATA[drink]]></type>
  </wpt>
  <wpt lat="42.88" lon="2.35361">
    <ele>489</ele>
    <name><![CDATA[Ravitaillement]]></name>
    <type><![CDATA[restaurant]]></type>
  </wpt>
  <wpt lat="43.00501" lon="2.37772">
    <ele>671</ele>
    <name><![CDATA[Eau]]></name>
    <type><![CDATA[drink]]></type>
  </wpt>
  <wpt lat="42.66119" lon="2.48266">
    <ele>570.6</ele>
    <name><![CDATA[Eau]]></name>
    <type><![CDATA[drink]]></type>
  </wpt>
  <wpt lat="42.73662" lon="2.48223">
    <ele>304.4</ele>
    <name><![CDATA[Ravitaillement salé]]></name>
    <type><![CDATA[restaurant]]></type>
  </wpt>
  <wpt lat="42.62275" lon="2.41265">
    <ele>434.8</ele>
    <name><![CDATA[Ravitaillement]]></name>
    <type><![CDATA[commerce]]></type>
  </wpt>
  <wpt lat="42.83747" lon="2.48167">
    <ele>389.8</ele>
    <name><![CDATA[Gorges de Galamus]]></name>
    <type><![CDATA[vue]]></type>
  </wpt>
  <trk>
    <name><![CDATA[9256086-PYR-2000 aller 2021]]></name>
    <extensions>
      <line xmlns="http://www.topografix.com/GPX/gpx_style/0/2">
        <color>0000FF</color>
        <width>7</width>
      </line>
    </extensions>
    <trkseg>
      <trkpt lat="43.20686" lon="2.34553">
        <ele>107</ele>
        <time>2021-12-05T13:18:36Z</time>
      </trkpt>
      <trkpt lat="43.20721" lon="2.34437">
        <ele>111</ele>
        <time>2021-12-05T13:18:52Z</time>
      </trkpt>
      <trkpt lat="43.20733" lon="2.34384">
        <ele>112</ele>
        <time>2021-12-05T13:18:59Z</time>
      </trkpt>
      <trkpt lat="43.20738" lon="2.34379">
        <ele>112</ele>
        <time>2021-12-05T13:19:01Z</time>
      </trkpt>
      <trkpt lat="43.20748" lon="2.34373">
        <ele>112</ele>
        <time>2021-12-05T13:19:03Z</time>
      </trkpt>
      <trkpt lat="43.20743" lon="2.34331">
        <ele>111</ele>
        <time>2021-12-05T13:19:08Z</time>
      </trkpt>
      <trkpt lat="43.20743" lon="2.34299">
        <ele>110</ele>
        <time>2021-12-05T13:19:12Z</time>
      </trkpt>
      <trkpt lat="43.20747" lon="2.34249">
        <ele>110</ele>
        <time>2021-12-05T13:19:19Z</time>
      </trkpt>
      <trkpt lat="43.20773" lon="2.34127">
        <ele>109</ele>
        <time>2021-12-05T13:19:35Z</time>
      </trkpt>
      <trkpt lat="43.20779" lon="2.34087">
        <ele>109</ele>
        <time>2021-12-05T13:19:40Z</time>
      </trkpt>
      <trkpt lat="43.20782" lon="2.34032">
        <ele>109</ele>
        <time>2021-12-05T13:19:48Z</time>
      </trkpt>
      <trkpt lat="43.20779" lon="2.33953">
        <ele>110</ele>
        <time>2021-12-05T13:19:58Z</time>
      </trkpt>
      <trkpt lat="43.20768" lon="2.33886">
        <ele>110</ele>
        <time>2021-12-05T13:20:07Z</time>
      </trkpt>
      <trkpt lat="43.20759" lon="2.33843">
        <ele>110</ele>
        <time>2021-12-05T13:20:13Z</time>
      </trkpt>
      <trkpt lat="43.20756" lon="2.33804">
        <ele>110</ele>
        <time>2021-12-05T13:20:18Z</time>
      </trkpt>
      <trkpt lat="43.2076" lon="2.33782">
        <ele>110</ele>
        <time>2021-12-05T13:20:21Z</time>
      </trkpt>
      <trkpt lat="43.20768" lon="2.33751">
        <ele>110</ele>
        <time>2021-12-05T13:20:25Z</time>
      </trkpt>
      <trkpt lat="43.20791" lon="2.33677">
        <ele>110</ele>
        <time>2021-12-05T13:20:35Z</time>
      </trkpt>
      <trkpt lat="43.20709" lon="2.33569">
        <ele>110</ele>
        <time>2021-12-05T13:20:56Z</time>
      </trkpt>
      <trkpt lat="43.20663" lon="2.33498">
        <ele>111</ele>
        <time>2021-12-05T13:21:08Z</time>
      </trkpt>
      <trkpt lat="43.20532" lon="2.3336">
        <ele>111</ele>
        <time>2021-12-05T13:21:37Z</time>
      </trkpt>
      <trkpt lat="43.20524" lon="2.33347">
        <ele>111</ele>
        <time>2021-12-05T13:21:39Z</time>
      </trkpt>
      <trkpt lat="43.20502" lon="2.33322">
        <ele>111</ele>
        <time>2021-12-05T13:21:45Z</time>
      </trkpt>
      <trkpt lat="43.2049" lon="2.33299">
        <ele>111</ele>
        <time>2021-12-05T13:21:48Z</time>
      </trkpt>
      <trkpt lat="43.20492" lon="2.33285">
        <ele>112</ele>
        <time>2021-12-05T13:21:50Z</time>
      </trkpt>
      <trkpt lat="43.2049" lon="2.3327">
        <ele>113</ele>
        <time>2021-12-05T13:21:52Z</time>
      </trkpt>
      <trkpt lat="43.20485" lon="2.33258">
        <ele>113</ele>
        <time>2021-12-05T13:21:54Z</time>
      </trkpt>
      <trkpt lat="43.20478" lon="2.3325">
        <ele>114</ele>
        <time>2021-12-05T13:21:55Z</time>
      </trkpt>
      <trkpt lat="43.2047" lon="2.33246">
        <ele>114</ele>
        <time>2021-12-05T13:21:57Z</time>
      </trkpt>
      <trkpt lat="43.20462" lon="2.33245">
        <ele>114</ele>
        <time>2021-12-05T13:21:58Z</time>
      </trkpt>
      <trkpt lat="43.2045" lon="2.3325">
        <ele>113</ele>
        <time>2021-12-05T13:22:01Z</time>
      </trkpt>
      <trkpt lat="43.20443" lon="2.33258">
        <ele>113</ele>
        <time>2021-12-05T13:22:02Z</time>
      </trkpt>
      <trkpt lat="43.20438" lon="2.33269">
        <ele>112</ele>
        <time>2021-12-05T13:22:04Z</time>
      </trkpt>
      <trkpt lat="43.20436" lon="2.33281">
        <ele>111</ele>
        <time>2021-12-05T13:22:06Z</time>
      </trkpt>
      <trkpt lat="43.20438" lon="2.33297">
        <ele>111</ele>
        <time>2021-12-05T13:22:08Z</time>
      </trkpt>
      <trkpt lat="43.20432" lon="2.33318">
        <ele>109</ele>
        <time>2021-12-05T13:22:11Z</time>
      </trkpt>
      <trkpt lat="43.20421" lon="2.33339">
        <ele>108</ele>
        <time>2021-12-05T13:22:14Z</time>
      </trkpt>
      <trkpt lat="43.20416" lon="2.33349">
        <ele>108</ele>
        <time>2021-12-05T13:22:16Z</time>
      </trkpt>
      <trkpt lat="43.20406" lon="2.3336">
        <ele>108</ele>
        <time>2021-12-05T13:22:18Z</time>
      </trkpt>
      <trkpt lat="43.20377" lon="2.33394">
        <ele>108</ele>
        <time>2021-12-05T13:22:25Z</time>
      </trkpt>
      <trkpt lat="43.20341" lon="2.33437">
        <ele>109</ele>
        <time>2021-12-05T13:22:33Z</time>
      </trkpt>
      <trkpt lat="43.20188" lon="2.33608">
        <ele>110</ele>
        <time>2021-12-05T13:23:08Z</time>
      </trkpt>
      <trkpt lat="43.20138" lon="2.33652">
        <ele>110</ele>
        <time>2021-12-05T13:23:19Z</time>
      </trkpt>
      <trkpt lat="43.20103" lon="2.33675">
        <ele>109</ele>
        <time>2021-12-05T13:23:26Z</time>
      </trkpt>
      <trkpt lat="43.20072" lon="2.33693">
        <ele>110</ele>
        <time>2021-12-05T13:23:32Z</time>
      </trkpt>
      <trkpt lat="43.2003" lon="2.33709">
        <ele>111</ele>
        <time>2021-12-05T13:23:39Z</time>
      </trkpt>
      <trkpt lat="43.2" lon="2.33713">
        <ele>112</ele>
        <time>2021-12-05T13:23:45Z</time>
      </trkpt>
      <trkpt lat="43.19994" lon="2.33708">
        <ele>112</ele>
        <time>2021-12-05T13:23:46Z</time>
      </trkpt>
      <trkpt lat="43.19985" lon="2.33711">
        <ele>113</ele>
        <time>2021-12-05T13:23:48Z</time>
      </trkpt>
      <trkpt lat="43.1998" lon="2.33716">
        <ele>113</ele>
        <time>2021-12-05T13:23:49Z</time>
      </trkpt>
      <trkpt lat="43.19955" lon="2.33724">
        <ele>115</ele>
        <time>2021-12-05T13:23:53Z</time>
      </trkpt>
      <trkpt lat="43.19921" lon="2.33727">
        <ele>118</ele>
        <time>2021-12-05T13:23:59Z</time>
      </trkpt>
      <trkpt lat="43.19836" lon="2.33732">
        <ele>121</ele>
        <time>2021-12-05T13:24:15Z</time>
      </trkpt>
      <trkpt lat="43.19771" lon="2.33724">
        <ele>121</ele>
        <time>2021-12-05T13:24:26Z</time>
      </trkpt>
      <trkpt lat="43.19742" lon="2.33717">
        <ele>122</ele>
        <time>2021-12-05T13:24:31Z</time>
      </trkpt>
      <trkpt lat="43.19729" lon="2.33711">
        <ele>122</ele>
        <time>2021-12-05T13:24:34Z</time>
      </trkpt>
      <trkpt lat="43.19661" lon="2.33673">
        <ele>123</ele>
        <time>2021-12-05T13:24:47Z</time>
      </trkpt>
      <trkpt lat="43.19616" lon="2.33655">
        <ele>124</ele>
        <time>2021-12-05T13:24:55Z</time>
      </trkpt>
      <trkpt lat="43.1949" lon="2.33635">
        <ele>127</ele>
        <time>2021-12-05T13:25:18Z</time>
      </trkpt>
      <trkpt lat="43.19448" lon="2.33629">
        <ele>127</ele>
        <time>2021-12-05T13:25:25Z</time>
      </trkpt>
      <trkpt lat="43.19406" lon="2.33625">
        <ele>126</ele>
        <time>2021-12-05T13:25:33Z</time>
      </trkpt>
      <trkpt lat="43.19363" lon="2.33623">
        <ele>124</ele>
        <time>2021-12-05T13:25:40Z</time>
      </trkpt>
      <trkpt lat="43.19327" lon="2.33612">
        <ele>122</ele>
        <time>2021-12-05T13:25:47Z</time>
      </trkpt>
      <trkpt lat="43.19301" lon="2.336">
        <ele>121</ele>
        <time>2021-12-05T13:25:52Z</time>
      </trkpt>
      <trkpt lat="43.19286" lon="2.33592">
        <ele>121</ele>
        <time>2021-12-05T13:25:55Z</time>
      </trkpt>
      <trkpt lat="43.19272" lon="2.33578">
        <ele>120</ele>
        <time>2021-12-05T13:25:58Z</time>
      </trkpt>
      <trkpt lat="43.19253" lon="2.33558">
        <ele>119</ele>
        <time>2021-12-05T13:26:02Z</time>
      </trkpt>
      <trkpt lat="43.19236" lon="2.3354">
        <ele>119</ele>
        <time>2021-12-05T13:26:06Z</time>
      </trkpt>
      <trkpt lat="43.19213" lon="2.33506">
        <ele>117</ele>
        <time>2021-12-05T13:26:12Z</time>
      </trkpt>
      <trkpt lat="43.19197" lon="2.33476">
        <ele>117</ele>
        <time>2021-12-05T13:26:17Z</time>
      </trkpt>
      <trkpt lat="43.19185" lon="2.33449">
        <ele>117</ele>
        <time>2021-12-05T13:26:21Z</time>
      </trkpt>
      <trkpt lat="43.1918" lon="2.33435">
        <ele>117</ele>
        <time>2021-12-05T13:26:23Z</time>
      </trkpt>
      <trkpt lat="43.19177" lon="2.33426">
        <ele>117</ele>
        <time>2021-12-05T13:26:24Z</time>
      </trkpt>
      <trkpt lat="43.19173" lon="2.33403">
        <ele>118</ele>
        <time>2021-12-05T13:26:27Z</time>
      </trkpt>
      <trkpt lat="43.1917" lon="2.33383">
        <ele>119</ele>
        <time>2021-12-05T13:26:30Z</time>
      </trkpt>
      <trkpt lat="43.19171" lon="2.33305">
        <ele>121</ele>
        <time>2021-12-05T13:26:40Z</time>
      </trkpt>
      <trkpt lat="43.19167" lon="2.33265">
        <ele>120</ele>
        <time>2021-12-05T13:26:45Z</time>
      </trkpt>
      <trkpt lat="43.19161" lon="2.33245">
        <ele>119</ele>
        <time>2021-12-05T13:26:48Z</time>
      </trkpt>
      <trkpt lat="43.19152" lon="2.33224">
        <ele>118</ele>
        <time>2021-12-05T13:26:51Z</time>
      </trkpt>
      <trkpt lat="43.19142" lon="2.33209">
        <ele>117</ele>
        <time>2021-12-05T13:26:54Z</time>
      </trkpt>
      <trkpt lat="43.19127" lon="2.33194">
        <ele>116</ele>
        <time>2021-12-05T13:26:57Z</time>
      </trkpt>
      <trkpt lat="43.19115" lon="2.33186">
        <ele>116</ele>
        <time>2021-12-05T13:27:00Z</time>
      </trkpt>
      <trkpt lat="43.19098" lon="2.33179">
        <ele>115</ele>
        <time>2021-12-05T13:27:03Z</time>
      </trkpt>
      <trkpt lat="43.19085" lon="2.33176">
        <ele>115</ele>
        <time>2021-12-05T13:27:05Z</time>
      </trkpt>
      <trkpt lat="43.19071" lon="2.33176">
        <ele>116</ele>
        <time>2021-12-05T13:27:08Z</time>
      </trkpt>
      <trkpt lat="43.1904" lon="2.33186">
        <ele>117</ele>
        <time>2021-12-05T13:27:13Z</time>
      </trkpt>
      <trkpt lat="43.19" lon="2.33212">
        <ele>120</ele>
        <time>2021-12-05T13:27:21Z</time>
      </trkpt>
      <trkpt lat="43.18956" lon="2.33231">
        <ele>123</ele>
        <time>2021-12-05T13:27:29Z</time>
      </trkpt>
      <trkpt lat="43.18942" lon="2.33233">
        <ele>123</ele>
        <time>2021-12-05T13:27:32Z</time>
      </trkpt>
      <trkpt lat="43.18922" lon="2.33231">
        <ele>123</ele>
        <time>2021-12-05T13:27:35Z</time>
      </trkpt>
      <trkpt lat="43.18903" lon="2.33223">
        <ele>123</ele>
        <time>2021-12-05T13:27:39Z</time>
      </trkpt>
      <trkpt lat="43.18884" lon="2.33214">
        <ele>123</ele>
        <time>2021-12-05T13:27:42Z</time>
      </trkpt>
      <trkpt lat="43.18802" lon="2.33151">
        <ele>120</ele>
        <time>2021-12-05T13:27:59Z</time>
      </trkpt>
      <trkpt lat="43.18659" lon="2.33029">
        <ele>118</ele>
        <time>2021-12-05T13:28:29Z</time>
      </trkpt>
      <trkpt lat="43.18541" lon="2.32923">
        <ele>114</ele>
        <time>2021-12-05T13:28:54Z</time>
      </trkpt>
      <trkpt lat="43.18446" lon="2.32856">
        <ele>115</ele>
        <time>2021-12-05T13:29:13Z</time>
      </trkpt>
      <trkpt lat="43.18403" lon="2.32833">
        <ele>115</ele>
        <time>2021-12-05T13:29:21Z</time>
      </trkpt>
      <trkpt lat="43.18138" lon="2.32689">
        <ele>120</ele>
        <time>2021-12-05T13:30:12Z</time>
      </trkpt>
      <trkpt lat="43.18041" lon="2.32636">
        <ele>121</ele>
        <time>2021-12-05T13:30:31Z</time>
      </trkpt>
      <trkpt lat="43.17878" lon="2.32548">
        <ele>125</ele>
        <time>2021-12-05T13:31:02Z</time>
      </trkpt>
      <trkpt lat="43.1784" lon="2.32512">
        <ele>124</ele>
        <time>2021-12-05T13:31:10Z</time>
      </trkpt>
      <trkpt lat="43.1783" lon="2.32489">
        <ele>123</ele>
        <time>2021-12-05T13:31:14Z</time>
      </trkpt>
      <trkpt lat="43.17822" lon="2.32463">
        <ele>124</ele>
        <time>2021-12-05T13:31:17Z</time>
      </trkpt>
      <trkpt lat="43.17815" lon="2.32451">
        <ele>124</ele>
        <time>2021-12-05T13:31:19Z</time>
      </trkpt>
      <trkpt lat="43.17809" lon="2.32443">
        <ele>124</ele>
        <time>2021-12-05T13:31:21Z</time>
      </trkpt>
      <trkpt lat="43.17796" lon="2.32437">
        <ele>125</ele>
        <time>2021-12-05T13:31:23Z</time>
      </trkpt>
      <trkpt lat="43.17676" lon="2.32406">
        <ele>129</ele>
        <time>2021-12-05T13:31:45Z</time>
      </trkpt>
      <trkpt lat="43.17585" lon="2.32382">
        <ele>132</ele>
        <time>2021-12-05T13:32:01Z</time>
      </trkpt>
      <trkpt lat="43.17583" lon="2.3237">
        <ele>132</ele>
        <time>2021-12-05T13:32:03Z</time>
      </trkpt>
      <trkpt lat="43.17539" lon="2.32345">
        <ele>134</ele>
        <time>2021-12-05T13:32:11Z</time>
      </trkpt>
      <trkpt lat="43.17517" lon="2.32324">
        <ele>135</ele>
        <time>2021-12-05T13:32:16Z</time>
      </trkpt>
      <trkpt lat="43.17507" lon="2.32299">
        <ele>136</ele>
        <time>2021-12-05T13:32:20Z</time>
      </trkpt>
      <trkpt lat="43.17503" lon="2.32264">
        <ele>137</ele>
        <time>2021-12-05T13:32:25Z</time>
      </trkpt>
      <trkpt lat="43.17508" lon="2.32176">
        <ele>140</ele>
        <time>2021-12-05T13:32:36Z</time>
      </trkpt>
      <trkpt lat="43.17517" lon="2.32126">
        <ele>141</ele>
        <time>2021-12-05T13:32:43Z</time>
      </trkpt>
      <trkpt lat="43.17582" lon="2.31977">
        <ele>139</ele>
        <time>2021-12-05T13:33:05Z</time>
      </trkpt>
      <trkpt lat="43.17599" lon="2.31925">
        <ele>139</ele>
        <time>2021-12-05T13:33:13Z</time>
      </trkpt>
      <trkpt lat="43.17607" lon="2.31879">
        <ele>140</ele>
        <time>2021-12-05T13:33:19Z</time>
      </trkpt>
      <trkpt lat="43.1762" lon="2.31752">
        <ele>141</ele>
        <time>2021-12-05T13:33:35Z</time>
      </trkpt>
      <trkpt lat="43.17648" lon="2.31635">
        <ele>139</ele>
        <time>2021-12-05T13:33:51Z</time>
      </trkpt>
      <trkpt lat="43.17654" lon="2.31485">
        <ele>134</ele>
        <time>2021-12-05T13:34:11Z</time>
      </trkpt>
      <trkpt lat="43.17654" lon="2.31447">
        <ele>131</ele>
        <time>2021-12-05T13:34:16Z</time>
      </trkpt>
      <trkpt lat="43.17648" lon="2.31431">
        <ele>130</ele>
        <time>2021-12-05T13:34:18Z</time>
      </trkpt>
      <trkpt lat="43.17637" lon="2.3141">
        <ele>129</ele>
        <time>2021-12-05T13:34:21Z</time>
      </trkpt>
      <trkpt lat="43.17613" lon="2.31383">
        <ele>128</ele>
        <time>2021-12-05T13:34:27Z</time>
      </trkpt>
      <trkpt lat="43.17594" lon="2.31369">
        <ele>128</ele>
        <time>2021-12-05T13:34:31Z</time>
      </trkpt>
      <trkpt lat="43.17577" lon="2.31368">
        <ele>129</ele>
        <time>2021-12-05T13:34:34Z</time>
      </trkpt>
      <trkpt lat="43.17559" lon="2.31377">
        <ele>131</ele>
        <time>2021-12-05T13:34:37Z</time>
      </trkpt>
      <trkpt lat="43.17542" lon="2.31381">
        <ele>133</ele>
        <time>2021-12-05T13:34:40Z</time>
      </trkpt>
      <trkpt lat="43.17481" lon="2.31349">
        <ele>132</ele>
        <time>2021-12-05T13:34:52Z</time>
      </trkpt>
      <trkpt lat="43.17451" lon="2.3133">
        <ele>132</ele>
        <time>2021-12-05T13:34:58Z</time>
      </trkpt>
      <trkpt lat="43.17395" lon="2.31283">
        <ele>130</ele>
        <time>2021-12-05T13:35:10Z</time>
      </trkpt>
      <trkpt lat="43.17362" lon="2.31259">
        <ele>128</ele>
        <time>2021-12-05T13:35:16Z</time>
      </trkpt>
      <trkpt lat="43.17251" lon="2.31227">
        <ele>129</ele>
        <time>2021-12-05T13:35:36Z</time>
      </trkpt>
      <trkpt lat="43.17231" lon="2.31215">
        <ele>128</ele>
        <time>2021-12-05T13:35:40Z</time>
      </trkpt>
      <trkpt lat="43.17172" lon="2.31163">
        <ele>126</ele>
        <time>2021-12-05T13:35:53Z</time>
      </trkpt>
      <trkpt lat="43.17158" lon="2.31149">
        <ele>126</ele>
        <time>2021-12-05T13:35:56Z</time>
      </trkpt>
      <trkpt lat="43.17149" lon="2.31122">
        <ele>125</ele>
        <time>2021-12-05T13:36:00Z</time>
      </trkpt>
      <trkpt lat="43.17133" lon="2.31058">
        <ele>124</ele>
        <time>2021-12-05T13:36:08Z</time>
      </trkpt>
      <trkpt lat="43.17105" lon="2.31014">
        <ele>125</ele>
        <time>2021-12-05T13:36:16Z</time>
      </trkpt>
      <trkpt lat="43.17079" lon="2.30994">
        <ele>125</ele>
        <time>2021-12-05T13:36:21Z</time>
      </trkpt>
      <trkpt lat="43.1706" lon="2.30991">
        <ele>125</ele>
        <time>2021-12-05T13:36:25Z</time>
      </trkpt>
      <trkpt lat="43.17035" lon="2.30995">
        <ele>126</ele>
        <time>2021-12-05T13:36:29Z</time>
      </trkpt>
      <trkpt lat="43.17012" lon="2.30997">
        <ele>127</ele>
        <time>2021-12-05T13:36:33Z</time>
      </trkpt>
      <trkpt lat="43.16946" lon="2.30978">
        <ele>127</ele>
        <time>2021-12-05T13:36:45Z</time>
      </trkpt>
      <trkpt lat="43.16916" lon="2.30977">
        <ele>127</ele>
        <time>2021-12-05T13:36:51Z</time>
      </trkpt>
      <trkpt lat="43.1688" lon="2.30981">
        <ele>129</ele>
        <time>2021-12-05T13:36:57Z</time>
      </trkpt>
      <trkpt lat="43.16858" lon="2.30978">
        <ele>129</ele>
        <time>2021-12-05T13:37:01Z</time>
      </trkpt>
      <trkpt lat="43.16843" lon="2.30969">
        <ele>128</ele>
        <time>2021-12-05T13:37:04Z</time>
      </trkpt>
      <trkpt lat="43.16819" lon="2.30938">
        <ele>126</ele>
        <time>2021-12-05T13:37:10Z</time>
      </trkpt>
      <trkpt lat="43.16796" lon="2.30922">
        <ele>125</ele>
        <time>2021-12-05T13:37:14Z</time>
      </trkpt>
      <trkpt lat="43.1673" lon="2.30908">
        <ele>127</ele>
        <time>2021-12-05T13:37:26Z</time>
      </trkpt>
      <trkpt lat="43.16685" lon="2.30885">
        <ele>128</ele>
        <time>2021-12-05T13:37:35Z</time>
      </trkpt>
      <trkpt lat="43.16656" lon="2.30862">
        <ele>128</ele>
        <time>2021-12-05T13:37:41Z</time>
      </trkpt>
      <trkpt lat="43.16638" lon="2.30852">
        <ele>127</ele>
        <time>2021-12-05T13:37:44Z</time>
      </trkpt>
      <trkpt lat="43.16591" lon="2.30832">
        <ele>127</ele>
        <time>2021-12-05T13:37:53Z</time>
      </trkpt>
      <trkpt lat="43.16526" lon="2.30812">
        <ele>126</ele>
        <time>2021-12-05T13:38:05Z</time>
      </trkpt>
      <trkpt lat="43.16473" lon="2.30827">
        <ele>127</ele>
        <time>2021-12-05T13:38:14Z</time>
      </trkpt>
      <trkpt lat="43.16392" lon="2.30859">
        <ele>131</ele>
        <time>2021-12-05T13:38:29Z</time>
      </trkpt>
      <trkpt lat="43.16256" lon="2.30918">
        <ele>130</ele>
        <time>2021-12-05T13:38:55Z</time>
      </trkpt>
      <trkpt lat="43.16172" lon="2.30958">
        <ele>132</ele>
        <time>2021-12-05T13:39:11Z</time>
      </trkpt>
      <trkpt lat="43.16146" lon="2.30964">
        <ele>133</ele>
        <time>2021-12-05T13:39:15Z</time>
      </trkpt>
      <trkpt lat="43.16091" lon="2.30967">
        <ele>133</ele>
        <time>2021-12-05T13:39:25Z</time>
      </trkpt>
      <trkpt lat="43.15955" lon="2.30961">
        <ele>133</ele>
        <time>2021-12-05T13:39:49Z</time>
      </trkpt>
      <trkpt lat="43.15897" lon="2.30962">
        <ele>133</ele>
        <time>2021-12-05T13:40:00Z</time>
      </trkpt>
      <trkpt lat="43.15861" lon="2.30971">
        <ele>132</ele>
        <time>2021-12-05T13:40:06Z</time>
      </trkpt>
      <trkpt lat="43.15822" lon="2.30992">
        <ele>131</ele>
        <time>2021-12-05T13:40:14Z</time>
      </trkpt>
      <trkpt lat="43.1579" lon="2.31019">
        <ele>130</ele>
        <time>2021-12-05T13:40:20Z</time>
      </trkpt>
      <trkpt lat="43.15725" lon="2.31102">
        <ele>129</ele>
        <time>2021-12-05T13:40:36Z</time>
      </trkpt>
      <trkpt lat="43.15706" lon="2.31142">
        <ele>129</ele>
        <time>2021-12-05T13:40:42Z</time>
      </trkpt>
      <trkpt lat="43.15656" lon="2.31294">
        <ele>133</ele>
        <time>2021-12-05T13:41:04Z</time>
      </trkpt>
      <trkpt lat="43.15633" lon="2.3137">
        <ele>134</ele>
        <time>2021-12-05T13:41:15Z</time>
      </trkpt>
      <trkpt lat="43.15627" lon="2.31403">
        <ele>134</ele>
        <time>2021-12-05T13:41:19Z</time>
      </trkpt>
      <trkpt lat="43.15616" lon="2.31542">
        <ele>135</ele>
        <time>2021-12-05T13:41:37Z</time>
      </trkpt>
      <trkpt lat="43.15611" lon="2.31572">
        <ele>135</ele>
        <time>2021-12-05T13:41:41Z</time>
      </trkpt>
      <trkpt lat="43.15588" lon="2.31649">
        <ele>133</ele>
        <time>2021-12-05T13:41:52Z</time>
      </trkpt>
      <trkpt lat="43.15556" lon="2.31782">
        <ele>137</ele>
        <time>2021-12-05T13:42:10Z</time>
      </trkpt>
      <trkpt lat="43.15553" lon="2.31788">
        <ele>136</ele>
        <time>2021-12-05T13:42:11Z</time>
      </trkpt>
      <trkpt lat="43.15547" lon="2.31792">
        <ele>136</ele>
        <time>2021-12-05T13:42:12Z</time>
      </trkpt>
      <trkpt lat="43.15508" lon="2.31796">
        <ele>132</ele>
        <time>2021-12-05T13:42:19Z</time>
      </trkpt>
      <trkpt lat="43.15502" lon="2.318">
        <ele>131</ele>
        <time>2021-12-05T13:42:20Z</time>
      </trkpt>
      <trkpt lat="43.15496" lon="2.31807">
        <ele>131</ele>
        <time>2021-12-05T13:42:22Z</time>
      </trkpt>
      <trkpt lat="43.15493" lon="2.31815">
        <ele>131</ele>
        <time>2021-12-05T13:42:23Z</time>
      </trkpt>
      <trkpt lat="43.15492" lon="2.31826">
        <ele>131</ele>
        <time>2021-12-05T13:42:24Z</time>
      </trkpt>
      <trkpt lat="43.15495" lon="2.31855">
        <ele>133</ele>
        <time>2021-12-05T13:42:28Z</time>
      </trkpt>
      <trkpt lat="43.15492" lon="2.31856">
        <ele>133</ele>
        <time>2021-12-05T13:42:29Z</time>
      </trkpt>
      <trkpt lat="43.15473" lon="2.31863">
        <ele>132</ele>
        <time>2021-12-05T13:42:32Z</time>
      </trkpt>
      <trkpt lat="43.15458" lon="2.31868">
        <ele>132</ele>
        <time>2021-12-05T13:42:35Z</time>
      </trkpt>
      <trkpt lat="43.15435" lon="2.31884">
        <ele>131</ele>
        <time>2021-12-05T13:42:40Z</time>
      </trkpt>
      <trkpt lat="43.15412" lon="2.31908">
        <ele>132</ele>
        <time>2021-12-05T13:42:45Z</time>
      </trkpt>
      <trkpt lat="43.1538" lon="2.3194">
        <ele>132</ele>
        <time>2021-12-05T13:42:52Z</time>
      </trkpt>
      <trkpt lat="43.15341" lon="2.31971">
        <ele>132</ele>
        <time>2021-12-05T13:43:00Z</time>
      </trkpt>
      <trkpt lat="43.15321" lon="2.31983">
        <ele>132</ele>
        <time>2021-12-05T13:43:04Z</time>
      </trkpt>
      <trkpt lat="43.15272" lon="2.32009">
        <ele>131</ele>
        <time>2021-12-05T13:43:13Z</time>
      </trkpt>
      <trkpt lat="43.15227" lon="2.32025">
        <ele>131</ele>
        <time>2021-12-05T13:43:21Z</time>
      </trkpt>
      <trkpt lat="43.15171" lon="2.32037">
        <ele>131</ele>
        <time>2021-12-05T13:43:31Z</time>
      </trkpt>
      <trkpt lat="43.15146" lon="2.32038">
        <ele>132</ele>
        <time>2021-12-05T13:43:36Z</time>
      </trkpt>
      <trkpt lat="43.15092" lon="2.32036">
        <ele>132</ele>
        <time>2021-12-05T13:43:46Z</time>
      </trkpt>
      <trkpt lat="43.1506" lon="2.3203">
        <ele>132</ele>
        <time>2021-12-05T13:43:51Z</time>
      </trkpt>
      <trkpt lat="43.15033" lon="2.32025">
        <ele>132</ele>
        <time>2021-12-05T13:43:56Z</time>
      </trkpt>
      <trkpt lat="43.15014" lon="2.3202">
        <ele>132</ele>
        <time>2021-12-05T13:44:00Z</time>
      </trkpt>
      <trkpt lat="43.14989" lon="2.32014">
        <ele>131</ele>
        <time>2021-12-05T13:44:04Z</time>
      </trkpt>
      <trkpt lat="43.1498" lon="2.32013">
        <ele>131</ele>
        <time>2021-12-05T13:44:06Z</time>
      </trkpt>
      <trkpt lat="43.14969" lon="2.32013">
        <ele>131</ele>
        <time>2021-12-05T13:44:08Z</time>
      </trkpt>
      <trkpt lat="43.14936" lon="2.32025">
        <ele>132</ele>
        <time>2021-12-05T13:44:14Z</time>
      </trkpt>
      <trkpt lat="43.14923" lon="2.32033">
        <ele>132</ele>
        <time>2021-12-05T13:44:16Z</time>
      </trkpt>
      <trkpt lat="43.14913" lon="2.32043">
        <ele>132</ele>
        <time>2021-12-05T13:44:18Z</time>
      </trkpt>
      <trkpt lat="43.14907" lon="2.32053">
        <ele>132</ele>
        <time>2021-12-05T13:44:20Z</time>
      </trkpt>
      <trkpt lat="43.14887" lon="2.32104">
        <ele>133</ele>
        <time>2021-12-05T13:44:28Z</time>
      </trkpt>
      <trkpt lat="43.14874" lon="2.32139">
        <ele>135</ele>
        <time>2021-12-05T13:44:33Z</time>
      </trkpt>
      <trkpt lat="43.14867" lon="2.32156">
        <ele>135</ele>
        <time>2021-12-05T13:44:35Z</time>
      </trkpt>
      <trkpt lat="43.14866" lon="2.32158">
        <ele>135</ele>
        <time>2021-12-05T13:44:36Z</time>
      </trkpt>
      <trkpt lat="43.14845" lon="2.32195">
        <ele>136</ele>
        <time>2021-12-05T13:44:42Z</time>
      </trkpt>
      <trkpt lat="43.14844" lon="2.32197">
        <ele>136</ele>
        <time>2021-12-05T13:44:42Z</time>
      </trkpt>
      <trkpt lat="43.14833" lon="2.32217">
        <ele>136</ele>
        <time>2021-12-05T13:44:45Z</time>
      </trkpt>
      <trkpt lat="43.14818" lon="2.32219">
        <ele>137</ele>
        <time>2021-12-05T13:44:48Z</time>
      </trkpt>
      <trkpt lat="43.14794" lon="2.32229">
        <ele>137</ele>
        <time>2021-12-05T13:44:52Z</time>
      </trkpt>
      <trkpt lat="43.14783" lon="2.32234">
        <ele>137</ele>
        <time>2021-12-05T13:44:54Z</time>
      </trkpt>
      <trkpt lat="43.14749" lon="2.32248">
        <ele>138</ele>
        <time>2021-12-05T13:45:01Z</time>
      </trkpt>
      <trkpt lat="43.14732" lon="2.32247">
        <ele>137</ele>
        <time>2021-12-05T13:45:04Z</time>
      </trkpt>
      <trkpt lat="43.14704" lon="2.3224">
        <ele>136</ele>
        <time>2021-12-05T13:45:09Z</time>
      </trkpt>
      <trkpt lat="43.14682" lon="2.32241">
        <ele>135</ele>
        <time>2021-12-05T13:45:13Z</time>
      </trkpt>
      <trkpt lat="43.14613" lon="2.32312">
        <ele>136</ele>
        <time>2021-12-05T13:45:28Z</time>
      </trkpt>
      <trkpt lat="43.14555" lon="2.32376">
        <ele>138</ele>
        <time>2021-12-05T13:45:41Z</time>
      </trkpt>
      <trkpt lat="43.14518" lon="2.32401">
        <ele>137</ele>
        <time>2021-12-05T13:45:49Z</time>
      </trkpt>
      <trkpt lat="43.14471" lon="2.32417">
        <ele>136</ele>
        <time>2021-12-05T13:45:57Z</time>
      </trkpt>
      <trkpt lat="43.1446" lon="2.32421">
        <ele>136</ele>
        <time>2021-12-05T13:45:59Z</time>
      </trkpt>
      <trkpt lat="43.14409" lon="2.32438">
        <ele>136</ele>
        <time>2021-12-05T13:46:09Z</time>
      </trkpt>
      <trkpt lat="43.14353" lon="2.32439">
        <ele>134</ele>
        <time>2021-12-05T13:46:19Z</time>
      </trkpt>
      <trkpt lat="43.14274" lon="2.32406">
        <ele>134</ele>
        <time>2021-12-05T13:46:33Z</time>
      </trkpt>
      <trkpt lat="43.14227" lon="2.32394">
        <ele>134</ele>
        <time>2021-12-05T13:46:42Z</time>
      </trkpt>
      <trkpt lat="43.14206" lon="2.32396">
        <ele>135</ele>
        <time>2021-12-05T13:46:46Z</time>
      </trkpt>
      <trkpt lat="43.14174" lon="2.32408">
        <ele>135</ele>
        <time>2021-12-05T13:46:52Z</time>
      </trkpt>
      <trkpt lat="43.14136" lon="2.32419">
        <ele>134</ele>
        <time>2021-12-05T13:46:58Z</time>
      </trkpt>
      <trkpt lat="43.14057" lon="2.32429">
        <ele>133</ele>
        <time>2021-12-05T13:47:13Z</time>
      </trkpt>
      <trkpt lat="43.1404" lon="2.3243">
        <ele>133</ele>
        <time>2021-12-05T13:47:16Z</time>
      </trkpt>
      <trkpt lat="43.14007" lon="2.32424">
        <ele>133</ele>
        <time>2021-12-05T13:47:21Z</time>
      </trkpt>
      <trkpt lat="43.13789" lon="2.32343">
        <ele>135</ele>
        <time>2021-12-05T13:48:02Z</time>
      </trkpt>
      <trkpt lat="43.13752" lon="2.32328">
        <ele>135</ele>
        <time>2021-12-05T13:48:09Z</time>
      </trkpt>
      <trkpt lat="43.13689" lon="2.3228">
        <ele>136</ele>
        <time>2021-12-05T13:48:21Z</time>
      </trkpt>
      <trkpt lat="43.13652" lon="2.32259">
        <ele>136</ele>
        <time>2021-12-05T13:48:28Z</time>
      </trkpt>
      <trkpt lat="43.13608" lon="2.32244">
        <ele>136</ele>
        <time>2021-12-05T13:48:37Z</time>
      </trkpt>
      <trkpt lat="43.13571" lon="2.32237">
        <ele>136</ele>
        <time>2021-12-05T13:48:43Z</time>
      </trkpt>
      <trkpt lat="43.13533" lon="2.32238">
        <ele>136</ele>
        <time>2021-12-05T13:48:50Z</time>
      </trkpt>
      <trkpt lat="43.13503" lon="2.32242">
        <ele>137</ele>
        <time>2021-12-05T13:48:55Z</time>
      </trkpt>
      <trkpt lat="43.13381" lon="2.32264">
        <ele>138</ele>
        <time>2021-12-05T13:49:17Z</time>
      </trkpt>
      <trkpt lat="43.13351" lon="2.32276">
        <ele>138</ele>
        <time>2021-12-05T13:49:23Z</time>
      </trkpt>
      <trkpt lat="43.13326" lon="2.32291">
        <ele>138</ele>
        <time>2021-12-05T13:49:28Z</time>
      </trkpt>
      <trkpt lat="43.13291" lon="2.3232">
        <ele>139</ele>
        <time>2021-12-05T13:49:35Z</time>
      </trkpt>
      <trkpt lat="43.13219" lon="2.32388">
        <ele>144</ele>
        <time>2021-12-05T13:49:50Z</time>
      </trkpt>
      <trkpt lat="43.13156" lon="2.32431">
        <ele>144</ele>
        <time>2021-12-05T13:50:03Z</time>
      </trkpt>
      <trkpt lat="43.12935" lon="2.3251">
        <ele>142</ele>
        <time>2021-12-05T13:50:44Z</time>
      </trkpt>
      <trkpt lat="43.12918" lon="2.32514">
        <ele>143</ele>
        <time>2021-12-05T13:50:47Z</time>
      </trkpt>
      <trkpt lat="43.12897" lon="2.32515">
        <ele>144</ele>
        <time>2021-12-05T13:50:50Z</time>
      </trkpt>
      <trkpt lat="43.12873" lon="2.32511">
        <ele>144</ele>
        <time>2021-12-05T13:50:55Z</time>
      </trkpt>
      <trkpt lat="43.1283" lon="2.32495">
        <ele>144</ele>
        <time>2021-12-05T13:51:03Z</time>
      </trkpt>
      <trkpt lat="43.12803" lon="2.32481">
        <ele>143</ele>
        <time>2021-12-05T13:51:08Z</time>
      </trkpt>
      <trkpt lat="43.12776" lon="2.3246">
        <ele>142</ele>
        <time>2021-12-05T13:51:13Z</time>
      </trkpt>
      <trkpt lat="43.12759" lon="2.32448">
        <ele>142</ele>
        <time>2021-12-05T13:51:17Z</time>
      </trkpt>
      <trkpt lat="43.12644" lon="2.32325">
        <ele>144</ele>
        <time>2021-12-05T13:51:43Z</time>
      </trkpt>
      <trkpt lat="43.12623" lon="2.32306">
        <ele>144</ele>
        <time>2021-12-05T13:51:47Z</time>
      </trkpt>
      <trkpt lat="43.12534" lon="2.32248">
        <ele>146</ele>
        <time>2021-12-05T13:52:05Z</time>
      </trkpt>
      <trkpt lat="43.12361" lon="2.32108">
        <ele>143</ele>
        <time>2021-12-05T13:52:40Z</time>
      </trkpt>
      <trkpt lat="43.12342" lon="2.32093">
        <ele>144</ele>
        <time>2021-12-05T13:52:44Z</time>
      </trkpt>
      <trkpt lat="43.12306" lon="2.32064">
        <ele>144</ele>
        <time>2021-12-05T13:52:52Z</time>
      </trkpt>
      <trkpt lat="43.12281" lon="2.32039">
        <ele>144</ele>
        <time>2021-12-05T13:52:57Z</time>
      </trkpt>
      <trkpt lat="43.12262" lon="2.32019">
        <ele>145</ele>
        <time>2021-12-05T13:53:02Z</time>
      </trkpt>
      <trkpt lat="43.12246" lon="2.31993">
        <ele>145</ele>
        <time>2021-12-05T13:53:06Z</time>
      </trkpt>
      <trkpt lat="43.12233" lon="2.31961">
        <ele>145</ele>
        <time>2021-12-05T13:53:11Z</time>
      </trkpt>
      <trkpt lat="43.12224" lon="2.31929">
        <ele>144</ele>
        <time>2021-12-05T13:53:15Z</time>
      </trkpt>
      <trkpt lat="43.12209" lon="2.31825">
        <ele>144</ele>
        <time>2021-12-05T13:53:29Z</time>
      </trkpt>
      <trkpt lat="43.12199" lon="2.31777">
        <ele>143</ele>
        <time>2021-12-05T13:53:35Z</time>
      </trkpt>
      <trkpt lat="43.12185" lon="2.31745">
        <ele>143</ele>
        <time>2021-12-05T13:53:40Z</time>
      </trkpt>
      <trkpt lat="43.12159" lon="2.31696">
        <ele>145</ele>
        <time>2021-12-05T13:53:48Z</time>
      </trkpt>
      <trkpt lat="43.12127" lon="2.31646">
        <ele>147</ele>
        <time>2021-12-05T13:53:57Z</time>
      </trkpt>
      <trkpt lat="43.12107" lon="2.31623">
        <ele>148</ele>
        <time>2021-12-05T13:54:01Z</time>
      </trkpt>
      <trkpt lat="43.12097" lon="2.31615">
        <ele>149</ele>
        <time>2021-12-05T13:54:03Z</time>
      </trkpt>
      <trkpt lat="43.12076" lon="2.31603">
        <ele>150</ele>
        <time>2021-12-05T13:54:08Z</time>
      </trkpt>
      <trkpt lat="43.12046" lon="2.31593">
        <ele>152</ele>
        <time>2021-12-05T13:54:13Z</time>
      </trkpt>
      <trkpt lat="43.12019" lon="2.31594">
        <ele>154</ele>
        <time>2021-12-05T13:54:18Z</time>
      </trkpt>
      <trkpt lat="43.11993" lon="2.31601">
        <ele>155</ele>
        <time>2021-12-05T13:54:23Z</time>
      </trkpt>
      <trkpt lat="43.11941" lon="2.31629">
        <ele>152</ele>
        <time>2021-12-05T13:54:32Z</time>
      </trkpt>
      <trkpt lat="43.1192" lon="2.31644">
        <ele>151</ele>
        <time>2021-12-05T13:54:37Z</time>
      </trkpt>
      <trkpt lat="43.11838" lon="2.31723">
        <ele>149</ele>
        <time>2021-12-05T13:54:55Z</time>
      </trkpt>
      <trkpt lat="43.11818" lon="2.31733">
        <ele>149</ele>
        <time>2021-12-05T13:54:58Z</time>
      </trkpt>
      <trkpt lat="43.11798" lon="2.31738">
        <ele>148</ele>
        <time>2021-12-05T13:55:02Z</time>
      </trkpt>
      <trkpt lat="43.11774" lon="2.31738">
        <ele>148</ele>
        <time>2021-12-05T13:55:06Z</time>
      </trkpt>
      <trkpt lat="43.11696" lon="2.31721">
        <ele>148</ele>
        <time>2021-12-05T13:55:20Z</time>
      </trkpt>
      <trkpt lat="43.11647" lon="2.31698">
        <ele>148</ele>
        <time>2021-12-05T13:55:29Z</time>
      </trkpt>
      <trkpt lat="43.11543" lon="2.31665">
        <ele>149</ele>
        <time>2021-12-05T13:55:48Z</time>
      </trkpt>
      <trkpt lat="43.1148" lon="2.31654">
        <ele>150</ele>
        <time>2021-12-05T13:56:00Z</time>
      </trkpt>
      <trkpt lat="43.11369" lon="2.3164">
        <ele>151</ele>
        <time>2021-12-05T13:56:20Z</time>
      </trkpt>
      <trkpt lat="43.11269" lon="2.31617">
        <ele>152</ele>
        <time>2021-12-05T13:56:38Z</time>
      </trkpt>
      <trkpt lat="43.11203" lon="2.31589">
        <ele>151</ele>
        <time>2021-12-05T13:56:50Z</time>
      </trkpt>
      <trkpt lat="43.11179" lon="2.31586">
        <ele>150</ele>
        <time>2021-12-05T13:56:54Z</time>
      </trkpt>
      <trkpt lat="43.1101" lon="2.31611">
        <ele>152</ele>
        <time>2021-12-05T13:57:24Z</time>
      </trkpt>
      <trkpt lat="43.10986" lon="2.31617">
        <ele>153</ele>
        <time>2021-12-05T13:57:29Z</time>
      </trkpt>
      <trkpt lat="43.10721" lon="2.31736">
        <ele>154</ele>
        <time>2021-12-05T13:58:18Z</time>
      </trkpt>
      <trkpt lat="43.10537" lon="2.31777">
        <ele>158</ele>
        <time>2021-12-05T13:58:52Z</time>
      </trkpt>
      <trkpt lat="43.10512" lon="2.31778">
        <ele>158</ele>
        <time>2021-12-05T13:58:56Z</time>
      </trkpt>
      <trkpt lat="43.10493" lon="2.31774">
        <ele>159</ele>
        <time>2021-12-05T13:58:59Z</time>
      </trkpt>
      <trkpt lat="43.10465" lon="2.3176">
        <ele>160</ele>
        <time>2021-12-05T13:59:05Z</time>
      </trkpt>
      <trkpt lat="43.10406" lon="2.31714">
        <ele>161</ele>
        <time>2021-12-05T13:59:17Z</time>
      </trkpt>
      <trkpt lat="43.10385" lon="2.31692">
        <ele>161</ele>
        <time>2021-12-05T13:59:22Z</time>
      </trkpt>
      <trkpt lat="43.10283" lon="2.3154">
        <ele>162</ele>
        <time>2021-12-05T13:59:48Z</time>
      </trkpt>
      <trkpt lat="43.10231" lon="2.31458">
        <ele>163</ele>
        <time>2021-12-05T14:00:03Z</time>
      </trkpt>
      <trkpt lat="43.10169" lon="2.3135">
        <ele>161</ele>
        <time>2021-12-05T14:00:20Z</time>
      </trkpt>
      <trkpt lat="43.10045" lon="2.31085">
        <ele>161</ele>
        <time>2021-12-05T14:01:01Z</time>
      </trkpt>
      <trkpt lat="43.10032" lon="2.3106">
        <ele>162</ele>
        <time>2021-12-05T14:01:05Z</time>
      </trkpt>
      <trkpt lat="43.10019" lon="2.31047">
        <ele>162</ele>
        <time>2021-12-05T14:01:08Z</time>
      </trkpt>
      <trkpt lat="43.10002" lon="2.31038">
        <ele>163</ele>
        <time>2021-12-05T14:01:11Z</time>
      </trkpt>
      <trkpt lat="43.09985" lon="2.31035">
        <ele>164</ele>
        <time>2021-12-05T14:01:14Z</time>
      </trkpt>
      <trkpt lat="43.09913" lon="2.31034">
        <ele>167</ele>
        <time>2021-12-05T14:01:27Z</time>
      </trkpt>
      <trkpt lat="43.09891" lon="2.31032">
        <ele>169</ele>
        <time>2021-12-05T14:01:31Z</time>
      </trkpt>
      <trkpt lat="43.09838" lon="2.31021">
        <ele>171</ele>
        <time>2021-12-05T14:01:41Z</time>
      </trkpt>
      <trkpt lat="43.0974" lon="2.3097">
        <ele>170</ele>
        <time>2021-12-05T14:01:59Z</time>
      </trkpt>
      <trkpt lat="43.09693" lon="2.30955">
        <ele>170</ele>
        <time>2021-12-05T14:02:08Z</time>
      </trkpt>
      <trkpt lat="43.09645" lon="2.30955">
        <ele>171</ele>
        <time>2021-12-05T14:02:16Z</time>
      </trkpt>
      <trkpt lat="43.09577" lon="2.30947">
        <ele>167</ele>
        <time>2021-12-05T14:02:29Z</time>
      </trkpt>
      <trkpt lat="43.09518" lon="2.30933">
        <ele>164</ele>
        <time>2021-12-05T14:02:39Z</time>
      </trkpt>
      <trkpt lat="43.09448" lon="2.30917">
        <ele>166</ele>
        <time>2021-12-05T14:02:52Z</time>
      </trkpt>
      <trkpt lat="43.09441" lon="2.30916">
        <ele>166</ele>
        <time>2021-12-05T14:02:53Z</time>
      </trkpt>
      <trkpt lat="43.09422" lon="2.30939">
        <ele>168</ele>
        <time>2021-12-05T14:02:58Z</time>
      </trkpt>
      <trkpt lat="43.09418" lon="2.30952">
        <ele>168</ele>
        <time>2021-12-05T14:02:59Z</time>
      </trkpt>
      <trkpt lat="43.09414" lon="2.30962">
        <ele>168</ele>
        <time>2021-12-05T14:03:01Z</time>
      </trkpt>
      <trkpt lat="43.09408" lon="2.30989">
        <ele>168</ele>
        <time>2021-12-05T14:03:05Z</time>
      </trkpt>
      <trkpt lat="43.09406" lon="2.31001">
        <ele>168</ele>
        <time>2021-12-05T14:03:06Z</time>
      </trkpt>
      <trkpt lat="43.09388" lon="2.31041">
        <ele>167</ele>
        <time>2021-12-05T14:03:12Z</time>
      </trkpt>
      <trkpt lat="43.09376" lon="2.31051">
        <ele>167</ele>
        <time>2021-12-05T14:03:15Z</time>
      </trkpt>
      <trkpt lat="43.09368" lon="2.31058">
        <ele>167</ele>
        <time>2021-12-05T14:03:17Z</time>
      </trkpt>
      <trkpt lat="43.09327" lon="2.31068">
        <ele>167</ele>
        <time>2021-12-05T14:03:24Z</time>
      </trkpt>
      <trkpt lat="43.09323" lon="2.31069">
        <ele>167</ele>
        <time>2021-12-05T14:03:25Z</time>
      </trkpt>
      <trkpt lat="43.09297" lon="2.31074">
        <ele>167</ele>
        <time>2021-12-05T14:03:29Z</time>
      </trkpt>
      <trkpt lat="43.09294" lon="2.31075">
        <ele>167</ele>
        <time>2021-12-05T14:03:30Z</time>
      </trkpt>
      <trkpt lat="43.09286" lon="2.31078">
        <ele>167</ele>
        <time>2021-12-05T14:03:31Z</time>
      </trkpt>
      <trkpt lat="43.0928" lon="2.3108">
        <ele>167</ele>
        <time>2021-12-05T14:03:32Z</time>
      </trkpt>
      <trkpt lat="43.09261" lon="2.31101">
        <ele>166</ele>
        <time>2021-12-05T14:03:37Z</time>
      </trkpt>
      <trkpt lat="43.09257" lon="2.31106">
        <ele>166</ele>
        <time>2021-12-05T14:03:38Z</time>
      </trkpt>
      <trkpt lat="43.09229" lon="2.31134">
        <ele>166</ele>
        <time>2021-12-05T14:03:44Z</time>
      </trkpt>
      <trkpt lat="43.09217" lon="2.3114">
        <ele>166</ele>
        <time>2021-12-05T14:03:46Z</time>
      </trkpt>
      <trkpt lat="43.09203" lon="2.31148">
        <ele>166</ele>
        <time>2021-12-05T14:03:49Z</time>
      </trkpt>
      <trkpt lat="43.09193" lon="2.31153">
        <ele>166</ele>
        <time>2021-12-05T14:03:51Z</time>
      </trkpt>
      <trkpt lat="43.0918" lon="2.3116">
        <ele>166</ele>
        <time>2021-12-05T14:03:53Z</time>
      </trkpt>
      <trkpt lat="43.09162" lon="2.31169">
        <ele>166</ele>
        <time>2021-12-05T14:03:57Z</time>
      </trkpt>
      <trkpt lat="43.09125" lon="2.3118">
        <ele>166</ele>
        <time>2021-12-05T14:04:03Z</time>
      </trkpt>
      <trkpt lat="43.09097" lon="2.31202">
        <ele>167</ele>
        <time>2021-12-05T14:04:09Z</time>
      </trkpt>
      <trkpt lat="43.09055" lon="2.31224">
        <ele>168</ele>
        <time>2021-12-05T14:04:17Z</time>
      </trkpt>
      <trkpt lat="43.09044" lon="2.31232">
        <ele>168</ele>
        <time>2021-12-05T14:04:19Z</time>
      </trkpt>
      <trkpt lat="43.0902" lon="2.31248">
        <ele>169</ele>
        <time>2021-12-05T14:04:24Z</time>
      </trkpt>
      <trkpt lat="43.08976" lon="2.3127">
        <ele>170</ele>
        <time>2021-12-05T14:04:32Z</time>
      </trkpt>
      <trkpt lat="43.08945" lon="2.31286">
        <ele>171</ele>
        <time>2021-12-05T14:04:38Z</time>
      </trkpt>
      <trkpt lat="43.08858" lon="2.31325">
        <ele>171</ele>
        <time>2021-12-05T14:04:55Z</time>
      </trkpt>
      <trkpt lat="43.08853" lon="2.31328">
        <ele>170</ele>
        <time>2021-12-05T14:04:56Z</time>
      </trkpt>
      <trkpt lat="43.08838" lon="2.31337">
        <ele>170</ele>
        <time>2021-12-05T14:04:59Z</time>
      </trkpt>
      <trkpt lat="43.08814" lon="2.31363">
        <ele>170</ele>
        <time>2021-12-05T14:05:04Z</time>
      </trkpt>
      <trkpt lat="43.08785" lon="2.31406">
        <ele>169</ele>
        <time>2021-12-05T14:05:12Z</time>
      </trkpt>
      <trkpt lat="43.08764" lon="2.31426">
        <ele>169</ele>
        <time>2021-12-05T14:05:16Z</time>
      </trkpt>
      <trkpt lat="43.08637" lon="2.31516">
        <ele>173</ele>
        <time>2021-12-05T14:05:42Z</time>
      </trkpt>
      <trkpt lat="43.08576" lon="2.31558">
        <ele>176</ele>
        <time>2021-12-05T14:05:54Z</time>
      </trkpt>
      <trkpt lat="43.08551" lon="2.31586">
        <ele>177</ele>
        <time>2021-12-05T14:05:59Z</time>
      </trkpt>
      <trkpt lat="43.08536" lon="2.31611">
        <ele>177</ele>
        <time>2021-12-05T14:06:04Z</time>
      </trkpt>
      <trkpt lat="43.08525" lon="2.31644">
        <ele>175</ele>
        <time>2021-12-05T14:06:08Z</time>
      </trkpt>
      <trkpt lat="43.08519" lon="2.31678">
        <ele>175</ele>
        <time>2021-12-05T14:06:13Z</time>
      </trkpt>
      <trkpt lat="43.08508" lon="2.3178">
        <ele>176</ele>
        <time>2021-12-05T14:06:26Z</time>
      </trkpt>
      <trkpt lat="43.08501" lon="2.31802">
        <ele>176</ele>
        <time>2021-12-05T14:06:29Z</time>
      </trkpt>
      <trkpt lat="43.08492" lon="2.31816">
        <ele>176</ele>
        <time>2021-12-05T14:06:32Z</time>
      </trkpt>
      <trkpt lat="43.08481" lon="2.3183">
        <ele>176</ele>
        <time>2021-12-05T14:06:35Z</time>
      </trkpt>
      <trkpt lat="43.08469" lon="2.3184">
        <ele>177</ele>
        <time>2021-12-05T14:06:37Z</time>
      </trkpt>
      <trkpt lat="43.08454" lon="2.3185">
        <ele>177</ele>
        <time>2021-12-05T14:06:40Z</time>
      </trkpt>
      <trkpt lat="43.08423" lon="2.31864">
        <ele>178</ele>
        <time>2021-12-05T14:06:46Z</time>
      </trkpt>
      <trkpt lat="43.08308" lon="2.31914">
        <ele>178</ele>
        <time>2021-12-05T14:07:07Z</time>
      </trkpt>
      <trkpt lat="43.08285" lon="2.31918">
        <ele>179</ele>
        <time>2021-12-05T14:07:11Z</time>
      </trkpt>
      <trkpt lat="43.08263" lon="2.31916">
        <ele>180</ele>
        <time>2021-12-05T14:07:15Z</time>
      </trkpt>
      <trkpt lat="43.08242" lon="2.31911">
        <ele>180</ele>
        <time>2021-12-05T14:07:19Z</time>
      </trkpt>
      <trkpt lat="43.08217" lon="2.31901">
        <ele>179</ele>
        <time>2021-12-05T14:07:24Z</time>
      </trkpt>
      <trkpt lat="43.08154" lon="2.31871">
        <ele>178</ele>
        <time>2021-12-05T14:07:36Z</time>
      </trkpt>
      <trkpt lat="43.08075" lon="2.31837">
        <ele>177</ele>
        <time>2021-12-05T14:07:50Z</time>
      </trkpt>
      <trkpt lat="43.08025" lon="2.31809">
        <ele>179</ele>
        <time>2021-12-05T14:08:00Z</time>
      </trkpt>
      <trkpt lat="43.08001" lon="2.3179">
        <ele>180</ele>
        <time>2021-12-05T14:08:05Z</time>
      </trkpt>
      <trkpt lat="43.07981" lon="2.31758">
        <ele>181</ele>
        <time>2021-12-05T14:08:10Z</time>
      </trkpt>
      <trkpt lat="43.07723" lon="2.31248">
        <ele>186</ele>
        <time>2021-12-05T14:09:31Z</time>
      </trkpt>
      <trkpt lat="43.07678" lon="2.3119">
        <ele>188</ele>
        <time>2021-12-05T14:09:42Z</time>
      </trkpt>
      <trkpt lat="43.0764" lon="2.31143">
        <ele>189</ele>
        <time>2021-12-05T14:09:51Z</time>
      </trkpt>
      <trkpt lat="43.07623" lon="2.31128">
        <ele>189</ele>
        <time>2021-12-05T14:09:55Z</time>
      </trkpt>
      <trkpt lat="43.07601" lon="2.31115">
        <ele>190</ele>
        <time>2021-12-05T14:09:59Z</time>
      </trkpt>
      <trkpt lat="43.07579" lon="2.31109">
        <ele>191</ele>
        <time>2021-12-05T14:10:03Z</time>
      </trkpt>
      <trkpt lat="43.07418" lon="2.31112">
        <ele>194</ele>
        <time>2021-12-05T14:10:32Z</time>
      </trkpt>
      <trkpt lat="43.0738" lon="2.31108">
        <ele>194</ele>
        <time>2021-12-05T14:10:38Z</time>
      </trkpt>
      <trkpt lat="43.0735" lon="2.311">
        <ele>194</ele>
        <time>2021-12-05T14:10:44Z</time>
      </trkpt>
      <trkpt lat="43.07317" lon="2.31088">
        <ele>194</ele>
        <time>2021-12-05T14:10:50Z</time>
      </trkpt>
      <trkpt lat="43.07268" lon="2.31057">
        <ele>193</ele>
        <time>2021-12-05T14:11:00Z</time>
      </trkpt>
      <trkpt lat="43.07238" lon="2.31035">
        <ele>193</ele>
        <time>2021-12-05T14:11:06Z</time>
      </trkpt>
      <trkpt lat="43.07222" lon="2.31017">
        <ele>194</ele>
        <time>2021-12-05T14:11:09Z</time>
      </trkpt>
      <trkpt lat="43.07202" lon="2.30997">
        <ele>195</ele>
        <time>2021-12-05T14:11:14Z</time>
      </trkpt>
      <trkpt lat="43.07196" lon="2.30992">
        <ele>195</ele>
        <time>2021-12-05T14:11:15Z</time>
      </trkpt>
      <trkpt lat="43.0718" lon="2.30988">
        <ele>196</ele>
        <time>2021-12-05T14:11:18Z</time>
      </trkpt>
      <trkpt lat="43.07171" lon="2.3099">
        <ele>196</ele>
        <time>2021-12-05T14:11:19Z</time>
      </trkpt>
      <trkpt lat="43.07115" lon="2.31021">
        <ele>198</ele>
        <time>2021-12-05T14:11:30Z</time>
      </trkpt>
      <trkpt lat="43.07092" lon="2.31037">
        <ele>198</ele>
        <time>2021-12-05T14:11:35Z</time>
      </trkpt>
      <trkpt lat="43.07044" lon="2.31082">
        <ele>196</ele>
        <time>2021-12-05T14:11:45Z</time>
      </trkpt>
      <trkpt lat="43.07021" lon="2.31095">
        <ele>197</ele>
        <time>2021-12-05T14:11:50Z</time>
      </trkpt>
      <trkpt lat="43.06981" lon="2.31103">
        <ele>198</ele>
        <time>2021-12-05T14:11:57Z</time>
      </trkpt>
      <trkpt lat="43.06978" lon="2.31103">
        <ele>198</ele>
        <time>2021-12-05T14:11:57Z</time>
      </trkpt>
      <trkpt lat="43.06924" lon="2.31104">
        <ele>200</ele>
        <time>2021-12-05T14:12:07Z</time>
      </trkpt>
      <trkpt lat="43.06883" lon="2.31102">
        <ele>200</ele>
        <time>2021-12-05T14:12:14Z</time>
      </trkpt>
      <trkpt lat="43.0686" lon="2.31093">
        <ele>201</ele>
        <time>2021-12-05T14:12:18Z</time>
      </trkpt>
      <trkpt lat="43.06841" lon="2.31078">
        <ele>201</ele>
        <time>2021-12-05T14:12:22Z</time>
      </trkpt>
      <trkpt lat="43.06636" lon="2.30872">
        <ele>212</ele>
        <time>2021-12-05T14:13:08Z</time>
      </trkpt>
      <trkpt lat="43.06613" lon="2.3085">
        <ele>211</ele>
        <time>2021-12-05T14:13:13Z</time>
      </trkpt>
      <trkpt lat="43.06604" lon="2.3084">
        <ele>211</ele>
        <time>2021-12-05T14:13:15Z</time>
      </trkpt>
      <trkpt lat="43.06568" lon="2.30814">
        <ele>210</ele>
        <time>2021-12-05T14:13:22Z</time>
      </trkpt>
      <trkpt lat="43.0655" lon="2.30807">
        <ele>210</ele>
        <time>2021-12-05T14:13:25Z</time>
      </trkpt>
      <trkpt lat="43.06533" lon="2.30803">
        <ele>211</ele>
        <time>2021-12-05T14:13:28Z</time>
      </trkpt>
      <trkpt lat="43.06514" lon="2.30802">
        <ele>212</ele>
        <time>2021-12-05T14:13:32Z</time>
      </trkpt>
      <trkpt lat="43.06474" lon="2.30805">
        <ele>214</ele>
        <time>2021-12-05T14:13:39Z</time>
      </trkpt>
      <trkpt lat="43.06426" lon="2.30805">
        <ele>216</ele>
        <time>2021-12-05T14:13:47Z</time>
      </trkpt>
      <trkpt lat="43.06388" lon="2.30793">
        <ele>218</ele>
        <time>2021-12-05T14:13:54Z</time>
      </trkpt>
      <trkpt lat="43.06273" lon="2.30695">
        <ele>222</ele>
        <time>2021-12-05T14:14:18Z</time>
      </trkpt>
      <trkpt lat="43.06239" lon="2.30664">
        <ele>222</ele>
        <time>2021-12-05T14:14:26Z</time>
      </trkpt>
      <trkpt lat="43.06216" lon="2.30649">
        <ele>224</ele>
        <time>2021-12-05T14:14:30Z</time>
      </trkpt>
      <trkpt lat="43.06177" lon="2.30634">
        <ele>226</ele>
        <time>2021-12-05T14:14:37Z</time>
      </trkpt>
      <trkpt lat="43.06146" lon="2.30623">
        <ele>226</ele>
        <time>2021-12-05T14:14:43Z</time>
      </trkpt>
      <trkpt lat="43.06092" lon="2.3061">
        <ele>225</ele>
        <time>2021-12-05T14:14:53Z</time>
      </trkpt>
      <trkpt lat="43.06068" lon="2.30601">
        <ele>224</ele>
        <time>2021-12-05T14:14:57Z</time>
      </trkpt>
      <trkpt lat="43.06053" lon="2.30593">
        <ele>223</ele>
        <time>2021-12-05T14:15:00Z</time>
      </trkpt>
      <trkpt lat="43.06039" lon="2.30582">
        <ele>223</ele>
        <time>2021-12-05T14:15:03Z</time>
      </trkpt>
      <trkpt lat="43.06026" lon="2.30565">
        <ele>223</ele>
        <time>2021-12-05T14:15:06Z</time>
      </trkpt>
      <trkpt lat="43.06012" lon="2.30539">
        <ele>224</ele>
        <time>2021-12-05T14:15:10Z</time>
      </trkpt>
      <trkpt lat="43.06003" lon="2.30515">
        <ele>224</ele>
        <time>2021-12-05T14:15:14Z</time>
      </trkpt>
      <trkpt lat="43.05998" lon="2.30486">
        <ele>225</ele>
        <time>2021-12-05T14:15:18Z</time>
      </trkpt>
      <trkpt lat="43.05995" lon="2.30432">
        <ele>226</ele>
        <time>2021-12-05T14:15:25Z</time>
      </trkpt>
      <trkpt lat="43.05996" lon="2.30386">
        <ele>226</ele>
        <time>2021-12-05T14:15:31Z</time>
      </trkpt>
      <trkpt lat="43.05993" lon="2.30363">
        <ele>227</ele>
        <time>2021-12-05T14:15:34Z</time>
      </trkpt>
      <trkpt lat="43.05983" lon="2.30327">
        <ele>227</ele>
        <time>2021-12-05T14:15:39Z</time>
      </trkpt>
      <trkpt lat="43.05969" lon="2.303">
        <ele>228</ele>
        <time>2021-12-05T14:15:43Z</time>
      </trkpt>
      <trkpt lat="43.05862" lon="2.30186">
        <ele>235</ele>
        <time>2021-12-05T14:16:07Z</time>
      </trkpt>
      <trkpt lat="43.05837" lon="2.30154">
        <ele>234</ele>
        <time>2021-12-05T14:16:13Z</time>
      </trkpt>
      <trkpt lat="43.05802" lon="2.30088">
        <ele>237</ele>
        <time>2021-12-05T14:16:24Z</time>
      </trkpt>
      <trkpt lat="43.05786" lon="2.30043">
        <ele>237</ele>
        <time>2021-12-05T14:16:30Z</time>
      </trkpt>
      <trkpt lat="43.05758" lon="2.29943">
        <ele>237</ele>
        <time>2021-12-05T14:16:44Z</time>
      </trkpt>
      <trkpt lat="43.05731" lon="2.29802">
        <ele>240</ele>
        <time>2021-12-05T14:17:03Z</time>
      </trkpt>
      <trkpt lat="43.0572" lon="2.29755">
        <ele>239</ele>
        <time>2021-12-05T14:17:10Z</time>
      </trkpt>
      <trkpt lat="43.0571" lon="2.29722">
        <ele>238</ele>
        <time>2021-12-05T14:17:14Z</time>
      </trkpt>
      <trkpt lat="43.05707" lon="2.29718">
        <ele>238</ele>
        <time>2021-12-05T14:17:15Z</time>
      </trkpt>
      <trkpt lat="43.05694" lon="2.29696">
        <ele>238</ele>
        <time>2021-12-05T14:17:19Z</time>
      </trkpt>
      <trkpt lat="43.05668" lon="2.29643">
        <ele>239</ele>
        <time>2021-12-05T14:17:27Z</time>
      </trkpt>
      <trkpt lat="43.05644" lon="2.29546">
        <ele>242</ele>
        <time>2021-12-05T14:17:40Z</time>
      </trkpt>
      <trkpt lat="43.05635" lon="2.29526">
        <ele>242</ele>
        <time>2021-12-05T14:17:44Z</time>
      </trkpt>
      <trkpt lat="43.05619" lon="2.29512">
        <ele>242</ele>
        <time>2021-12-05T14:17:47Z</time>
      </trkpt>
      <trkpt lat="43.05593" lon="2.29497">
        <ele>243</ele>
        <time>2021-12-05T14:17:52Z</time>
      </trkpt>
      <trkpt lat="43.05581" lon="2.29501">
        <ele>243</ele>
        <time>2021-12-05T14:17:54Z</time>
      </trkpt>
      <trkpt lat="43.05545" lon="2.29538">
        <ele>246</ele>
        <time>2021-12-05T14:18:02Z</time>
      </trkpt>
      <trkpt lat="43.05497" lon="2.29588">
        <ele>249</ele>
        <time>2021-12-05T14:18:13Z</time>
      </trkpt>
      <trkpt lat="43.0542" lon="2.29677">
        <ele>257</ele>
        <time>2021-12-05T14:18:31Z</time>
      </trkpt>
      <trkpt lat="43.05409" lon="2.2969">
        <ele>257</ele>
        <time>2021-12-05T14:18:33Z</time>
      </trkpt>
      <trkpt lat="43.05398" lon="2.29709">
        <ele>258</ele>
        <time>2021-12-05T14:18:37Z</time>
      </trkpt>
      <trkpt lat="43.05394" lon="2.29723">
        <ele>259</ele>
        <time>2021-12-05T14:18:38Z</time>
      </trkpt>
      <trkpt lat="43.05392" lon="2.29726">
        <ele>259</ele>
        <time>2021-12-05T14:18:39Z</time>
      </trkpt>
      <trkpt lat="43.0539" lon="2.29731">
        <ele>259</ele>
        <time>2021-12-05T14:18:40Z</time>
      </trkpt>
      <trkpt lat="43.05379" lon="2.29743">
        <ele>259</ele>
        <time>2021-12-05T14:18:42Z</time>
      </trkpt>
      <trkpt lat="43.05377" lon="2.29744">
        <ele>259</ele>
        <time>2021-12-05T14:18:43Z</time>
      </trkpt>
      <trkpt lat="43.05375" lon="2.29747">
        <ele>259</ele>
        <time>2021-12-05T14:18:43Z</time>
      </trkpt>
      <trkpt lat="43.05354" lon="2.29767">
        <ele>259</ele>
        <time>2021-12-05T14:18:48Z</time>
      </trkpt>
      <trkpt lat="43.05343" lon="2.29776">
        <ele>259</ele>
        <time>2021-12-05T14:18:50Z</time>
      </trkpt>
      <trkpt lat="43.05307" lon="2.29798">
        <ele>260</ele>
        <time>2021-12-05T14:18:57Z</time>
      </trkpt>
      <trkpt lat="43.05292" lon="2.29805">
        <ele>261</ele>
        <time>2021-12-05T14:19:00Z</time>
      </trkpt>
      <trkpt lat="43.05284" lon="2.29803">
        <ele>261</ele>
        <time>2021-12-05T14:19:01Z</time>
      </trkpt>
      <trkpt lat="43.05276" lon="2.29798">
        <ele>262</ele>
        <time>2021-12-05T14:19:03Z</time>
      </trkpt>
      <trkpt lat="43.0526" lon="2.29774">
        <ele>262</ele>
        <time>2021-12-05T14:19:07Z</time>
      </trkpt>
      <trkpt lat="43.05256" lon="2.29767">
        <ele>263</ele>
        <time>2021-12-05T14:19:08Z</time>
      </trkpt>
      <trkpt lat="43.05249" lon="2.29758">
        <ele>263</ele>
        <time>2021-12-05T14:19:10Z</time>
      </trkpt>
      <trkpt lat="43.05209" lon="2.29703">
        <ele>268</ele>
        <time>2021-12-05T14:19:20Z</time>
      </trkpt>
      <trkpt lat="43.05202" lon="2.29689">
        <ele>269</ele>
        <time>2021-12-05T14:19:22Z</time>
      </trkpt>
      <trkpt lat="43.05198" lon="2.29675">
        <ele>270</ele>
        <time>2021-12-05T14:19:24Z</time>
      </trkpt>
      <trkpt lat="43.05199" lon="2.29658">
        <ele>271</ele>
        <time>2021-12-05T14:19:26Z</time>
      </trkpt>
      <trkpt lat="43.05223" lon="2.2956">
        <ele>272</ele>
        <time>2021-12-05T14:19:40Z</time>
      </trkpt>
      <trkpt lat="43.05224" lon="2.29547">
        <ele>272</ele>
        <time>2021-12-05T14:19:42Z</time>
      </trkpt>
      <trkpt lat="43.05223" lon="2.29537">
        <ele>272</ele>
        <time>2021-12-05T14:19:43Z</time>
      </trkpt>
      <trkpt lat="43.05214" lon="2.29523">
        <ele>274</ele>
        <time>2021-12-05T14:19:45Z</time>
      </trkpt>
      <trkpt lat="43.05202" lon="2.29514">
        <ele>276</ele>
        <time>2021-12-05T14:19:48Z</time>
      </trkpt>
      <trkpt lat="43.05075" lon="2.29432">
        <ele>285</ele>
        <time>2021-12-05T14:20:13Z</time>
      </trkpt>
      <trkpt lat="43.05058" lon="2.29415">
        <ele>285</ele>
        <time>2021-12-05T14:20:16Z</time>
      </trkpt>
      <trkpt lat="43.05056" lon="2.29413">
        <ele>285</ele>
        <time>2021-12-05T14:20:17Z</time>
      </trkpt>
      <trkpt lat="43.05041" lon="2.29394">
        <ele>286</ele>
        <time>2021-12-05T14:20:21Z</time>
      </trkpt>
      <trkpt lat="43.05027" lon="2.29374">
        <ele>287</ele>
        <time>2021-12-05T14:20:24Z</time>
      </trkpt>
      <trkpt lat="43.05021" lon="2.29368">
        <ele>288</ele>
        <time>2021-12-05T14:20:25Z</time>
      </trkpt>
      <trkpt lat="43.05013" lon="2.29361">
        <ele>288</ele>
        <time>2021-12-05T14:20:27Z</time>
      </trkpt>
      <trkpt lat="43.05004" lon="2.29356">
        <ele>289</ele>
        <time>2021-12-05T14:20:29Z</time>
      </trkpt>
      <trkpt lat="43.04977" lon="2.29344">
        <ele>288</ele>
        <time>2021-12-05T14:20:34Z</time>
      </trkpt>
      <trkpt lat="43.04966" lon="2.29342">
        <ele>287</ele>
        <time>2021-12-05T14:20:36Z</time>
      </trkpt>
      <trkpt lat="43.04956" lon="2.29349">
        <ele>287</ele>
        <time>2021-12-05T14:20:38Z</time>
      </trkpt>
      <trkpt lat="43.04941" lon="2.2938">
        <ele>287</ele>
        <time>2021-12-05T14:20:43Z</time>
      </trkpt>
      <trkpt lat="43.04934" lon="2.29404">
        <ele>287</ele>
        <time>2021-12-05T14:20:46Z</time>
      </trkpt>
      <trkpt lat="43.04921" lon="2.29433">
        <ele>286</ele>
        <time>2021-12-05T14:20:50Z</time>
      </trkpt>
      <trkpt lat="43.04915" lon="2.29441">
        <ele>286</ele>
        <time>2021-12-05T14:20:52Z</time>
      </trkpt>
      <trkpt lat="43.04909" lon="2.29443">
        <ele>286</ele>
        <time>2021-12-05T14:20:53Z</time>
      </trkpt>
      <trkpt lat="43.04902" lon="2.29439">
        <ele>286</ele>
        <time>2021-12-05T14:20:54Z</time>
      </trkpt>
      <trkpt lat="43.04895" lon="2.29428">
        <ele>286</ele>
        <time>2021-12-05T14:20:56Z</time>
      </trkpt>
      <trkpt lat="43.04869" lon="2.29379">
        <ele>284</ele>
        <time>2021-12-05T14:21:04Z</time>
      </trkpt>
      <trkpt lat="43.04852" lon="2.29342">
        <ele>281</ele>
        <time>2021-12-05T14:21:10Z</time>
      </trkpt>
      <trkpt lat="43.04834" lon="2.29311">
        <ele>279</ele>
        <time>2021-12-05T14:21:15Z</time>
      </trkpt>
      <trkpt lat="43.04826" lon="2.29301">
        <ele>279</ele>
        <time>2021-12-05T14:21:17Z</time>
      </trkpt>
      <trkpt lat="43.04815" lon="2.29296">
        <ele>278</ele>
        <time>2021-12-05T14:21:19Z</time>
      </trkpt>
      <trkpt lat="43.04812" lon="2.29295">
        <ele>278</ele>
        <time>2021-12-05T14:21:20Z</time>
      </trkpt>
      <trkpt lat="43.04794" lon="2.29302">
        <ele>277</ele>
        <time>2021-12-05T14:21:23Z</time>
      </trkpt>
      <trkpt lat="43.04783" lon="2.2932">
        <ele>276</ele>
        <time>2021-12-05T14:21:26Z</time>
      </trkpt>
      <trkpt lat="43.04778" lon="2.29336">
        <ele>276</ele>
        <time>2021-12-05T14:21:28Z</time>
      </trkpt>
      <trkpt lat="43.04772" lon="2.29344">
        <ele>276</ele>
        <time>2021-12-05T14:21:30Z</time>
      </trkpt>
      <trkpt lat="43.04767" lon="2.29349">
        <ele>276</ele>
        <time>2021-12-05T14:21:31Z</time>
      </trkpt>
      <trkpt lat="43.04756" lon="2.29353">
        <ele>275</ele>
        <time>2021-12-05T14:21:33Z</time>
      </trkpt>
      <trkpt lat="43.04625" lon="2.29363">
        <ele>268</ele>
        <time>2021-12-05T14:21:56Z</time>
      </trkpt>
      <trkpt lat="43.04613" lon="2.29361">
        <ele>266</ele>
        <time>2021-12-05T14:21:58Z</time>
      </trkpt>
      <trkpt lat="43.04605" lon="2.29356">
        <ele>265</ele>
        <time>2021-12-05T14:22:00Z</time>
      </trkpt>
      <trkpt lat="43.04596" lon="2.2935">
        <ele>264</ele>
        <time>2021-12-05T14:22:02Z</time>
      </trkpt>
      <trkpt lat="43.04457" lon="2.29159">
        <ele>259</ele>
        <time>2021-12-05T14:22:37Z</time>
      </trkpt>
      <trkpt lat="43.04449" lon="2.29151">
        <ele>259</ele>
        <time>2021-12-05T14:22:38Z</time>
      </trkpt>
      <trkpt lat="43.0444" lon="2.29146">
        <ele>259</ele>
        <time>2021-12-05T14:22:40Z</time>
      </trkpt>
      <trkpt lat="43.04382" lon="2.29132">
        <ele>255</ele>
        <time>2021-12-05T14:22:51Z</time>
      </trkpt>
      <trkpt lat="43.04314" lon="2.29107">
        <ele>250</ele>
        <time>2021-12-05T14:23:03Z</time>
      </trkpt>
      <trkpt lat="43.0427" lon="2.29097">
        <ele>245</ele>
        <time>2021-12-05T14:23:11Z</time>
      </trkpt>
      <trkpt lat="43.0415" lon="2.29095">
        <ele>231</ele>
        <time>2021-12-05T14:23:33Z</time>
      </trkpt>
      <trkpt lat="43.04141" lon="2.29089">
        <ele>231</ele>
        <time>2021-12-05T14:23:34Z</time>
      </trkpt>
      <trkpt lat="43.04143" lon="2.29044">
        <ele>231</ele>
        <time>2021-12-05T14:23:40Z</time>
      </trkpt>
      <trkpt lat="43.04134" lon="2.28966">
        <ele>232</ele>
        <time>2021-12-05T14:23:50Z</time>
      </trkpt>
      <trkpt lat="43.04134" lon="2.28965">
        <ele>232</ele>
        <time>2021-12-05T14:23:51Z</time>
      </trkpt>
      <trkpt lat="43.04133" lon="2.28942">
        <ele>232</ele>
        <time>2021-12-05T14:23:54Z</time>
      </trkpt>
      <trkpt lat="43.0413" lon="2.28903">
        <ele>232</ele>
        <time>2021-12-05T14:23:59Z</time>
      </trkpt>
      <trkpt lat="43.04126" lon="2.28878">
        <ele>232</ele>
        <time>2021-12-05T14:24:02Z</time>
      </trkpt>
      <trkpt lat="43.04122" lon="2.28848">
        <ele>233</ele>
        <time>2021-12-05T14:24:06Z</time>
      </trkpt>
      <trkpt lat="43.04122" lon="2.28843">
        <ele>233</ele>
        <time>2021-12-05T14:24:07Z</time>
      </trkpt>
      <trkpt lat="43.04115" lon="2.28795">
        <ele>233</ele>
        <time>2021-12-05T14:24:13Z</time>
      </trkpt>
      <trkpt lat="43.04088" lon="2.2856">
        <ele>228</ele>
        <time>2021-12-05T14:24:44Z</time>
      </trkpt>
      <trkpt lat="43.04082" lon="2.28531">
        <ele>228</ele>
        <time>2021-12-05T14:24:48Z</time>
      </trkpt>
      <trkpt lat="43.04075" lon="2.28508">
        <ele>229</ele>
        <time>2021-12-05T14:24:51Z</time>
      </trkpt>
      <trkpt lat="43.04067" lon="2.28492">
        <ele>229</ele>
        <time>2021-12-05T14:24:54Z</time>
      </trkpt>
      <trkpt lat="43.04057" lon="2.28475">
        <ele>229</ele>
        <time>2021-12-05T14:24:56Z</time>
      </trkpt>
      <trkpt lat="43.0399" lon="2.28385">
        <ele>227</ele>
        <time>2021-12-05T14:25:13Z</time>
      </trkpt>
      <trkpt lat="43.03987" lon="2.28381">
        <ele>227</ele>
        <time>2021-12-05T14:25:14Z</time>
      </trkpt>
      <trkpt lat="43.0397" lon="2.28353">
        <ele>227</ele>
        <time>2021-12-05T14:25:19Z</time>
      </trkpt>
      <trkpt lat="43.03964" lon="2.28336">
        <ele>227</ele>
        <time>2021-12-05T14:25:21Z</time>
      </trkpt>
      <trkpt lat="43.03961" lon="2.28315">
        <ele>227</ele>
        <time>2021-12-05T14:25:24Z</time>
      </trkpt>
      <trkpt lat="43.0396" lon="2.28276">
        <ele>228</ele>
        <time>2021-12-05T14:25:29Z</time>
      </trkpt>
      <trkpt lat="43.03984" lon="2.28043">
        <ele>224</ele>
        <time>2021-12-05T14:26:00Z</time>
      </trkpt>
      <trkpt lat="43.03983" lon="2.28022">
        <ele>224</ele>
        <time>2021-12-05T14:26:02Z</time>
      </trkpt>
      <trkpt lat="43.03979" lon="2.28004">
        <ele>223</ele>
        <time>2021-12-05T14:26:05Z</time>
      </trkpt>
      <trkpt lat="43.03972" lon="2.27987">
        <ele>223</ele>
        <time>2021-12-05T14:26:07Z</time>
      </trkpt>
      <trkpt lat="43.03965" lon="2.27973">
        <ele>222</ele>
        <time>2021-12-05T14:26:09Z</time>
      </trkpt>
      <trkpt lat="43.03853" lon="2.27823">
        <ele>216</ele>
        <time>2021-12-05T14:26:37Z</time>
      </trkpt>
      <trkpt lat="43.03829" lon="2.27792">
        <ele>214</ele>
        <time>2021-12-05T14:26:43Z</time>
      </trkpt>
      <trkpt lat="43.03784" lon="2.27728">
        <ele>214</ele>
        <time>2021-12-05T14:26:55Z</time>
      </trkpt>
      <trkpt lat="43.0378" lon="2.27722">
        <ele>214</ele>
        <time>2021-12-05T14:26:56Z</time>
      </trkpt>
      <trkpt lat="43.03764" lon="2.27696">
        <ele>214</ele>
        <time>2021-12-05T14:27:00Z</time>
      </trkpt>
      <trkpt lat="43.03756" lon="2.27676">
        <ele>215</ele>
        <time>2021-12-05T14:27:03Z</time>
      </trkpt>
      <trkpt lat="43.03751" lon="2.27656">
        <ele>216</ele>
        <time>2021-12-05T14:27:06Z</time>
      </trkpt>
      <trkpt lat="43.03745" lon="2.27603">
        <ele>217</ele>
        <time>2021-12-05T14:27:13Z</time>
      </trkpt>
      <trkpt lat="43.03738" lon="2.27518">
        <ele>218</ele>
        <time>2021-12-05T14:27:24Z</time>
      </trkpt>
      <trkpt lat="43.03735" lon="2.27433">
        <ele>218</ele>
        <time>2021-12-05T14:27:35Z</time>
      </trkpt>
      <trkpt lat="43.03736" lon="2.27395">
        <ele>217</ele>
        <time>2021-12-05T14:27:40Z</time>
      </trkpt>
      <trkpt lat="43.03736" lon="2.27345">
        <ele>215</ele>
        <time>2021-12-05T14:27:47Z</time>
      </trkpt>
      <trkpt lat="43.03747" lon="2.27015">
        <ele>208</ele>
        <time>2021-12-05T14:28:30Z</time>
      </trkpt>
      <trkpt lat="43.03751" lon="2.26952">
        <ele>206</ele>
        <time>2021-12-05T14:28:38Z</time>
      </trkpt>
      <trkpt lat="43.03754" lon="2.26904">
        <ele>205</ele>
        <time>2021-12-05T14:28:44Z</time>
      </trkpt>
      <trkpt lat="43.03754" lon="2.26862">
        <ele>206</ele>
        <time>2021-12-05T14:28:49Z</time>
      </trkpt>
      <trkpt lat="43.03751" lon="2.26815">
        <ele>208</ele>
        <time>2021-12-05T14:28:56Z</time>
      </trkpt>
      <trkpt lat="43.03748" lon="2.26779">
        <ele>209</ele>
        <time>2021-12-05T14:29:00Z</time>
      </trkpt>
      <trkpt lat="43.03726" lon="2.26578">
        <ele>209</ele>
        <time>2021-12-05T14:29:27Z</time>
      </trkpt>
      <trkpt lat="43.03726" lon="2.26558">
        <ele>208</ele>
        <time>2021-12-05T14:29:29Z</time>
      </trkpt>
      <trkpt lat="43.03727" lon="2.26544">
        <ele>208</ele>
        <time>2021-12-05T14:29:31Z</time>
      </trkpt>
      <trkpt lat="43.03734" lon="2.26491">
        <ele>207</ele>
        <time>2021-12-05T14:29:38Z</time>
      </trkpt>
      <trkpt lat="43.03742" lon="2.26453">
        <ele>205</ele>
        <time>2021-12-05T14:29:43Z</time>
      </trkpt>
      <trkpt lat="43.03754" lon="2.26415">
        <ele>203</ele>
        <time>2021-12-05T14:29:49Z</time>
      </trkpt>
      <trkpt lat="43.03764" lon="2.26365">
        <ele>202</ele>
        <time>2021-12-05T14:29:55Z</time>
      </trkpt>
      <trkpt lat="43.03776" lon="2.26325">
        <ele>201</ele>
        <time>2021-12-05T14:30:01Z</time>
      </trkpt>
      <trkpt lat="43.03798" lon="2.26278">
        <ele>201</ele>
        <time>2021-12-05T14:30:08Z</time>
      </trkpt>
      <trkpt lat="43.03825" lon="2.26227">
        <ele>203</ele>
        <time>2021-12-05T14:30:17Z</time>
      </trkpt>
      <trkpt lat="43.03842" lon="2.26189">
        <ele>205</ele>
        <time>2021-12-05T14:30:22Z</time>
      </trkpt>
      <trkpt lat="43.03853" lon="2.26087">
        <ele>205</ele>
        <time>2021-12-05T14:30:36Z</time>
      </trkpt>
      <trkpt lat="43.03858" lon="2.26002">
        <ele>203</ele>
        <time>2021-12-05T14:30:47Z</time>
      </trkpt>
      <trkpt lat="43.03878" lon="2.25752">
        <ele>198</ele>
        <time>2021-12-05T14:31:20Z</time>
      </trkpt>
      <trkpt lat="43.03879" lon="2.25726">
        <ele>199</ele>
        <time>2021-12-05T14:31:23Z</time>
      </trkpt>
      <trkpt lat="43.03877" lon="2.25705">
        <ele>198</ele>
        <time>2021-12-05T14:31:26Z</time>
      </trkpt>
      <trkpt lat="43.03874" lon="2.25692">
        <ele>198</ele>
        <time>2021-12-05T14:31:27Z</time>
      </trkpt>
      <trkpt lat="43.03865" lon="2.25669">
        <ele>196</ele>
        <time>2021-12-05T14:31:31Z</time>
      </trkpt>
      <trkpt lat="43.03851" lon="2.25645">
        <ele>194</ele>
        <time>2021-12-05T14:31:35Z</time>
      </trkpt>
      <trkpt lat="43.03846" lon="2.25636">
        <ele>194</ele>
        <time>2021-12-05T14:31:36Z</time>
      </trkpt>
      <trkpt lat="43.03836" lon="2.25616">
        <ele>193</ele>
        <time>2021-12-05T14:31:39Z</time>
      </trkpt>
      <trkpt lat="43.03779" lon="2.25513">
        <ele>193</ele>
        <time>2021-12-05T14:31:56Z</time>
      </trkpt>
      <trkpt lat="43.03759" lon="2.25474">
        <ele>191</ele>
        <time>2021-12-05T14:32:02Z</time>
      </trkpt>
      <trkpt lat="43.0375" lon="2.25444">
        <ele>190</ele>
        <time>2021-12-05T14:32:07Z</time>
      </trkpt>
      <trkpt lat="43.03745" lon="2.25411">
        <ele>190</ele>
        <time>2021-12-05T14:32:11Z</time>
      </trkpt>
      <trkpt lat="43.03747" lon="2.25384">
        <ele>189</ele>
        <time>2021-12-05T14:32:15Z</time>
      </trkpt>
      <trkpt lat="43.03751" lon="2.25358">
        <ele>189</ele>
        <time>2021-12-05T14:32:18Z</time>
      </trkpt>
      <trkpt lat="43.03767" lon="2.25321">
        <ele>190</ele>
        <time>2021-12-05T14:32:24Z</time>
      </trkpt>
      <trkpt lat="43.03861" lon="2.25216">
        <ele>186</ele>
        <time>2021-12-05T14:32:45Z</time>
      </trkpt>
      <trkpt lat="43.03882" lon="2.25201">
        <ele>185</ele>
        <time>2021-12-05T14:32:49Z</time>
      </trkpt>
      <trkpt lat="43.03903" lon="2.2519">
        <ele>185</ele>
        <time>2021-12-05T14:32:53Z</time>
      </trkpt>
      <trkpt lat="43.03908" lon="2.25182">
        <ele>185</ele>
        <time>2021-12-05T14:32:55Z</time>
      </trkpt>
      <trkpt lat="43.0391" lon="2.25172">
        <ele>184</ele>
        <time>2021-12-05T14:32:56Z</time>
      </trkpt>
      <trkpt lat="43.03907" lon="2.25132">
        <ele>182</ele>
        <time>2021-12-05T14:33:01Z</time>
      </trkpt>
      <trkpt lat="43.03912" lon="2.2511">
        <ele>181</ele>
        <time>2021-12-05T14:33:04Z</time>
      </trkpt>
      <trkpt lat="43.0392" lon="2.25095">
        <ele>181</ele>
        <time>2021-12-05T14:33:07Z</time>
      </trkpt>
      <trkpt lat="43.03985" lon="2.25002">
        <ele>181</ele>
        <time>2021-12-05T14:33:24Z</time>
      </trkpt>
      <trkpt lat="43.04027" lon="2.24954">
        <ele>180</ele>
        <time>2021-12-05T14:33:33Z</time>
      </trkpt>
      <trkpt lat="43.04042" lon="2.24937">
        <ele>180</ele>
        <time>2021-12-05T14:33:37Z</time>
      </trkpt>
      <trkpt lat="43.04072" lon="2.24904">
        <ele>180</ele>
        <time>2021-12-05T14:33:44Z</time>
      </trkpt>
      <trkpt lat="43.04116" lon="2.24842">
        <ele>179</ele>
        <time>2021-12-05T14:33:55Z</time>
      </trkpt>
      <trkpt lat="43.04208" lon="2.24697">
        <ele>177</ele>
        <time>2021-12-05T14:34:20Z</time>
      </trkpt>
      <trkpt lat="43.04301" lon="2.24554">
        <ele>178</ele>
        <time>2021-12-05T14:34:45Z</time>
      </trkpt>
      <trkpt lat="43.04329" lon="2.24516">
        <ele>177</ele>
        <time>2021-12-05T14:34:52Z</time>
      </trkpt>
      <trkpt lat="43.04494" lon="2.24347">
        <ele>175</ele>
        <time>2021-12-05T14:35:28Z</time>
      </trkpt>
      <trkpt lat="43.04591" lon="2.24246">
        <ele>178</ele>
        <time>2021-12-05T14:35:50Z</time>
      </trkpt>
      <trkpt lat="43.04608" lon="2.24217">
        <ele>181</ele>
        <time>2021-12-05T14:35:55Z</time>
      </trkpt>
      <trkpt lat="43.04614" lon="2.24194">
        <ele>182</ele>
        <time>2021-12-05T14:35:58Z</time>
      </trkpt>
      <trkpt lat="43.04649" lon="2.23849">
        <ele>175</ele>
        <time>2021-12-05T14:36:43Z</time>
      </trkpt>
      <trkpt lat="43.04652" lon="2.23673">
        <ele>175</ele>
        <time>2021-12-05T14:37:06Z</time>
      </trkpt>
      <trkpt lat="43.04695" lon="2.23423">
        <ele>175</ele>
        <time>2021-12-05T14:37:40Z</time>
      </trkpt>
      <trkpt lat="43.04716" lon="2.23321">
        <ele>174</ele>
        <time>2021-12-05T14:37:53Z</time>
      </trkpt>
      <trkpt lat="43.04777" lon="2.23115">
        <ele>174</ele>
        <time>2021-12-05T14:38:22Z</time>
      </trkpt>
      <trkpt lat="43.04783" lon="2.23057">
        <ele>174</ele>
        <time>2021-12-05T14:38:30Z</time>
      </trkpt>
      <trkpt lat="43.04782" lon="2.22822">
        <ele>175</ele>
        <time>2021-12-05T14:39:00Z</time>
      </trkpt>
      <trkpt lat="43.04786" lon="2.2275">
        <ele>176</ele>
        <time>2021-12-05T14:39:10Z</time>
      </trkpt>
      <trkpt lat="43.04809" lon="2.22578">
        <ele>177</ele>
        <time>2021-12-05T14:39:33Z</time>
      </trkpt>
      <trkpt lat="43.04822" lon="2.22511">
        <ele>176</ele>
        <time>2021-12-05T14:39:42Z</time>
      </trkpt>
      <trkpt lat="43.04834" lon="2.22472">
        <ele>175</ele>
        <time>2021-12-05T14:39:47Z</time>
      </trkpt>
      <trkpt lat="43.04848" lon="2.22439">
        <ele>174</ele>
        <time>2021-12-05T14:39:52Z</time>
      </trkpt>
      <trkpt lat="43.04872" lon="2.22397">
        <ele>173</ele>
        <time>2021-12-05T14:39:59Z</time>
      </trkpt>
      <trkpt lat="43.04892" lon="2.2237">
        <ele>172</ele>
        <time>2021-12-05T14:40:04Z</time>
      </trkpt>
      <trkpt lat="43.04949" lon="2.22313">
        <ele>169</ele>
        <time>2021-12-05T14:40:17Z</time>
      </trkpt>
      <trkpt lat="43.05001" lon="2.2228">
        <ele>169</ele>
        <time>2021-12-05T14:40:27Z</time>
      </trkpt>
      <trkpt lat="43.05083" lon="2.22231">
        <ele>170</ele>
        <time>2021-12-05T14:40:43Z</time>
      </trkpt>
      <trkpt lat="43.05143" lon="2.22205">
        <ele>169</ele>
        <time>2021-12-05T14:40:54Z</time>
      </trkpt>
      <trkpt lat="43.05179" lon="2.22185">
        <ele>169</ele>
        <time>2021-12-05T14:41:01Z</time>
      </trkpt>
      <trkpt lat="43.05131" lon="2.22085">
        <ele>169</ele>
        <time>2021-12-05T14:41:16Z</time>
      </trkpt>
      <trkpt lat="43.05126" lon="2.22073">
        <ele>170</ele>
        <time>2021-12-05T14:41:18Z</time>
      </trkpt>
      <trkpt lat="43.05116" lon="2.22076">
        <ele>170</ele>
        <time>2021-12-05T14:41:20Z</time>
      </trkpt>
      <trkpt lat="43.05113" lon="2.22075">
        <ele>170</ele>
        <time>2021-12-05T14:41:21Z</time>
      </trkpt>
      <trkpt lat="43.05102" lon="2.22074">
        <ele>170</ele>
        <time>2021-12-05T14:41:22Z</time>
      </trkpt>
      <trkpt lat="43.0509" lon="2.2207">
        <ele>170</ele>
        <time>2021-12-05T14:41:25Z</time>
      </trkpt>
      <trkpt lat="43.05068" lon="2.2206">
        <ele>171</ele>
        <time>2021-12-05T14:41:29Z</time>
      </trkpt>
      <trkpt lat="43.05002" lon="2.22033">
        <ele>172</ele>
        <time>2021-12-05T14:41:41Z</time>
      </trkpt>
      <trkpt lat="43.0494" lon="2.22009">
        <ele>173</ele>
        <time>2021-12-05T14:41:53Z</time>
      </trkpt>
      <trkpt lat="43.04937" lon="2.22002">
        <ele>174</ele>
        <time>2021-12-05T14:41:54Z</time>
      </trkpt>
      <trkpt lat="43.04934" lon="2.21989">
        <ele>174</ele>
        <time>2021-12-05T14:41:55Z</time>
      </trkpt>
      <trkpt lat="43.04934" lon="2.2198">
        <ele>174</ele>
        <time>2021-12-05T14:41:57Z</time>
      </trkpt>
      <trkpt lat="43.04912" lon="2.22004">
        <ele>174</ele>
        <time>2021-12-05T14:42:02Z</time>
      </trkpt>
      <trkpt lat="43.04879" lon="2.22024">
        <ele>175</ele>
        <time>2021-12-05T14:42:08Z</time>
      </trkpt>
      <trkpt lat="43.04846" lon="2.22037">
        <ele>176</ele>
        <time>2021-12-05T14:42:14Z</time>
      </trkpt>
      <trkpt lat="43.0469" lon="2.22079">
        <ele>181</ele>
        <time>2021-12-05T14:42:42Z</time>
      </trkpt>
      <trkpt lat="43.04654" lon="2.22096">
        <ele>182</ele>
        <time>2021-12-05T14:42:49Z</time>
      </trkpt>
      <trkpt lat="43.04618" lon="2.22123">
        <ele>183</ele>
        <time>2021-12-05T14:42:56Z</time>
      </trkpt>
      <trkpt lat="43.04589" lon="2.22135">
        <ele>184</ele>
        <time>2021-12-05T14:43:02Z</time>
      </trkpt>
      <trkpt lat="43.04573" lon="2.22141">
        <ele>183</ele>
        <time>2021-12-05T14:43:05Z</time>
      </trkpt>
      <trkpt lat="43.04543" lon="2.22142">
        <ele>182</ele>
        <time>2021-12-05T14:43:10Z</time>
      </trkpt>
      <trkpt lat="43.04508" lon="2.22133">
        <ele>182</ele>
        <time>2021-12-05T14:43:16Z</time>
      </trkpt>
      <trkpt lat="43.04475" lon="2.22111">
        <ele>183</ele>
        <time>2021-12-05T14:43:23Z</time>
      </trkpt>
      <trkpt lat="43.04466" lon="2.22104">
        <ele>183</ele>
        <time>2021-12-05T14:43:25Z</time>
      </trkpt>
      <trkpt lat="43.04421" lon="2.22059">
        <ele>184</ele>
        <time>2021-12-05T14:43:35Z</time>
      </trkpt>
      <trkpt lat="43.04368" lon="2.21984">
        <ele>187</ele>
        <time>2021-12-05T14:43:48Z</time>
      </trkpt>
      <trkpt lat="43.04314" lon="2.21872">
        <ele>192</ele>
        <time>2021-12-05T14:44:06Z</time>
      </trkpt>
      <trkpt lat="43.0431" lon="2.21865">
        <ele>192</ele>
        <time>2021-12-05T14:44:07Z</time>
      </trkpt>
      <trkpt lat="43.04299" lon="2.21841">
        <ele>192</ele>
        <time>2021-12-05T14:44:11Z</time>
      </trkpt>
      <trkpt lat="43.04287" lon="2.21815">
        <ele>193</ele>
        <time>2021-12-05T14:44:15Z</time>
      </trkpt>
      <trkpt lat="43.04262" lon="2.2177">
        <ele>195</ele>
        <time>2021-12-05T14:44:22Z</time>
      </trkpt>
      <trkpt lat="43.04188" lon="2.21685">
        <ele>193</ele>
        <time>2021-12-05T14:44:39Z</time>
      </trkpt>
      <trkpt lat="43.04187" lon="2.21684">
        <ele>192</ele>
        <time>2021-12-05T14:44:39Z</time>
      </trkpt>
      <trkpt lat="43.04174" lon="2.21664">
        <ele>192</ele>
        <time>2021-12-05T14:44:43Z</time>
      </trkpt>
      <trkpt lat="43.04156" lon="2.21635">
        <ele>194</ele>
        <time>2021-12-05T14:44:48Z</time>
      </trkpt>
      <trkpt lat="43.04118" lon="2.2158">
        <ele>196</ele>
        <time>2021-12-05T14:44:58Z</time>
      </trkpt>
      <trkpt lat="43.04098" lon="2.21567">
        <ele>196</ele>
        <time>2021-12-05T14:45:02Z</time>
      </trkpt>
      <trkpt lat="43.04072" lon="2.21557">
        <ele>195</ele>
        <time>2021-12-05T14:45:06Z</time>
      </trkpt>
      <trkpt lat="43.04052" lon="2.21546">
        <ele>195</ele>
        <time>2021-12-05T14:45:10Z</time>
      </trkpt>
      <trkpt lat="43.04041" lon="2.21535">
        <ele>195</ele>
        <time>2021-12-05T14:45:13Z</time>
      </trkpt>
      <trkpt lat="43.04032" lon="2.21524">
        <ele>195</ele>
        <time>2021-12-05T14:45:15Z</time>
      </trkpt>
      <trkpt lat="43.04011" lon="2.21487">
        <ele>196</ele>
        <time>2021-12-05T14:45:21Z</time>
      </trkpt>
      <trkpt lat="43.03952" lon="2.21369">
        <ele>199</ele>
        <time>2021-12-05T14:45:39Z</time>
      </trkpt>
      <trkpt lat="43.03937" lon="2.21343">
        <ele>200</ele>
        <time>2021-12-05T14:45:44Z</time>
      </trkpt>
      <trkpt lat="43.03872" lon="2.2127">
        <ele>202</ele>
        <time>2021-12-05T14:45:59Z</time>
      </trkpt>
      <trkpt lat="43.03858" lon="2.21246">
        <ele>202</ele>
        <time>2021-12-05T14:46:03Z</time>
      </trkpt>
      <trkpt lat="43.03837" lon="2.21182">
        <ele>206</ele>
        <time>2021-12-05T14:46:12Z</time>
      </trkpt>
      <trkpt lat="43.03827" lon="2.21164">
        <ele>207</ele>
        <time>2021-12-05T14:46:15Z</time>
      </trkpt>
      <trkpt lat="43.03816" lon="2.21154">
        <ele>207</ele>
        <time>2021-12-05T14:46:17Z</time>
      </trkpt>
      <trkpt lat="43.03788" lon="2.21139">
        <ele>207</ele>
        <time>2021-12-05T14:46:22Z</time>
      </trkpt>
      <trkpt lat="43.03736" lon="2.21122">
        <ele>205</ele>
        <time>2021-12-05T14:46:32Z</time>
      </trkpt>
      <trkpt lat="43.037" lon="2.21114">
        <ele>205</ele>
        <time>2021-12-05T14:46:38Z</time>
      </trkpt>
      <trkpt lat="43.0364" lon="2.21094">
        <ele>205</ele>
        <time>2021-12-05T14:46:49Z</time>
      </trkpt>
      <trkpt lat="43.03615" lon="2.2108">
        <ele>204</ele>
        <time>2021-12-05T14:46:54Z</time>
      </trkpt>
      <trkpt lat="43.03587" lon="2.21056">
        <ele>206</ele>
        <time>2021-12-05T14:47:00Z</time>
      </trkpt>
      <trkpt lat="43.03552" lon="2.21016">
        <ele>208</ele>
        <time>2021-12-05T14:47:08Z</time>
      </trkpt>
      <trkpt lat="43.0351" lon="2.20959">
        <ele>207</ele>
        <time>2021-12-05T14:47:19Z</time>
      </trkpt>
      <trkpt lat="43.0344" lon="2.20788">
        <ele>209</ele>
        <time>2021-12-05T14:47:44Z</time>
      </trkpt>
      <trkpt lat="43.03329" lon="2.20509">
        <ele>209</ele>
        <time>2021-12-05T14:48:26Z</time>
      </trkpt>
      <trkpt lat="43.03297" lon="2.2044">
        <ele>210</ele>
        <time>2021-12-05T14:48:36Z</time>
      </trkpt>
      <trkpt lat="43.03269" lon="2.20396">
        <ele>209</ele>
        <time>2021-12-05T14:48:44Z</time>
      </trkpt>
      <trkpt lat="43.03242" lon="2.20357">
        <ele>208</ele>
        <time>2021-12-05T14:48:51Z</time>
      </trkpt>
      <trkpt lat="43.0321" lon="2.20327">
        <ele>208</ele>
        <time>2021-12-05T14:48:58Z</time>
      </trkpt>
      <trkpt lat="43.03196" lon="2.20318">
        <ele>208</ele>
        <time>2021-12-05T14:49:00Z</time>
      </trkpt>
      <trkpt lat="43.03131" lon="2.20299">
        <ele>208</ele>
        <time>2021-12-05T14:49:12Z</time>
      </trkpt>
      <trkpt lat="43.02802" lon="2.20179">
        <ele>231</ele>
        <time>2021-12-05T14:50:13Z</time>
      </trkpt>
      <trkpt lat="43.02787" lon="2.20176">
        <ele>232</ele>
        <time>2021-12-05T14:50:16Z</time>
      </trkpt>
      <trkpt lat="43.02766" lon="2.20177">
        <ele>233</ele>
        <time>2021-12-05T14:50:19Z</time>
      </trkpt>
      <trkpt lat="43.02739" lon="2.20185">
        <ele>234</ele>
        <time>2021-12-05T14:50:24Z</time>
      </trkpt>
      <trkpt lat="43.02724" lon="2.20193">
        <ele>235</ele>
        <time>2021-12-05T14:50:27Z</time>
      </trkpt>
      <trkpt lat="43.02697" lon="2.20214">
        <ele>236</ele>
        <time>2021-12-05T14:50:33Z</time>
      </trkpt>
      <trkpt lat="43.02686" lon="2.20227">
        <ele>236</ele>
        <time>2021-12-05T14:50:35Z</time>
      </trkpt>
      <trkpt lat="43.02674" lon="2.20246">
        <ele>236</ele>
        <time>2021-12-05T14:50:38Z</time>
      </trkpt>
      <trkpt lat="43.02662" lon="2.20276">
        <ele>238</ele>
        <time>2021-12-05T14:50:43Z</time>
      </trkpt>
      <trkpt lat="43.02656" lon="2.203">
        <ele>240</ele>
        <time>2021-12-05T14:50:46Z</time>
      </trkpt>
      <trkpt lat="43.02605" lon="2.2055">
        <ele>254</ele>
        <time>2021-12-05T14:51:20Z</time>
      </trkpt>
      <trkpt lat="43.02595" lon="2.20573">
        <ele>253</ele>
        <time>2021-12-05T14:51:23Z</time>
      </trkpt>
      <trkpt lat="43.02584" lon="2.20586">
        <ele>253</ele>
        <time>2021-12-05T14:51:26Z</time>
      </trkpt>
      <trkpt lat="43.02572" lon="2.20598">
        <ele>253</ele>
        <time>2021-12-05T14:51:29Z</time>
      </trkpt>
      <trkpt lat="43.02526" lon="2.20622">
        <ele>253</ele>
        <time>2021-12-05T14:51:37Z</time>
      </trkpt>
      <trkpt lat="43.0251" lon="2.20634">
        <ele>253</ele>
        <time>2021-12-05T14:51:41Z</time>
      </trkpt>
      <trkpt lat="43.025" lon="2.20649">
        <ele>252</ele>
        <time>2021-12-05T14:51:43Z</time>
      </trkpt>
      <trkpt lat="43.02497" lon="2.20666">
        <ele>250</ele>
        <time>2021-12-05T14:51:46Z</time>
      </trkpt>
      <trkpt lat="43.02497" lon="2.20675">
        <ele>250</ele>
        <time>2021-12-05T14:51:47Z</time>
      </trkpt>
      <trkpt lat="43.02503" lon="2.2072">
        <ele>247</ele>
        <time>2021-12-05T14:51:53Z</time>
      </trkpt>
      <trkpt lat="43.02502" lon="2.20732">
        <ele>246</ele>
        <time>2021-12-05T14:51:54Z</time>
      </trkpt>
      <trkpt lat="43.02499" lon="2.20742">
        <ele>246</ele>
        <time>2021-12-05T14:51:56Z</time>
      </trkpt>
      <trkpt lat="43.02494" lon="2.20748">
        <ele>245</ele>
        <time>2021-12-05T14:51:57Z</time>
      </trkpt>
      <trkpt lat="43.02478" lon="2.20751">
        <ele>245</ele>
        <time>2021-12-05T14:52:00Z</time>
      </trkpt>
      <trkpt lat="43.02434" lon="2.20743">
        <ele>247</ele>
        <time>2021-12-05T14:52:08Z</time>
      </trkpt>
      <trkpt lat="43.02411" lon="2.2073">
        <ele>250</ele>
        <time>2021-12-05T14:52:12Z</time>
      </trkpt>
      <trkpt lat="43.0238" lon="2.20701">
        <ele>255</ele>
        <time>2021-12-05T14:52:19Z</time>
      </trkpt>
      <trkpt lat="43.0237" lon="2.207">
        <ele>256</ele>
        <time>2021-12-05T14:52:21Z</time>
      </trkpt>
      <trkpt lat="43.02358" lon="2.20707">
        <ele>256</ele>
        <time>2021-12-05T14:52:23Z</time>
      </trkpt>
      <trkpt lat="43.02353" lon="2.2072">
        <ele>255</ele>
        <time>2021-12-05T14:52:25Z</time>
      </trkpt>
      <trkpt lat="43.02352" lon="2.20745">
        <ele>252</ele>
        <time>2021-12-05T14:52:28Z</time>
      </trkpt>
      <trkpt lat="43.02349" lon="2.20759">
        <ele>250</ele>
        <time>2021-12-05T14:52:30Z</time>
      </trkpt>
      <trkpt lat="43.02319" lon="2.20814">
        <ele>241</ele>
        <time>2021-12-05T14:52:39Z</time>
      </trkpt>
      <trkpt lat="43.02312" lon="2.20824">
        <ele>239</ele>
        <time>2021-12-05T14:52:41Z</time>
      </trkpt>
      <trkpt lat="43.02302" lon="2.20834">
        <ele>238</ele>
        <time>2021-12-05T14:52:43Z</time>
      </trkpt>
      <trkpt lat="43.02291" lon="2.20841">
        <ele>237</ele>
        <time>2021-12-05T14:52:45Z</time>
      </trkpt>
      <trkpt lat="43.02271" lon="2.20847">
        <ele>237</ele>
        <time>2021-12-05T14:52:49Z</time>
      </trkpt>
      <trkpt lat="43.02215" lon="2.20836">
        <ele>236</ele>
        <time>2021-12-05T14:52:59Z</time>
      </trkpt>
      <trkpt lat="43.02197" lon="2.20827">
        <ele>237</ele>
        <time>2021-12-05T14:53:02Z</time>
      </trkpt>
      <trkpt lat="43.02164" lon="2.20798">
        <ele>243</ele>
        <time>2021-12-05T14:53:09Z</time>
      </trkpt>
      <trkpt lat="43.02132" lon="2.20772">
        <ele>246</ele>
        <time>2021-12-05T14:53:16Z</time>
      </trkpt>
      <trkpt lat="43.02053" lon="2.2073">
        <ele>245</ele>
        <time>2021-12-05T14:53:31Z</time>
      </trkpt>
      <trkpt lat="43.02043" lon="2.20722">
        <ele>246</ele>
        <time>2021-12-05T14:53:33Z</time>
      </trkpt>
      <trkpt lat="43.02008" lon="2.20687">
        <ele>250</ele>
        <time>2021-12-05T14:53:41Z</time>
      </trkpt>
      <trkpt lat="43.01997" lon="2.20679">
        <ele>249</ele>
        <time>2021-12-05T14:53:43Z</time>
      </trkpt>
      <trkpt lat="43.01956" lon="2.20655">
        <ele>249</ele>
        <time>2021-12-05T14:53:51Z</time>
      </trkpt>
      <trkpt lat="43.01945" lon="2.20651">
        <ele>247</ele>
        <time>2021-12-05T14:53:53Z</time>
      </trkpt>
      <trkpt lat="43.01908" lon="2.20647">
        <ele>242</ele>
        <time>2021-12-05T14:53:59Z</time>
      </trkpt>
      <trkpt lat="43.01893" lon="2.20643">
        <ele>241</ele>
        <time>2021-12-05T14:54:02Z</time>
      </trkpt>
      <trkpt lat="43.01864" lon="2.20628">
        <ele>240</ele>
        <time>2021-12-05T14:54:08Z</time>
      </trkpt>
      <trkpt lat="43.0185" lon="2.2062">
        <ele>240</ele>
        <time>2021-12-05T14:54:10Z</time>
      </trkpt>
      <trkpt lat="43.0181" lon="2.20582">
        <ele>242</ele>
        <time>2021-12-05T14:54:19Z</time>
      </trkpt>
      <trkpt lat="43.01801" lon="2.20577">
        <ele>242</ele>
        <time>2021-12-05T14:54:21Z</time>
      </trkpt>
      <trkpt lat="43.01745" lon="2.20564">
        <ele>239</ele>
        <time>2021-12-05T14:54:31Z</time>
      </trkpt>
      <trkpt lat="43.01727" lon="2.20557">
        <ele>239</ele>
        <time>2021-12-05T14:54:34Z</time>
      </trkpt>
      <trkpt lat="43.01696" lon="2.2054">
        <ele>238</ele>
        <time>2021-12-05T14:54:40Z</time>
      </trkpt>
      <trkpt lat="43.0165" lon="2.20509">
        <ele>237</ele>
        <time>2021-12-05T14:54:49Z</time>
      </trkpt>
      <trkpt lat="43.01433" lon="2.20369">
        <ele>240</ele>
        <time>2021-12-05T14:55:32Z</time>
      </trkpt>
      <trkpt lat="43.0142" lon="2.20368">
        <ele>239</ele>
        <time>2021-12-05T14:55:34Z</time>
      </trkpt>
      <trkpt lat="43.01391" lon="2.2038">
        <ele>238</ele>
        <time>2021-12-05T14:55:40Z</time>
      </trkpt>
      <trkpt lat="43.01355" lon="2.20409">
        <ele>239</ele>
        <time>2021-12-05T14:55:47Z</time>
      </trkpt>
      <trkpt lat="43.01339" lon="2.20417">
        <ele>240</ele>
        <time>2021-12-05T14:55:50Z</time>
      </trkpt>
      <trkpt lat="43.01325" lon="2.20415">
        <ele>242</ele>
        <time>2021-12-05T14:55:53Z</time>
      </trkpt>
      <trkpt lat="43.01313" lon="2.20406">
        <ele>243</ele>
        <time>2021-12-05T14:55:55Z</time>
      </trkpt>
      <trkpt lat="43.01269" lon="2.20347">
        <ele>242</ele>
        <time>2021-12-05T14:56:06Z</time>
      </trkpt>
      <trkpt lat="43.01187" lon="2.20244">
        <ele>243</ele>
        <time>2021-12-05T14:56:26Z</time>
      </trkpt>
      <trkpt lat="43.01179" lon="2.20236">
        <ele>244</ele>
        <time>2021-12-05T14:56:28Z</time>
      </trkpt>
      <trkpt lat="43.01167" lon="2.20231">
        <ele>245</ele>
        <time>2021-12-05T14:56:30Z</time>
      </trkpt>
      <trkpt lat="43.0112" lon="2.20231">
        <ele>246</ele>
        <time>2021-12-05T14:56:38Z</time>
      </trkpt>
      <trkpt lat="43.01108" lon="2.20235">
        <ele>247</ele>
        <time>2021-12-05T14:56:40Z</time>
      </trkpt>
      <trkpt lat="43.01088" lon="2.20247">
        <ele>249</ele>
        <time>2021-12-05T14:56:44Z</time>
      </trkpt>
      <trkpt lat="43.01065" lon="2.20252">
        <ele>250</ele>
        <time>2021-12-05T14:56:48Z</time>
      </trkpt>
      <trkpt lat="43.0104" lon="2.20248">
        <ele>249</ele>
        <time>2021-12-05T14:56:53Z</time>
      </trkpt>
      <trkpt lat="43.01023" lon="2.20236">
        <ele>248</ele>
        <time>2021-12-05T14:56:56Z</time>
      </trkpt>
      <trkpt lat="43.00996" lon="2.2021">
        <ele>247</ele>
        <time>2021-12-05T14:57:02Z</time>
      </trkpt>
      <trkpt lat="43.00989" lon="2.20207">
        <ele>247</ele>
        <time>2021-12-05T14:57:03Z</time>
      </trkpt>
      <trkpt lat="43.00983" lon="2.20208">
        <ele>248</ele>
        <time>2021-12-05T14:57:05Z</time>
      </trkpt>
      <trkpt lat="43.00976" lon="2.20213">
        <ele>248</ele>
        <time>2021-12-05T14:57:06Z</time>
      </trkpt>
      <trkpt lat="43.0093" lon="2.20279">
        <ele>251</ele>
        <time>2021-12-05T14:57:18Z</time>
      </trkpt>
      <trkpt lat="43.00899" lon="2.20318">
        <ele>254</ele>
        <time>2021-12-05T14:57:25Z</time>
      </trkpt>
      <trkpt lat="43.00887" lon="2.20329">
        <ele>255</ele>
        <time>2021-12-05T14:57:28Z</time>
      </trkpt>
      <trkpt lat="43.00874" lon="2.20336">
        <ele>256</ele>
        <time>2021-12-05T14:57:30Z</time>
      </trkpt>
      <trkpt lat="43.00825" lon="2.20336">
        <ele>255</ele>
        <time>2021-12-05T14:57:39Z</time>
      </trkpt>
      <trkpt lat="43.00753" lon="2.20328">
        <ele>255</ele>
        <time>2021-12-05T14:57:52Z</time>
      </trkpt>
      <trkpt lat="43.00694" lon="2.20314">
        <ele>255</ele>
        <time>2021-12-05T14:58:03Z</time>
      </trkpt>
      <trkpt lat="43.00602" lon="2.20275">
        <ele>254</ele>
        <time>2021-12-05T14:58:20Z</time>
      </trkpt>
      <trkpt lat="43.00564" lon="2.20266">
        <ele>253</ele>
        <time>2021-12-05T14:58:27Z</time>
      </trkpt>
      <trkpt lat="43.00543" lon="2.20265">
        <ele>252</ele>
        <time>2021-12-05T14:58:30Z</time>
      </trkpt>
      <trkpt lat="43.00533" lon="2.20268">
        <ele>252</ele>
        <time>2021-12-05T14:58:32Z</time>
      </trkpt>
      <trkpt lat="43.00521" lon="2.20277">
        <ele>252</ele>
        <time>2021-12-05T14:58:35Z</time>
      </trkpt>
      <trkpt lat="43.00506" lon="2.20295">
        <ele>254</ele>
        <time>2021-12-05T14:58:38Z</time>
      </trkpt>
      <trkpt lat="43.00493" lon="2.20317">
        <ele>255</ele>
        <time>2021-12-05T14:58:42Z</time>
      </trkpt>
      <trkpt lat="43.00475" lon="2.20362">
        <ele>259</ele>
        <time>2021-12-05T14:58:48Z</time>
      </trkpt>
      <trkpt lat="43.00469" lon="2.20376">
        <ele>261</ele>
        <time>2021-12-05T14:58:51Z</time>
      </trkpt>
      <trkpt lat="43.00462" lon="2.20385">
        <ele>262</ele>
        <time>2021-12-05T14:58:52Z</time>
      </trkpt>
      <trkpt lat="43.00452" lon="2.20394">
        <ele>262</ele>
        <time>2021-12-05T14:58:54Z</time>
      </trkpt>
      <trkpt lat="43.00438" lon="2.20399">
        <ele>261</ele>
        <time>2021-12-05T14:58:57Z</time>
      </trkpt>
      <trkpt lat="43.00359" lon="2.20405">
        <ele>258</ele>
        <time>2021-12-05T14:59:11Z</time>
      </trkpt>
      <trkpt lat="43.00331" lon="2.20413">
        <ele>258</ele>
        <time>2021-12-05T14:59:16Z</time>
      </trkpt>
      <trkpt lat="43.00324" lon="2.20414">
        <ele>258</ele>
        <time>2021-12-05T14:59:17Z</time>
      </trkpt>
      <trkpt lat="43.003" lon="2.20416">
        <ele>258</ele>
        <time>2021-12-05T14:59:22Z</time>
      </trkpt>
      <trkpt lat="43.00252" lon="2.20417">
        <ele>258</ele>
        <time>2021-12-05T14:59:30Z</time>
      </trkpt>
      <trkpt lat="43.00232" lon="2.20416">
        <ele>260</ele>
        <time>2021-12-05T14:59:34Z</time>
      </trkpt>
      <trkpt lat="43.00219" lon="2.20409">
        <ele>262</ele>
        <time>2021-12-05T14:59:36Z</time>
      </trkpt>
      <trkpt lat="43.00192" lon="2.20359">
        <ele>259</ele>
        <time>2021-12-05T14:59:44Z</time>
      </trkpt>
      <trkpt lat="43.00185" lon="2.20351">
        <ele>259</ele>
        <time>2021-12-05T14:59:46Z</time>
      </trkpt>
      <trkpt lat="43.00171" lon="2.20345">
        <ele>259</ele>
        <time>2021-12-05T14:59:49Z</time>
      </trkpt>
      <trkpt lat="43.00159" lon="2.20342">
        <ele>258</ele>
        <time>2021-12-05T14:59:51Z</time>
      </trkpt>
      <trkpt lat="43.00133" lon="2.20341">
        <ele>259</ele>
        <time>2021-12-05T14:59:55Z</time>
      </trkpt>
      <trkpt lat="43.00118" lon="2.20345">
        <ele>259</ele>
        <time>2021-12-05T14:59:58Z</time>
      </trkpt>
      <trkpt lat="43.00094" lon="2.2036">
        <ele>262</ele>
        <time>2021-12-05T15:00:03Z</time>
      </trkpt>
      <trkpt lat="43.00047" lon="2.20383">
        <ele>266</ele>
        <time>2021-12-05T15:00:12Z</time>
      </trkpt>
      <trkpt lat="43.00027" lon="2.20383">
        <ele>267</ele>
        <time>2021-12-05T15:00:15Z</time>
      </trkpt>
      <trkpt lat="43.00013" lon="2.2038">
        <ele>267</ele>
        <time>2021-12-05T15:00:18Z</time>
      </trkpt>
      <trkpt lat="42.99997" lon="2.2037">
        <ele>266</ele>
        <time>2021-12-05T15:00:21Z</time>
      </trkpt>
      <trkpt lat="42.99966" lon="2.20344">
        <ele>265</ele>
        <time>2021-12-05T15:00:27Z</time>
      </trkpt>
      <trkpt lat="42.99934" lon="2.20312">
        <ele>265</ele>
        <time>2021-12-05T15:00:34Z</time>
      </trkpt>
      <trkpt lat="42.99923" lon="2.20299">
        <ele>265</ele>
        <time>2021-12-05T15:00:37Z</time>
      </trkpt>
      <trkpt lat="42.99917" lon="2.20292">
        <ele>265</ele>
        <time>2021-12-05T15:00:38Z</time>
      </trkpt>
      <trkpt lat="42.99894" lon="2.20243">
        <ele>264</ele>
        <time>2021-12-05T15:00:46Z</time>
      </trkpt>
      <trkpt lat="42.99877" lon="2.202">
        <ele>264</ele>
        <time>2021-12-05T15:00:52Z</time>
      </trkpt>
      <trkpt lat="42.99868" lon="2.20165">
        <ele>263</ele>
        <time>2021-12-05T15:00:57Z</time>
      </trkpt>
      <trkpt lat="42.99859" lon="2.20115">
        <ele>262</ele>
        <time>2021-12-05T15:01:04Z</time>
      </trkpt>
      <trkpt lat="42.99856" lon="2.201">
        <ele>261</ele>
        <time>2021-12-05T15:01:06Z</time>
      </trkpt>
      <trkpt lat="42.99826" lon="2.19911">
        <ele>262</ele>
        <time>2021-12-05T15:01:31Z</time>
      </trkpt>
      <trkpt lat="42.99818" lon="2.19874">
        <ele>262</ele>
        <time>2021-12-05T15:01:36Z</time>
      </trkpt>
      <trkpt lat="42.99808" lon="2.19848">
        <ele>263</ele>
        <time>2021-12-05T15:01:40Z</time>
      </trkpt>
      <trkpt lat="42.99776" lon="2.19796">
        <ele>267</ele>
        <time>2021-12-05T15:01:49Z</time>
      </trkpt>
      <trkpt lat="42.9977" lon="2.19773">
        <ele>267</ele>
        <time>2021-12-05T15:01:52Z</time>
      </trkpt>
      <trkpt lat="42.99764" lon="2.19646">
        <ele>265</ele>
        <time>2021-12-05T15:02:09Z</time>
      </trkpt>
      <trkpt lat="42.99715" lon="2.19486">
        <ele>275</ele>
        <time>2021-12-05T15:02:31Z</time>
      </trkpt>
      <trkpt lat="42.99711" lon="2.19458">
        <ele>276</ele>
        <time>2021-12-05T15:02:35Z</time>
      </trkpt>
      <trkpt lat="42.99712" lon="2.19432">
        <ele>275</ele>
        <time>2021-12-05T15:02:38Z</time>
      </trkpt>
      <trkpt lat="42.9974" lon="2.19255">
        <ele>272</ele>
        <time>2021-12-05T15:03:02Z</time>
      </trkpt>
      <trkpt lat="42.9974" lon="2.19234">
        <ele>272</ele>
        <time>2021-12-05T15:03:04Z</time>
      </trkpt>
      <trkpt lat="42.99736" lon="2.19218">
        <ele>272</ele>
        <time>2021-12-05T15:03:07Z</time>
      </trkpt>
      <trkpt lat="42.99662" lon="2.19022">
        <ele>275</ele>
        <time>2021-12-05T15:03:35Z</time>
      </trkpt>
      <trkpt lat="42.99655" lon="2.18995">
        <ele>275</ele>
        <time>2021-12-05T15:03:39Z</time>
      </trkpt>
      <trkpt lat="42.99626" lon="2.18834">
        <ele>276</ele>
        <time>2021-12-05T15:04:01Z</time>
      </trkpt>
      <trkpt lat="42.9962" lon="2.18819">
        <ele>276</ele>
        <time>2021-12-05T15:04:03Z</time>
      </trkpt>
      <trkpt lat="42.9961" lon="2.18806">
        <ele>277</ele>
        <time>2021-12-05T15:04:05Z</time>
      </trkpt>
      <trkpt lat="42.99587" lon="2.1879">
        <ele>278</ele>
        <time>2021-12-05T15:04:10Z</time>
      </trkpt>
      <trkpt lat="42.99406" lon="2.18731">
        <ele>281</ele>
        <time>2021-12-05T15:04:43Z</time>
      </trkpt>
      <trkpt lat="42.99384" lon="2.18722">
        <ele>283</ele>
        <time>2021-12-05T15:04:47Z</time>
      </trkpt>
      <trkpt lat="42.99367" lon="2.18713">
        <ele>285</ele>
        <time>2021-12-05T15:04:50Z</time>
      </trkpt>
      <trkpt lat="42.99354" lon="2.18699">
        <ele>285</ele>
        <time>2021-12-05T15:04:53Z</time>
      </trkpt>
      <trkpt lat="42.99334" lon="2.18667">
        <ele>284</ele>
        <time>2021-12-05T15:04:59Z</time>
      </trkpt>
      <trkpt lat="42.99314" lon="2.18625">
        <ele>286</ele>
        <time>2021-12-05T15:05:05Z</time>
      </trkpt>
      <trkpt lat="42.99289" lon="2.18554">
        <ele>287</ele>
        <time>2021-12-05T15:05:16Z</time>
      </trkpt>
      <trkpt lat="42.99269" lon="2.18481">
        <ele>290</ele>
        <time>2021-12-05T15:05:26Z</time>
      </trkpt>
      <trkpt lat="42.99208" lon="2.18225">
        <ele>290</ele>
        <time>2021-12-05T15:06:01Z</time>
      </trkpt>
      <trkpt lat="42.99206" lon="2.18205">
        <ele>291</ele>
        <time>2021-12-05T15:06:03Z</time>
      </trkpt>
      <trkpt lat="42.99205" lon="2.18186">
        <ele>291</ele>
        <time>2021-12-05T15:06:06Z</time>
      </trkpt>
      <trkpt lat="42.99208" lon="2.18154">
        <ele>291</ele>
        <time>2021-12-05T15:06:10Z</time>
      </trkpt>
      <trkpt lat="42.99224" lon="2.18074">
        <ele>288</ele>
        <time>2021-12-05T15:06:21Z</time>
      </trkpt>
      <trkpt lat="42.99225" lon="2.18057">
        <ele>288</ele>
        <time>2021-12-05T15:06:23Z</time>
      </trkpt>
      <trkpt lat="42.99224" lon="2.18038">
        <ele>288</ele>
        <time>2021-12-05T15:06:26Z</time>
      </trkpt>
      <trkpt lat="42.99213" lon="2.17988">
        <ele>289</ele>
        <time>2021-12-05T15:06:32Z</time>
      </trkpt>
      <trkpt lat="42.99207" lon="2.1797">
        <ele>289</ele>
        <time>2021-12-05T15:06:35Z</time>
      </trkpt>
      <trkpt lat="42.992" lon="2.17956">
        <ele>289</ele>
        <time>2021-12-05T15:06:37Z</time>
      </trkpt>
      <trkpt lat="42.99171" lon="2.17916">
        <ele>289</ele>
        <time>2021-12-05T15:06:44Z</time>
      </trkpt>
      <trkpt lat="42.99164" lon="2.17902">
        <ele>288</ele>
        <time>2021-12-05T15:06:47Z</time>
      </trkpt>
      <trkpt lat="42.99159" lon="2.17883">
        <ele>288</ele>
        <time>2021-12-05T15:06:49Z</time>
      </trkpt>
      <trkpt lat="42.99157" lon="2.17865">
        <ele>287</ele>
        <time>2021-12-05T15:06:52Z</time>
      </trkpt>
      <trkpt lat="42.99152" lon="2.17626">
        <ele>290</ele>
        <time>2021-12-05T15:07:23Z</time>
      </trkpt>
      <trkpt lat="42.99152" lon="2.17529">
        <ele>290</ele>
        <time>2021-12-05T15:07:35Z</time>
      </trkpt>
      <trkpt lat="42.99148" lon="2.17505">
        <ele>290</ele>
        <time>2021-12-05T15:07:39Z</time>
      </trkpt>
      <trkpt lat="42.99111" lon="2.17348">
        <ele>293</ele>
        <time>2021-12-05T15:08:00Z</time>
      </trkpt>
      <trkpt lat="42.9909" lon="2.17278">
        <ele>294</ele>
        <time>2021-12-05T15:08:10Z</time>
      </trkpt>
      <trkpt lat="42.99075" lon="2.17233">
        <ele>296</ele>
        <time>2021-12-05T15:08:16Z</time>
      </trkpt>
      <trkpt lat="42.99066" lon="2.1721">
        <ele>297</ele>
        <time>2021-12-05T15:08:20Z</time>
      </trkpt>
      <trkpt lat="42.99036" lon="2.17143">
        <ele>303</ele>
        <time>2021-12-05T15:08:30Z</time>
      </trkpt>
      <trkpt lat="42.99027" lon="2.1712">
        <ele>304</ele>
        <time>2021-12-05T15:08:33Z</time>
      </trkpt>
      <trkpt lat="42.99016" lon="2.17084">
        <ele>305</ele>
        <time>2021-12-05T15:08:38Z</time>
      </trkpt>
      <trkpt lat="42.98991" lon="2.16971">
        <ele>300</ele>
        <time>2021-12-05T15:08:54Z</time>
      </trkpt>
      <trkpt lat="42.98976" lon="2.1694">
        <ele>302</ele>
        <time>2021-12-05T15:08:59Z</time>
      </trkpt>
      <trkpt lat="42.98941" lon="2.16893">
        <ele>307</ele>
        <time>2021-12-05T15:09:07Z</time>
      </trkpt>
      <trkpt lat="42.98887" lon="2.16828">
        <ele>305</ele>
        <time>2021-12-05T15:09:20Z</time>
      </trkpt>
      <trkpt lat="42.9886" lon="2.16805">
        <ele>306</ele>
        <time>2021-12-05T15:09:26Z</time>
      </trkpt>
      <trkpt lat="42.98853" lon="2.16796">
        <ele>306</ele>
        <time>2021-12-05T15:09:28Z</time>
      </trkpt>
      <trkpt lat="42.98823" lon="2.16735">
        <ele>303</ele>
        <time>2021-12-05T15:09:37Z</time>
      </trkpt>
      <trkpt lat="42.98813" lon="2.16723">
        <ele>303</ele>
        <time>2021-12-05T15:09:40Z</time>
      </trkpt>
      <trkpt lat="42.98793" lon="2.16715">
        <ele>303</ele>
        <time>2021-12-05T15:09:43Z</time>
      </trkpt>
      <trkpt lat="42.98776" lon="2.16715">
        <ele>304</ele>
        <time>2021-12-05T15:09:46Z</time>
      </trkpt>
      <trkpt lat="42.98743" lon="2.16721">
        <ele>305</ele>
        <time>2021-12-05T15:09:52Z</time>
      </trkpt>
      <trkpt lat="42.9872" lon="2.16723">
        <ele>308</ele>
        <time>2021-12-05T15:09:56Z</time>
      </trkpt>
      <trkpt lat="42.98689" lon="2.16718">
        <ele>310</ele>
        <time>2021-12-05T15:10:02Z</time>
      </trkpt>
      <trkpt lat="42.98658" lon="2.16717">
        <ele>312</ele>
        <time>2021-12-05T15:10:07Z</time>
      </trkpt>
      <trkpt lat="42.98644" lon="2.16713">
        <ele>312</ele>
        <time>2021-12-05T15:10:10Z</time>
      </trkpt>
      <trkpt lat="42.98628" lon="2.16704">
        <ele>310</ele>
        <time>2021-12-05T15:10:13Z</time>
      </trkpt>
      <trkpt lat="42.98605" lon="2.16683">
        <ele>307</ele>
        <time>2021-12-05T15:10:18Z</time>
      </trkpt>
      <trkpt lat="42.98597" lon="2.16682">
        <ele>307</ele>
        <time>2021-12-05T15:10:19Z</time>
      </trkpt>
      <trkpt lat="42.98586" lon="2.16684">
        <ele>307</ele>
        <time>2021-12-05T15:10:21Z</time>
      </trkpt>
      <trkpt lat="42.9854" lon="2.16714">
        <ele>312</ele>
        <time>2021-12-05T15:10:30Z</time>
      </trkpt>
      <trkpt lat="42.98516" lon="2.16723">
        <ele>312</ele>
        <time>2021-12-05T15:10:35Z</time>
      </trkpt>
      <trkpt lat="42.98464" lon="2.16728">
        <ele>313</ele>
        <time>2021-12-05T15:10:44Z</time>
      </trkpt>
      <trkpt lat="42.98443" lon="2.16725">
        <ele>314</ele>
        <time>2021-12-05T15:10:48Z</time>
      </trkpt>
      <trkpt lat="42.98422" lon="2.16743">
        <ele>314</ele>
        <time>2021-12-05T15:10:52Z</time>
      </trkpt>
      <trkpt lat="42.98359" lon="2.16841">
        <ele>319</ele>
        <time>2021-12-05T15:11:09Z</time>
      </trkpt>
      <trkpt lat="42.983" lon="2.16924">
        <ele>326</ele>
        <time>2021-12-05T15:11:24Z</time>
      </trkpt>
      <trkpt lat="42.98253" lon="2.1696">
        <ele>329</ele>
        <time>2021-12-05T15:11:34Z</time>
      </trkpt>
      <trkpt lat="42.98239" lon="2.16995">
        <ele>330</ele>
        <time>2021-12-05T15:11:39Z</time>
      </trkpt>
      <trkpt lat="42.98222" lon="2.17071">
        <ele>333</ele>
        <time>2021-12-05T15:11:49Z</time>
      </trkpt>
      <trkpt lat="42.98147" lon="2.17205">
        <ele>341</ele>
        <time>2021-12-05T15:12:11Z</time>
      </trkpt>
      <trkpt lat="42.98121" lon="2.17249">
        <ele>344</ele>
        <time>2021-12-05T15:12:19Z</time>
      </trkpt>
      <trkpt lat="42.98106" lon="2.17291">
        <ele>346</ele>
        <time>2021-12-05T15:12:25Z</time>
      </trkpt>
      <trkpt lat="42.98099" lon="2.1733">
        <ele>348</ele>
        <time>2021-12-05T15:12:30Z</time>
      </trkpt>
      <trkpt lat="42.9809" lon="2.17373">
        <ele>349</ele>
        <time>2021-12-05T15:12:36Z</time>
      </trkpt>
      <trkpt lat="42.98071" lon="2.17429">
        <ele>352</ele>
        <time>2021-12-05T15:12:44Z</time>
      </trkpt>
      <trkpt lat="42.98036" lon="2.17495">
        <ele>356</ele>
        <time>2021-12-05T15:12:55Z</time>
      </trkpt>
      <trkpt lat="42.97989" lon="2.17549">
        <ele>358</ele>
        <time>2021-12-05T15:13:05Z</time>
      </trkpt>
      <trkpt lat="42.97979" lon="2.17565">
        <ele>359</ele>
        <time>2021-12-05T15:13:08Z</time>
      </trkpt>
      <trkpt lat="42.97965" lon="2.1764">
        <ele>363</ele>
        <time>2021-12-05T15:13:18Z</time>
      </trkpt>
      <trkpt lat="42.97952" lon="2.17684">
        <ele>365</ele>
        <time>2021-12-05T15:13:24Z</time>
      </trkpt>
      <trkpt lat="42.97937" lon="2.17706">
        <ele>365</ele>
        <time>2021-12-05T15:13:28Z</time>
      </trkpt>
      <trkpt lat="42.9784" lon="2.17795">
        <ele>370</ele>
        <time>2021-12-05T15:13:49Z</time>
      </trkpt>
      <trkpt lat="42.97822" lon="2.17815">
        <ele>373</ele>
        <time>2021-12-05T15:13:53Z</time>
      </trkpt>
      <trkpt lat="42.9778" lon="2.17891">
        <ele>379</ele>
        <time>2021-12-05T15:14:06Z</time>
      </trkpt>
      <trkpt lat="42.97709" lon="2.1801">
        <ele>384</ele>
        <time>2021-12-05T15:14:26Z</time>
      </trkpt>
      <trkpt lat="42.9766" lon="2.18073">
        <ele>388</ele>
        <time>2021-12-05T15:14:38Z</time>
      </trkpt>
      <trkpt lat="42.97582" lon="2.18206">
        <ele>396</ele>
        <time>2021-12-05T15:15:00Z</time>
      </trkpt>
      <trkpt lat="42.97549" lon="2.1827">
        <ele>398</ele>
        <time>2021-12-05T15:15:10Z</time>
      </trkpt>
      <trkpt lat="42.97541" lon="2.18296">
        <ele>399</ele>
        <time>2021-12-05T15:15:14Z</time>
      </trkpt>
      <trkpt lat="42.97518" lon="2.18415">
        <ele>401</ele>
        <time>2021-12-05T15:15:30Z</time>
      </trkpt>
      <trkpt lat="42.97508" lon="2.18429">
        <ele>401</ele>
        <time>2021-12-05T15:15:32Z</time>
      </trkpt>
      <trkpt lat="42.97229" lon="2.18416">
        <ele>407</ele>
        <time>2021-12-05T15:16:22Z</time>
      </trkpt>
      <trkpt lat="42.97202" lon="2.18412">
        <ele>408</ele>
        <time>2021-12-05T15:16:27Z</time>
      </trkpt>
      <trkpt lat="42.97194" lon="2.18406">
        <ele>409</ele>
        <time>2021-12-05T15:16:28Z</time>
      </trkpt>
      <trkpt lat="42.97187" lon="2.18397">
        <ele>409</ele>
        <time>2021-12-05T15:16:30Z</time>
      </trkpt>
      <trkpt lat="42.97181" lon="2.18383">
        <ele>409</ele>
        <time>2021-12-05T15:16:32Z</time>
      </trkpt>
      <trkpt lat="42.97147" lon="2.18258">
        <ele>414</ele>
        <time>2021-12-05T15:16:50Z</time>
      </trkpt>
      <trkpt lat="42.97141" lon="2.1824">
        <ele>415</ele>
        <time>2021-12-05T15:16:52Z</time>
      </trkpt>
      <trkpt lat="42.97115" lon="2.18189">
        <ele>418</ele>
        <time>2021-12-05T15:17:00Z</time>
      </trkpt>
      <trkpt lat="42.97096" lon="2.18158">
        <ele>421</ele>
        <time>2021-12-05T15:17:05Z</time>
      </trkpt>
      <trkpt lat="42.97085" lon="2.18144">
        <ele>423</ele>
        <time>2021-12-05T15:17:08Z</time>
      </trkpt>
      <trkpt lat="42.97078" lon="2.1814">
        <ele>424</ele>
        <time>2021-12-05T15:17:10Z</time>
      </trkpt>
      <trkpt lat="42.96851" lon="2.18178">
        <ele>427</ele>
        <time>2021-12-05T15:17:50Z</time>
      </trkpt>
      <trkpt lat="42.96816" lon="2.18182">
        <ele>426</ele>
        <time>2021-12-05T15:17:56Z</time>
      </trkpt>
      <trkpt lat="42.96804" lon="2.18181">
        <ele>425</ele>
        <time>2021-12-05T15:17:59Z</time>
      </trkpt>
      <trkpt lat="42.96788" lon="2.18174">
        <ele>423</ele>
        <time>2021-12-05T15:18:02Z</time>
      </trkpt>
      <trkpt lat="42.96766" lon="2.1815">
        <ele>422</ele>
        <time>2021-12-05T15:18:07Z</time>
      </trkpt>
      <trkpt lat="42.96746" lon="2.18126">
        <ele>421</ele>
        <time>2021-12-05T15:18:11Z</time>
      </trkpt>
      <trkpt lat="42.96734" lon="2.18122">
        <ele>421</ele>
        <time>2021-12-05T15:18:14Z</time>
      </trkpt>
      <trkpt lat="42.96724" lon="2.18123">
        <ele>421</ele>
        <time>2021-12-05T15:18:15Z</time>
      </trkpt>
      <trkpt lat="42.96703" lon="2.1813">
        <ele>420</ele>
        <time>2021-12-05T15:18:19Z</time>
      </trkpt>
      <trkpt lat="42.96686" lon="2.1815">
        <ele>418</ele>
        <time>2021-12-05T15:18:23Z</time>
      </trkpt>
      <trkpt lat="42.96676" lon="2.18176">
        <ele>415</ele>
        <time>2021-12-05T15:18:27Z</time>
      </trkpt>
      <trkpt lat="42.96637" lon="2.18292">
        <ele>406</ele>
        <time>2021-12-05T15:18:44Z</time>
      </trkpt>
      <trkpt lat="42.96629" lon="2.18352">
        <ele>401</ele>
        <time>2021-12-05T15:18:52Z</time>
      </trkpt>
      <trkpt lat="42.96629" lon="2.18377">
        <ele>399</ele>
        <time>2021-12-05T15:18:55Z</time>
      </trkpt>
      <trkpt lat="42.96634" lon="2.18396">
        <ele>398</ele>
        <time>2021-12-05T15:18:57Z</time>
      </trkpt>
      <trkpt lat="42.96658" lon="2.18452">
        <ele>395</ele>
        <time>2021-12-05T15:19:06Z</time>
      </trkpt>
      <trkpt lat="42.96668" lon="2.18466">
        <ele>394</ele>
        <time>2021-12-05T15:19:08Z</time>
      </trkpt>
      <trkpt lat="42.96669" lon="2.18475">
        <ele>393</ele>
        <time>2021-12-05T15:19:10Z</time>
      </trkpt>
      <trkpt lat="42.96649" lon="2.18634">
        <ele>384</ele>
        <time>2021-12-05T15:19:31Z</time>
      </trkpt>
      <trkpt lat="42.96619" lon="2.18818">
        <ele>377</ele>
        <time>2021-12-05T15:19:55Z</time>
      </trkpt>
      <trkpt lat="42.96611" lon="2.18838">
        <ele>377</ele>
        <time>2021-12-05T15:19:58Z</time>
      </trkpt>
      <trkpt lat="42.96451" lon="2.19074">
        <ele>366</ele>
        <time>2021-12-05T15:20:40Z</time>
      </trkpt>
      <trkpt lat="42.96348" lon="2.19168">
        <ele>359</ele>
        <time>2021-12-05T15:21:02Z</time>
      </trkpt>
      <trkpt lat="42.96337" lon="2.19171">
        <ele>359</ele>
        <time>2021-12-05T15:21:04Z</time>
      </trkpt>
      <trkpt lat="42.96327" lon="2.19167">
        <ele>358</ele>
        <time>2021-12-05T15:21:06Z</time>
      </trkpt>
      <trkpt lat="42.96319" lon="2.19166">
        <ele>358</ele>
        <time>2021-12-05T15:21:07Z</time>
      </trkpt>
      <trkpt lat="42.96306" lon="2.19176">
        <ele>356</ele>
        <time>2021-12-05T15:21:10Z</time>
      </trkpt>
      <trkpt lat="42.96303" lon="2.19184">
        <ele>355</ele>
        <time>2021-12-05T15:21:11Z</time>
      </trkpt>
      <trkpt lat="42.96302" lon="2.192">
        <ele>354</ele>
        <time>2021-12-05T15:21:13Z</time>
      </trkpt>
      <trkpt lat="42.96304" lon="2.19213">
        <ele>354</ele>
        <time>2021-12-05T15:21:15Z</time>
      </trkpt>
      <trkpt lat="42.96323" lon="2.19278">
        <ele>352</ele>
        <time>2021-12-05T15:21:24Z</time>
      </trkpt>
      <trkpt lat="42.96329" lon="2.19313">
        <ele>351</ele>
        <time>2021-12-05T15:21:29Z</time>
      </trkpt>
      <trkpt lat="42.96329" lon="2.19333">
        <ele>351</ele>
        <time>2021-12-05T15:21:31Z</time>
      </trkpt>
      <trkpt lat="42.96328" lon="2.19345">
        <ele>351</ele>
        <time>2021-12-05T15:21:33Z</time>
      </trkpt>
      <trkpt lat="42.96309" lon="2.19399">
        <ele>350</ele>
        <time>2021-12-05T15:21:41Z</time>
      </trkpt>
      <trkpt lat="42.96306" lon="2.19416">
        <ele>349</ele>
        <time>2021-12-05T15:21:43Z</time>
      </trkpt>
      <trkpt lat="42.96298" lon="2.19549">
        <ele>345</ele>
        <time>2021-12-05T15:22:00Z</time>
      </trkpt>
      <trkpt lat="42.96285" lon="2.19816">
        <ele>345</ele>
        <time>2021-12-05T15:22:35Z</time>
      </trkpt>
      <trkpt lat="42.9629" lon="2.19869">
        <ele>345</ele>
        <time>2021-12-05T15:22:42Z</time>
      </trkpt>
      <trkpt lat="42.96354" lon="2.20057">
        <ele>340</ele>
        <time>2021-12-05T15:23:09Z</time>
      </trkpt>
      <trkpt lat="42.9637" lon="2.20119">
        <ele>340</ele>
        <time>2021-12-05T15:23:18Z</time>
      </trkpt>
      <trkpt lat="42.96376" lon="2.20162">
        <ele>338</ele>
        <time>2021-12-05T15:23:23Z</time>
      </trkpt>
      <trkpt lat="42.96368" lon="2.20217">
        <ele>336</ele>
        <time>2021-12-05T15:23:31Z</time>
      </trkpt>
      <trkpt lat="42.96308" lon="2.20469">
        <ele>329</ele>
        <time>2021-12-05T15:24:05Z</time>
      </trkpt>
      <trkpt lat="42.96299" lon="2.20521">
        <ele>329</ele>
        <time>2021-12-05T15:24:12Z</time>
      </trkpt>
      <trkpt lat="42.96299" lon="2.20538">
        <ele>329</ele>
        <time>2021-12-05T15:24:14Z</time>
      </trkpt>
      <trkpt lat="42.96295" lon="2.20574">
        <ele>329</ele>
        <time>2021-12-05T15:24:19Z</time>
      </trkpt>
      <trkpt lat="42.96299" lon="2.20623">
        <ele>330</ele>
        <time>2021-12-05T15:24:26Z</time>
      </trkpt>
      <trkpt lat="42.96308" lon="2.20697">
        <ele>329</ele>
        <time>2021-12-05T15:24:35Z</time>
      </trkpt>
      <trkpt lat="42.96302" lon="2.20948">
        <ele>322</ele>
        <time>2021-12-05T15:25:08Z</time>
      </trkpt>
      <trkpt lat="42.96314" lon="2.21153">
        <ele>317</ele>
        <time>2021-12-05T15:25:35Z</time>
      </trkpt>
      <trkpt lat="42.96317" lon="2.21277">
        <ele>317</ele>
        <time>2021-12-05T15:25:51Z</time>
      </trkpt>
      <trkpt lat="42.96279" lon="2.21553">
        <ele>315</ele>
        <time>2021-12-05T15:26:28Z</time>
      </trkpt>
      <trkpt lat="42.96272" lon="2.21576">
        <ele>314</ele>
        <time>2021-12-05T15:26:31Z</time>
      </trkpt>
      <trkpt lat="42.9624" lon="2.21655">
        <ele>312</ele>
        <time>2021-12-05T15:26:43Z</time>
      </trkpt>
      <trkpt lat="42.96217" lon="2.21723">
        <ele>311</ele>
        <time>2021-12-05T15:26:52Z</time>
      </trkpt>
      <trkpt lat="42.96216" lon="2.2173">
        <ele>311</ele>
        <time>2021-12-05T15:26:53Z</time>
      </trkpt>
      <trkpt lat="42.96202" lon="2.21783">
        <ele>311</ele>
        <time>2021-12-05T15:27:01Z</time>
      </trkpt>
      <trkpt lat="42.96197" lon="2.21796">
        <ele>311</ele>
        <time>2021-12-05T15:27:02Z</time>
      </trkpt>
      <trkpt lat="42.96186" lon="2.21814">
        <ele>309</ele>
        <time>2021-12-05T15:27:06Z</time>
      </trkpt>
      <trkpt lat="42.96153" lon="2.21859">
        <ele>308</ele>
        <time>2021-12-05T15:27:14Z</time>
      </trkpt>
      <trkpt lat="42.96137" lon="2.21875">
        <ele>308</ele>
        <time>2021-12-05T15:27:17Z</time>
      </trkpt>
      <trkpt lat="42.96096" lon="2.21904">
        <ele>306</ele>
        <time>2021-12-05T15:27:26Z</time>
      </trkpt>
      <trkpt lat="42.96088" lon="2.21909">
        <ele>305</ele>
        <time>2021-12-05T15:27:27Z</time>
      </trkpt>
      <trkpt lat="42.9608" lon="2.21915">
        <ele>305</ele>
        <time>2021-12-05T15:27:29Z</time>
      </trkpt>
      <trkpt lat="42.95959" lon="2.22016">
        <ele>305</ele>
        <time>2021-12-05T15:27:54Z</time>
      </trkpt>
      <trkpt lat="42.95938" lon="2.22035">
        <ele>305</ele>
        <time>2021-12-05T15:27:58Z</time>
      </trkpt>
      <trkpt lat="42.95927" lon="2.2204">
        <ele>305</ele>
        <time>2021-12-05T15:28:01Z</time>
      </trkpt>
      <trkpt lat="42.95872" lon="2.22059">
        <ele>303</ele>
        <time>2021-12-05T15:28:11Z</time>
      </trkpt>
      <trkpt lat="42.95862" lon="2.22066">
        <ele>302</ele>
        <time>2021-12-05T15:28:13Z</time>
      </trkpt>
      <trkpt lat="42.95852" lon="2.22075">
        <ele>301</ele>
        <time>2021-12-05T15:28:15Z</time>
      </trkpt>
      <trkpt lat="42.95842" lon="2.22096">
        <ele>301</ele>
        <time>2021-12-05T15:28:18Z</time>
      </trkpt>
      <trkpt lat="42.9579" lon="2.22201">
        <ele>299</ele>
        <time>2021-12-05T15:28:35Z</time>
      </trkpt>
      <trkpt lat="42.95754" lon="2.22249">
        <ele>296</ele>
        <time>2021-12-05T15:28:43Z</time>
      </trkpt>
      <trkpt lat="42.95742" lon="2.22275">
        <ele>297</ele>
        <time>2021-12-05T15:28:47Z</time>
      </trkpt>
      <trkpt lat="42.95728" lon="2.22335">
        <ele>297</ele>
        <time>2021-12-05T15:28:56Z</time>
      </trkpt>
      <trkpt lat="42.95721" lon="2.22356">
        <ele>298</ele>
        <time>2021-12-05T15:28:59Z</time>
      </trkpt>
      <trkpt lat="42.95704" lon="2.22381">
        <ele>297</ele>
        <time>2021-12-05T15:29:03Z</time>
      </trkpt>
      <trkpt lat="42.95682" lon="2.22404">
        <ele>295</ele>
        <time>2021-12-05T15:29:08Z</time>
      </trkpt>
      <trkpt lat="42.95664" lon="2.22417">
        <ele>293</ele>
        <time>2021-12-05T15:29:12Z</time>
      </trkpt>
      <trkpt lat="42.9566" lon="2.22421">
        <ele>293</ele>
        <time>2021-12-05T15:29:13Z</time>
      </trkpt>
      <trkpt lat="42.95652" lon="2.22428">
        <ele>294</ele>
        <time>2021-12-05T15:29:14Z</time>
      </trkpt>
      <trkpt lat="42.95619" lon="2.22471">
        <ele>294</ele>
        <time>2021-12-05T15:29:22Z</time>
      </trkpt>
      <trkpt lat="42.95588" lon="2.22513">
        <ele>293</ele>
        <time>2021-12-05T15:29:30Z</time>
      </trkpt>
      <trkpt lat="42.9558" lon="2.22524">
        <ele>293</ele>
        <time>2021-12-05T15:29:32Z</time>
      </trkpt>
      <trkpt lat="42.95559" lon="2.22551">
        <ele>294</ele>
        <time>2021-12-05T15:29:37Z</time>
      </trkpt>
      <trkpt lat="42.95535" lon="2.22576">
        <ele>293</ele>
        <time>2021-12-05T15:29:43Z</time>
      </trkpt>
      <trkpt lat="42.9552" lon="2.22588">
        <ele>293</ele>
        <time>2021-12-05T15:29:46Z</time>
      </trkpt>
      <trkpt lat="42.95496" lon="2.22603">
        <ele>293</ele>
        <time>2021-12-05T15:29:50Z</time>
      </trkpt>
      <trkpt lat="42.95483" lon="2.22611">
        <ele>293</ele>
        <time>2021-12-05T15:29:53Z</time>
      </trkpt>
      <trkpt lat="42.9547" lon="2.22612">
        <ele>293</ele>
        <time>2021-12-05T15:29:55Z</time>
      </trkpt>
      <trkpt lat="42.95375" lon="2.22608">
        <ele>289</ele>
        <time>2021-12-05T15:30:12Z</time>
      </trkpt>
      <trkpt lat="42.95324" lon="2.22616">
        <ele>289</ele>
        <time>2021-12-05T15:30:21Z</time>
      </trkpt>
      <trkpt lat="42.95244" lon="2.22636">
        <ele>285</ele>
        <time>2021-12-05T15:30:36Z</time>
      </trkpt>
      <trkpt lat="42.95202" lon="2.2267">
        <ele>281</ele>
        <time>2021-12-05T15:30:44Z</time>
      </trkpt>
      <trkpt lat="42.95148" lon="2.22714">
        <ele>280</ele>
        <time>2021-12-05T15:30:56Z</time>
      </trkpt>
      <trkpt lat="42.95137" lon="2.22727">
        <ele>281</ele>
        <time>2021-12-05T15:30:58Z</time>
      </trkpt>
      <trkpt lat="42.95117" lon="2.2276">
        <ele>281</ele>
        <time>2021-12-05T15:31:04Z</time>
      </trkpt>
      <trkpt lat="42.95106" lon="2.22782">
        <ele>280</ele>
        <time>2021-12-05T15:31:07Z</time>
      </trkpt>
      <trkpt lat="42.95099" lon="2.22801">
        <ele>279</ele>
        <time>2021-12-05T15:31:10Z</time>
      </trkpt>
      <trkpt lat="42.951" lon="2.22813">
        <ele>279</ele>
        <time>2021-12-05T15:31:12Z</time>
      </trkpt>
      <trkpt lat="42.95105" lon="2.22827">
        <ele>279</ele>
        <time>2021-12-05T15:31:14Z</time>
      </trkpt>
      <trkpt lat="42.95119" lon="2.22854">
        <ele>280</ele>
        <time>2021-12-05T15:31:18Z</time>
      </trkpt>
      <trkpt lat="42.95122" lon="2.22871">
        <ele>280</ele>
        <time>2021-12-05T15:31:20Z</time>
      </trkpt>
      <trkpt lat="42.9512" lon="2.22893">
        <ele>280</ele>
        <time>2021-12-05T15:31:23Z</time>
      </trkpt>
      <trkpt lat="42.9511" lon="2.22938">
        <ele>277</ele>
        <time>2021-12-05T15:31:29Z</time>
      </trkpt>
      <trkpt lat="42.95101" lon="2.22985">
        <ele>275</ele>
        <time>2021-12-05T15:31:36Z</time>
      </trkpt>
      <trkpt lat="42.95096" lon="2.22994">
        <ele>273</ele>
        <time>2021-12-05T15:31:37Z</time>
      </trkpt>
      <trkpt lat="42.95087" lon="2.23011">
        <ele>272</ele>
        <time>2021-12-05T15:31:40Z</time>
      </trkpt>
      <trkpt lat="42.95073" lon="2.23037">
        <ele>274</ele>
        <time>2021-12-05T15:31:44Z</time>
      </trkpt>
      <trkpt lat="42.95057" lon="2.23053">
        <ele>274</ele>
        <time>2021-12-05T15:31:48Z</time>
      </trkpt>
      <trkpt lat="42.95045" lon="2.2308">
        <ele>272</ele>
        <time>2021-12-05T15:31:52Z</time>
      </trkpt>
      <trkpt lat="42.95021" lon="2.23151">
        <ele>269</ele>
        <time>2021-12-05T15:32:02Z</time>
      </trkpt>
      <trkpt lat="42.94986" lon="2.23184">
        <ele>267</ele>
        <time>2021-12-05T15:32:09Z</time>
      </trkpt>
      <trkpt lat="42.94939" lon="2.23194">
        <ele>266</ele>
        <time>2021-12-05T15:32:18Z</time>
      </trkpt>
      <trkpt lat="42.94915" lon="2.23203">
        <ele>266</ele>
        <time>2021-12-05T15:32:22Z</time>
      </trkpt>
      <trkpt lat="42.94889" lon="2.23228">
        <ele>267</ele>
        <time>2021-12-05T15:32:28Z</time>
      </trkpt>
      <trkpt lat="42.94881" lon="2.2324">
        <ele>266</ele>
        <time>2021-12-05T15:32:30Z</time>
      </trkpt>
      <trkpt lat="42.94872" lon="2.23257">
        <ele>265</ele>
        <time>2021-12-05T15:32:33Z</time>
      </trkpt>
      <trkpt lat="42.94865" lon="2.23287">
        <ele>265</ele>
        <time>2021-12-05T15:32:37Z</time>
      </trkpt>
      <trkpt lat="42.94845" lon="2.23322">
        <ele>262</ele>
        <time>2021-12-05T15:32:43Z</time>
      </trkpt>
      <trkpt lat="42.94826" lon="2.23339">
        <ele>260</ele>
        <time>2021-12-05T15:32:47Z</time>
      </trkpt>
      <trkpt lat="42.94801" lon="2.2335">
        <ele>260</ele>
        <time>2021-12-05T15:32:51Z</time>
      </trkpt>
      <trkpt lat="42.94765" lon="2.23376">
        <ele>260</ele>
        <time>2021-12-05T15:32:59Z</time>
      </trkpt>
      <trkpt lat="42.94713" lon="2.23433">
        <ele>261</ele>
        <time>2021-12-05T15:33:11Z</time>
      </trkpt>
      <trkpt lat="42.94694" lon="2.23451">
        <ele>261</ele>
        <time>2021-12-05T15:33:15Z</time>
      </trkpt>
      <trkpt lat="42.94656" lon="2.23486">
        <ele>258</ele>
        <time>2021-12-05T15:33:23Z</time>
      </trkpt>
      <trkpt lat="42.94636" lon="2.23494">
        <ele>256</ele>
        <time>2021-12-05T15:33:26Z</time>
      </trkpt>
      <trkpt lat="42.94609" lon="2.23505">
        <ele>255</ele>
        <time>2021-12-05T15:33:32Z</time>
      </trkpt>
      <trkpt lat="42.94583" lon="2.23519">
        <ele>254</ele>
        <time>2021-12-05T15:33:36Z</time>
      </trkpt>
      <trkpt lat="42.94559" lon="2.23549">
        <ele>254</ele>
        <time>2021-12-05T15:33:42Z</time>
      </trkpt>
      <trkpt lat="42.94538" lon="2.23597">
        <ele>251</ele>
        <time>2021-12-05T15:33:50Z</time>
      </trkpt>
      <trkpt lat="42.94536" lon="2.23605">
        <ele>251</ele>
        <time>2021-12-05T15:33:51Z</time>
      </trkpt>
      <trkpt lat="42.94517" lon="2.23661">
        <ele>248</ele>
        <time>2021-12-05T15:33:59Z</time>
      </trkpt>
      <trkpt lat="42.94508" lon="2.23699">
        <ele>247</ele>
        <time>2021-12-05T15:34:04Z</time>
      </trkpt>
      <trkpt lat="42.94504" lon="2.23714">
        <ele>246</ele>
        <time>2021-12-05T15:34:06Z</time>
      </trkpt>
      <trkpt lat="42.94424" lon="2.23802">
        <ele>239</ele>
        <time>2021-12-05T15:34:24Z</time>
      </trkpt>
      <trkpt lat="42.94409" lon="2.23815">
        <ele>238</ele>
        <time>2021-12-05T15:34:27Z</time>
      </trkpt>
      <trkpt lat="42.94348" lon="2.2385">
        <ele>239</ele>
        <time>2021-12-05T15:34:39Z</time>
      </trkpt>
      <trkpt lat="42.94265" lon="2.23895">
        <ele>238</ele>
        <time>2021-12-05T15:34:55Z</time>
      </trkpt>
      <trkpt lat="42.94238" lon="2.23905">
        <ele>238</ele>
        <time>2021-12-05T15:35:00Z</time>
      </trkpt>
      <trkpt lat="42.94214" lon="2.23905">
        <ele>237</ele>
        <time>2021-12-05T15:35:04Z</time>
      </trkpt>
      <trkpt lat="42.94209" lon="2.23905">
        <ele>237</ele>
        <time>2021-12-05T15:35:05Z</time>
      </trkpt>
      <trkpt lat="42.94202" lon="2.23904">
        <ele>236</ele>
        <time>2021-12-05T15:35:06Z</time>
      </trkpt>
      <trkpt lat="42.9418" lon="2.23892">
        <ele>235</ele>
        <time>2021-12-05T15:35:11Z</time>
      </trkpt>
      <trkpt lat="42.94187" lon="2.23876">
        <ele>235</ele>
        <time>2021-12-05T15:35:13Z</time>
      </trkpt>
      <trkpt lat="42.94197" lon="2.23853">
        <ele>235</ele>
        <time>2021-12-05T15:35:17Z</time>
      </trkpt>
      <trkpt lat="42.94229" lon="2.23767">
        <ele>236</ele>
        <time>2021-12-05T15:35:29Z</time>
      </trkpt>
      <trkpt lat="42.94237" lon="2.23736">
        <ele>236</ele>
        <time>2021-12-05T15:35:33Z</time>
      </trkpt>
      <trkpt lat="42.94241" lon="2.23707">
        <ele>237</ele>
        <time>2021-12-05T15:35:37Z</time>
      </trkpt>
      <trkpt lat="42.94242" lon="2.23686">
        <ele>237</ele>
        <time>2021-12-05T15:35:40Z</time>
      </trkpt>
      <trkpt lat="42.94236" lon="2.23635">
        <ele>237</ele>
        <time>2021-12-05T15:35:47Z</time>
      </trkpt>
      <trkpt lat="42.94229" lon="2.2361">
        <ele>238</ele>
        <time>2021-12-05T15:35:50Z</time>
      </trkpt>
      <trkpt lat="42.94223" lon="2.23601">
        <ele>238</ele>
        <time>2021-12-05T15:35:52Z</time>
      </trkpt>
      <trkpt lat="42.9421" lon="2.23587">
        <ele>237</ele>
        <time>2021-12-05T15:35:55Z</time>
      </trkpt>
      <trkpt lat="42.93797" lon="2.23256">
        <ele>239</ele>
        <time>2021-12-05T15:37:20Z</time>
      </trkpt>
      <trkpt lat="42.93793" lon="2.23253">
        <ele>239</ele>
        <time>2021-12-05T15:37:21Z</time>
      </trkpt>
      <trkpt lat="42.93742" lon="2.23211">
        <ele>239</ele>
        <time>2021-12-05T15:37:31Z</time>
      </trkpt>
      <trkpt lat="42.93717" lon="2.23191">
        <ele>239</ele>
        <time>2021-12-05T15:37:37Z</time>
      </trkpt>
      <trkpt lat="42.93705" lon="2.23181">
        <ele>238</ele>
        <time>2021-12-05T15:37:39Z</time>
      </trkpt>
      <trkpt lat="42.93685" lon="2.23165">
        <ele>237</ele>
        <time>2021-12-05T15:37:43Z</time>
      </trkpt>
      <trkpt lat="42.9368" lon="2.2316">
        <ele>238</ele>
        <time>2021-12-05T15:37:44Z</time>
      </trkpt>
      <trkpt lat="42.93625" lon="2.23116">
        <ele>239</ele>
        <time>2021-12-05T15:37:56Z</time>
      </trkpt>
      <trkpt lat="42.93621" lon="2.23112">
        <ele>239</ele>
        <time>2021-12-05T15:37:56Z</time>
      </trkpt>
      <trkpt lat="42.93592" lon="2.23089">
        <ele>239</ele>
        <time>2021-12-05T15:38:02Z</time>
      </trkpt>
      <trkpt lat="42.93583" lon="2.23081">
        <ele>239</ele>
        <time>2021-12-05T15:38:04Z</time>
      </trkpt>
      <trkpt lat="42.93572" lon="2.23072">
        <ele>239</ele>
        <time>2021-12-05T15:38:07Z</time>
      </trkpt>
      <trkpt lat="42.93559" lon="2.23059">
        <ele>239</ele>
        <time>2021-12-05T15:38:10Z</time>
      </trkpt>
      <trkpt lat="42.93557" lon="2.23056">
        <ele>239</ele>
        <time>2021-12-05T15:38:10Z</time>
      </trkpt>
      <trkpt lat="42.93549" lon="2.23047">
        <ele>239</ele>
        <time>2021-12-05T15:38:12Z</time>
      </trkpt>
      <trkpt lat="42.93538" lon="2.23031">
        <ele>239</ele>
        <time>2021-12-05T15:38:15Z</time>
      </trkpt>
      <trkpt lat="42.93535" lon="2.23026">
        <ele>239</ele>
        <time>2021-12-05T15:38:16Z</time>
      </trkpt>
      <trkpt lat="42.93531" lon="2.23019">
        <ele>239</ele>
        <time>2021-12-05T15:38:17Z</time>
      </trkpt>
      <trkpt lat="42.93525" lon="2.23006">
        <ele>239</ele>
        <time>2021-12-05T15:38:19Z</time>
      </trkpt>
      <trkpt lat="42.93519" lon="2.22986">
        <ele>239</ele>
        <time>2021-12-05T15:38:22Z</time>
      </trkpt>
      <trkpt lat="42.93503" lon="2.22916">
        <ele>239</ele>
        <time>2021-12-05T15:38:31Z</time>
      </trkpt>
      <trkpt lat="42.93486" lon="2.22849">
        <ele>241</ele>
        <time>2021-12-05T15:38:40Z</time>
      </trkpt>
      <trkpt lat="42.93471" lon="2.22785">
        <ele>241</ele>
        <time>2021-12-05T15:38:49Z</time>
      </trkpt>
      <trkpt lat="42.93456" lon="2.22721">
        <ele>241</ele>
        <time>2021-12-05T15:38:58Z</time>
      </trkpt>
      <trkpt lat="42.93452" lon="2.22706">
        <ele>241</ele>
        <time>2021-12-05T15:39:00Z</time>
      </trkpt>
      <trkpt lat="42.93419" lon="2.22566">
        <ele>240</ele>
        <time>2021-12-05T15:39:19Z</time>
      </trkpt>
      <trkpt lat="42.93415" lon="2.22539">
        <ele>240</ele>
        <time>2021-12-05T15:39:23Z</time>
      </trkpt>
      <trkpt lat="42.93418" lon="2.22513">
        <ele>241</ele>
        <time>2021-12-05T15:39:26Z</time>
      </trkpt>
      <trkpt lat="42.93448" lon="2.22356">
        <ele>243</ele>
        <time>2021-12-05T15:39:47Z</time>
      </trkpt>
      <trkpt lat="42.93468" lon="2.22261">
        <ele>244</ele>
        <time>2021-12-05T15:40:00Z</time>
      </trkpt>
      <trkpt lat="42.9348" lon="2.2218">
        <ele>244</ele>
        <time>2021-12-05T15:40:11Z</time>
      </trkpt>
      <trkpt lat="42.93486" lon="2.22144">
        <ele>244</ele>
        <time>2021-12-05T15:40:16Z</time>
      </trkpt>
      <trkpt lat="42.93503" lon="2.22081">
        <ele>243</ele>
        <time>2021-12-05T15:40:24Z</time>
      </trkpt>
      <trkpt lat="42.9351" lon="2.22043">
        <ele>243</ele>
        <time>2021-12-05T15:40:30Z</time>
      </trkpt>
      <trkpt lat="42.93523" lon="2.21912">
        <ele>241</ele>
        <time>2021-12-05T15:40:47Z</time>
      </trkpt>
      <trkpt lat="42.93525" lon="2.21834">
        <ele>242</ele>
        <time>2021-12-05T15:40:57Z</time>
      </trkpt>
      <trkpt lat="42.93524" lon="2.2182">
        <ele>242</ele>
        <time>2021-12-05T15:40:59Z</time>
      </trkpt>
      <trkpt lat="42.93511" lon="2.21645">
        <ele>241</ele>
        <time>2021-12-05T15:41:22Z</time>
      </trkpt>
      <trkpt lat="42.9351" lon="2.21621">
        <ele>241</ele>
        <time>2021-12-05T15:41:25Z</time>
      </trkpt>
      <trkpt lat="42.9351" lon="2.21617">
        <ele>241</ele>
        <time>2021-12-05T15:41:25Z</time>
      </trkpt>
      <trkpt lat="42.93508" lon="2.21571">
        <ele>241</ele>
        <time>2021-12-05T15:41:31Z</time>
      </trkpt>
      <trkpt lat="42.93507" lon="2.21534">
        <ele>242</ele>
        <time>2021-12-05T15:41:36Z</time>
      </trkpt>
      <trkpt lat="42.93504" lon="2.21495">
        <ele>243</ele>
        <time>2021-12-05T15:41:41Z</time>
      </trkpt>
      <trkpt lat="42.93502" lon="2.2147">
        <ele>244</ele>
        <time>2021-12-05T15:41:45Z</time>
      </trkpt>
      <trkpt lat="42.93498" lon="2.21438">
        <ele>244</ele>
        <time>2021-12-05T15:41:49Z</time>
      </trkpt>
      <trkpt lat="42.93492" lon="2.2141">
        <ele>245</ele>
        <time>2021-12-05T15:41:53Z</time>
      </trkpt>
      <trkpt lat="42.93472" lon="2.21327">
        <ele>248</ele>
        <time>2021-12-05T15:42:04Z</time>
      </trkpt>
      <trkpt lat="42.93468" lon="2.21313">
        <ele>248</ele>
        <time>2021-12-05T15:42:06Z</time>
      </trkpt>
      <trkpt lat="42.93459" lon="2.21294">
        <ele>248</ele>
        <time>2021-12-05T15:42:09Z</time>
      </trkpt>
      <trkpt lat="42.93453" lon="2.21284">
        <ele>248</ele>
        <time>2021-12-05T15:42:11Z</time>
      </trkpt>
      <trkpt lat="42.93449" lon="2.21278">
        <ele>248</ele>
        <time>2021-12-05T15:42:12Z</time>
      </trkpt>
      <trkpt lat="42.93435" lon="2.21262">
        <ele>248</ele>
        <time>2021-12-05T15:42:15Z</time>
      </trkpt>
      <trkpt lat="42.93406" lon="2.21226">
        <ele>247</ele>
        <time>2021-12-05T15:42:22Z</time>
      </trkpt>
      <trkpt lat="42.93383" lon="2.21199">
        <ele>246</ele>
        <time>2021-12-05T15:42:27Z</time>
      </trkpt>
      <trkpt lat="42.93371" lon="2.21188">
        <ele>246</ele>
        <time>2021-12-05T15:42:30Z</time>
      </trkpt>
      <trkpt lat="42.93362" lon="2.21183">
        <ele>245</ele>
        <time>2021-12-05T15:42:32Z</time>
      </trkpt>
      <trkpt lat="42.93356" lon="2.21182">
        <ele>245</ele>
        <time>2021-12-05T15:42:33Z</time>
      </trkpt>
      <trkpt lat="42.93349" lon="2.21181">
        <ele>244</ele>
        <time>2021-12-05T15:42:34Z</time>
      </trkpt>
      <trkpt lat="42.93268" lon="2.21178">
        <ele>242</ele>
        <time>2021-12-05T15:42:48Z</time>
      </trkpt>
      <trkpt lat="42.93249" lon="2.21179">
        <ele>242</ele>
        <time>2021-12-05T15:42:52Z</time>
      </trkpt>
      <trkpt lat="42.93231" lon="2.21182">
        <ele>242</ele>
        <time>2021-12-05T15:42:55Z</time>
      </trkpt>
      <trkpt lat="42.93224" lon="2.21185">
        <ele>243</ele>
        <time>2021-12-05T15:42:56Z</time>
      </trkpt>
      <trkpt lat="42.9321" lon="2.21195">
        <ele>243</ele>
        <time>2021-12-05T15:42:59Z</time>
      </trkpt>
      <trkpt lat="42.93202" lon="2.21203">
        <ele>243</ele>
        <time>2021-12-05T15:43:01Z</time>
      </trkpt>
      <trkpt lat="42.93155" lon="2.21294">
        <ele>242</ele>
        <time>2021-12-05T15:43:15Z</time>
      </trkpt>
      <trkpt lat="42.93138" lon="2.21318">
        <ele>242</ele>
        <time>2021-12-05T15:43:20Z</time>
      </trkpt>
      <trkpt lat="42.931" lon="2.21351">
        <ele>243</ele>
        <time>2021-12-05T15:43:28Z</time>
      </trkpt>
      <trkpt lat="42.93086" lon="2.21368">
        <ele>243</ele>
        <time>2021-12-05T15:43:31Z</time>
      </trkpt>
      <trkpt lat="42.93072" lon="2.21388">
        <ele>243</ele>
        <time>2021-12-05T15:43:35Z</time>
      </trkpt>
      <trkpt lat="42.93047" lon="2.21435">
        <ele>243</ele>
        <time>2021-12-05T15:43:42Z</time>
      </trkpt>
      <trkpt lat="42.92935" lon="2.21614">
        <ele>246</ele>
        <time>2021-12-05T15:44:13Z</time>
      </trkpt>
      <trkpt lat="42.92916" lon="2.21638">
        <ele>246</ele>
        <time>2021-12-05T15:44:17Z</time>
      </trkpt>
      <trkpt lat="42.92905" lon="2.21648">
        <ele>246</ele>
        <time>2021-12-05T15:44:20Z</time>
      </trkpt>
      <trkpt lat="42.92873" lon="2.21673">
        <ele>246</ele>
        <time>2021-12-05T15:44:26Z</time>
      </trkpt>
      <trkpt lat="42.92865" lon="2.21681">
        <ele>246</ele>
        <time>2021-12-05T15:44:28Z</time>
      </trkpt>
      <trkpt lat="42.92841" lon="2.21721">
        <ele>245</ele>
        <time>2021-12-05T15:44:35Z</time>
      </trkpt>
      <trkpt lat="42.92834" lon="2.21713">
        <ele>245</ele>
        <time>2021-12-05T15:44:36Z</time>
      </trkpt>
      <trkpt lat="42.92741" lon="2.21883">
        <ele>248</ele>
        <time>2021-12-05T15:45:04Z</time>
      </trkpt>
      <trkpt lat="42.92739" lon="2.21878">
        <ele>248</ele>
        <time>2021-12-05T15:45:05Z</time>
      </trkpt>
      <trkpt lat="42.92717" lon="2.21894">
        <ele>248</ele>
        <time>2021-12-05T15:45:09Z</time>
      </trkpt>
      <trkpt lat="42.92696" lon="2.21902">
        <ele>248</ele>
        <time>2021-12-05T15:45:13Z</time>
      </trkpt>
      <trkpt lat="42.92676" lon="2.21908">
        <ele>248</ele>
        <time>2021-12-05T15:45:17Z</time>
      </trkpt>
      <trkpt lat="42.92652" lon="2.21912">
        <ele>248</ele>
        <time>2021-12-05T15:45:21Z</time>
      </trkpt>
      <trkpt lat="42.92641" lon="2.21911">
        <ele>248</ele>
        <time>2021-12-05T15:45:23Z</time>
      </trkpt>
      <trkpt lat="42.92629" lon="2.21907">
        <ele>248</ele>
        <time>2021-12-05T15:45:25Z</time>
      </trkpt>
      <trkpt lat="42.9259" lon="2.21886">
        <ele>251</ele>
        <time>2021-12-05T15:45:33Z</time>
      </trkpt>
      <trkpt lat="42.92533" lon="2.21858">
        <ele>251</ele>
        <time>2021-12-05T15:45:43Z</time>
      </trkpt>
      <trkpt lat="42.92486" lon="2.21815">
        <ele>250</ele>
        <time>2021-12-05T15:45:54Z</time>
      </trkpt>
      <trkpt lat="42.9248" lon="2.21807">
        <ele>251</ele>
        <time>2021-12-05T15:45:55Z</time>
      </trkpt>
      <trkpt lat="42.92475" lon="2.21793">
        <ele>251</ele>
        <time>2021-12-05T15:45:57Z</time>
      </trkpt>
      <trkpt lat="42.92472" lon="2.21776">
        <ele>252</ele>
        <time>2021-12-05T15:45:59Z</time>
      </trkpt>
      <trkpt lat="42.92467" lon="2.21762">
        <ele>252</ele>
        <time>2021-12-05T15:46:01Z</time>
      </trkpt>
      <trkpt lat="42.92456" lon="2.21748">
        <ele>252</ele>
        <time>2021-12-05T15:46:04Z</time>
      </trkpt>
      <trkpt lat="42.92438" lon="2.21719">
        <ele>252</ele>
        <time>2021-12-05T15:46:09Z</time>
      </trkpt>
      <trkpt lat="42.92426" lon="2.21696">
        <ele>253</ele>
        <time>2021-12-05T15:46:13Z</time>
      </trkpt>
      <trkpt lat="42.92412" lon="2.2166">
        <ele>253</ele>
        <time>2021-12-05T15:46:18Z</time>
      </trkpt>
      <trkpt lat="42.92401" lon="2.21639">
        <ele>254</ele>
        <time>2021-12-05T15:46:21Z</time>
      </trkpt>
      <trkpt lat="42.92353" lon="2.21575">
        <ele>254</ele>
        <time>2021-12-05T15:46:33Z</time>
      </trkpt>
      <trkpt lat="42.92338" lon="2.21561">
        <ele>252</ele>
        <time>2021-12-05T15:46:37Z</time>
      </trkpt>
      <trkpt lat="42.92317" lon="2.21548">
        <ele>252</ele>
        <time>2021-12-05T15:46:41Z</time>
      </trkpt>
      <trkpt lat="42.92289" lon="2.21519">
        <ele>252</ele>
        <time>2021-12-05T15:46:47Z</time>
      </trkpt>
      <trkpt lat="42.92257" lon="2.21459">
        <ele>253</ele>
        <time>2021-12-05T15:46:57Z</time>
      </trkpt>
      <trkpt lat="42.92208" lon="2.21354">
        <ele>252</ele>
        <time>2021-12-05T15:47:13Z</time>
      </trkpt>
      <trkpt lat="42.92167" lon="2.2128">
        <ele>251</ele>
        <time>2021-12-05T15:47:25Z</time>
      </trkpt>
      <trkpt lat="42.92126" lon="2.21197">
        <ele>253</ele>
        <time>2021-12-05T15:47:38Z</time>
      </trkpt>
      <trkpt lat="42.92053" lon="2.21064">
        <ele>254</ele>
        <time>2021-12-05T15:48:00Z</time>
      </trkpt>
      <trkpt lat="42.92034" lon="2.21022">
        <ele>255</ele>
        <time>2021-12-05T15:48:06Z</time>
      </trkpt>
      <trkpt lat="42.9203" lon="2.21012">
        <ele>255</ele>
        <time>2021-12-05T15:48:07Z</time>
      </trkpt>
      <trkpt lat="42.92026" lon="2.21003">
        <ele>255</ele>
        <time>2021-12-05T15:48:09Z</time>
      </trkpt>
      <trkpt lat="42.92008" lon="2.20965">
        <ele>255</ele>
        <time>2021-12-05T15:48:15Z</time>
      </trkpt>
      <trkpt lat="42.91982" lon="2.20931">
        <ele>255</ele>
        <time>2021-12-05T15:48:21Z</time>
      </trkpt>
      <trkpt lat="42.91961" lon="2.20898">
        <ele>256</ele>
        <time>2021-12-05T15:48:27Z</time>
      </trkpt>
      <trkpt lat="42.91943" lon="2.2088">
        <ele>256</ele>
        <time>2021-12-05T15:48:31Z</time>
      </trkpt>
      <trkpt lat="42.91883" lon="2.20806">
        <ele>256</ele>
        <time>2021-12-05T15:48:45Z</time>
      </trkpt>
      <trkpt lat="42.91797" lon="2.20769">
        <ele>254</ele>
        <time>2021-12-05T15:49:01Z</time>
      </trkpt>
      <trkpt lat="42.91769" lon="2.20757">
        <ele>254</ele>
        <time>2021-12-05T15:49:06Z</time>
      </trkpt>
      <trkpt lat="42.91785" lon="2.20713">
        <ele>256</ele>
        <time>2021-12-05T15:49:13Z</time>
      </trkpt>
      <trkpt lat="42.91729" lon="2.20673">
        <ele>255</ele>
        <time>2021-12-05T15:49:24Z</time>
      </trkpt>
      <trkpt lat="42.91723" lon="2.20664">
        <ele>255</ele>
        <time>2021-12-05T15:49:26Z</time>
      </trkpt>
      <trkpt lat="42.91697" lon="2.20648">
        <ele>256</ele>
        <time>2021-12-05T15:49:31Z</time>
      </trkpt>
      <trkpt lat="42.91667" lon="2.20634">
        <ele>256</ele>
        <time>2021-12-05T15:49:36Z</time>
      </trkpt>
      <trkpt lat="42.91654" lon="2.20641">
        <ele>256</ele>
        <time>2021-12-05T15:49:39Z</time>
      </trkpt>
      <trkpt lat="42.91641" lon="2.20641">
        <ele>256</ele>
        <time>2021-12-05T15:49:41Z</time>
      </trkpt>
      <trkpt lat="42.9162" lon="2.20645">
        <ele>256</ele>
        <time>2021-12-05T15:49:45Z</time>
      </trkpt>
      <trkpt lat="42.91614" lon="2.20648">
        <ele>257</ele>
        <time>2021-12-05T15:49:46Z</time>
      </trkpt>
      <trkpt lat="42.91596" lon="2.20672">
        <ele>256</ele>
        <time>2021-12-05T15:49:51Z</time>
      </trkpt>
      <trkpt lat="42.91589" lon="2.20664">
        <ele>257</ele>
        <time>2021-12-05T15:49:52Z</time>
      </trkpt>
      <trkpt lat="42.91581" lon="2.20659">
        <ele>257</ele>
        <time>2021-12-05T15:49:54Z</time>
      </trkpt>
      <trkpt lat="42.91572" lon="2.20659">
        <ele>257</ele>
        <time>2021-12-05T15:49:55Z</time>
      </trkpt>
      <trkpt lat="42.91558" lon="2.20608">
        <ele>257</ele>
        <time>2021-12-05T15:50:03Z</time>
      </trkpt>
      <trkpt lat="42.91556" lon="2.206">
        <ele>257</ele>
        <time>2021-12-05T15:50:04Z</time>
      </trkpt>
      <trkpt lat="42.91553" lon="2.20581">
        <ele>257</ele>
        <time>2021-12-05T15:50:06Z</time>
      </trkpt>
      <trkpt lat="42.91553" lon="2.20502">
        <ele>258</ele>
        <time>2021-12-05T15:50:16Z</time>
      </trkpt>
      <trkpt lat="42.91554" lon="2.20453">
        <ele>258</ele>
        <time>2021-12-05T15:50:23Z</time>
      </trkpt>
      <trkpt lat="42.91554" lon="2.20435">
        <ele>258</ele>
        <time>2021-12-05T15:50:25Z</time>
      </trkpt>
      <trkpt lat="42.91554" lon="2.2037">
        <ele>259</ele>
        <time>2021-12-05T15:50:34Z</time>
      </trkpt>
      <trkpt lat="42.91553" lon="2.20322">
        <ele>259</ele>
        <time>2021-12-05T15:50:40Z</time>
      </trkpt>
      <trkpt lat="42.91553" lon="2.20281">
        <ele>260</ele>
        <time>2021-12-05T15:50:45Z</time>
      </trkpt>
      <trkpt lat="42.91553" lon="2.20231">
        <ele>261</ele>
        <time>2021-12-05T15:50:52Z</time>
      </trkpt>
      <trkpt lat="42.91552" lon="2.20186">
        <ele>261</ele>
        <time>2021-12-05T15:50:58Z</time>
      </trkpt>
      <trkpt lat="42.91544" lon="2.20133">
        <ele>262</ele>
        <time>2021-12-05T15:51:05Z</time>
      </trkpt>
      <trkpt lat="42.9153" lon="2.20076">
        <ele>263</ele>
        <time>2021-12-05T15:51:13Z</time>
      </trkpt>
      <trkpt lat="42.91492" lon="2.19887">
        <ele>264</ele>
        <time>2021-12-05T15:51:38Z</time>
      </trkpt>
      <trkpt lat="42.91475" lon="2.1984">
        <ele>266</ele>
        <time>2021-12-05T15:51:45Z</time>
      </trkpt>
      <trkpt lat="42.91452" lon="2.19783">
        <ele>267</ele>
        <time>2021-12-05T15:51:53Z</time>
      </trkpt>
      <trkpt lat="42.91443" lon="2.19765">
        <ele>267</ele>
        <time>2021-12-05T15:51:56Z</time>
      </trkpt>
      <trkpt lat="42.91416" lon="2.19729">
        <ele>265</ele>
        <time>2021-12-05T15:52:03Z</time>
      </trkpt>
      <trkpt lat="42.91411" lon="2.19724">
        <ele>266</ele>
        <time>2021-12-05T15:52:04Z</time>
      </trkpt>
      <trkpt lat="42.9139" lon="2.19699">
        <ele>267</ele>
        <time>2021-12-05T15:52:09Z</time>
      </trkpt>
      <trkpt lat="42.91345" lon="2.19654">
        <ele>264</ele>
        <time>2021-12-05T15:52:19Z</time>
      </trkpt>
      <trkpt lat="42.91237" lon="2.19569">
        <ele>262</ele>
        <time>2021-12-05T15:52:41Z</time>
      </trkpt>
      <trkpt lat="42.91089" lon="2.19441">
        <ele>264</ele>
        <time>2021-12-05T15:53:12Z</time>
      </trkpt>
      <trkpt lat="42.91001" lon="2.19376">
        <ele>269</ele>
        <time>2021-12-05T15:53:30Z</time>
      </trkpt>
      <trkpt lat="42.90958" lon="2.19348">
        <ele>269</ele>
        <time>2021-12-05T15:53:39Z</time>
      </trkpt>
      <trkpt lat="42.90924" lon="2.19322">
        <ele>267</ele>
        <time>2021-12-05T15:53:45Z</time>
      </trkpt>
      <trkpt lat="42.90902" lon="2.19297">
        <ele>268</ele>
        <time>2021-12-05T15:53:51Z</time>
      </trkpt>
      <trkpt lat="42.90886" lon="2.19267">
        <ele>268</ele>
        <time>2021-12-05T15:53:55Z</time>
      </trkpt>
      <trkpt lat="42.90867" lon="2.19225">
        <ele>269</ele>
        <time>2021-12-05T15:54:02Z</time>
      </trkpt>
      <trkpt lat="42.90783" lon="2.19007">
        <ele>268</ele>
        <time>2021-12-05T15:54:34Z</time>
      </trkpt>
      <trkpt lat="42.90741" lon="2.18904">
        <ele>267</ele>
        <time>2021-12-05T15:54:49Z</time>
      </trkpt>
      <trkpt lat="42.90729" lon="2.18874">
        <ele>268</ele>
        <time>2021-12-05T15:54:54Z</time>
      </trkpt>
      <trkpt lat="42.90717" lon="2.1886">
        <ele>268</ele>
        <time>2021-12-05T15:54:57Z</time>
      </trkpt>
      <trkpt lat="42.90717" lon="2.18847">
        <ele>268</ele>
        <time>2021-12-05T15:54:58Z</time>
      </trkpt>
      <trkpt lat="42.90719" lon="2.18835">
        <ele>268</ele>
        <time>2021-12-05T15:55:00Z</time>
      </trkpt>
      <trkpt lat="42.9073" lon="2.1881">
        <ele>271</ele>
        <time>2021-12-05T15:55:04Z</time>
      </trkpt>
      <trkpt lat="42.90734" lon="2.18785">
        <ele>273</ele>
        <time>2021-12-05T15:55:07Z</time>
      </trkpt>
      <trkpt lat="42.90735" lon="2.18747">
        <ele>276</ele>
        <time>2021-12-05T15:55:12Z</time>
      </trkpt>
      <trkpt lat="42.90728" lon="2.18721">
        <ele>278</ele>
        <time>2021-12-05T15:55:16Z</time>
      </trkpt>
      <trkpt lat="42.90707" lon="2.18685">
        <ele>277</ele>
        <time>2021-12-05T15:55:22Z</time>
      </trkpt>
      <trkpt lat="42.90691" lon="2.18653">
        <ele>276</ele>
        <time>2021-12-05T15:55:27Z</time>
      </trkpt>
      <trkpt lat="42.90676" lon="2.18583">
        <ele>275</ele>
        <time>2021-12-05T15:55:36Z</time>
      </trkpt>
      <trkpt lat="42.9067" lon="2.18522">
        <ele>277</ele>
        <time>2021-12-05T15:55:44Z</time>
      </trkpt>
      <trkpt lat="42.9065" lon="2.18472">
        <ele>279</ele>
        <time>2021-12-05T15:55:52Z</time>
      </trkpt>
      <trkpt lat="42.90638" lon="2.18398">
        <ele>282</ele>
        <time>2021-12-05T15:56:01Z</time>
      </trkpt>
      <trkpt lat="42.90626" lon="2.18364">
        <ele>283</ele>
        <time>2021-12-05T15:56:06Z</time>
      </trkpt>
      <trkpt lat="42.90611" lon="2.18332">
        <ele>281</ele>
        <time>2021-12-05T15:56:11Z</time>
      </trkpt>
      <trkpt lat="42.90585" lon="2.18298">
        <ele>279</ele>
        <time>2021-12-05T15:56:18Z</time>
      </trkpt>
      <trkpt lat="42.90573" lon="2.18263">
        <ele>280</ele>
        <time>2021-12-05T15:56:23Z</time>
      </trkpt>
      <trkpt lat="42.90571" lon="2.18237">
        <ele>282</ele>
        <time>2021-12-05T15:56:26Z</time>
      </trkpt>
      <trkpt lat="42.90575" lon="2.18215">
        <ele>282</ele>
        <time>2021-12-05T15:56:29Z</time>
      </trkpt>
      <trkpt lat="42.90589" lon="2.18182">
        <ele>285</ele>
        <time>2021-12-05T15:56:34Z</time>
      </trkpt>
      <trkpt lat="42.90592" lon="2.18152">
        <ele>287</ele>
        <time>2021-12-05T15:56:38Z</time>
      </trkpt>
      <trkpt lat="42.90588" lon="2.18122">
        <ele>288</ele>
        <time>2021-12-05T15:56:42Z</time>
      </trkpt>
      <trkpt lat="42.90529" lon="2.17908">
        <ele>295</ele>
        <time>2021-12-05T15:57:12Z</time>
      </trkpt>
      <trkpt lat="42.90489" lon="2.17818">
        <ele>295</ele>
        <time>2021-12-05T15:57:26Z</time>
      </trkpt>
      <trkpt lat="42.90481" lon="2.17796">
        <ele>296</ele>
        <time>2021-12-05T15:57:29Z</time>
      </trkpt>
      <trkpt lat="42.90475" lon="2.17774">
        <ele>296</ele>
        <time>2021-12-05T15:57:32Z</time>
      </trkpt>
      <trkpt lat="42.90473" lon="2.17752">
        <ele>295</ele>
        <time>2021-12-05T15:57:35Z</time>
      </trkpt>
      <trkpt lat="42.90475" lon="2.17729">
        <ele>295</ele>
        <time>2021-12-05T15:57:38Z</time>
      </trkpt>
      <trkpt lat="42.90474" lon="2.17696">
        <ele>296</ele>
        <time>2021-12-05T15:57:42Z</time>
      </trkpt>
      <trkpt lat="42.9047" lon="2.17668">
        <ele>296</ele>
        <time>2021-12-05T15:57:46Z</time>
      </trkpt>
      <trkpt lat="42.9043" lon="2.17531">
        <ele>296</ele>
        <time>2021-12-05T15:58:05Z</time>
      </trkpt>
      <trkpt lat="42.90413" lon="2.17483">
        <ele>297</ele>
        <time>2021-12-05T15:58:12Z</time>
      </trkpt>
      <trkpt lat="42.90405" lon="2.17466">
        <ele>297</ele>
        <time>2021-12-05T15:58:15Z</time>
      </trkpt>
      <trkpt lat="42.90243" lon="2.17117">
        <ele>307</ele>
        <time>2021-12-05T15:59:08Z</time>
      </trkpt>
      <trkpt lat="42.90221" lon="2.17066">
        <ele>310</ele>
        <time>2021-12-05T15:59:16Z</time>
      </trkpt>
      <trkpt lat="42.90212" lon="2.17053">
        <ele>311</ele>
        <time>2021-12-05T15:59:18Z</time>
      </trkpt>
      <trkpt lat="42.90196" lon="2.17044">
        <ele>313</ele>
        <time>2021-12-05T15:59:21Z</time>
      </trkpt>
      <trkpt lat="42.90113" lon="2.1703">
        <ele>313</ele>
        <time>2021-12-05T15:59:36Z</time>
      </trkpt>
      <trkpt lat="42.901" lon="2.17016">
        <ele>314</ele>
        <time>2021-12-05T15:59:39Z</time>
      </trkpt>
      <trkpt lat="42.90086" lon="2.16983">
        <ele>318</ele>
        <time>2021-12-05T15:59:44Z</time>
      </trkpt>
      <trkpt lat="42.90069" lon="2.16949">
        <ele>321</ele>
        <time>2021-12-05T15:59:50Z</time>
      </trkpt>
      <trkpt lat="42.90036" lon="2.16898">
        <ele>322</ele>
        <time>2021-12-05T15:59:59Z</time>
      </trkpt>
      <trkpt lat="42.90023" lon="2.16887">
        <ele>320</ele>
        <time>2021-12-05T16:00:01Z</time>
      </trkpt>
      <trkpt lat="42.9001" lon="2.16882">
        <ele>318</ele>
        <time>2021-12-05T16:00:04Z</time>
      </trkpt>
      <trkpt lat="42.89995" lon="2.16867">
        <ele>319</ele>
        <time>2021-12-05T16:00:07Z</time>
      </trkpt>
      <trkpt lat="42.89987" lon="2.16847">
        <ele>321</ele>
        <time>2021-12-05T16:00:10Z</time>
      </trkpt>
      <trkpt lat="42.89984" lon="2.16828">
        <ele>323</ele>
        <time>2021-12-05T16:00:12Z</time>
      </trkpt>
      <trkpt lat="42.89984" lon="2.16763">
        <ele>327</ele>
        <time>2021-12-05T16:00:21Z</time>
      </trkpt>
      <trkpt lat="42.89977" lon="2.1674">
        <ele>328</ele>
        <time>2021-12-05T16:00:24Z</time>
      </trkpt>
      <trkpt lat="42.89973" lon="2.16728">
        <ele>328</ele>
        <time>2021-12-05T16:00:26Z</time>
      </trkpt>
      <trkpt lat="42.89962" lon="2.16707">
        <ele>328</ele>
        <time>2021-12-05T16:00:29Z</time>
      </trkpt>
      <trkpt lat="42.89943" lon="2.16689">
        <ele>326</ele>
        <time>2021-12-05T16:00:33Z</time>
      </trkpt>
      <trkpt lat="42.89929" lon="2.16677">
        <ele>324</ele>
        <time>2021-12-05T16:00:36Z</time>
      </trkpt>
      <trkpt lat="42.89916" lon="2.16648">
        <ele>323</ele>
        <time>2021-12-05T16:00:41Z</time>
      </trkpt>
      <trkpt lat="42.89897" lon="2.16626">
        <ele>325</ele>
        <time>2021-12-05T16:00:45Z</time>
      </trkpt>
      <trkpt lat="42.89875" lon="2.16608">
        <ele>325</ele>
        <time>2021-12-05T16:00:50Z</time>
      </trkpt>
      <trkpt lat="42.89856" lon="2.1658">
        <ele>325</ele>
        <time>2021-12-05T16:00:55Z</time>
      </trkpt>
      <trkpt lat="42.89842" lon="2.16544">
        <ele>325</ele>
        <time>2021-12-05T16:01:00Z</time>
      </trkpt>
      <trkpt lat="42.89839" lon="2.1652">
        <ele>326</ele>
        <time>2021-12-05T16:01:03Z</time>
      </trkpt>
      <trkpt lat="42.8984" lon="2.16494">
        <ele>327</ele>
        <time>2021-12-05T16:01:07Z</time>
      </trkpt>
      <trkpt lat="42.89837" lon="2.16475">
        <ele>328</ele>
        <time>2021-12-05T16:01:09Z</time>
      </trkpt>
      <trkpt lat="42.89826" lon="2.16438">
        <ele>330</ele>
        <time>2021-12-05T16:01:14Z</time>
      </trkpt>
      <trkpt lat="42.8982" lon="2.16381">
        <ele>332</ele>
        <time>2021-12-05T16:01:22Z</time>
      </trkpt>
      <trkpt lat="42.89827" lon="2.1631">
        <ele>332</ele>
        <time>2021-12-05T16:01:31Z</time>
      </trkpt>
      <trkpt lat="42.89822" lon="2.16277">
        <ele>333</ele>
        <time>2021-12-05T16:01:36Z</time>
      </trkpt>
      <trkpt lat="42.89815" lon="2.16239">
        <ele>333</ele>
        <time>2021-12-05T16:01:41Z</time>
      </trkpt>
      <trkpt lat="42.89786" lon="2.16153">
        <ele>331</ele>
        <time>2021-12-05T16:01:53Z</time>
      </trkpt>
      <trkpt lat="42.89782" lon="2.16119">
        <ele>331</ele>
        <time>2021-12-05T16:01:58Z</time>
      </trkpt>
      <trkpt lat="42.89782" lon="2.16077">
        <ele>332</ele>
        <time>2021-12-05T16:02:03Z</time>
      </trkpt>
      <trkpt lat="42.89789" lon="2.16038">
        <ele>333</ele>
        <time>2021-12-05T16:02:08Z</time>
      </trkpt>
      <trkpt lat="42.89802" lon="2.16006">
        <ele>333</ele>
        <time>2021-12-05T16:02:13Z</time>
      </trkpt>
      <trkpt lat="42.89891" lon="2.15908">
        <ele>342</ele>
        <time>2021-12-05T16:02:33Z</time>
      </trkpt>
      <trkpt lat="42.89897" lon="2.15904">
        <ele>342</ele>
        <time>2021-12-05T16:02:35Z</time>
      </trkpt>
      <trkpt lat="42.89908" lon="2.15887">
        <ele>343</ele>
        <time>2021-12-05T16:02:37Z</time>
      </trkpt>
      <trkpt lat="42.89908" lon="2.15877">
        <ele>343</ele>
        <time>2021-12-05T16:02:39Z</time>
      </trkpt>
      <trkpt lat="42.89898" lon="2.15857">
        <ele>343</ele>
        <time>2021-12-05T16:02:42Z</time>
      </trkpt>
      <trkpt lat="42.89891" lon="2.15851">
        <ele>344</ele>
        <time>2021-12-05T16:02:43Z</time>
      </trkpt>
      <trkpt lat="42.89879" lon="2.15851">
        <ele>344</ele>
        <time>2021-12-05T16:02:46Z</time>
      </trkpt>
      <trkpt lat="42.89845" lon="2.15874">
        <ele>343</ele>
        <time>2021-12-05T16:02:52Z</time>
      </trkpt>
      <trkpt lat="42.8983" lon="2.1588">
        <ele>342</ele>
        <time>2021-12-05T16:02:55Z</time>
      </trkpt>
      <trkpt lat="42.89815" lon="2.15879">
        <ele>343</ele>
        <time>2021-12-05T16:02:58Z</time>
      </trkpt>
      <trkpt lat="42.89786" lon="2.15854">
        <ele>347</ele>
        <time>2021-12-05T16:03:04Z</time>
      </trkpt>
      <trkpt lat="42.89778" lon="2.15852">
        <ele>348</ele>
        <time>2021-12-05T16:03:05Z</time>
      </trkpt>
      <trkpt lat="42.89772" lon="2.15853">
        <ele>348</ele>
        <time>2021-12-05T16:03:06Z</time>
      </trkpt>
      <trkpt lat="42.89751" lon="2.15874">
        <ele>346</ele>
        <time>2021-12-05T16:03:11Z</time>
      </trkpt>
      <trkpt lat="42.89736" lon="2.1588">
        <ele>345</ele>
        <time>2021-12-05T16:03:14Z</time>
      </trkpt>
      <trkpt lat="42.89714" lon="2.15878">
        <ele>346</ele>
        <time>2021-12-05T16:03:18Z</time>
      </trkpt>
      <trkpt lat="42.8969" lon="2.15859">
        <ele>350</ele>
        <time>2021-12-05T16:03:23Z</time>
      </trkpt>
      <trkpt lat="42.8967" lon="2.15834">
        <ele>355</ele>
        <time>2021-12-05T16:03:27Z</time>
      </trkpt>
      <trkpt lat="42.89652" lon="2.15816">
        <ele>358</ele>
        <time>2021-12-05T16:03:31Z</time>
      </trkpt>
      <trkpt lat="42.89635" lon="2.15806">
        <ele>360</ele>
        <time>2021-12-05T16:03:35Z</time>
      </trkpt>
      <trkpt lat="42.89613" lon="2.15801">
        <ele>360</ele>
        <time>2021-12-05T16:03:39Z</time>
      </trkpt>
      <trkpt lat="42.89594" lon="2.15807">
        <ele>359</ele>
        <time>2021-12-05T16:03:42Z</time>
      </trkpt>
      <trkpt lat="42.89559" lon="2.15831">
        <ele>357</ele>
        <time>2021-12-05T16:03:49Z</time>
      </trkpt>
      <trkpt lat="42.89538" lon="2.15835">
        <ele>357</ele>
        <time>2021-12-05T16:03:53Z</time>
      </trkpt>
      <trkpt lat="42.89514" lon="2.15827">
        <ele>360</ele>
        <time>2021-12-05T16:03:57Z</time>
      </trkpt>
      <trkpt lat="42.8943" lon="2.15767">
        <ele>365</ele>
        <time>2021-12-05T16:04:14Z</time>
      </trkpt>
      <trkpt lat="42.8941" lon="2.15749">
        <ele>367</ele>
        <time>2021-12-05T16:04:18Z</time>
      </trkpt>
      <trkpt lat="42.89398" lon="2.15732">
        <ele>368</ele>
        <time>2021-12-05T16:04:22Z</time>
      </trkpt>
      <trkpt lat="42.89391" lon="2.15709">
        <ele>370</ele>
        <time>2021-12-05T16:04:25Z</time>
      </trkpt>
      <trkpt lat="42.89387" lon="2.15675">
        <ele>374</ele>
        <time>2021-12-05T16:04:29Z</time>
      </trkpt>
      <trkpt lat="42.89371" lon="2.15647">
        <ele>377</ele>
        <time>2021-12-05T16:04:34Z</time>
      </trkpt>
      <trkpt lat="42.89304" lon="2.15588">
        <ele>380</ele>
        <time>2021-12-05T16:04:48Z</time>
      </trkpt>
      <trkpt lat="42.89276" lon="2.15544">
        <ele>383</ele>
        <time>2021-12-05T16:04:56Z</time>
      </trkpt>
      <trkpt lat="42.89265" lon="2.15525">
        <ele>384</ele>
        <time>2021-12-05T16:04:59Z</time>
      </trkpt>
      <trkpt lat="42.89253" lon="2.15491">
        <ele>387</ele>
        <time>2021-12-05T16:05:04Z</time>
      </trkpt>
      <trkpt lat="42.89246" lon="2.15462">
        <ele>390</ele>
        <time>2021-12-05T16:05:08Z</time>
      </trkpt>
      <trkpt lat="42.89238" lon="2.15437">
        <ele>392</ele>
        <time>2021-12-05T16:05:11Z</time>
      </trkpt>
      <trkpt lat="42.89232" lon="2.1543">
        <ele>392</ele>
        <time>2021-12-05T16:05:13Z</time>
      </trkpt>
      <trkpt lat="42.89219" lon="2.15426">
        <ele>392</ele>
        <time>2021-12-05T16:05:15Z</time>
      </trkpt>
      <trkpt lat="42.89198" lon="2.15427">
        <ele>391</ele>
        <time>2021-12-05T16:05:19Z</time>
      </trkpt>
      <trkpt lat="42.8918" lon="2.15426">
        <ele>390</ele>
        <time>2021-12-05T16:05:22Z</time>
      </trkpt>
      <trkpt lat="42.89151" lon="2.15414">
        <ele>392</ele>
        <time>2021-12-05T16:05:27Z</time>
      </trkpt>
      <trkpt lat="42.8912" lon="2.15386">
        <ele>395</ele>
        <time>2021-12-05T16:05:34Z</time>
      </trkpt>
      <trkpt lat="42.89113" lon="2.15371">
        <ele>396</ele>
        <time>2021-12-05T16:05:36Z</time>
      </trkpt>
      <trkpt lat="42.89111" lon="2.15359">
        <ele>397</ele>
        <time>2021-12-05T16:05:38Z</time>
      </trkpt>
      <trkpt lat="42.89084" lon="2.15345">
        <ele>398</ele>
        <time>2021-12-05T16:05:43Z</time>
      </trkpt>
      <trkpt lat="42.89082" lon="2.15344">
        <ele>398</ele>
        <time>2021-12-05T16:05:43Z</time>
      </trkpt>
      <trkpt lat="42.8908" lon="2.15343">
        <ele>399</ele>
        <time>2021-12-05T16:05:44Z</time>
      </trkpt>
      <trkpt lat="42.89061" lon="2.15325">
        <ele>400</ele>
        <time>2021-12-05T16:05:48Z</time>
      </trkpt>
      <trkpt lat="42.89042" lon="2.15309">
        <ele>401</ele>
        <time>2021-12-05T16:05:52Z</time>
      </trkpt>
      <trkpt lat="42.8903" lon="2.15308">
        <ele>401</ele>
        <time>2021-12-05T16:05:54Z</time>
      </trkpt>
      <trkpt lat="42.89012" lon="2.15321">
        <ele>402</ele>
        <time>2021-12-05T16:05:58Z</time>
      </trkpt>
      <trkpt lat="42.88959" lon="2.15366">
        <ele>406</ele>
        <time>2021-12-05T16:06:09Z</time>
      </trkpt>
      <trkpt lat="42.88947" lon="2.1537">
        <ele>407</ele>
        <time>2021-12-05T16:06:11Z</time>
      </trkpt>
      <trkpt lat="42.88934" lon="2.1537">
        <ele>408</ele>
        <time>2021-12-05T16:06:13Z</time>
      </trkpt>
      <trkpt lat="42.88852" lon="2.15342">
        <ele>412</ele>
        <time>2021-12-05T16:06:28Z</time>
      </trkpt>
      <trkpt lat="42.88845" lon="2.15334">
        <ele>412</ele>
        <time>2021-12-05T16:06:30Z</time>
      </trkpt>
      <trkpt lat="42.88839" lon="2.15325">
        <ele>412</ele>
        <time>2021-12-05T16:06:32Z</time>
      </trkpt>
      <trkpt lat="42.88822" lon="2.15272">
        <ele>410</ele>
        <time>2021-12-05T16:06:39Z</time>
      </trkpt>
      <trkpt lat="42.88816" lon="2.1526">
        <ele>410</ele>
        <time>2021-12-05T16:06:41Z</time>
      </trkpt>
      <trkpt lat="42.88808" lon="2.15249">
        <ele>411</ele>
        <time>2021-12-05T16:06:43Z</time>
      </trkpt>
      <trkpt lat="42.88777" lon="2.15218">
        <ele>416</ele>
        <time>2021-12-05T16:06:50Z</time>
      </trkpt>
      <trkpt lat="42.88759" lon="2.15201">
        <ele>417</ele>
        <time>2021-12-05T16:06:54Z</time>
      </trkpt>
      <trkpt lat="42.88732" lon="2.15188">
        <ele>419</ele>
        <time>2021-12-05T16:06:59Z</time>
      </trkpt>
      <trkpt lat="42.88672" lon="2.15165">
        <ele>422</ele>
        <time>2021-12-05T16:07:10Z</time>
      </trkpt>
      <trkpt lat="42.88652" lon="2.15158">
        <ele>425</ele>
        <time>2021-12-05T16:07:14Z</time>
      </trkpt>
      <trkpt lat="42.88635" lon="2.15153">
        <ele>430</ele>
        <time>2021-12-05T16:07:17Z</time>
      </trkpt>
      <trkpt lat="42.88626" lon="2.15146">
        <ele>432</ele>
        <time>2021-12-05T16:07:19Z</time>
      </trkpt>
      <trkpt lat="42.8862" lon="2.15138">
        <ele>433</ele>
        <time>2021-12-05T16:07:20Z</time>
      </trkpt>
      <trkpt lat="42.88613" lon="2.15118">
        <ele>434</ele>
        <time>2021-12-05T16:07:23Z</time>
      </trkpt>
      <trkpt lat="42.88597" lon="2.15062">
        <ele>437</ele>
        <time>2021-12-05T16:07:31Z</time>
      </trkpt>
      <trkpt lat="42.88582" lon="2.14952">
        <ele>436</ele>
        <time>2021-12-05T16:07:45Z</time>
      </trkpt>
      <trkpt lat="42.88571" lon="2.14918">
        <ele>439</ele>
        <time>2021-12-05T16:07:50Z</time>
      </trkpt>
      <trkpt lat="42.88548" lon="2.14879">
        <ele>445</ele>
        <time>2021-12-05T16:07:57Z</time>
      </trkpt>
      <trkpt lat="42.88528" lon="2.14849">
        <ele>447</ele>
        <time>2021-12-05T16:08:02Z</time>
      </trkpt>
      <trkpt lat="42.88515" lon="2.14825">
        <ele>449</ele>
        <time>2021-12-05T16:08:06Z</time>
      </trkpt>
      <trkpt lat="42.88513" lon="2.14807">
        <ele>450</ele>
        <time>2021-12-05T16:08:08Z</time>
      </trkpt>
      <trkpt lat="42.88522" lon="2.14791">
        <ele>449</ele>
        <time>2021-12-05T16:08:11Z</time>
      </trkpt>
      <trkpt lat="42.88579" lon="2.14756">
        <ele>444</ele>
        <time>2021-12-05T16:08:22Z</time>
      </trkpt>
      <trkpt lat="42.88596" lon="2.14741">
        <ele>444</ele>
        <time>2021-12-05T16:08:26Z</time>
      </trkpt>
      <trkpt lat="42.886" lon="2.14726">
        <ele>445</ele>
        <time>2021-12-05T16:08:28Z</time>
      </trkpt>
      <trkpt lat="42.886" lon="2.1471">
        <ele>447</ele>
        <time>2021-12-05T16:08:30Z</time>
      </trkpt>
      <trkpt lat="42.8859" lon="2.14673">
        <ele>452</ele>
        <time>2021-12-05T16:08:35Z</time>
      </trkpt>
      <trkpt lat="42.88589" lon="2.14658">
        <ele>453</ele>
        <time>2021-12-05T16:08:37Z</time>
      </trkpt>
      <trkpt lat="42.88593" lon="2.14644">
        <ele>455</ele>
        <time>2021-12-05T16:08:39Z</time>
      </trkpt>
      <trkpt lat="42.88613" lon="2.14608">
        <ele>456</ele>
        <time>2021-12-05T16:08:45Z</time>
      </trkpt>
      <trkpt lat="42.88634" lon="2.14573">
        <ele>457</ele>
        <time>2021-12-05T16:08:51Z</time>
      </trkpt>
      <trkpt lat="42.88665" lon="2.14536">
        <ele>456</ele>
        <time>2021-12-05T16:08:58Z</time>
      </trkpt>
      <trkpt lat="42.88678" lon="2.14507">
        <ele>457</ele>
        <time>2021-12-05T16:09:02Z</time>
      </trkpt>
      <trkpt lat="42.88682" lon="2.14485">
        <ele>457</ele>
        <time>2021-12-05T16:09:05Z</time>
      </trkpt>
      <trkpt lat="42.88679" lon="2.14459">
        <ele>458</ele>
        <time>2021-12-05T16:09:09Z</time>
      </trkpt>
      <trkpt lat="42.88653" lon="2.1441">
        <ele>460</ele>
        <time>2021-12-05T16:09:17Z</time>
      </trkpt>
      <trkpt lat="42.88624" lon="2.14366">
        <ele>463</ele>
        <time>2021-12-05T16:09:24Z</time>
      </trkpt>
      <trkpt lat="42.88607" lon="2.14353">
        <ele>464</ele>
        <time>2021-12-05T16:09:28Z</time>
      </trkpt>
      <trkpt lat="42.88542" lon="2.14329">
        <ele>468</ele>
        <time>2021-12-05T16:09:40Z</time>
      </trkpt>
      <trkpt lat="42.88501" lon="2.14312">
        <ele>470</ele>
        <time>2021-12-05T16:09:47Z</time>
      </trkpt>
      <trkpt lat="42.88462" lon="2.14295">
        <ele>473</ele>
        <time>2021-12-05T16:09:55Z</time>
      </trkpt>
      <trkpt lat="42.88434" lon="2.1428">
        <ele>474</ele>
        <time>2021-12-05T16:10:00Z</time>
      </trkpt>
      <trkpt lat="42.88411" lon="2.14261">
        <ele>476</ele>
        <time>2021-12-05T16:10:05Z</time>
      </trkpt>
      <trkpt lat="42.88376" lon="2.14199">
        <ele>480</ele>
        <time>2021-12-05T16:10:15Z</time>
      </trkpt>
      <trkpt lat="42.88352" lon="2.1415">
        <ele>483</ele>
        <time>2021-12-05T16:10:23Z</time>
      </trkpt>
      <trkpt lat="42.88349" lon="2.14122">
        <ele>484</ele>
        <time>2021-12-05T16:10:26Z</time>
      </trkpt>
      <trkpt lat="42.8835" lon="2.1398">
        <ele>491</ele>
        <time>2021-12-05T16:10:45Z</time>
      </trkpt>
      <trkpt lat="42.88348" lon="2.13925">
        <ele>495</ele>
        <time>2021-12-05T16:10:52Z</time>
      </trkpt>
      <trkpt lat="42.88348" lon="2.13905">
        <ele>497</ele>
        <time>2021-12-05T16:10:55Z</time>
      </trkpt>
      <trkpt lat="42.88353" lon="2.13887">
        <ele>499</ele>
        <time>2021-12-05T16:10:57Z</time>
      </trkpt>
      <trkpt lat="42.88363" lon="2.13872">
        <ele>500</ele>
        <time>2021-12-05T16:11:00Z</time>
      </trkpt>
      <trkpt lat="42.88419" lon="2.13831">
        <ele>503</ele>
        <time>2021-12-05T16:11:11Z</time>
      </trkpt>
      <trkpt lat="42.88432" lon="2.13828">
        <ele>506</ele>
        <time>2021-12-05T16:11:14Z</time>
      </trkpt>
      <trkpt lat="42.88445" lon="2.13831">
        <ele>508</ele>
        <time>2021-12-05T16:11:16Z</time>
      </trkpt>
      <trkpt lat="42.88541" lon="2.13889">
        <ele>506</ele>
        <time>2021-12-05T16:11:35Z</time>
      </trkpt>
      <trkpt lat="42.8857" lon="2.13898">
        <ele>507</ele>
        <time>2021-12-05T16:11:40Z</time>
      </trkpt>
      <trkpt lat="42.88602" lon="2.13893">
        <ele>509</ele>
        <time>2021-12-05T16:11:46Z</time>
      </trkpt>
      <trkpt lat="42.88641" lon="2.13881">
        <ele>511</ele>
        <time>2021-12-05T16:11:53Z</time>
      </trkpt>
      <trkpt lat="42.88693" lon="2.13857">
        <ele>516</ele>
        <time>2021-12-05T16:12:02Z</time>
      </trkpt>
      <trkpt lat="42.88757" lon="2.13838">
        <ele>520</ele>
        <time>2021-12-05T16:12:14Z</time>
      </trkpt>
      <trkpt lat="42.88843" lon="2.13818">
        <ele>526</ele>
        <time>2021-12-05T16:12:30Z</time>
      </trkpt>
      <trkpt lat="42.88885" lon="2.13803">
        <ele>528</ele>
        <time>2021-12-05T16:12:37Z</time>
      </trkpt>
      <trkpt lat="42.88917" lon="2.13789">
        <ele>530</ele>
        <time>2021-12-05T16:12:43Z</time>
      </trkpt>
      <trkpt lat="42.88925" lon="2.13778">
        <ele>532</ele>
        <time>2021-12-05T16:12:45Z</time>
      </trkpt>
      <trkpt lat="42.88923" lon="2.13768">
        <ele>535</ele>
        <time>2021-12-05T16:12:47Z</time>
      </trkpt>
      <trkpt lat="42.88919" lon="2.13759">
        <ele>538</ele>
        <time>2021-12-05T16:12:48Z</time>
      </trkpt>
      <trkpt lat="42.88906" lon="2.13759">
        <ele>539</ele>
        <time>2021-12-05T16:12:50Z</time>
      </trkpt>
      <trkpt lat="42.88888" lon="2.13774">
        <ele>536</ele>
        <time>2021-12-05T16:12:54Z</time>
      </trkpt>
      <trkpt lat="42.8887" lon="2.1378">
        <ele>536</ele>
        <time>2021-12-05T16:12:57Z</time>
      </trkpt>
      <trkpt lat="42.88835" lon="2.13778">
        <ele>538</ele>
        <time>2021-12-05T16:13:04Z</time>
      </trkpt>
      <trkpt lat="42.88798" lon="2.1377">
        <ele>543</ele>
        <time>2021-12-05T16:13:10Z</time>
      </trkpt>
      <trkpt lat="42.88755" lon="2.13766">
        <ele>546</ele>
        <time>2021-12-05T16:13:18Z</time>
      </trkpt>
      <trkpt lat="42.88714" lon="2.13769">
        <ele>546</ele>
        <time>2021-12-05T16:13:25Z</time>
      </trkpt>
      <trkpt lat="42.88706" lon="2.13761">
        <ele>549</ele>
        <time>2021-12-05T16:13:27Z</time>
      </trkpt>
      <trkpt lat="42.88705" lon="2.13745">
        <ele>555</ele>
        <time>2021-12-05T16:13:29Z</time>
      </trkpt>
      <trkpt lat="42.88711" lon="2.13738">
        <ele>556</ele>
        <time>2021-12-05T16:13:31Z</time>
      </trkpt>
      <trkpt lat="42.88743" lon="2.13738">
        <ele>555</ele>
        <time>2021-12-05T16:13:36Z</time>
      </trkpt>
      <trkpt lat="42.88833" lon="2.13729">
        <ele>551</ele>
        <time>2021-12-05T16:13:52Z</time>
      </trkpt>
      <trkpt lat="42.88909" lon="2.13691">
        <ele>555</ele>
        <time>2021-12-05T16:14:07Z</time>
      </trkpt>
      <trkpt lat="42.88935" lon="2.13666">
        <ele>559</ele>
        <time>2021-12-05T16:14:12Z</time>
      </trkpt>
      <trkpt lat="42.88947" lon="2.1364">
        <ele>557</ele>
        <time>2021-12-05T16:14:16Z</time>
      </trkpt>
      <trkpt lat="42.88949" lon="2.13618">
        <ele>556</ele>
        <time>2021-12-05T16:14:19Z</time>
      </trkpt>
      <trkpt lat="42.88945" lon="2.13597">
        <ele>556</ele>
        <time>2021-12-05T16:14:22Z</time>
      </trkpt>
      <trkpt lat="42.88934" lon="2.13573">
        <ele>556</ele>
        <time>2021-12-05T16:14:26Z</time>
      </trkpt>
      <trkpt lat="42.88916" lon="2.13558">
        <ele>556</ele>
        <time>2021-12-05T16:14:30Z</time>
      </trkpt>
      <trkpt lat="42.88856" lon="2.13548">
        <ele>560</ele>
        <time>2021-12-05T16:14:40Z</time>
      </trkpt>
      <trkpt lat="42.8882" lon="2.13526">
        <ele>561</ele>
        <time>2021-12-05T16:14:47Z</time>
      </trkpt>
      <trkpt lat="42.88762" lon="2.13479">
        <ele>564</ele>
        <time>2021-12-05T16:14:59Z</time>
      </trkpt>
      <trkpt lat="42.88697" lon="2.13434">
        <ele>566</ele>
        <time>2021-12-05T16:15:12Z</time>
      </trkpt>
      <trkpt lat="42.88655" lon="2.13415">
        <ele>567</ele>
        <time>2021-12-05T16:15:20Z</time>
      </trkpt>
      <trkpt lat="42.88604" lon="2.13395">
        <ele>568</ele>
        <time>2021-12-05T16:15:30Z</time>
      </trkpt>
      <trkpt lat="42.88557" lon="2.13358">
        <ele>568</ele>
        <time>2021-12-05T16:15:39Z</time>
      </trkpt>
      <trkpt lat="42.88507" lon="2.13312">
        <ele>570</ele>
        <time>2021-12-05T16:15:50Z</time>
      </trkpt>
      <trkpt lat="42.88476" lon="2.13284">
        <ele>570</ele>
        <time>2021-12-05T16:15:57Z</time>
      </trkpt>
      <trkpt lat="42.88393" lon="2.13436">
        <ele>579</ele>
        <time>2021-12-05T16:16:21Z</time>
      </trkpt>
      <trkpt lat="42.88384" lon="2.1345">
        <ele>580</ele>
        <time>2021-12-05T16:16:24Z</time>
      </trkpt>
      <trkpt lat="42.88372" lon="2.13464">
        <ele>581</ele>
        <time>2021-12-05T16:16:27Z</time>
      </trkpt>
      <trkpt lat="42.8836" lon="2.13475">
        <ele>582</ele>
        <time>2021-12-05T16:16:29Z</time>
      </trkpt>
      <trkpt lat="42.88343" lon="2.13487">
        <ele>584</ele>
        <time>2021-12-05T16:16:33Z</time>
      </trkpt>
      <trkpt lat="42.88314" lon="2.13501">
        <ele>586</ele>
        <time>2021-12-05T16:16:38Z</time>
      </trkpt>
      <trkpt lat="42.88226" lon="2.13529">
        <ele>590</ele>
        <time>2021-12-05T16:16:54Z</time>
      </trkpt>
      <trkpt lat="42.88164" lon="2.13512">
        <ele>594</ele>
        <time>2021-12-05T16:17:05Z</time>
      </trkpt>
      <trkpt lat="42.88153" lon="2.13512">
        <ele>595</ele>
        <time>2021-12-05T16:17:07Z</time>
      </trkpt>
      <trkpt lat="42.88132" lon="2.1352">
        <ele>599</ele>
        <time>2021-12-05T16:17:11Z</time>
      </trkpt>
      <trkpt lat="42.88121" lon="2.13528">
        <ele>601</ele>
        <time>2021-12-05T16:17:13Z</time>
      </trkpt>
      <trkpt lat="42.88113" lon="2.13537">
        <ele>602</ele>
        <time>2021-12-05T16:17:15Z</time>
      </trkpt>
      <trkpt lat="42.88098" lon="2.13564">
        <ele>605</ele>
        <time>2021-12-05T16:17:20Z</time>
      </trkpt>
      <trkpt lat="42.87989" lon="2.13912">
        <ele>624</ele>
        <time>2021-12-05T16:18:09Z</time>
      </trkpt>
      <trkpt lat="42.87963" lon="2.14007">
        <ele>627</ele>
        <time>2021-12-05T16:18:22Z</time>
      </trkpt>
      <trkpt lat="42.87948" lon="2.14052">
        <ele>630</ele>
        <time>2021-12-05T16:18:29Z</time>
      </trkpt>
      <trkpt lat="42.87915" lon="2.1413">
        <ele>639</ele>
        <time>2021-12-05T16:18:40Z</time>
      </trkpt>
      <trkpt lat="42.87908" lon="2.14149">
        <ele>640</ele>
        <time>2021-12-05T16:18:43Z</time>
      </trkpt>
      <trkpt lat="42.87892" lon="2.14231">
        <ele>636</ele>
        <time>2021-12-05T16:18:54Z</time>
      </trkpt>
      <trkpt lat="42.87888" lon="2.14247">
        <ele>636</ele>
        <time>2021-12-05T16:18:56Z</time>
      </trkpt>
      <trkpt lat="42.87878" lon="2.14269">
        <ele>639</ele>
        <time>2021-12-05T16:19:00Z</time>
      </trkpt>
      <trkpt lat="42.87848" lon="2.14321">
        <ele>647</ele>
        <time>2021-12-05T16:19:08Z</time>
      </trkpt>
      <trkpt lat="42.8784" lon="2.14343">
        <ele>649</ele>
        <time>2021-12-05T16:19:12Z</time>
      </trkpt>
      <trkpt lat="42.87836" lon="2.14368">
        <ele>650</ele>
        <time>2021-12-05T16:19:15Z</time>
      </trkpt>
      <trkpt lat="42.87835" lon="2.14395">
        <ele>651</ele>
        <time>2021-12-05T16:19:19Z</time>
      </trkpt>
      <trkpt lat="42.87842" lon="2.14487">
        <ele>650</ele>
        <time>2021-12-05T16:19:31Z</time>
      </trkpt>
      <trkpt lat="42.87843" lon="2.14524">
        <ele>650</ele>
        <time>2021-12-05T16:19:35Z</time>
      </trkpt>
      <trkpt lat="42.87843" lon="2.1454">
        <ele>650</ele>
        <time>2021-12-05T16:19:38Z</time>
      </trkpt>
      <trkpt lat="42.87828" lon="2.14683">
        <ele>653</ele>
        <time>2021-12-05T16:19:56Z</time>
      </trkpt>
      <trkpt lat="42.87807" lon="2.14759">
        <ele>660</ele>
        <time>2021-12-05T16:20:07Z</time>
      </trkpt>
      <trkpt lat="42.87802" lon="2.14787">
        <ele>662</ele>
        <time>2021-12-05T16:20:11Z</time>
      </trkpt>
      <trkpt lat="42.87801" lon="2.14801">
        <ele>662</ele>
        <time>2021-12-05T16:20:13Z</time>
      </trkpt>
      <trkpt lat="42.87801" lon="2.14819">
        <ele>662</ele>
        <time>2021-12-05T16:20:15Z</time>
      </trkpt>
      <trkpt lat="42.87805" lon="2.14877">
        <ele>660</ele>
        <time>2021-12-05T16:20:22Z</time>
      </trkpt>
      <trkpt lat="42.87818" lon="2.14926">
        <ele>654</ele>
        <time>2021-12-05T16:20:29Z</time>
      </trkpt>
      <trkpt lat="42.87819" lon="2.14935">
        <ele>654</ele>
        <time>2021-12-05T16:20:30Z</time>
      </trkpt>
      <trkpt lat="42.87819" lon="2.14956">
        <ele>656</ele>
        <time>2021-12-05T16:20:33Z</time>
      </trkpt>
      <trkpt lat="42.87815" lon="2.14985">
        <ele>660</ele>
        <time>2021-12-05T16:20:37Z</time>
      </trkpt>
      <trkpt lat="42.87814" lon="2.15013">
        <ele>661</ele>
        <time>2021-12-05T16:20:41Z</time>
      </trkpt>
      <trkpt lat="42.87815" lon="2.15028">
        <ele>661</ele>
        <time>2021-12-05T16:20:43Z</time>
      </trkpt>
      <trkpt lat="42.87823" lon="2.1508">
        <ele>660</ele>
        <time>2021-12-05T16:20:50Z</time>
      </trkpt>
      <trkpt lat="42.87823" lon="2.15108">
        <ele>661</ele>
        <time>2021-12-05T16:20:53Z</time>
      </trkpt>
      <trkpt lat="42.87817" lon="2.15137">
        <ele>662</ele>
        <time>2021-12-05T16:20:57Z</time>
      </trkpt>
      <trkpt lat="42.87811" lon="2.15152">
        <ele>663</ele>
        <time>2021-12-05T16:20:59Z</time>
      </trkpt>
      <trkpt lat="42.87805" lon="2.15162">
        <ele>664</ele>
        <time>2021-12-05T16:21:01Z</time>
      </trkpt>
      <trkpt lat="42.87792" lon="2.15175">
        <ele>665</ele>
        <time>2021-12-05T16:21:04Z</time>
      </trkpt>
      <trkpt lat="42.87776" lon="2.1518">
        <ele>668</ele>
        <time>2021-12-05T16:21:07Z</time>
      </trkpt>
      <trkpt lat="42.87767" lon="2.15179">
        <ele>669</ele>
        <time>2021-12-05T16:21:08Z</time>
      </trkpt>
      <trkpt lat="42.87711" lon="2.15159">
        <ele>674</ele>
        <time>2021-12-05T16:21:19Z</time>
      </trkpt>
      <trkpt lat="42.87698" lon="2.15157">
        <ele>674</ele>
        <time>2021-12-05T16:21:21Z</time>
      </trkpt>
      <trkpt lat="42.87683" lon="2.15158">
        <ele>674</ele>
        <time>2021-12-05T16:21:24Z</time>
      </trkpt>
      <trkpt lat="42.87644" lon="2.15171">
        <ele>674</ele>
        <time>2021-12-05T16:21:31Z</time>
      </trkpt>
      <trkpt lat="42.87624" lon="2.15176">
        <ele>674</ele>
        <time>2021-12-05T16:21:35Z</time>
      </trkpt>
      <trkpt lat="42.87606" lon="2.15175">
        <ele>675</ele>
        <time>2021-12-05T16:21:38Z</time>
      </trkpt>
      <trkpt lat="42.87592" lon="2.15172">
        <ele>677</ele>
        <time>2021-12-05T16:21:40Z</time>
      </trkpt>
      <trkpt lat="42.87576" lon="2.15165">
        <ele>678</ele>
        <time>2021-12-05T16:21:43Z</time>
      </trkpt>
      <trkpt lat="42.87561" lon="2.15154">
        <ele>678</ele>
        <time>2021-12-05T16:21:46Z</time>
      </trkpt>
      <trkpt lat="42.87546" lon="2.1514">
        <ele>679</ele>
        <time>2021-12-05T16:21:50Z</time>
      </trkpt>
      <trkpt lat="42.87499" lon="2.15078">
        <ele>685</ele>
        <time>2021-12-05T16:22:01Z</time>
      </trkpt>
      <trkpt lat="42.87478" lon="2.15047">
        <ele>684</ele>
        <time>2021-12-05T16:22:07Z</time>
      </trkpt>
      <trkpt lat="42.87468" lon="2.15025">
        <ele>684</ele>
        <time>2021-12-05T16:22:10Z</time>
      </trkpt>
      <trkpt lat="42.87461" lon="2.15002">
        <ele>686</ele>
        <time>2021-12-05T16:22:13Z</time>
      </trkpt>
      <trkpt lat="42.87456" lon="2.14974">
        <ele>687</ele>
        <time>2021-12-05T16:22:17Z</time>
      </trkpt>
      <trkpt lat="42.87455" lon="2.14955">
        <ele>689</ele>
        <time>2021-12-05T16:22:20Z</time>
      </trkpt>
      <trkpt lat="42.87458" lon="2.14934">
        <ele>690</ele>
        <time>2021-12-05T16:22:22Z</time>
      </trkpt>
      <trkpt lat="42.87471" lon="2.14888">
        <ele>693</ele>
        <time>2021-12-05T16:22:29Z</time>
      </trkpt>
      <trkpt lat="42.87474" lon="2.14864">
        <ele>693</ele>
        <time>2021-12-05T16:22:32Z</time>
      </trkpt>
      <trkpt lat="42.87473" lon="2.14844">
        <ele>694</ele>
        <time>2021-12-05T16:22:35Z</time>
      </trkpt>
      <trkpt lat="42.87469" lon="2.14824">
        <ele>694</ele>
        <time>2021-12-05T16:22:37Z</time>
      </trkpt>
      <trkpt lat="42.8746" lon="2.14806">
        <ele>695</ele>
        <time>2021-12-05T16:22:40Z</time>
      </trkpt>
      <trkpt lat="42.8745" lon="2.14791">
        <ele>696</ele>
        <time>2021-12-05T16:22:43Z</time>
      </trkpt>
      <trkpt lat="42.8744" lon="2.14782">
        <ele>697</ele>
        <time>2021-12-05T16:22:45Z</time>
      </trkpt>
      <trkpt lat="42.87395" lon="2.14758">
        <ele>698</ele>
        <time>2021-12-05T16:22:53Z</time>
      </trkpt>
      <trkpt lat="42.87379" lon="2.14742">
        <ele>698</ele>
        <time>2021-12-05T16:22:57Z</time>
      </trkpt>
      <trkpt lat="42.87363" lon="2.1472">
        <ele>699</ele>
        <time>2021-12-05T16:23:01Z</time>
      </trkpt>
      <trkpt lat="42.87353" lon="2.14699">
        <ele>701</ele>
        <time>2021-12-05T16:23:04Z</time>
      </trkpt>
      <trkpt lat="42.87343" lon="2.1467">
        <ele>704</ele>
        <time>2021-12-05T16:23:08Z</time>
      </trkpt>
      <trkpt lat="42.87334" lon="2.14637">
        <ele>705</ele>
        <time>2021-12-05T16:23:13Z</time>
      </trkpt>
      <trkpt lat="42.87318" lon="2.14568">
        <ele>703</ele>
        <time>2021-12-05T16:23:22Z</time>
      </trkpt>
      <trkpt lat="42.87302" lon="2.14484">
        <ele>712</ele>
        <time>2021-12-05T16:23:34Z</time>
      </trkpt>
      <trkpt lat="42.87295" lon="2.14462">
        <ele>716</ele>
        <time>2021-12-05T16:23:37Z</time>
      </trkpt>
      <trkpt lat="42.87217" lon="2.1429">
        <ele>727</ele>
        <time>2021-12-05T16:24:03Z</time>
      </trkpt>
      <trkpt lat="42.87154" lon="2.14171">
        <ele>729</ele>
        <time>2021-12-05T16:24:22Z</time>
      </trkpt>
      <trkpt lat="42.87144" lon="2.14148">
        <ele>729</ele>
        <time>2021-12-05T16:24:26Z</time>
      </trkpt>
      <trkpt lat="42.871" lon="2.14016">
        <ele>741</ele>
        <time>2021-12-05T16:24:45Z</time>
      </trkpt>
      <trkpt lat="42.87089" lon="2.13997">
        <ele>742</ele>
        <time>2021-12-05T16:24:48Z</time>
      </trkpt>
      <trkpt lat="42.87077" lon="2.13981">
        <ele>742</ele>
        <time>2021-12-05T16:24:51Z</time>
      </trkpt>
      <trkpt lat="42.87034" lon="2.13945">
        <ele>744</ele>
        <time>2021-12-05T16:25:00Z</time>
      </trkpt>
      <trkpt lat="42.87021" lon="2.13928">
        <ele>745</ele>
        <time>2021-12-05T16:25:03Z</time>
      </trkpt>
      <trkpt lat="42.8701" lon="2.13908">
        <ele>746</ele>
        <time>2021-12-05T16:25:06Z</time>
      </trkpt>
      <trkpt lat="42.87005" lon="2.13893">
        <ele>746</ele>
        <time>2021-12-05T16:25:09Z</time>
      </trkpt>
      <trkpt lat="42.87004" lon="2.1387">
        <ele>748</ele>
        <time>2021-12-05T16:25:12Z</time>
      </trkpt>
      <trkpt lat="42.87008" lon="2.13852">
        <ele>750</ele>
        <time>2021-12-05T16:25:14Z</time>
      </trkpt>
      <trkpt lat="42.8702" lon="2.13839">
        <ele>752</ele>
        <time>2021-12-05T16:25:17Z</time>
      </trkpt>
      <trkpt lat="42.87034" lon="2.13833">
        <ele>753</ele>
        <time>2021-12-05T16:25:19Z</time>
      </trkpt>
      <trkpt lat="42.87067" lon="2.13833">
        <ele>755</ele>
        <time>2021-12-05T16:25:25Z</time>
      </trkpt>
      <trkpt lat="42.8708" lon="2.1383">
        <ele>757</ele>
        <time>2021-12-05T16:25:28Z</time>
      </trkpt>
      <trkpt lat="42.871" lon="2.1382">
        <ele>761</ele>
        <time>2021-12-05T16:25:31Z</time>
      </trkpt>
      <trkpt lat="42.87118" lon="2.13813">
        <ele>765</ele>
        <time>2021-12-05T16:25:35Z</time>
      </trkpt>
      <trkpt lat="42.8713" lon="2.13812">
        <ele>766</ele>
        <time>2021-12-05T16:25:37Z</time>
      </trkpt>
      <trkpt lat="42.87142" lon="2.13816">
        <ele>766</ele>
        <time>2021-12-05T16:25:39Z</time>
      </trkpt>
      <trkpt lat="42.87153" lon="2.13827">
        <ele>765</ele>
        <time>2021-12-05T16:25:41Z</time>
      </trkpt>
      <trkpt lat="42.87158" lon="2.13838">
        <ele>764</ele>
        <time>2021-12-05T16:25:43Z</time>
      </trkpt>
      <trkpt lat="42.87161" lon="2.13856">
        <ele>763</ele>
        <time>2021-12-05T16:25:46Z</time>
      </trkpt>
      <trkpt lat="42.87159" lon="2.1387">
        <ele>762</ele>
        <time>2021-12-05T16:25:47Z</time>
      </trkpt>
      <trkpt lat="42.8715" lon="2.13914">
        <ele>758</ele>
        <time>2021-12-05T16:25:53Z</time>
      </trkpt>
      <trkpt lat="42.8715" lon="2.13931">
        <ele>757</ele>
        <time>2021-12-05T16:25:56Z</time>
      </trkpt>
      <trkpt lat="42.87153" lon="2.13949">
        <ele>757</ele>
        <time>2021-12-05T16:25:58Z</time>
      </trkpt>
      <trkpt lat="42.87181" lon="2.14006">
        <ele>759</ele>
        <time>2021-12-05T16:26:07Z</time>
      </trkpt>
      <trkpt lat="42.87191" lon="2.14021">
        <ele>759</ele>
        <time>2021-12-05T16:26:10Z</time>
      </trkpt>
      <trkpt lat="42.87202" lon="2.14028">
        <ele>760</ele>
        <time>2021-12-05T16:26:12Z</time>
      </trkpt>
      <trkpt lat="42.87213" lon="2.14028">
        <ele>762</ele>
        <time>2021-12-05T16:26:14Z</time>
      </trkpt>
      <trkpt lat="42.8727" lon="2.14014">
        <ele>768</ele>
        <time>2021-12-05T16:26:24Z</time>
      </trkpt>
      <trkpt lat="42.87284" lon="2.14009">
        <ele>768</ele>
        <time>2021-12-05T16:26:27Z</time>
      </trkpt>
      <trkpt lat="42.87295" lon="2.14001">
        <ele>768</ele>
        <time>2021-12-05T16:26:29Z</time>
      </trkpt>
      <trkpt lat="42.87334" lon="2.13949">
        <ele>769</ele>
        <time>2021-12-05T16:26:39Z</time>
      </trkpt>
      <trkpt lat="42.87355" lon="2.13925">
        <ele>768</ele>
        <time>2021-12-05T16:26:43Z</time>
      </trkpt>
      <trkpt lat="42.87398" lon="2.13891">
        <ele>767</ele>
        <time>2021-12-05T16:26:52Z</time>
      </trkpt>
      <trkpt lat="42.87407" lon="2.13877">
        <ele>767</ele>
        <time>2021-12-05T16:26:55Z</time>
      </trkpt>
      <trkpt lat="42.8741" lon="2.13865">
        <ele>767</ele>
        <time>2021-12-05T16:26:56Z</time>
      </trkpt>
      <trkpt lat="42.87411" lon="2.13847">
        <ele>768</ele>
        <time>2021-12-05T16:26:59Z</time>
      </trkpt>
      <trkpt lat="42.87405" lon="2.13819">
        <ele>769</ele>
        <time>2021-12-05T16:27:02Z</time>
      </trkpt>
      <trkpt lat="42.87403" lon="2.13802">
        <ele>770</ele>
        <time>2021-12-05T16:27:05Z</time>
      </trkpt>
      <trkpt lat="42.87405" lon="2.13785">
        <ele>770</ele>
        <time>2021-12-05T16:27:07Z</time>
      </trkpt>
      <trkpt lat="42.87415" lon="2.1377">
        <ele>771</ele>
        <time>2021-12-05T16:27:10Z</time>
      </trkpt>
      <trkpt lat="42.87451" lon="2.13755">
        <ele>772</ele>
        <time>2021-12-05T16:27:16Z</time>
      </trkpt>
      <trkpt lat="42.87461" lon="2.13744">
        <ele>773</ele>
        <time>2021-12-05T16:27:19Z</time>
      </trkpt>
      <trkpt lat="42.87466" lon="2.1373">
        <ele>774</ele>
        <time>2021-12-05T16:27:21Z</time>
      </trkpt>
      <trkpt lat="42.87468" lon="2.1371">
        <ele>776</ele>
        <time>2021-12-05T16:27:23Z</time>
      </trkpt>
      <trkpt lat="42.87463" lon="2.13688">
        <ele>778</ele>
        <time>2021-12-05T16:27:26Z</time>
      </trkpt>
      <trkpt lat="42.87454" lon="2.13672">
        <ele>781</ele>
        <time>2021-12-05T16:27:29Z</time>
      </trkpt>
      <trkpt lat="42.87438" lon="2.13663">
        <ele>783</ele>
        <time>2021-12-05T16:27:32Z</time>
      </trkpt>
      <trkpt lat="42.87411" lon="2.13655">
        <ele>786</ele>
        <time>2021-12-05T16:27:37Z</time>
      </trkpt>
      <trkpt lat="42.87377" lon="2.1365">
        <ele>785</ele>
        <time>2021-12-05T16:27:43Z</time>
      </trkpt>
      <trkpt lat="42.87362" lon="2.13644">
        <ele>785</ele>
        <time>2021-12-05T16:27:46Z</time>
      </trkpt>
      <trkpt lat="42.87343" lon="2.13627">
        <ele>786</ele>
        <time>2021-12-05T16:27:50Z</time>
      </trkpt>
      <trkpt lat="42.87331" lon="2.13621">
        <ele>787</ele>
        <time>2021-12-05T16:27:52Z</time>
      </trkpt>
      <trkpt lat="42.87311" lon="2.13619">
        <ele>789</ele>
        <time>2021-12-05T16:27:56Z</time>
      </trkpt>
      <trkpt lat="42.87257" lon="2.13623">
        <ele>795</ele>
        <time>2021-12-05T16:28:05Z</time>
      </trkpt>
      <trkpt lat="42.87245" lon="2.13629">
        <ele>795</ele>
        <time>2021-12-05T16:28:08Z</time>
      </trkpt>
      <trkpt lat="42.87216" lon="2.13658">
        <ele>792</ele>
        <time>2021-12-05T16:28:14Z</time>
      </trkpt>
      <trkpt lat="42.87203" lon="2.13664">
        <ele>792</ele>
        <time>2021-12-05T16:28:16Z</time>
      </trkpt>
      <trkpt lat="42.87142" lon="2.13673">
        <ele>793</ele>
        <time>2021-12-05T16:28:27Z</time>
      </trkpt>
      <trkpt lat="42.87127" lon="2.13672">
        <ele>792</ele>
        <time>2021-12-05T16:28:30Z</time>
      </trkpt>
      <trkpt lat="42.87116" lon="2.13667">
        <ele>792</ele>
        <time>2021-12-05T16:28:32Z</time>
      </trkpt>
      <trkpt lat="42.87109" lon="2.13656">
        <ele>793</ele>
        <time>2021-12-05T16:28:34Z</time>
      </trkpt>
      <trkpt lat="42.87092" lon="2.13605">
        <ele>800</ele>
        <time>2021-12-05T16:28:41Z</time>
      </trkpt>
      <trkpt lat="42.87083" lon="2.13589">
        <ele>802</ele>
        <time>2021-12-05T16:28:44Z</time>
      </trkpt>
      <trkpt lat="42.87049" lon="2.13546">
        <ele>805</ele>
        <time>2021-12-05T16:28:52Z</time>
      </trkpt>
      <trkpt lat="42.86971" lon="2.13453">
        <ele>806</ele>
        <time>2021-12-05T16:29:11Z</time>
      </trkpt>
      <trkpt lat="42.86957" lon="2.13421">
        <ele>810</ele>
        <time>2021-12-05T16:29:15Z</time>
      </trkpt>
      <trkpt lat="42.86936" lon="2.13391">
        <ele>811</ele>
        <time>2021-12-05T16:29:21Z</time>
      </trkpt>
      <trkpt lat="42.86929" lon="2.13373">
        <ele>812</ele>
        <time>2021-12-05T16:29:23Z</time>
      </trkpt>
      <trkpt lat="42.86924" lon="2.1335">
        <ele>815</ele>
        <time>2021-12-05T16:29:27Z</time>
      </trkpt>
      <trkpt lat="42.86902" lon="2.133">
        <ele>819</ele>
        <time>2021-12-05T16:29:34Z</time>
      </trkpt>
      <trkpt lat="42.86877" lon="2.13263">
        <ele>820</ele>
        <time>2021-12-05T16:29:41Z</time>
      </trkpt>
      <trkpt lat="42.86846" lon="2.13224">
        <ele>819</ele>
        <time>2021-12-05T16:29:48Z</time>
      </trkpt>
      <trkpt lat="42.86815" lon="2.13188">
        <ele>821</ele>
        <time>2021-12-05T16:29:56Z</time>
      </trkpt>
      <trkpt lat="42.86803" lon="2.13162">
        <ele>823</ele>
        <time>2021-12-05T16:30:00Z</time>
      </trkpt>
      <trkpt lat="42.86797" lon="2.13131">
        <ele>825</ele>
        <time>2021-12-05T16:30:04Z</time>
      </trkpt>
      <trkpt lat="42.86798" lon="2.13087">
        <ele>830</ele>
        <time>2021-12-05T16:30:09Z</time>
      </trkpt>
      <trkpt lat="42.86789" lon="2.13063">
        <ele>830</ele>
        <time>2021-12-05T16:30:13Z</time>
      </trkpt>
      <trkpt lat="42.86732" lon="2.12988">
        <ele>832</ele>
        <time>2021-12-05T16:30:27Z</time>
      </trkpt>
      <trkpt lat="42.86718" lon="2.1296">
        <ele>834</ele>
        <time>2021-12-05T16:30:31Z</time>
      </trkpt>
      <trkpt lat="42.8671" lon="2.12933">
        <ele>836</ele>
        <time>2021-12-05T16:30:35Z</time>
      </trkpt>
      <trkpt lat="42.86705" lon="2.12882">
        <ele>838</ele>
        <time>2021-12-05T16:30:42Z</time>
      </trkpt>
      <trkpt lat="42.86698" lon="2.12853">
        <ele>840</ele>
        <time>2021-12-05T16:30:46Z</time>
      </trkpt>
      <trkpt lat="42.86691" lon="2.1284">
        <ele>841</ele>
        <time>2021-12-05T16:30:48Z</time>
      </trkpt>
      <trkpt lat="42.86681" lon="2.12832">
        <ele>841</ele>
        <time>2021-12-05T16:30:50Z</time>
      </trkpt>
      <trkpt lat="42.86664" lon="2.12823">
        <ele>844</ele>
        <time>2021-12-05T16:30:53Z</time>
      </trkpt>
      <trkpt lat="42.86624" lon="2.12814">
        <ele>848</ele>
        <time>2021-12-05T16:31:01Z</time>
      </trkpt>
      <trkpt lat="42.86586" lon="2.12801">
        <ele>852</ele>
        <time>2021-12-05T16:31:08Z</time>
      </trkpt>
      <trkpt lat="42.86521" lon="2.12765">
        <ele>858</ele>
        <time>2021-12-05T16:31:20Z</time>
      </trkpt>
      <trkpt lat="42.8649" lon="2.12753">
        <ele>858</ele>
        <time>2021-12-05T16:31:26Z</time>
      </trkpt>
      <trkpt lat="42.86475" lon="2.12753">
        <ele>858</ele>
        <time>2021-12-05T16:31:28Z</time>
      </trkpt>
      <trkpt lat="42.86445" lon="2.12765">
        <ele>862</ele>
        <time>2021-12-05T16:31:34Z</time>
      </trkpt>
      <trkpt lat="42.86433" lon="2.12764">
        <ele>863</ele>
        <time>2021-12-05T16:31:36Z</time>
      </trkpt>
      <trkpt lat="42.86364" lon="2.12729">
        <ele>864</ele>
        <time>2021-12-05T16:31:49Z</time>
      </trkpt>
      <trkpt lat="42.86327" lon="2.12727">
        <ele>865</ele>
        <time>2021-12-05T16:31:56Z</time>
      </trkpt>
      <trkpt lat="42.86266" lon="2.1273">
        <ele>866</ele>
        <time>2021-12-05T16:32:07Z</time>
      </trkpt>
      <trkpt lat="42.86259" lon="2.12727">
        <ele>866</ele>
        <time>2021-12-05T16:32:08Z</time>
      </trkpt>
      <trkpt lat="42.86251" lon="2.12719">
        <ele>866</ele>
        <time>2021-12-05T16:32:10Z</time>
      </trkpt>
      <trkpt lat="42.86242" lon="2.12703">
        <ele>865</ele>
        <time>2021-12-05T16:32:12Z</time>
      </trkpt>
      <trkpt lat="42.86202" lon="2.12601">
        <ele>870</ele>
        <time>2021-12-05T16:32:27Z</time>
      </trkpt>
      <trkpt lat="42.86176" lon="2.12529">
        <ele>874</ele>
        <time>2021-12-05T16:32:38Z</time>
      </trkpt>
      <trkpt lat="42.8617" lon="2.12499">
        <ele>875</ele>
        <time>2021-12-05T16:32:42Z</time>
      </trkpt>
      <trkpt lat="42.86166" lon="2.12468">
        <ele>877</ele>
        <time>2021-12-05T16:32:46Z</time>
      </trkpt>
      <trkpt lat="42.8616" lon="2.12353">
        <ele>884</ele>
        <time>2021-12-05T16:33:01Z</time>
      </trkpt>
      <trkpt lat="42.86162" lon="2.12221">
        <ele>890</ele>
        <time>2021-12-05T16:33:18Z</time>
      </trkpt>
      <trkpt lat="42.86166" lon="2.12174">
        <ele>890</ele>
        <time>2021-12-05T16:33:25Z</time>
      </trkpt>
      <trkpt lat="42.86174" lon="2.12143">
        <ele>891</ele>
        <time>2021-12-05T16:33:29Z</time>
      </trkpt>
      <trkpt lat="42.8618" lon="2.1213">
        <ele>891</ele>
        <time>2021-12-05T16:33:31Z</time>
      </trkpt>
      <trkpt lat="42.86407" lon="2.11719">
        <ele>882</ele>
        <time>2021-12-05T16:34:38Z</time>
      </trkpt>
      <trkpt lat="42.8641" lon="2.11708">
        <ele>882</ele>
        <time>2021-12-05T16:34:39Z</time>
      </trkpt>
      <trkpt lat="42.86415" lon="2.11684">
        <ele>882</ele>
        <time>2021-12-05T16:34:43Z</time>
      </trkpt>
      <trkpt lat="42.86416" lon="2.11659">
        <ele>880</ele>
        <time>2021-12-05T16:34:46Z</time>
      </trkpt>
      <trkpt lat="42.86404" lon="2.11526">
        <ele>879</ele>
        <time>2021-12-05T16:35:03Z</time>
      </trkpt>
      <trkpt lat="42.86396" lon="2.11491">
        <ele>880</ele>
        <time>2021-12-05T16:35:08Z</time>
      </trkpt>
      <trkpt lat="42.86385" lon="2.11473">
        <ele>879</ele>
        <time>2021-12-05T16:35:11Z</time>
      </trkpt>
      <trkpt lat="42.86355" lon="2.11436">
        <ele>874</ele>
        <time>2021-12-05T16:35:18Z</time>
      </trkpt>
      <trkpt lat="42.86342" lon="2.11415">
        <ele>872</ele>
        <time>2021-12-05T16:35:22Z</time>
      </trkpt>
      <trkpt lat="42.86297" lon="2.11332">
        <ele>867</ele>
        <time>2021-12-05T16:35:36Z</time>
      </trkpt>
      <trkpt lat="42.86287" lon="2.11312">
        <ele>867</ele>
        <time>2021-12-05T16:35:39Z</time>
      </trkpt>
      <trkpt lat="42.86241" lon="2.11187">
        <ele>865</ele>
        <time>2021-12-05T16:35:57Z</time>
      </trkpt>
      <trkpt lat="42.86227" lon="2.11155">
        <ele>864</ele>
        <time>2021-12-05T16:36:02Z</time>
      </trkpt>
      <trkpt lat="42.86214" lon="2.1114">
        <ele>862</ele>
        <time>2021-12-05T16:36:05Z</time>
      </trkpt>
      <trkpt lat="42.86168" lon="2.11116">
        <ele>857</ele>
        <time>2021-12-05T16:36:14Z</time>
      </trkpt>
      <trkpt lat="42.86159" lon="2.11109">
        <ele>856</ele>
        <time>2021-12-05T16:36:15Z</time>
      </trkpt>
      <trkpt lat="42.86151" lon="2.11098">
        <ele>856</ele>
        <time>2021-12-05T16:36:17Z</time>
      </trkpt>
      <trkpt lat="42.8614" lon="2.11073">
        <ele>856</ele>
        <time>2021-12-05T16:36:21Z</time>
      </trkpt>
      <trkpt lat="42.86127" lon="2.11024">
        <ele>859</ele>
        <time>2021-12-05T16:36:28Z</time>
      </trkpt>
      <trkpt lat="42.86115" lon="2.11004">
        <ele>859</ele>
        <time>2021-12-05T16:36:31Z</time>
      </trkpt>
      <trkpt lat="42.86091" lon="2.10975">
        <ele>859</ele>
        <time>2021-12-05T16:36:37Z</time>
      </trkpt>
      <trkpt lat="42.86084" lon="2.10964">
        <ele>859</ele>
        <time>2021-12-05T16:36:39Z</time>
      </trkpt>
      <trkpt lat="42.86044" lon="2.10865">
        <ele>865</ele>
        <time>2021-12-05T16:36:54Z</time>
      </trkpt>
      <trkpt lat="42.86031" lon="2.10845">
        <ele>865</ele>
        <time>2021-12-05T16:36:57Z</time>
      </trkpt>
      <trkpt lat="42.86002" lon="2.10819">
        <ele>862</ele>
        <time>2021-12-05T16:37:03Z</time>
      </trkpt>
      <trkpt lat="42.8597" lon="2.10785">
        <ele>859</ele>
        <time>2021-12-05T16:37:11Z</time>
      </trkpt>
      <trkpt lat="42.85964" lon="2.10775">
        <ele>859</ele>
        <time>2021-12-05T16:37:12Z</time>
      </trkpt>
      <trkpt lat="42.85958" lon="2.10762">
        <ele>859</ele>
        <time>2021-12-05T16:37:14Z</time>
      </trkpt>
      <trkpt lat="42.85954" lon="2.1075">
        <ele>859</ele>
        <time>2021-12-05T16:37:16Z</time>
      </trkpt>
      <trkpt lat="42.85952" lon="2.10737">
        <ele>860</ele>
        <time>2021-12-05T16:37:18Z</time>
      </trkpt>
      <trkpt lat="42.85952" lon="2.10722">
        <ele>861</ele>
        <time>2021-12-05T16:37:20Z</time>
      </trkpt>
      <trkpt lat="42.85957" lon="2.10692">
        <ele>865</ele>
        <time>2021-12-05T16:37:24Z</time>
      </trkpt>
      <trkpt lat="42.85957" lon="2.10677">
        <ele>867</ele>
        <time>2021-12-05T16:37:26Z</time>
      </trkpt>
      <trkpt lat="42.85954" lon="2.10664">
        <ele>867</ele>
        <time>2021-12-05T16:37:27Z</time>
      </trkpt>
      <trkpt lat="42.8595" lon="2.10653">
        <ele>867</ele>
        <time>2021-12-05T16:37:29Z</time>
      </trkpt>
      <trkpt lat="42.85945" lon="2.10644">
        <ele>867</ele>
        <time>2021-12-05T16:37:31Z</time>
      </trkpt>
      <trkpt lat="42.85922" lon="2.10621">
        <ele>863</ele>
        <time>2021-12-05T16:37:36Z</time>
      </trkpt>
      <trkpt lat="42.85907" lon="2.106">
        <ele>862</ele>
        <time>2021-12-05T16:37:39Z</time>
      </trkpt>
      <trkpt lat="42.85897" lon="2.10574">
        <ele>863</ele>
        <time>2021-12-05T16:37:43Z</time>
      </trkpt>
      <trkpt lat="42.85893" lon="2.10559">
        <ele>864</ele>
        <time>2021-12-05T16:37:45Z</time>
      </trkpt>
      <trkpt lat="42.85889" lon="2.10517">
        <ele>867</ele>
        <time>2021-12-05T16:37:51Z</time>
      </trkpt>
      <trkpt lat="42.85883" lon="2.10483">
        <ele>871</ele>
        <time>2021-12-05T16:37:55Z</time>
      </trkpt>
      <trkpt lat="42.85871" lon="2.10455">
        <ele>873</ele>
        <time>2021-12-05T16:38:00Z</time>
      </trkpt>
      <trkpt lat="42.85855" lon="2.10436">
        <ele>873</ele>
        <time>2021-12-05T16:38:03Z</time>
      </trkpt>
      <trkpt lat="42.85834" lon="2.10419">
        <ele>872</ele>
        <time>2021-12-05T16:38:08Z</time>
      </trkpt>
      <trkpt lat="42.85808" lon="2.10402">
        <ele>873</ele>
        <time>2021-12-05T16:38:13Z</time>
      </trkpt>
      <trkpt lat="42.85798" lon="2.10398">
        <ele>873</ele>
        <time>2021-12-05T16:38:15Z</time>
      </trkpt>
      <trkpt lat="42.85769" lon="2.10395">
        <ele>869</ele>
        <time>2021-12-05T16:38:20Z</time>
      </trkpt>
      <trkpt lat="42.85753" lon="2.10392">
        <ele>868</ele>
        <time>2021-12-05T16:38:23Z</time>
      </trkpt>
      <trkpt lat="42.85721" lon="2.10378">
        <ele>866</ele>
        <time>2021-12-05T16:38:29Z</time>
      </trkpt>
      <trkpt lat="42.85708" lon="2.1037">
        <ele>865</ele>
        <time>2021-12-05T16:38:31Z</time>
      </trkpt>
      <trkpt lat="42.857" lon="2.10362">
        <ele>865</ele>
        <time>2021-12-05T16:38:33Z</time>
      </trkpt>
      <trkpt lat="42.85694" lon="2.10355">
        <ele>865</ele>
        <time>2021-12-05T16:38:35Z</time>
      </trkpt>
      <trkpt lat="42.85688" lon="2.10341">
        <ele>866</ele>
        <time>2021-12-05T16:38:37Z</time>
      </trkpt>
      <trkpt lat="42.85682" lon="2.10301">
        <ele>872</ele>
        <time>2021-12-05T16:38:42Z</time>
      </trkpt>
      <trkpt lat="42.85678" lon="2.1029">
        <ele>872</ele>
        <time>2021-12-05T16:38:44Z</time>
      </trkpt>
      <trkpt lat="42.85672" lon="2.10282">
        <ele>872</ele>
        <time>2021-12-05T16:38:45Z</time>
      </trkpt>
      <trkpt lat="42.85656" lon="2.10266">
        <ele>869</ele>
        <time>2021-12-05T16:38:49Z</time>
      </trkpt>
      <trkpt lat="42.8565" lon="2.10256">
        <ele>869</ele>
        <time>2021-12-05T16:38:50Z</time>
      </trkpt>
      <trkpt lat="42.85645" lon="2.10245">
        <ele>869</ele>
        <time>2021-12-05T16:38:52Z</time>
      </trkpt>
      <trkpt lat="42.85631" lon="2.102">
        <ele>870</ele>
        <time>2021-12-05T16:38:58Z</time>
      </trkpt>
      <trkpt lat="42.85625" lon="2.10189">
        <ele>870</ele>
        <time>2021-12-05T16:39:00Z</time>
      </trkpt>
      <trkpt lat="42.85618" lon="2.10178">
        <ele>869</ele>
        <time>2021-12-05T16:39:02Z</time>
      </trkpt>
      <trkpt lat="42.85596" lon="2.10159">
        <ele>865</ele>
        <time>2021-12-05T16:39:07Z</time>
      </trkpt>
      <trkpt lat="42.85582" lon="2.10152">
        <ele>863</ele>
        <time>2021-12-05T16:39:09Z</time>
      </trkpt>
      <trkpt lat="42.85552" lon="2.10142">
        <ele>863</ele>
        <time>2021-12-05T16:39:15Z</time>
      </trkpt>
      <trkpt lat="42.85534" lon="2.10141">
        <ele>863</ele>
        <time>2021-12-05T16:39:18Z</time>
      </trkpt>
      <trkpt lat="42.85516" lon="2.10143">
        <ele>862</ele>
        <time>2021-12-05T16:39:21Z</time>
      </trkpt>
      <trkpt lat="42.85485" lon="2.10155">
        <ele>861</ele>
        <time>2021-12-05T16:39:27Z</time>
      </trkpt>
      <trkpt lat="42.85468" lon="2.10165">
        <ele>861</ele>
        <time>2021-12-05T16:39:30Z</time>
      </trkpt>
      <trkpt lat="42.85454" lon="2.10176">
        <ele>862</ele>
        <time>2021-12-05T16:39:33Z</time>
      </trkpt>
      <trkpt lat="42.85441" lon="2.10191">
        <ele>862</ele>
        <time>2021-12-05T16:39:36Z</time>
      </trkpt>
      <trkpt lat="42.85432" lon="2.10204">
        <ele>863</ele>
        <time>2021-12-05T16:39:38Z</time>
      </trkpt>
      <trkpt lat="42.85417" lon="2.10234">
        <ele>865</ele>
        <time>2021-12-05T16:39:43Z</time>
      </trkpt>
      <trkpt lat="42.85395" lon="2.10288">
        <ele>868</ele>
        <time>2021-12-05T16:39:51Z</time>
      </trkpt>
      <trkpt lat="42.85385" lon="2.10307">
        <ele>869</ele>
        <time>2021-12-05T16:39:54Z</time>
      </trkpt>
      <trkpt lat="42.85368" lon="2.10329">
        <ele>871</ele>
        <time>2021-12-05T16:39:59Z</time>
      </trkpt>
      <trkpt lat="42.85349" lon="2.10343">
        <ele>873</ele>
        <time>2021-12-05T16:40:02Z</time>
      </trkpt>
      <trkpt lat="42.85338" lon="2.10347">
        <ele>874</ele>
        <time>2021-12-05T16:40:04Z</time>
      </trkpt>
      <trkpt lat="42.85314" lon="2.10351">
        <ele>875</ele>
        <time>2021-12-05T16:40:09Z</time>
      </trkpt>
      <trkpt lat="42.85302" lon="2.10348">
        <ele>876</ele>
        <time>2021-12-05T16:40:11Z</time>
      </trkpt>
      <trkpt lat="42.85265" lon="2.10333">
        <ele>880</ele>
        <time>2021-12-05T16:40:18Z</time>
      </trkpt>
      <trkpt lat="42.85247" lon="2.10328">
        <ele>881</ele>
        <time>2021-12-05T16:40:21Z</time>
      </trkpt>
      <trkpt lat="42.85226" lon="2.10332">
        <ele>881</ele>
        <time>2021-12-05T16:40:25Z</time>
      </trkpt>
      <trkpt lat="42.85148" lon="2.10368">
        <ele>880</ele>
        <time>2021-12-05T16:40:39Z</time>
      </trkpt>
      <trkpt lat="42.85107" lon="2.10385">
        <ele>878</ele>
        <time>2021-12-05T16:40:47Z</time>
      </trkpt>
      <trkpt lat="42.85091" lon="2.10388">
        <ele>878</ele>
        <time>2021-12-05T16:40:50Z</time>
      </trkpt>
      <trkpt lat="42.8507" lon="2.10388">
        <ele>879</ele>
        <time>2021-12-05T16:40:54Z</time>
      </trkpt>
      <trkpt lat="42.85048" lon="2.10381">
        <ele>881</ele>
        <time>2021-12-05T16:40:58Z</time>
      </trkpt>
      <trkpt lat="42.85025" lon="2.1037">
        <ele>884</ele>
        <time>2021-12-05T16:41:02Z</time>
      </trkpt>
      <trkpt lat="42.84885" lon="2.10291">
        <ele>887</ele>
        <time>2021-12-05T16:41:29Z</time>
      </trkpt>
      <trkpt lat="42.84846" lon="2.10262">
        <ele>888</ele>
        <time>2021-12-05T16:41:37Z</time>
      </trkpt>
      <trkpt lat="42.84829" lon="2.10247">
        <ele>889</ele>
        <time>2021-12-05T16:41:40Z</time>
      </trkpt>
      <trkpt lat="42.8478" lon="2.10174">
        <ele>890</ele>
        <time>2021-12-05T16:41:53Z</time>
      </trkpt>
      <trkpt lat="42.84752" lon="2.10148">
        <ele>892</ele>
        <time>2021-12-05T16:41:59Z</time>
      </trkpt>
      <trkpt lat="42.84737" lon="2.10139">
        <ele>892</ele>
        <time>2021-12-05T16:42:02Z</time>
      </trkpt>
      <trkpt lat="42.84718" lon="2.10133">
        <ele>892</ele>
        <time>2021-12-05T16:42:06Z</time>
      </trkpt>
      <trkpt lat="42.84648" lon="2.10118">
        <ele>895</ele>
        <time>2021-12-05T16:42:18Z</time>
      </trkpt>
      <trkpt lat="42.8463" lon="2.1011">
        <ele>897</ele>
        <time>2021-12-05T16:42:22Z</time>
      </trkpt>
      <trkpt lat="42.84613" lon="2.10098">
        <ele>898</ele>
        <time>2021-12-05T16:42:25Z</time>
      </trkpt>
      <trkpt lat="42.84527" lon="2.10027">
        <ele>903</ele>
        <time>2021-12-05T16:42:43Z</time>
      </trkpt>
      <trkpt lat="42.84431" lon="2.09928">
        <ele>897</ele>
        <time>2021-12-05T16:43:04Z</time>
      </trkpt>
      <trkpt lat="42.84412" lon="2.09904">
        <ele>897</ele>
        <time>2021-12-05T16:43:09Z</time>
      </trkpt>
      <trkpt lat="42.84401" lon="2.09887">
        <ele>899</ele>
        <time>2021-12-05T16:43:12Z</time>
      </trkpt>
      <trkpt lat="42.84395" lon="2.09873">
        <ele>900</ele>
        <time>2021-12-05T16:43:14Z</time>
      </trkpt>
      <trkpt lat="42.84394" lon="2.09858">
        <ele>901</ele>
        <time>2021-12-05T16:43:16Z</time>
      </trkpt>
      <trkpt lat="42.84411" lon="2.09784">
        <ele>901</ele>
        <time>2021-12-05T16:43:26Z</time>
      </trkpt>
      <trkpt lat="42.84416" lon="2.09753">
        <ele>899</ele>
        <time>2021-12-05T16:43:30Z</time>
      </trkpt>
      <trkpt lat="42.84463" lon="2.08655">
        <ele>889</ele>
        <time>2021-12-05T16:45:54Z</time>
      </trkpt>
      <trkpt lat="42.84495" lon="2.08056">
        <ele>897</ele>
        <time>2021-12-05T16:47:12Z</time>
      </trkpt>
      <trkpt lat="42.84524" lon="2.0763">
        <ele>888</ele>
        <time>2021-12-05T16:48:08Z</time>
      </trkpt>
      <trkpt lat="42.84549" lon="2.07355">
        <ele>883</ele>
        <time>2021-12-05T16:48:44Z</time>
      </trkpt>
      <trkpt lat="42.84562" lon="2.07141">
        <ele>883</ele>
        <time>2021-12-05T16:49:12Z</time>
      </trkpt>
      <trkpt lat="42.84562" lon="2.07022">
        <ele>883</ele>
        <time>2021-12-05T16:49:28Z</time>
      </trkpt>
      <trkpt lat="42.84575" lon="2.06825">
        <ele>883</ele>
        <time>2021-12-05T16:49:54Z</time>
      </trkpt>
      <trkpt lat="42.84665" lon="2.05794">
        <ele>871</ele>
        <time>2021-12-05T16:52:09Z</time>
      </trkpt>
      <trkpt lat="42.84668" lon="2.05701">
        <ele>869</ele>
        <time>2021-12-05T16:52:21Z</time>
      </trkpt>
      <trkpt lat="42.84663" lon="2.05639">
        <ele>868</ele>
        <time>2021-12-05T16:52:29Z</time>
      </trkpt>
      <trkpt lat="42.84626" lon="2.0538">
        <ele>868</ele>
        <time>2021-12-05T16:53:04Z</time>
      </trkpt>
      <trkpt lat="42.84561" lon="2.04876">
        <ele>877</ele>
        <time>2021-12-05T16:54:10Z</time>
      </trkpt>
      <trkpt lat="42.84522" lon="2.04635">
        <ele>880</ele>
        <time>2021-12-05T16:54:43Z</time>
      </trkpt>
      <trkpt lat="42.84503" lon="2.045">
        <ele>884</ele>
        <time>2021-12-05T16:55:01Z</time>
      </trkpt>
      <trkpt lat="42.8449" lon="2.04468">
        <ele>884</ele>
        <time>2021-12-05T16:55:05Z</time>
      </trkpt>
      <trkpt lat="42.84467" lon="2.04444">
        <ele>885</ele>
        <time>2021-12-05T16:55:10Z</time>
      </trkpt>
      <trkpt lat="42.84428" lon="2.0442">
        <ele>886</ele>
        <time>2021-12-05T16:55:18Z</time>
      </trkpt>
      <trkpt lat="42.84367" lon="2.04387">
        <ele>887</ele>
        <time>2021-12-05T16:55:30Z</time>
      </trkpt>
      <trkpt lat="42.8432" lon="2.04354">
        <ele>888</ele>
        <time>2021-12-05T16:55:39Z</time>
      </trkpt>
      <trkpt lat="42.84297" lon="2.04323">
        <ele>888</ele>
        <time>2021-12-05T16:55:45Z</time>
      </trkpt>
      <trkpt lat="42.84218" lon="2.04136">
        <ele>887</ele>
        <time>2021-12-05T16:56:13Z</time>
      </trkpt>
      <trkpt lat="42.83901" lon="2.03363">
        <ele>886</ele>
        <time>2021-12-05T16:58:09Z</time>
      </trkpt>
      <trkpt lat="42.83757" lon="2.03016">
        <ele>891</ele>
        <time>2021-12-05T16:59:01Z</time>
      </trkpt>
      <trkpt lat="42.83761" lon="2.03034">
        <ele>891</ele>
        <time>2021-12-05T16:59:03Z</time>
      </trkpt>
      <trkpt lat="42.83757" lon="2.03016">
        <ele>891</ele>
        <time>2021-12-05T16:59:06Z</time>
      </trkpt>
      <trkpt lat="42.83667" lon="2.02798">
        <ele>890</ele>
        <time>2021-12-05T16:59:38Z</time>
      </trkpt>
      <trkpt lat="42.83617" lon="2.02685">
        <ele>892</ele>
        <time>2021-12-05T16:59:55Z</time>
      </trkpt>
      <trkpt lat="42.83582" lon="2.02641">
        <ele>892</ele>
        <time>2021-12-05T17:00:04Z</time>
      </trkpt>
      <trkpt lat="42.83509" lon="2.02604">
        <ele>890</ele>
        <time>2021-12-05T17:00:18Z</time>
      </trkpt>
      <trkpt lat="42.83385" lon="2.02564">
        <ele>889</ele>
        <time>2021-12-05T17:00:40Z</time>
      </trkpt>
      <trkpt lat="42.83156" lon="2.02493">
        <ele>892</ele>
        <time>2021-12-05T17:01:22Z</time>
      </trkpt>
      <trkpt lat="42.82904" lon="2.02417">
        <ele>894</ele>
        <time>2021-12-05T17:02:08Z</time>
      </trkpt>
      <trkpt lat="42.82755" lon="2.02374">
        <ele>895</ele>
        <time>2021-12-05T17:02:35Z</time>
      </trkpt>
      <trkpt lat="42.82647" lon="2.02343">
        <ele>897</ele>
        <time>2021-12-05T17:02:55Z</time>
      </trkpt>
      <trkpt lat="42.82631" lon="2.02338">
        <ele>897</ele>
        <time>2021-12-05T17:02:58Z</time>
      </trkpt>
      <trkpt lat="42.82594" lon="2.02326">
        <ele>898</ele>
        <time>2021-12-05T17:03:05Z</time>
      </trkpt>
      <trkpt lat="42.82571" lon="2.02315">
        <ele>899</ele>
        <time>2021-12-05T17:03:09Z</time>
      </trkpt>
      <trkpt lat="42.82552" lon="2.02297">
        <ele>899</ele>
        <time>2021-12-05T17:03:13Z</time>
      </trkpt>
      <trkpt lat="42.8255" lon="2.02302">
        <ele>899</ele>
        <time>2021-12-05T17:03:14Z</time>
      </trkpt>
      <trkpt lat="42.82539" lon="2.02324">
        <ele>900</ele>
        <time>2021-12-05T17:03:17Z</time>
      </trkpt>
      <trkpt lat="42.82529" lon="2.02348">
        <ele>901</ele>
        <time>2021-12-05T17:03:21Z</time>
      </trkpt>
      <trkpt lat="42.82523" lon="2.02379">
        <ele>902</ele>
        <time>2021-12-05T17:03:25Z</time>
      </trkpt>
      <trkpt lat="42.82522" lon="2.02397">
        <ele>903</ele>
        <time>2021-12-05T17:03:27Z</time>
      </trkpt>
      <trkpt lat="42.82521" lon="2.02406">
        <ele>903</ele>
        <time>2021-12-05T17:03:29Z</time>
      </trkpt>
      <trkpt lat="42.8252" lon="2.0241">
        <ele>903</ele>
        <time>2021-12-05T17:03:29Z</time>
      </trkpt>
      <trkpt lat="42.8251" lon="2.02499">
        <ele>902</ele>
        <time>2021-12-05T17:03:41Z</time>
      </trkpt>
      <trkpt lat="42.82477" lon="2.02624">
        <ele>902</ele>
        <time>2021-12-05T17:03:58Z</time>
      </trkpt>
      <trkpt lat="42.82456" lon="2.0268">
        <ele>903</ele>
        <time>2021-12-05T17:04:06Z</time>
      </trkpt>
      <trkpt lat="42.8243" lon="2.02727">
        <ele>905</ele>
        <time>2021-12-05T17:04:14Z</time>
      </trkpt>
      <trkpt lat="42.82402" lon="2.02754">
        <ele>906</ele>
        <time>2021-12-05T17:04:20Z</time>
      </trkpt>
      <trkpt lat="42.82372" lon="2.02775">
        <ele>906</ele>
        <time>2021-12-05T17:04:26Z</time>
      </trkpt>
      <trkpt lat="42.82329" lon="2.02787">
        <ele>907</ele>
        <time>2021-12-05T17:04:34Z</time>
      </trkpt>
      <trkpt lat="42.82296" lon="2.02787">
        <ele>908</ele>
        <time>2021-12-05T17:04:40Z</time>
      </trkpt>
      <trkpt lat="42.82265" lon="2.02782">
        <ele>908</ele>
        <time>2021-12-05T17:04:45Z</time>
      </trkpt>
      <trkpt lat="42.82231" lon="2.02765">
        <ele>907</ele>
        <time>2021-12-05T17:04:52Z</time>
      </trkpt>
      <trkpt lat="42.82206" lon="2.02751">
        <ele>907</ele>
        <time>2021-12-05T17:04:57Z</time>
      </trkpt>
      <trkpt lat="42.82176" lon="2.02738">
        <ele>906</ele>
        <time>2021-12-05T17:05:02Z</time>
      </trkpt>
      <trkpt lat="42.82148" lon="2.02738">
        <ele>907</ele>
        <time>2021-12-05T17:05:07Z</time>
      </trkpt>
      <trkpt lat="42.8212" lon="2.02762">
        <ele>908</ele>
        <time>2021-12-05T17:05:13Z</time>
      </trkpt>
      <trkpt lat="42.82101" lon="2.02789">
        <ele>908</ele>
        <time>2021-12-05T17:05:18Z</time>
      </trkpt>
      <trkpt lat="42.82096" lon="2.02838">
        <ele>907</ele>
        <time>2021-12-05T17:05:24Z</time>
      </trkpt>
      <trkpt lat="42.82093" lon="2.02871">
        <ele>906</ele>
        <time>2021-12-05T17:05:29Z</time>
      </trkpt>
      <trkpt lat="42.82107" lon="2.02896">
        <ele>906</ele>
        <time>2021-12-05T17:05:33Z</time>
      </trkpt>
      <trkpt lat="42.82119" lon="2.02916">
        <ele>907</ele>
        <time>2021-12-05T17:05:36Z</time>
      </trkpt>
      <trkpt lat="42.82144" lon="2.0294">
        <ele>906</ele>
        <time>2021-12-05T17:05:42Z</time>
      </trkpt>
      <trkpt lat="42.82155" lon="2.0296">
        <ele>906</ele>
        <time>2021-12-05T17:05:45Z</time>
      </trkpt>
      <trkpt lat="42.82171" lon="2.03034">
        <ele>899</ele>
        <time>2021-12-05T17:05:55Z</time>
      </trkpt>
      <trkpt lat="42.82187" lon="2.03056">
        <ele>898</ele>
        <time>2021-12-05T17:05:59Z</time>
      </trkpt>
      <trkpt lat="42.82221" lon="2.03078">
        <ele>899</ele>
        <time>2021-12-05T17:06:06Z</time>
      </trkpt>
      <trkpt lat="42.82241" lon="2.03099">
        <ele>899</ele>
        <time>2021-12-05T17:06:10Z</time>
      </trkpt>
      <trkpt lat="42.82262" lon="2.03124">
        <ele>899</ele>
        <time>2021-12-05T17:06:15Z</time>
      </trkpt>
      <trkpt lat="42.82296" lon="2.03157">
        <ele>899</ele>
        <time>2021-12-05T17:06:23Z</time>
      </trkpt>
      <trkpt lat="42.82305" lon="2.03178">
        <ele>899</ele>
        <time>2021-12-05T17:06:26Z</time>
      </trkpt>
      <trkpt lat="42.82309" lon="2.03204">
        <ele>898</ele>
        <time>2021-12-05T17:06:29Z</time>
      </trkpt>
      <trkpt lat="42.82311" lon="2.03319">
        <ele>887</ele>
        <time>2021-12-05T17:06:44Z</time>
      </trkpt>
      <trkpt lat="42.82318" lon="2.03351">
        <ele>885</ele>
        <time>2021-12-05T17:06:49Z</time>
      </trkpt>
      <trkpt lat="42.82341" lon="2.03377">
        <ele>888</ele>
        <time>2021-12-05T17:06:54Z</time>
      </trkpt>
      <trkpt lat="42.82358" lon="2.03416">
        <ele>886</ele>
        <time>2021-12-05T17:07:00Z</time>
      </trkpt>
      <trkpt lat="42.82358" lon="2.03433">
        <ele>885</ele>
        <time>2021-12-05T17:07:02Z</time>
      </trkpt>
      <trkpt lat="42.82352" lon="2.03444">
        <ele>883</ele>
        <time>2021-12-05T17:07:04Z</time>
      </trkpt>
      <trkpt lat="42.82345" lon="2.03446">
        <ele>881</ele>
        <time>2021-12-05T17:07:05Z</time>
      </trkpt>
      <trkpt lat="42.82334" lon="2.0344">
        <ele>880</ele>
        <time>2021-12-05T17:07:07Z</time>
      </trkpt>
      <trkpt lat="42.82323" lon="2.03412">
        <ele>879</ele>
        <time>2021-12-05T17:07:11Z</time>
      </trkpt>
      <trkpt lat="42.8227" lon="2.03302">
        <ele>877</ele>
        <time>2021-12-05T17:07:29Z</time>
      </trkpt>
      <trkpt lat="42.82258" lon="2.03283">
        <ele>878</ele>
        <time>2021-12-05T17:07:32Z</time>
      </trkpt>
      <trkpt lat="42.82228" lon="2.03254">
        <ele>876</ele>
        <time>2021-12-05T17:07:38Z</time>
      </trkpt>
      <trkpt lat="42.8219" lon="2.03228">
        <ele>869</ele>
        <time>2021-12-05T17:07:46Z</time>
      </trkpt>
      <trkpt lat="42.82158" lon="2.03188">
        <ele>867</ele>
        <time>2021-12-05T17:07:54Z</time>
      </trkpt>
      <trkpt lat="42.82134" lon="2.03171">
        <ele>866</ele>
        <time>2021-12-05T17:07:59Z</time>
      </trkpt>
      <trkpt lat="42.82107" lon="2.03162">
        <ele>862</ele>
        <time>2021-12-05T17:08:04Z</time>
      </trkpt>
      <trkpt lat="42.82064" lon="2.03151">
        <ele>857</ele>
        <time>2021-12-05T17:08:11Z</time>
      </trkpt>
      <trkpt lat="42.82048" lon="2.03137">
        <ele>858</ele>
        <time>2021-12-05T17:08:15Z</time>
      </trkpt>
      <trkpt lat="42.82034" lon="2.03118">
        <ele>860</ele>
        <time>2021-12-05T17:08:18Z</time>
      </trkpt>
      <trkpt lat="42.82021" lon="2.03116">
        <ele>859</ele>
        <time>2021-12-05T17:08:21Z</time>
      </trkpt>
      <trkpt lat="42.82014" lon="2.03126">
        <ele>856</ele>
        <time>2021-12-05T17:08:22Z</time>
      </trkpt>
      <trkpt lat="42.82016" lon="2.03147">
        <ele>851</ele>
        <time>2021-12-05T17:08:25Z</time>
      </trkpt>
      <trkpt lat="42.82025" lon="2.0316">
        <ele>849</ele>
        <time>2021-12-05T17:08:27Z</time>
      </trkpt>
      <trkpt lat="42.82088" lon="2.03198">
        <ele>851</ele>
        <time>2021-12-05T17:08:40Z</time>
      </trkpt>
      <trkpt lat="42.82102" lon="2.03216">
        <ele>850</ele>
        <time>2021-12-05T17:08:43Z</time>
      </trkpt>
      <trkpt lat="42.82123" lon="2.0325">
        <ele>849</ele>
        <time>2021-12-05T17:08:49Z</time>
      </trkpt>
      <trkpt lat="42.82129" lon="2.0329">
        <ele>843</ele>
        <time>2021-12-05T17:08:54Z</time>
      </trkpt>
      <trkpt lat="42.82141" lon="2.03328">
        <ele>840</ele>
        <time>2021-12-05T17:09:00Z</time>
      </trkpt>
      <trkpt lat="42.82155" lon="2.03351">
        <ele>840</ele>
        <time>2021-12-05T17:09:04Z</time>
      </trkpt>
      <trkpt lat="42.82177" lon="2.0337">
        <ele>843</ele>
        <time>2021-12-05T17:09:08Z</time>
      </trkpt>
      <trkpt lat="42.82198" lon="2.03403">
        <ele>843</ele>
        <time>2021-12-05T17:09:14Z</time>
      </trkpt>
      <trkpt lat="42.82208" lon="2.03437">
        <ele>842</ele>
        <time>2021-12-05T17:09:19Z</time>
      </trkpt>
      <trkpt lat="42.82211" lon="2.03467">
        <ele>840</ele>
        <time>2021-12-05T17:09:23Z</time>
      </trkpt>
      <trkpt lat="42.82206" lon="2.03496">
        <ele>836</ele>
        <time>2021-12-05T17:09:26Z</time>
      </trkpt>
      <trkpt lat="42.82199" lon="2.03523">
        <ele>831</ele>
        <time>2021-12-05T17:09:30Z</time>
      </trkpt>
      <trkpt lat="42.82199" lon="2.03572">
        <ele>828</ele>
        <time>2021-12-05T17:09:37Z</time>
      </trkpt>
      <trkpt lat="42.82204" lon="2.03589">
        <ele>828</ele>
        <time>2021-12-05T17:09:39Z</time>
      </trkpt>
      <trkpt lat="42.82204" lon="2.03606">
        <ele>825</ele>
        <time>2021-12-05T17:09:41Z</time>
      </trkpt>
      <trkpt lat="42.82197" lon="2.03613">
        <ele>822</ele>
        <time>2021-12-05T17:09:43Z</time>
      </trkpt>
      <trkpt lat="42.82187" lon="2.0361">
        <ele>820</ele>
        <time>2021-12-05T17:09:45Z</time>
      </trkpt>
      <trkpt lat="42.82183" lon="2.03587">
        <ele>823</ele>
        <time>2021-12-05T17:09:48Z</time>
      </trkpt>
      <trkpt lat="42.82184" lon="2.03543">
        <ele>826</ele>
        <time>2021-12-05T17:09:53Z</time>
      </trkpt>
      <trkpt lat="42.82176" lon="2.03477">
        <ele>828</ele>
        <time>2021-12-05T17:10:02Z</time>
      </trkpt>
      <trkpt lat="42.82167" lon="2.03458">
        <ele>828</ele>
        <time>2021-12-05T17:10:05Z</time>
      </trkpt>
      <trkpt lat="42.82155" lon="2.03443">
        <ele>826</ele>
        <time>2021-12-05T17:10:08Z</time>
      </trkpt>
      <trkpt lat="42.82132" lon="2.03435">
        <ele>821</ele>
        <time>2021-12-05T17:10:12Z</time>
      </trkpt>
      <trkpt lat="42.82109" lon="2.03424">
        <ele>815</ele>
        <time>2021-12-05T17:10:17Z</time>
      </trkpt>
      <trkpt lat="42.82045" lon="2.03341">
        <ele>810</ele>
        <time>2021-12-05T17:10:32Z</time>
      </trkpt>
      <trkpt lat="42.81999" lon="2.03302">
        <ele>807</ele>
        <time>2021-12-05T17:10:42Z</time>
      </trkpt>
      <trkpt lat="42.81961" lon="2.03289">
        <ele>811</ele>
        <time>2021-12-05T17:10:49Z</time>
      </trkpt>
      <trkpt lat="42.81937" lon="2.03286">
        <ele>812</ele>
        <time>2021-12-05T17:10:53Z</time>
      </trkpt>
      <trkpt lat="42.81919" lon="2.0329">
        <ele>811</ele>
        <time>2021-12-05T17:10:56Z</time>
      </trkpt>
      <trkpt lat="42.81903" lon="2.03309">
        <ele>810</ele>
        <time>2021-12-05T17:11:00Z</time>
      </trkpt>
      <trkpt lat="42.8189" lon="2.03335">
        <ele>808</ele>
        <time>2021-12-05T17:11:04Z</time>
      </trkpt>
      <trkpt lat="42.81878" lon="2.03398">
        <ele>804</ele>
        <time>2021-12-05T17:11:13Z</time>
      </trkpt>
      <trkpt lat="42.81868" lon="2.03466">
        <ele>798</ele>
        <time>2021-12-05T17:11:22Z</time>
      </trkpt>
      <trkpt lat="42.81859" lon="2.03505">
        <ele>794</ele>
        <time>2021-12-05T17:11:27Z</time>
      </trkpt>
      <trkpt lat="42.81846" lon="2.03536">
        <ele>790</ele>
        <time>2021-12-05T17:11:32Z</time>
      </trkpt>
      <trkpt lat="42.81808" lon="2.03569">
        <ele>793</ele>
        <time>2021-12-05T17:11:40Z</time>
      </trkpt>
      <trkpt lat="42.8177" lon="2.03627">
        <ele>784</ele>
        <time>2021-12-05T17:11:50Z</time>
      </trkpt>
      <trkpt lat="42.81754" lon="2.03659">
        <ele>778</ele>
        <time>2021-12-05T17:11:55Z</time>
      </trkpt>
      <trkpt lat="42.81738" lon="2.03672">
        <ele>779</ele>
        <time>2021-12-05T17:11:58Z</time>
      </trkpt>
      <trkpt lat="42.81711" lon="2.0373">
        <ele>770</ele>
        <time>2021-12-05T17:12:07Z</time>
      </trkpt>
      <trkpt lat="42.81679" lon="2.0375">
        <ele>771</ele>
        <time>2021-12-05T17:12:14Z</time>
      </trkpt>
      <trkpt lat="42.81657" lon="2.03744">
        <ele>773</ele>
        <time>2021-12-05T17:12:18Z</time>
      </trkpt>
      <trkpt lat="42.81588" lon="2.03709">
        <ele>773</ele>
        <time>2021-12-05T17:12:31Z</time>
      </trkpt>
      <trkpt lat="42.81545" lon="2.03692">
        <ele>773</ele>
        <time>2021-12-05T17:12:39Z</time>
      </trkpt>
      <trkpt lat="42.81485" lon="2.0369">
        <ele>763</ele>
        <time>2021-12-05T17:12:49Z</time>
      </trkpt>
      <trkpt lat="42.81446" lon="2.03668">
        <ele>760</ele>
        <time>2021-12-05T17:12:57Z</time>
      </trkpt>
      <trkpt lat="42.81377" lon="2.03601">
        <ele>760</ele>
        <time>2021-12-05T17:13:12Z</time>
      </trkpt>
      <trkpt lat="42.81351" lon="2.03584">
        <ele>755</ele>
        <time>2021-12-05T17:13:17Z</time>
      </trkpt>
      <trkpt lat="42.81334" lon="2.03576">
        <ele>752</ele>
        <time>2021-12-05T17:13:20Z</time>
      </trkpt>
      <trkpt lat="42.81324" lon="2.03576">
        <ele>752</ele>
        <time>2021-12-05T17:13:22Z</time>
      </trkpt>
      <trkpt lat="42.81314" lon="2.03581">
        <ele>751</ele>
        <time>2021-12-05T17:13:24Z</time>
      </trkpt>
      <trkpt lat="42.81356" lon="2.03622">
        <ele>751</ele>
        <time>2021-12-05T17:13:33Z</time>
      </trkpt>
      <trkpt lat="42.81314" lon="2.03581">
        <ele>751</ele>
        <time>2021-12-05T17:13:42Z</time>
      </trkpt>
      <trkpt lat="42.81242" lon="2.03528">
        <ele>757</ele>
        <time>2021-12-05T17:13:57Z</time>
      </trkpt>
      <trkpt lat="42.81111" lon="2.03467">
        <ele>760</ele>
        <time>2021-12-05T17:14:22Z</time>
      </trkpt>
      <trkpt lat="42.81008" lon="2.03441">
        <ele>759</ele>
        <time>2021-12-05T17:14:40Z</time>
      </trkpt>
      <trkpt lat="42.80989" lon="2.03428">
        <ele>760</ele>
        <time>2021-12-05T17:14:44Z</time>
      </trkpt>
      <trkpt lat="42.80981" lon="2.03401">
        <ele>759</ele>
        <time>2021-12-05T17:14:48Z</time>
      </trkpt>
      <trkpt lat="42.80976" lon="2.03344">
        <ele>761</ele>
        <time>2021-12-05T17:14:55Z</time>
      </trkpt>
      <trkpt lat="42.80971" lon="2.03325">
        <ele>763</ele>
        <time>2021-12-05T17:14:58Z</time>
      </trkpt>
      <trkpt lat="42.80965" lon="2.03309">
        <ele>765</ele>
        <time>2021-12-05T17:15:00Z</time>
      </trkpt>
      <trkpt lat="42.80934" lon="2.03268">
        <ele>769</ele>
        <time>2021-12-05T17:15:08Z</time>
      </trkpt>
      <trkpt lat="42.80916" lon="2.03247">
        <ele>769</ele>
        <time>2021-12-05T17:15:12Z</time>
      </trkpt>
      <trkpt lat="42.809" lon="2.03232">
        <ele>780</ele>
        <time>2021-12-05T17:15:16Z</time>
      </trkpt>
      <trkpt lat="42.80894" lon="2.03231">
        <ele>783</ele>
        <time>2021-12-05T17:15:17Z</time>
      </trkpt>
      <trkpt lat="42.80878" lon="2.03233">
        <ele>788</ele>
        <time>2021-12-05T17:15:19Z</time>
      </trkpt>
      <trkpt lat="42.80873" lon="2.03239">
        <ele>789</ele>
        <time>2021-12-05T17:15:21Z</time>
      </trkpt>
      <trkpt lat="42.80871" lon="2.03251">
        <ele>787</ele>
        <time>2021-12-05T17:15:22Z</time>
      </trkpt>
      <trkpt lat="42.80874" lon="2.03261">
        <ele>784</ele>
        <time>2021-12-05T17:15:24Z</time>
      </trkpt>
      <trkpt lat="42.80885" lon="2.0328">
        <ele>777</ele>
        <time>2021-12-05T17:15:27Z</time>
      </trkpt>
      <trkpt lat="42.80918" lon="2.03312">
        <ele>763</ele>
        <time>2021-12-05T17:15:34Z</time>
      </trkpt>
      <trkpt lat="42.80922" lon="2.03328">
        <ele>762</ele>
        <time>2021-12-05T17:15:36Z</time>
      </trkpt>
      <trkpt lat="42.80922" lon="2.03344">
        <ele>762</ele>
        <time>2021-12-05T17:15:38Z</time>
      </trkpt>
      <trkpt lat="42.80915" lon="2.0337">
        <ele>765</ele>
        <time>2021-12-05T17:15:42Z</time>
      </trkpt>
      <trkpt lat="42.80908" lon="2.03378">
        <ele>768</ele>
        <time>2021-12-05T17:15:44Z</time>
      </trkpt>
      <trkpt lat="42.80898" lon="2.03376">
        <ele>770</ele>
        <time>2021-12-05T17:15:45Z</time>
      </trkpt>
      <trkpt lat="42.80861" lon="2.03336">
        <ele>777</ele>
        <time>2021-12-05T17:15:54Z</time>
      </trkpt>
      <trkpt lat="42.80846" lon="2.0333">
        <ele>782</ele>
        <time>2021-12-05T17:15:57Z</time>
      </trkpt>
      <trkpt lat="42.8083" lon="2.0333">
        <ele>787</ele>
        <time>2021-12-05T17:15:59Z</time>
      </trkpt>
      <trkpt lat="42.80797" lon="2.03344">
        <ele>802</ele>
        <time>2021-12-05T17:16:06Z</time>
      </trkpt>
      <trkpt lat="42.80734" lon="2.03383">
        <ele>819</ele>
        <time>2021-12-05T17:16:18Z</time>
      </trkpt>
      <trkpt lat="42.80711" lon="2.03406">
        <ele>820</ele>
        <time>2021-12-05T17:16:23Z</time>
      </trkpt>
      <trkpt lat="42.80653" lon="2.03434">
        <ele>836</ele>
        <time>2021-12-05T17:16:34Z</time>
      </trkpt>
      <trkpt lat="42.80628" lon="2.03459">
        <ele>842</ele>
        <time>2021-12-05T17:16:39Z</time>
      </trkpt>
      <trkpt lat="42.80608" lon="2.03464">
        <ele>846</ele>
        <time>2021-12-05T17:16:43Z</time>
      </trkpt>
      <trkpt lat="42.80588" lon="2.03476">
        <ele>847</ele>
        <time>2021-12-05T17:16:47Z</time>
      </trkpt>
      <trkpt lat="42.80534" lon="2.03584">
        <ele>859</ele>
        <time>2021-12-05T17:17:04Z</time>
      </trkpt>
      <trkpt lat="42.80508" lon="2.036">
        <ele>861</ele>
        <time>2021-12-05T17:17:09Z</time>
      </trkpt>
      <trkpt lat="42.8047" lon="2.03618">
        <ele>863</ele>
        <time>2021-12-05T17:17:16Z</time>
      </trkpt>
      <trkpt lat="42.80452" lon="2.0363">
        <ele>863</ele>
        <time>2021-12-05T17:17:20Z</time>
      </trkpt>
      <trkpt lat="42.80445" lon="2.03639">
        <ele>862</ele>
        <time>2021-12-05T17:17:22Z</time>
      </trkpt>
      <trkpt lat="42.80444" lon="2.03654">
        <ele>859</ele>
        <time>2021-12-05T17:17:23Z</time>
      </trkpt>
      <trkpt lat="42.80446" lon="2.03693">
        <ele>860</ele>
        <time>2021-12-05T17:17:29Z</time>
      </trkpt>
      <trkpt lat="42.80434" lon="2.0374">
        <ele>863</ele>
        <time>2021-12-05T17:17:35Z</time>
      </trkpt>
      <trkpt lat="42.80406" lon="2.038">
        <ele>870</ele>
        <time>2021-12-05T17:17:44Z</time>
      </trkpt>
      <trkpt lat="42.8039" lon="2.03823">
        <ele>876</ele>
        <time>2021-12-05T17:17:48Z</time>
      </trkpt>
      <trkpt lat="42.80386" lon="2.0384">
        <ele>879</ele>
        <time>2021-12-05T17:17:51Z</time>
      </trkpt>
      <trkpt lat="42.80333" lon="2.03931">
        <ele>876</ele>
        <time>2021-12-05T17:18:06Z</time>
      </trkpt>
      <trkpt lat="42.80304" lon="2.03998">
        <ele>888</ele>
        <time>2021-12-05T17:18:16Z</time>
      </trkpt>
      <trkpt lat="42.80226" lon="2.0412">
        <ele>899</ele>
        <time>2021-12-05T17:18:37Z</time>
      </trkpt>
      <trkpt lat="42.80151" lon="2.0422">
        <ele>904</ele>
        <time>2021-12-05T17:18:56Z</time>
      </trkpt>
      <trkpt lat="42.80138" lon="2.04275">
        <ele>911</ele>
        <time>2021-12-05T17:19:03Z</time>
      </trkpt>
      <trkpt lat="42.80107" lon="2.04328">
        <ele>911</ele>
        <time>2021-12-05T17:19:12Z</time>
      </trkpt>
      <trkpt lat="42.80097" lon="2.04365">
        <ele>912</ele>
        <time>2021-12-05T17:19:17Z</time>
      </trkpt>
      <trkpt lat="42.80098" lon="2.04413">
        <ele>919</ele>
        <time>2021-12-05T17:19:24Z</time>
      </trkpt>
      <trkpt lat="42.80087" lon="2.04463">
        <ele>921</ele>
        <time>2021-12-05T17:19:31Z</time>
      </trkpt>
      <trkpt lat="42.8008" lon="2.04519">
        <ele>925</ele>
        <time>2021-12-05T17:19:38Z</time>
      </trkpt>
      <trkpt lat="42.80082" lon="2.04553">
        <ele>926</ele>
        <time>2021-12-05T17:19:42Z</time>
      </trkpt>
      <trkpt lat="42.80077" lon="2.04571">
        <ele>928</ele>
        <time>2021-12-05T17:19:45Z</time>
      </trkpt>
      <trkpt lat="42.80023" lon="2.04607">
        <ele>932</ele>
        <time>2021-12-05T17:19:56Z</time>
      </trkpt>
      <trkpt lat="42.79983" lon="2.04666">
        <ele>934</ele>
        <time>2021-12-05T17:20:06Z</time>
      </trkpt>
      <trkpt lat="42.79969" lon="2.04698">
        <ele>936</ele>
        <time>2021-12-05T17:20:11Z</time>
      </trkpt>
      <trkpt lat="42.79967" lon="2.04756">
        <ele>940</ele>
        <time>2021-12-05T17:20:19Z</time>
      </trkpt>
      <trkpt lat="42.79956" lon="2.04806">
        <ele>941</ele>
        <time>2021-12-05T17:20:25Z</time>
      </trkpt>
      <trkpt lat="42.79922" lon="2.0485">
        <ele>940</ele>
        <time>2021-12-05T17:20:34Z</time>
      </trkpt>
      <trkpt lat="42.79894" lon="2.04898">
        <ele>944</ele>
        <time>2021-12-05T17:20:42Z</time>
      </trkpt>
      <trkpt lat="42.79888" lon="2.04917">
        <ele>946</ele>
        <time>2021-12-05T17:20:44Z</time>
      </trkpt>
      <trkpt lat="42.7989" lon="2.04947">
        <ele>946</ele>
        <time>2021-12-05T17:20:48Z</time>
      </trkpt>
      <trkpt lat="42.79908" lon="2.05028">
        <ele>946</ele>
        <time>2021-12-05T17:20:59Z</time>
      </trkpt>
      <trkpt lat="42.7992" lon="2.05117">
        <ele>948</ele>
        <time>2021-12-05T17:21:11Z</time>
      </trkpt>
      <trkpt lat="42.79916" lon="2.05196">
        <ele>948</ele>
        <time>2021-12-05T17:21:22Z</time>
      </trkpt>
      <trkpt lat="42.79933" lon="2.05301">
        <ele>949</ele>
        <time>2021-12-05T17:21:36Z</time>
      </trkpt>
      <trkpt lat="42.79924" lon="2.05368">
        <ele>948</ele>
        <time>2021-12-05T17:21:45Z</time>
      </trkpt>
      <trkpt lat="42.79911" lon="2.0555">
        <ele>942</ele>
        <time>2021-12-05T17:22:08Z</time>
      </trkpt>
      <trkpt lat="42.79894" lon="2.05632">
        <ele>941</ele>
        <time>2021-12-05T17:22:19Z</time>
      </trkpt>
      <trkpt lat="42.79873" lon="2.05746">
        <ele>936</ele>
        <time>2021-12-05T17:22:35Z</time>
      </trkpt>
      <trkpt lat="42.79866" lon="2.05806">
        <ele>935</ele>
        <time>2021-12-05T17:22:43Z</time>
      </trkpt>
      <trkpt lat="42.79864" lon="2.05893">
        <ele>933</ele>
        <time>2021-12-05T17:22:54Z</time>
      </trkpt>
      <trkpt lat="42.79871" lon="2.05924">
        <ele>933</ele>
        <time>2021-12-05T17:22:58Z</time>
      </trkpt>
      <trkpt lat="42.79907" lon="2.06021">
        <ele>931</ele>
        <time>2021-12-05T17:23:13Z</time>
      </trkpt>
      <trkpt lat="42.79923" lon="2.06133">
        <ele>928</ele>
        <time>2021-12-05T17:23:27Z</time>
      </trkpt>
      <trkpt lat="42.79941" lon="2.06168">
        <ele>928</ele>
        <time>2021-12-05T17:23:33Z</time>
      </trkpt>
      <trkpt lat="42.79948" lon="2.06204">
        <ele>927</ele>
        <time>2021-12-05T17:23:38Z</time>
      </trkpt>
      <trkpt lat="42.79948" lon="2.06261">
        <ele>925</ele>
        <time>2021-12-05T17:23:45Z</time>
      </trkpt>
      <trkpt lat="42.79886" lon="2.06759">
        <ele>917</ele>
        <time>2021-12-05T17:24:51Z</time>
      </trkpt>
      <trkpt lat="42.7988" lon="2.06782">
        <ele>917</ele>
        <time>2021-12-05T17:24:54Z</time>
      </trkpt>
      <trkpt lat="42.79865" lon="2.06806">
        <ele>916</ele>
        <time>2021-12-05T17:24:59Z</time>
      </trkpt>
      <trkpt lat="42.79862" lon="2.06817">
        <ele>916</ele>
        <time>2021-12-05T17:25:00Z</time>
      </trkpt>
      <trkpt lat="42.79862" lon="2.06866">
        <ele>918</ele>
        <time>2021-12-05T17:25:07Z</time>
      </trkpt>
      <trkpt lat="42.79854" lon="2.06914">
        <ele>921</ele>
        <time>2021-12-05T17:25:13Z</time>
      </trkpt>
      <trkpt lat="42.79842" lon="2.06961">
        <ele>923</ele>
        <time>2021-12-05T17:25:19Z</time>
      </trkpt>
      <trkpt lat="42.7983" lon="2.06998">
        <ele>924</ele>
        <time>2021-12-05T17:25:25Z</time>
      </trkpt>
      <trkpt lat="42.79822" lon="2.07031">
        <ele>924</ele>
        <time>2021-12-05T17:25:29Z</time>
      </trkpt>
      <trkpt lat="42.79809" lon="2.07106">
        <ele>923</ele>
        <time>2021-12-05T17:25:39Z</time>
      </trkpt>
      <trkpt lat="42.79791" lon="2.07212">
        <ele>922</ele>
        <time>2021-12-05T17:25:54Z</time>
      </trkpt>
      <trkpt lat="42.79773" lon="2.07401">
        <ele>917</ele>
        <time>2021-12-05T17:26:18Z</time>
      </trkpt>
      <trkpt lat="42.79706" lon="2.07626">
        <ele>912</ele>
        <time>2021-12-05T17:26:50Z</time>
      </trkpt>
      <trkpt lat="42.79678" lon="2.07778">
        <ele>910</ele>
        <time>2021-12-05T17:27:11Z</time>
      </trkpt>
      <trkpt lat="42.79646" lon="2.07918">
        <ele>907</ele>
        <time>2021-12-05T17:27:30Z</time>
      </trkpt>
      <trkpt lat="42.7956" lon="2.08418">
        <ele>917</ele>
        <time>2021-12-05T17:28:37Z</time>
      </trkpt>
      <trkpt lat="42.79511" lon="2.08695">
        <ele>927</ele>
        <time>2021-12-05T17:29:14Z</time>
      </trkpt>
      <trkpt lat="42.79501" lon="2.08782">
        <ele>930</ele>
        <time>2021-12-05T17:29:25Z</time>
      </trkpt>
      <trkpt lat="42.79498" lon="2.08964">
        <ele>939</ele>
        <time>2021-12-05T17:29:49Z</time>
      </trkpt>
      <trkpt lat="42.79506" lon="2.08998">
        <ele>941</ele>
        <time>2021-12-05T17:29:54Z</time>
      </trkpt>
      <trkpt lat="42.79509" lon="2.09026">
        <ele>943</ele>
        <time>2021-12-05T17:29:58Z</time>
      </trkpt>
      <trkpt lat="42.79504" lon="2.09046">
        <ele>945</ele>
        <time>2021-12-05T17:30:00Z</time>
      </trkpt>
      <trkpt lat="42.79463" lon="2.09066">
        <ele>945</ele>
        <time>2021-12-05T17:30:08Z</time>
      </trkpt>
      <trkpt lat="42.79443" lon="2.09098">
        <ele>945</ele>
        <time>2021-12-05T17:30:14Z</time>
      </trkpt>
      <trkpt lat="42.79428" lon="2.09175">
        <ele>942</ele>
        <time>2021-12-05T17:30:24Z</time>
      </trkpt>
      <trkpt lat="42.7939" lon="2.09221">
        <ele>939</ele>
        <time>2021-12-05T17:30:33Z</time>
      </trkpt>
      <trkpt lat="42.7935" lon="2.09302">
        <ele>934</ele>
        <time>2021-12-05T17:30:46Z</time>
      </trkpt>
      <trkpt lat="42.79324" lon="2.09369">
        <ele>932</ele>
        <time>2021-12-05T17:30:56Z</time>
      </trkpt>
      <trkpt lat="42.79298" lon="2.09443">
        <ele>931</ele>
        <time>2021-12-05T17:31:06Z</time>
      </trkpt>
      <trkpt lat="42.79268" lon="2.09502">
        <ele>931</ele>
        <time>2021-12-05T17:31:16Z</time>
      </trkpt>
      <trkpt lat="42.79221" lon="2.09615">
        <ele>933</ele>
        <time>2021-12-05T17:31:33Z</time>
      </trkpt>
      <trkpt lat="42.79097" lon="2.09606">
        <ele>927</ele>
        <time>2021-12-05T17:31:55Z</time>
      </trkpt>
      <trkpt lat="42.79013" lon="2.09606">
        <ele>926</ele>
        <time>2021-12-05T17:32:10Z</time>
      </trkpt>
      <trkpt lat="42.7895" lon="2.09592">
        <ele>926</ele>
        <time>2021-12-05T17:32:21Z</time>
      </trkpt>
      <trkpt lat="42.78871" lon="2.09569">
        <ele>929</ele>
        <time>2021-12-05T17:32:35Z</time>
      </trkpt>
      <trkpt lat="42.78839" lon="2.09558">
        <ele>930</ele>
        <time>2021-12-05T17:32:41Z</time>
      </trkpt>
      <trkpt lat="42.78802" lon="2.09533">
        <ele>930</ele>
        <time>2021-12-05T17:32:49Z</time>
      </trkpt>
      <trkpt lat="42.78721" lon="2.09502">
        <ele>933</ele>
        <time>2021-12-05T17:33:04Z</time>
      </trkpt>
      <trkpt lat="42.78679" lon="2.09491">
        <ele>937</ele>
        <time>2021-12-05T17:33:11Z</time>
      </trkpt>
      <trkpt lat="42.78652" lon="2.09489">
        <ele>940</ele>
        <time>2021-12-05T17:33:16Z</time>
      </trkpt>
      <trkpt lat="42.78636" lon="2.09497">
        <ele>943</ele>
        <time>2021-12-05T17:33:19Z</time>
      </trkpt>
      <trkpt lat="42.78619" lon="2.09519">
        <ele>947</ele>
        <time>2021-12-05T17:33:23Z</time>
      </trkpt>
      <trkpt lat="42.78607" lon="2.09543">
        <ele>950</ele>
        <time>2021-12-05T17:33:27Z</time>
      </trkpt>
      <trkpt lat="42.78604" lon="2.09576">
        <ele>952</ele>
        <time>2021-12-05T17:33:31Z</time>
      </trkpt>
      <trkpt lat="42.78608" lon="2.09613">
        <ele>951</ele>
        <time>2021-12-05T17:33:36Z</time>
      </trkpt>
      <trkpt lat="42.78605" lon="2.09666">
        <ele>953</ele>
        <time>2021-12-05T17:33:43Z</time>
      </trkpt>
      <trkpt lat="42.78593" lon="2.09725">
        <ele>955</ele>
        <time>2021-12-05T17:33:51Z</time>
      </trkpt>
      <trkpt lat="42.78586" lon="2.09778">
        <ele>958</ele>
        <time>2021-12-05T17:33:58Z</time>
      </trkpt>
      <trkpt lat="42.78586" lon="2.09822">
        <ele>960</ele>
        <time>2021-12-05T17:34:04Z</time>
      </trkpt>
      <trkpt lat="42.78595" lon="2.09855">
        <ele>958</ele>
        <time>2021-12-05T17:34:09Z</time>
      </trkpt>
      <trkpt lat="42.78598" lon="2.09889">
        <ele>958</ele>
        <time>2021-12-05T17:34:13Z</time>
      </trkpt>
      <trkpt lat="42.78591" lon="2.09903">
        <ele>961</ele>
        <time>2021-12-05T17:34:15Z</time>
      </trkpt>
      <trkpt lat="42.78581" lon="2.09901">
        <ele>965</ele>
        <time>2021-12-05T17:34:17Z</time>
      </trkpt>
      <trkpt lat="42.78575" lon="2.09886">
        <ele>967</ele>
        <time>2021-12-05T17:34:19Z</time>
      </trkpt>
      <trkpt lat="42.78569" lon="2.09803">
        <ele>967</ele>
        <time>2021-12-05T17:34:30Z</time>
      </trkpt>
      <trkpt lat="42.78535" lon="2.09594">
        <ele>977</ele>
        <time>2021-12-05T17:34:58Z</time>
      </trkpt>
      <trkpt lat="42.78525" lon="2.09547">
        <ele>975</ele>
        <time>2021-12-05T17:35:05Z</time>
      </trkpt>
      <trkpt lat="42.78503" lon="2.09513">
        <ele>977</ele>
        <time>2021-12-05T17:35:11Z</time>
      </trkpt>
      <trkpt lat="42.78483" lon="2.09495">
        <ele>978</ele>
        <time>2021-12-05T17:35:15Z</time>
      </trkpt>
      <trkpt lat="42.78435" lon="2.0948">
        <ele>984</ele>
        <time>2021-12-05T17:35:24Z</time>
      </trkpt>
      <trkpt lat="42.78423" lon="2.09472">
        <ele>986</ele>
        <time>2021-12-05T17:35:26Z</time>
      </trkpt>
      <trkpt lat="42.78417" lon="2.09457">
        <ele>986</ele>
        <time>2021-12-05T17:35:28Z</time>
      </trkpt>
      <trkpt lat="42.78383" lon="2.0932">
        <ele>994</ele>
        <time>2021-12-05T17:35:47Z</time>
      </trkpt>
      <trkpt lat="42.78372" lon="2.09287">
        <ele>998</ele>
        <time>2021-12-05T17:35:52Z</time>
      </trkpt>
      <trkpt lat="42.78363" lon="2.09281">
        <ele>1000</ele>
        <time>2021-12-05T17:35:54Z</time>
      </trkpt>
      <trkpt lat="42.78353" lon="2.0929">
        <ele>1002</ele>
        <time>2021-12-05T17:35:56Z</time>
      </trkpt>
      <trkpt lat="42.78355" lon="2.09312">
        <ele>1001</ele>
        <time>2021-12-05T17:35:59Z</time>
      </trkpt>
      <trkpt lat="42.78364" lon="2.09333">
        <ele>999</ele>
        <time>2021-12-05T17:36:02Z</time>
      </trkpt>
      <trkpt lat="42.78369" lon="2.09371">
        <ele>997</ele>
        <time>2021-12-05T17:36:07Z</time>
      </trkpt>
      <trkpt lat="42.7836" lon="2.09418">
        <ele>999</ele>
        <time>2021-12-05T17:36:13Z</time>
      </trkpt>
      <trkpt lat="42.78345" lon="2.09449">
        <ele>1002</ele>
        <time>2021-12-05T17:36:18Z</time>
      </trkpt>
      <trkpt lat="42.78308" lon="2.09488">
        <ele>1007</ele>
        <time>2021-12-05T17:36:26Z</time>
      </trkpt>
      <trkpt lat="42.78215" lon="2.09526">
        <ele>1012</ele>
        <time>2021-12-05T17:36:44Z</time>
      </trkpt>
      <trkpt lat="42.78193" lon="2.09539">
        <ele>1011</ele>
        <time>2021-12-05T17:36:48Z</time>
      </trkpt>
      <trkpt lat="42.78176" lon="2.09553">
        <ele>1010</ele>
        <time>2021-12-05T17:36:51Z</time>
      </trkpt>
      <trkpt lat="42.7808" lon="2.0965">
        <ele>1007</ele>
        <time>2021-12-05T17:37:13Z</time>
      </trkpt>
      <trkpt lat="42.78043" lon="2.09683">
        <ele>1002</ele>
        <time>2021-12-05T17:37:21Z</time>
      </trkpt>
      <trkpt lat="42.7802" lon="2.09711">
        <ele>1001</ele>
        <time>2021-12-05T17:37:26Z</time>
      </trkpt>
      <trkpt lat="42.77945" lon="2.09848">
        <ele>1002</ele>
        <time>2021-12-05T17:37:48Z</time>
      </trkpt>
      <trkpt lat="42.77919" lon="2.09872">
        <ele>997</ele>
        <time>2021-12-05T17:37:54Z</time>
      </trkpt>
      <trkpt lat="42.7791" lon="2.0989">
        <ele>998</ele>
        <time>2021-12-05T17:37:57Z</time>
      </trkpt>
      <trkpt lat="42.77905" lon="2.09911">
        <ele>1000</ele>
        <time>2021-12-05T17:38:00Z</time>
      </trkpt>
      <trkpt lat="42.77893" lon="2.0992">
        <ele>1000</ele>
        <time>2021-12-05T17:38:02Z</time>
      </trkpt>
      <trkpt lat="42.77881" lon="2.09922">
        <ele>999</ele>
        <time>2021-12-05T17:38:04Z</time>
      </trkpt>
      <trkpt lat="42.7786" lon="2.09908">
        <ele>996</ele>
        <time>2021-12-05T17:38:08Z</time>
      </trkpt>
      <trkpt lat="42.77837" lon="2.09897">
        <ele>992</ele>
        <time>2021-12-05T17:38:13Z</time>
      </trkpt>
      <trkpt lat="42.77815" lon="2.09901">
        <ele>990</ele>
        <time>2021-12-05T17:38:17Z</time>
      </trkpt>
      <trkpt lat="42.77758" lon="2.09948">
        <ele>992</ele>
        <time>2021-12-05T17:38:29Z</time>
      </trkpt>
      <trkpt lat="42.77724" lon="2.09964">
        <ele>992</ele>
        <time>2021-12-05T17:38:35Z</time>
      </trkpt>
      <trkpt lat="42.77685" lon="2.09975">
        <ele>990</ele>
        <time>2021-12-05T17:38:42Z</time>
      </trkpt>
      <trkpt lat="42.77651" lon="2.09978">
        <ele>987</ele>
        <time>2021-12-05T17:38:48Z</time>
      </trkpt>
      <trkpt lat="42.77567" lon="2.09976">
        <ele>983</ele>
        <time>2021-12-05T17:39:03Z</time>
      </trkpt>
      <trkpt lat="42.77526" lon="2.09969">
        <ele>981</ele>
        <time>2021-12-05T17:39:10Z</time>
      </trkpt>
      <trkpt lat="42.77493" lon="2.09943">
        <ele>982</ele>
        <time>2021-12-05T17:39:17Z</time>
      </trkpt>
      <trkpt lat="42.77472" lon="2.09938">
        <ele>984</ele>
        <time>2021-12-05T17:39:21Z</time>
      </trkpt>
      <trkpt lat="42.77454" lon="2.09937">
        <ele>985</ele>
        <time>2021-12-05T17:39:24Z</time>
      </trkpt>
      <trkpt lat="42.77411" lon="2.09953">
        <ele>985</ele>
        <time>2021-12-05T17:39:32Z</time>
      </trkpt>
      <trkpt lat="42.77322" lon="2.09995">
        <ele>976</ele>
        <time>2021-12-05T17:39:49Z</time>
      </trkpt>
      <trkpt lat="42.77278" lon="2.10006">
        <ele>971</ele>
        <time>2021-12-05T17:39:57Z</time>
      </trkpt>
      <trkpt lat="42.77257" lon="2.1001">
        <ele>969</ele>
        <time>2021-12-05T17:40:01Z</time>
      </trkpt>
      <trkpt lat="42.77246" lon="2.10005">
        <ele>970</ele>
        <time>2021-12-05T17:40:03Z</time>
      </trkpt>
      <trkpt lat="42.77222" lon="2.09981">
        <ele>974</ele>
        <time>2021-12-05T17:40:08Z</time>
      </trkpt>
      <trkpt lat="42.77152" lon="2.09939">
        <ele>978</ele>
        <time>2021-12-05T17:40:22Z</time>
      </trkpt>
      <trkpt lat="42.77098" lon="2.09917">
        <ele>976</ele>
        <time>2021-12-05T17:40:32Z</time>
      </trkpt>
      <trkpt lat="42.77056" lon="2.09897">
        <ele>980</ele>
        <time>2021-12-05T17:40:39Z</time>
      </trkpt>
      <trkpt lat="42.77035" lon="2.09894">
        <ele>981</ele>
        <time>2021-12-05T17:40:43Z</time>
      </trkpt>
      <trkpt lat="42.77022" lon="2.09898">
        <ele>978</ele>
        <time>2021-12-05T17:40:46Z</time>
      </trkpt>
      <trkpt lat="42.77011" lon="2.09907">
        <ele>974</ele>
        <time>2021-12-05T17:40:48Z</time>
      </trkpt>
      <trkpt lat="42.7698" lon="2.09945">
        <ele>962</ele>
        <time>2021-12-05T17:40:55Z</time>
      </trkpt>
      <trkpt lat="42.76968" lon="2.09948">
        <ele>961</ele>
        <time>2021-12-05T17:40:57Z</time>
      </trkpt>
      <trkpt lat="42.76959" lon="2.09944">
        <ele>961</ele>
        <time>2021-12-05T17:40:59Z</time>
      </trkpt>
      <trkpt lat="42.76933" lon="2.09901">
        <ele>970</ele>
        <time>2021-12-05T17:41:06Z</time>
      </trkpt>
      <trkpt lat="42.76922" lon="2.09889">
        <ele>973</ele>
        <time>2021-12-05T17:41:09Z</time>
      </trkpt>
      <trkpt lat="42.76893" lon="2.09877">
        <ele>964</ele>
        <time>2021-12-05T17:41:14Z</time>
      </trkpt>
      <trkpt lat="42.76881" lon="2.0987">
        <ele>960</ele>
        <time>2021-12-05T17:41:17Z</time>
      </trkpt>
      <trkpt lat="42.7687" lon="2.09849">
        <ele>960</ele>
        <time>2021-12-05T17:41:20Z</time>
      </trkpt>
      <trkpt lat="42.76864" lon="2.09828">
        <ele>961</ele>
        <time>2021-12-05T17:41:23Z</time>
      </trkpt>
      <trkpt lat="42.76863" lon="2.09815">
        <ele>962</ele>
        <time>2021-12-05T17:41:25Z</time>
      </trkpt>
      <trkpt lat="42.76865" lon="2.09792">
        <ele>967</ele>
        <time>2021-12-05T17:41:28Z</time>
      </trkpt>
      <trkpt lat="42.76865" lon="2.09782">
        <ele>968</ele>
        <time>2021-12-05T17:41:29Z</time>
      </trkpt>
      <trkpt lat="42.7686" lon="2.09767">
        <ele>968</ele>
        <time>2021-12-05T17:41:31Z</time>
      </trkpt>
      <trkpt lat="42.76836" lon="2.09725">
        <ele>957</ele>
        <time>2021-12-05T17:41:38Z</time>
      </trkpt>
      <trkpt lat="42.76832" lon="2.09712">
        <ele>956</ele>
        <time>2021-12-05T17:41:40Z</time>
      </trkpt>
      <trkpt lat="42.76832" lon="2.09701">
        <ele>957</ele>
        <time>2021-12-05T17:41:41Z</time>
      </trkpt>
      <trkpt lat="42.76838" lon="2.0967">
        <ele>963</ele>
        <time>2021-12-05T17:41:46Z</time>
      </trkpt>
      <trkpt lat="42.76838" lon="2.09651">
        <ele>965</ele>
        <time>2021-12-05T17:41:48Z</time>
      </trkpt>
      <trkpt lat="42.76835" lon="2.09632">
        <ele>965</ele>
        <time>2021-12-05T17:41:51Z</time>
      </trkpt>
      <trkpt lat="42.76824" lon="2.09593">
        <ele>961</ele>
        <time>2021-12-05T17:41:56Z</time>
      </trkpt>
      <trkpt lat="42.76814" lon="2.09572">
        <ele>955</ele>
        <time>2021-12-05T17:41:59Z</time>
      </trkpt>
      <trkpt lat="42.768" lon="2.09555">
        <ele>947</ele>
        <time>2021-12-05T17:42:03Z</time>
      </trkpt>
      <trkpt lat="42.76797" lon="2.09542">
        <ele>945</ele>
        <time>2021-12-05T17:42:04Z</time>
      </trkpt>
      <trkpt lat="42.76799" lon="2.09524">
        <ele>947</ele>
        <time>2021-12-05T17:42:07Z</time>
      </trkpt>
      <trkpt lat="42.76805" lon="2.09505">
        <ele>951</ele>
        <time>2021-12-05T17:42:10Z</time>
      </trkpt>
      <trkpt lat="42.76825" lon="2.09462">
        <ele>958</ele>
        <time>2021-12-05T17:42:16Z</time>
      </trkpt>
      <trkpt lat="42.76827" lon="2.09448">
        <ele>957</ele>
        <time>2021-12-05T17:42:18Z</time>
      </trkpt>
      <trkpt lat="42.76828" lon="2.09411">
        <ele>954</ele>
        <time>2021-12-05T17:42:23Z</time>
      </trkpt>
      <trkpt lat="42.76833" lon="2.09386">
        <ele>955</ele>
        <time>2021-12-05T17:42:26Z</time>
      </trkpt>
      <trkpt lat="42.76853" lon="2.09334">
        <ele>959</ele>
        <time>2021-12-05T17:42:34Z</time>
      </trkpt>
      <trkpt lat="42.76858" lon="2.09308">
        <ele>962</ele>
        <time>2021-12-05T17:42:37Z</time>
      </trkpt>
      <trkpt lat="42.76859" lon="2.09269">
        <ele>964</ele>
        <time>2021-12-05T17:42:43Z</time>
      </trkpt>
      <trkpt lat="42.76857" lon="2.09252">
        <ele>963</ele>
        <time>2021-12-05T17:42:45Z</time>
      </trkpt>
      <trkpt lat="42.76853" lon="2.09241">
        <ele>964</ele>
        <time>2021-12-05T17:42:46Z</time>
      </trkpt>
      <trkpt lat="42.76844" lon="2.09228">
        <ele>963</ele>
        <time>2021-12-05T17:42:49Z</time>
      </trkpt>
      <trkpt lat="42.76832" lon="2.09219">
        <ele>961</ele>
        <time>2021-12-05T17:42:51Z</time>
      </trkpt>
      <trkpt lat="42.76821" lon="2.09217">
        <ele>962</ele>
        <time>2021-12-05T17:42:53Z</time>
      </trkpt>
      <trkpt lat="42.7681" lon="2.09224">
        <ele>961</ele>
        <time>2021-12-05T17:42:55Z</time>
      </trkpt>
      <trkpt lat="42.76784" lon="2.09252">
        <ele>956</ele>
        <time>2021-12-05T17:43:01Z</time>
      </trkpt>
      <trkpt lat="42.76774" lon="2.09261">
        <ele>954</ele>
        <time>2021-12-05T17:43:03Z</time>
      </trkpt>
      <trkpt lat="42.7676" lon="2.09268">
        <ele>952</ele>
        <time>2021-12-05T17:43:06Z</time>
      </trkpt>
      <trkpt lat="42.76731" lon="2.09269">
        <ele>950</ele>
        <time>2021-12-05T17:43:11Z</time>
      </trkpt>
      <trkpt lat="42.76701" lon="2.09273">
        <ele>946</ele>
        <time>2021-12-05T17:43:17Z</time>
      </trkpt>
      <trkpt lat="42.76683" lon="2.09272">
        <ele>945</ele>
        <time>2021-12-05T17:43:20Z</time>
      </trkpt>
      <trkpt lat="42.7664" lon="2.09233">
        <ele>939</ele>
        <time>2021-12-05T17:43:29Z</time>
      </trkpt>
      <trkpt lat="42.76629" lon="2.09207">
        <ele>937</ele>
        <time>2021-12-05T17:43:33Z</time>
      </trkpt>
      <trkpt lat="42.76624" lon="2.09171">
        <ele>940</ele>
        <time>2021-12-05T17:43:38Z</time>
      </trkpt>
      <trkpt lat="42.7662" lon="2.09146">
        <ele>940</ele>
        <time>2021-12-05T17:43:41Z</time>
      </trkpt>
      <trkpt lat="42.766" lon="2.09105">
        <ele>934</ele>
        <time>2021-12-05T17:43:47Z</time>
      </trkpt>
      <trkpt lat="42.76593" lon="2.09084">
        <ele>933</ele>
        <time>2021-12-05T17:43:50Z</time>
      </trkpt>
      <trkpt lat="42.76588" lon="2.09045">
        <ele>929</ele>
        <time>2021-12-05T17:43:56Z</time>
      </trkpt>
      <trkpt lat="42.76588" lon="2.09029">
        <ele>928</ele>
        <time>2021-12-05T17:43:58Z</time>
      </trkpt>
      <trkpt lat="42.76595" lon="2.09016">
        <ele>929</ele>
        <time>2021-12-05T17:44:00Z</time>
      </trkpt>
      <trkpt lat="42.76606" lon="2.0901">
        <ele>931</ele>
        <time>2021-12-05T17:44:02Z</time>
      </trkpt>
      <trkpt lat="42.76627" lon="2.09005">
        <ele>934</ele>
        <time>2021-12-05T17:44:06Z</time>
      </trkpt>
      <trkpt lat="42.76664" lon="2.08982">
        <ele>934</ele>
        <time>2021-12-05T17:44:13Z</time>
      </trkpt>
      <trkpt lat="42.76691" lon="2.08959">
        <ele>937</ele>
        <time>2021-12-05T17:44:19Z</time>
      </trkpt>
      <trkpt lat="42.76702" lon="2.0894">
        <ele>937</ele>
        <time>2021-12-05T17:44:22Z</time>
      </trkpt>
      <trkpt lat="42.7672" lon="2.08902">
        <ele>939</ele>
        <time>2021-12-05T17:44:28Z</time>
      </trkpt>
      <trkpt lat="42.76725" lon="2.08887">
        <ele>941</ele>
        <time>2021-12-05T17:44:30Z</time>
      </trkpt>
      <trkpt lat="42.76724" lon="2.08873">
        <ele>940</ele>
        <time>2021-12-05T17:44:32Z</time>
      </trkpt>
      <trkpt lat="42.76714" lon="2.08853">
        <ele>935</ele>
        <time>2021-12-05T17:44:35Z</time>
      </trkpt>
      <trkpt lat="42.76698" lon="2.08824">
        <ele>929</ele>
        <time>2021-12-05T17:44:40Z</time>
      </trkpt>
      <trkpt lat="42.76678" lon="2.088">
        <ele>924</ele>
        <time>2021-12-05T17:44:44Z</time>
      </trkpt>
      <trkpt lat="42.76665" lon="2.08773">
        <ele>923</ele>
        <time>2021-12-05T17:44:48Z</time>
      </trkpt>
      <trkpt lat="42.7666" lon="2.08746">
        <ele>923</ele>
        <time>2021-12-05T17:44:52Z</time>
      </trkpt>
      <trkpt lat="42.76662" lon="2.08719">
        <ele>919</ele>
        <time>2021-12-05T17:44:56Z</time>
      </trkpt>
      <trkpt lat="42.76667" lon="2.08703">
        <ele>919</ele>
        <time>2021-12-05T17:44:58Z</time>
      </trkpt>
      <trkpt lat="42.76675" lon="2.08685">
        <ele>919</ele>
        <time>2021-12-05T17:45:01Z</time>
      </trkpt>
      <trkpt lat="42.76733" lon="2.08614">
        <ele>930</ele>
        <time>2021-12-05T17:45:15Z</time>
      </trkpt>
      <trkpt lat="42.76742" lon="2.086">
        <ele>931</ele>
        <time>2021-12-05T17:45:17Z</time>
      </trkpt>
      <trkpt lat="42.76743" lon="2.0858">
        <ele>928</ele>
        <time>2021-12-05T17:45:20Z</time>
      </trkpt>
      <trkpt lat="42.76739" lon="2.08562">
        <ele>926</ele>
        <time>2021-12-05T17:45:22Z</time>
      </trkpt>
      <trkpt lat="42.7672" lon="2.08523">
        <ele>918</ele>
        <time>2021-12-05T17:45:28Z</time>
      </trkpt>
      <trkpt lat="42.76714" lon="2.08506">
        <ele>915</ele>
        <time>2021-12-05T17:45:31Z</time>
      </trkpt>
      <trkpt lat="42.76715" lon="2.08486">
        <ele>914</ele>
        <time>2021-12-05T17:45:33Z</time>
      </trkpt>
      <trkpt lat="42.76722" lon="2.0846">
        <ele>913</ele>
        <time>2021-12-05T17:45:37Z</time>
      </trkpt>
      <trkpt lat="42.76732" lon="2.08437">
        <ele>913</ele>
        <time>2021-12-05T17:45:40Z</time>
      </trkpt>
      <trkpt lat="42.76765" lon="2.08384">
        <ele>913</ele>
        <time>2021-12-05T17:45:49Z</time>
      </trkpt>
      <trkpt lat="42.7678" lon="2.08371">
        <ele>915</ele>
        <time>2021-12-05T17:45:53Z</time>
      </trkpt>
      <trkpt lat="42.76793" lon="2.08368">
        <ele>918</ele>
        <time>2021-12-05T17:45:55Z</time>
      </trkpt>
      <trkpt lat="42.76817" lon="2.08373">
        <ele>925</ele>
        <time>2021-12-05T17:45:59Z</time>
      </trkpt>
      <trkpt lat="42.76828" lon="2.08368">
        <ele>926</ele>
        <time>2021-12-05T17:46:01Z</time>
      </trkpt>
      <trkpt lat="42.76831" lon="2.08353">
        <ele>925</ele>
        <time>2021-12-05T17:46:03Z</time>
      </trkpt>
      <trkpt lat="42.76826" lon="2.08337">
        <ele>921</ele>
        <time>2021-12-05T17:46:06Z</time>
      </trkpt>
      <trkpt lat="42.76815" lon="2.08314">
        <ele>916</ele>
        <time>2021-12-05T17:46:09Z</time>
      </trkpt>
      <trkpt lat="42.76812" lon="2.08298">
        <ele>915</ele>
        <time>2021-12-05T17:46:11Z</time>
      </trkpt>
      <trkpt lat="42.76814" lon="2.0829">
        <ele>915</ele>
        <time>2021-12-05T17:46:12Z</time>
      </trkpt>
      <trkpt lat="42.76835" lon="2.08248">
        <ele>917</ele>
        <time>2021-12-05T17:46:19Z</time>
      </trkpt>
      <trkpt lat="42.76837" lon="2.08234">
        <ele>918</ele>
        <time>2021-12-05T17:46:21Z</time>
      </trkpt>
      <trkpt lat="42.76836" lon="2.08222">
        <ele>918</ele>
        <time>2021-12-05T17:46:23Z</time>
      </trkpt>
      <trkpt lat="42.76831" lon="2.08214">
        <ele>917</ele>
        <time>2021-12-05T17:46:24Z</time>
      </trkpt>
      <trkpt lat="42.76824" lon="2.08208">
        <ele>917</ele>
        <time>2021-12-05T17:46:25Z</time>
      </trkpt>
      <trkpt lat="42.76782" lon="2.08181">
        <ele>917</ele>
        <time>2021-12-05T17:46:34Z</time>
      </trkpt>
      <trkpt lat="42.7677" lon="2.08179">
        <ele>917</ele>
        <time>2021-12-05T17:46:36Z</time>
      </trkpt>
      <trkpt lat="42.76754" lon="2.08185">
        <ele>915</ele>
        <time>2021-12-05T17:46:39Z</time>
      </trkpt>
      <trkpt lat="42.76729" lon="2.08188">
        <ele>918</ele>
        <time>2021-12-05T17:46:43Z</time>
      </trkpt>
      <trkpt lat="42.76705" lon="2.08211">
        <ele>917</ele>
        <time>2021-12-05T17:46:48Z</time>
      </trkpt>
      <trkpt lat="42.76661" lon="2.08265">
        <ele>912</ele>
        <time>2021-12-05T17:46:59Z</time>
      </trkpt>
      <trkpt lat="42.76604" lon="2.08325">
        <ele>906</ele>
        <time>2021-12-05T17:47:12Z</time>
      </trkpt>
      <trkpt lat="42.76566" lon="2.08358">
        <ele>904</ele>
        <time>2021-12-05T17:47:20Z</time>
      </trkpt>
      <trkpt lat="42.7654" lon="2.08387">
        <ele>903</ele>
        <time>2021-12-05T17:47:26Z</time>
      </trkpt>
      <trkpt lat="42.76453" lon="2.08515">
        <ele>888</ele>
        <time>2021-12-05T17:47:49Z</time>
      </trkpt>
      <trkpt lat="42.76393" lon="2.0859">
        <ele>881</ele>
        <time>2021-12-05T17:48:03Z</time>
      </trkpt>
      <trkpt lat="42.76356" lon="2.08629">
        <ele>878</ele>
        <time>2021-12-05T17:48:11Z</time>
      </trkpt>
      <trkpt lat="42.76254" lon="2.08746">
        <ele>847</ele>
        <time>2021-12-05T17:48:35Z</time>
      </trkpt>
      <trkpt lat="42.76245" lon="2.08751">
        <ele>844</ele>
        <time>2021-12-05T17:48:37Z</time>
      </trkpt>
      <trkpt lat="42.76223" lon="2.08748">
        <ele>837</ele>
        <time>2021-12-05T17:48:41Z</time>
      </trkpt>
      <trkpt lat="42.76216" lon="2.08745">
        <ele>835</ele>
        <time>2021-12-05T17:48:42Z</time>
      </trkpt>
      <trkpt lat="42.7621" lon="2.08737">
        <ele>836</ele>
        <time>2021-12-05T17:48:44Z</time>
      </trkpt>
      <trkpt lat="42.76207" lon="2.08727">
        <ele>838</ele>
        <time>2021-12-05T17:48:45Z</time>
      </trkpt>
      <trkpt lat="42.76204" lon="2.08677">
        <ele>852</ele>
        <time>2021-12-05T17:48:52Z</time>
      </trkpt>
      <trkpt lat="42.76201" lon="2.0866">
        <ele>856</ele>
        <time>2021-12-05T17:48:54Z</time>
      </trkpt>
      <trkpt lat="42.76191" lon="2.08638">
        <ele>858</ele>
        <time>2021-12-05T17:48:57Z</time>
      </trkpt>
      <trkpt lat="42.76169" lon="2.08606">
        <ele>857</ele>
        <time>2021-12-05T17:49:03Z</time>
      </trkpt>
      <trkpt lat="42.76141" lon="2.0855">
        <ele>853</ele>
        <time>2021-12-05T17:49:12Z</time>
      </trkpt>
      <trkpt lat="42.76127" lon="2.08506">
        <ele>855</ele>
        <time>2021-12-05T17:49:18Z</time>
      </trkpt>
      <trkpt lat="42.76125" lon="2.08476">
        <ele>864</ele>
        <time>2021-12-05T17:49:22Z</time>
      </trkpt>
      <trkpt lat="42.76122" lon="2.0846">
        <ele>867</ele>
        <time>2021-12-05T17:49:24Z</time>
      </trkpt>
      <trkpt lat="42.76116" lon="2.08444">
        <ele>869</ele>
        <time>2021-12-05T17:49:27Z</time>
      </trkpt>
      <trkpt lat="42.76107" lon="2.08436">
        <ele>866</ele>
        <time>2021-12-05T17:49:28Z</time>
      </trkpt>
      <trkpt lat="42.761" lon="2.08432">
        <ele>864</ele>
        <time>2021-12-05T17:49:30Z</time>
      </trkpt>
      <trkpt lat="42.76084" lon="2.08428">
        <ele>856</ele>
        <time>2021-12-05T17:49:33Z</time>
      </trkpt>
      <trkpt lat="42.76049" lon="2.08428">
        <ele>854</ele>
        <time>2021-12-05T17:49:39Z</time>
      </trkpt>
      <trkpt lat="42.76008" lon="2.08435">
        <ele>848</ele>
        <time>2021-12-05T17:49:46Z</time>
      </trkpt>
      <trkpt lat="42.75986" lon="2.08431">
        <ele>855</ele>
        <time>2021-12-05T17:49:50Z</time>
      </trkpt>
      <trkpt lat="42.75977" lon="2.08431">
        <ele>858</ele>
        <time>2021-12-05T17:49:52Z</time>
      </trkpt>
      <trkpt lat="42.75968" lon="2.08435">
        <ele>860</ele>
        <time>2021-12-05T17:49:53Z</time>
      </trkpt>
      <trkpt lat="42.75941" lon="2.08466">
        <ele>856</ele>
        <time>2021-12-05T17:50:00Z</time>
      </trkpt>
      <trkpt lat="42.75932" lon="2.08489">
        <ele>850</ele>
        <time>2021-12-05T17:50:03Z</time>
      </trkpt>
      <trkpt lat="42.75919" lon="2.08509">
        <ele>845</ele>
        <time>2021-12-05T17:50:07Z</time>
      </trkpt>
      <trkpt lat="42.7591" lon="2.08517">
        <ele>842</ele>
        <time>2021-12-05T17:50:09Z</time>
      </trkpt>
      <trkpt lat="42.75894" lon="2.0852">
        <ele>847</ele>
        <time>2021-12-05T17:50:11Z</time>
      </trkpt>
      <trkpt lat="42.75887" lon="2.08525">
        <ele>847</ele>
        <time>2021-12-05T17:50:13Z</time>
      </trkpt>
      <trkpt lat="42.75875" lon="2.08542">
        <ele>842</ele>
        <time>2021-12-05T17:50:16Z</time>
      </trkpt>
      <trkpt lat="42.7586" lon="2.08554">
        <ele>843</ele>
        <time>2021-12-05T17:50:19Z</time>
      </trkpt>
      <trkpt lat="42.75843" lon="2.0857">
        <ele>845</ele>
        <time>2021-12-05T17:50:23Z</time>
      </trkpt>
      <trkpt lat="42.75834" lon="2.08584">
        <ele>844</ele>
        <time>2021-12-05T17:50:25Z</time>
      </trkpt>
      <trkpt lat="42.75824" lon="2.08605">
        <ele>824</ele>
        <time>2021-12-05T17:50:28Z</time>
      </trkpt>
      <trkpt lat="42.75819" lon="2.08608">
        <ele>821</ele>
        <time>2021-12-05T17:50:29Z</time>
      </trkpt>
      <trkpt lat="42.75799" lon="2.08614">
        <ele>813</ele>
        <time>2021-12-05T17:50:33Z</time>
      </trkpt>
      <trkpt lat="42.75787" lon="2.08606">
        <ele>817</ele>
        <time>2021-12-05T17:50:35Z</time>
      </trkpt>
      <trkpt lat="42.75762" lon="2.08583">
        <ele>831</ele>
        <time>2021-12-05T17:50:41Z</time>
      </trkpt>
      <trkpt lat="42.75735" lon="2.08564">
        <ele>839</ele>
        <time>2021-12-05T17:50:46Z</time>
      </trkpt>
      <trkpt lat="42.75685" lon="2.0856">
        <ele>830</ele>
        <time>2021-12-05T17:50:55Z</time>
      </trkpt>
      <trkpt lat="42.75676" lon="2.08555">
        <ele>832</ele>
        <time>2021-12-05T17:50:57Z</time>
      </trkpt>
      <trkpt lat="42.75659" lon="2.08538">
        <ele>845</ele>
        <time>2021-12-05T17:51:01Z</time>
      </trkpt>
      <trkpt lat="42.75649" lon="2.08535">
        <ele>843</ele>
        <time>2021-12-05T17:51:02Z</time>
      </trkpt>
      <trkpt lat="42.75607" lon="2.08542">
        <ele>819</ele>
        <time>2021-12-05T17:51:10Z</time>
      </trkpt>
      <trkpt lat="42.75571" lon="2.08513">
        <ele>834</ele>
        <time>2021-12-05T17:51:17Z</time>
      </trkpt>
      <trkpt lat="42.75563" lon="2.08511">
        <ele>833</ele>
        <time>2021-12-05T17:51:19Z</time>
      </trkpt>
      <trkpt lat="42.75555" lon="2.08515">
        <ele>828</ele>
        <time>2021-12-05T17:51:20Z</time>
      </trkpt>
      <trkpt lat="42.75547" lon="2.08522">
        <ele>820</ele>
        <time>2021-12-05T17:51:22Z</time>
      </trkpt>
      <trkpt lat="42.75535" lon="2.08543">
        <ele>802</ele>
        <time>2021-12-05T17:51:26Z</time>
      </trkpt>
      <trkpt lat="42.75527" lon="2.0855">
        <ele>796</ele>
        <time>2021-12-05T17:51:27Z</time>
      </trkpt>
      <trkpt lat="42.75507" lon="2.08557">
        <ele>789</ele>
        <time>2021-12-05T17:51:31Z</time>
      </trkpt>
      <trkpt lat="42.75484" lon="2.08553">
        <ele>791</ele>
        <time>2021-12-05T17:51:35Z</time>
      </trkpt>
      <trkpt lat="42.75475" lon="2.08548">
        <ele>793</ele>
        <time>2021-12-05T17:51:37Z</time>
      </trkpt>
      <trkpt lat="42.75462" lon="2.08538">
        <ele>798</ele>
        <time>2021-12-05T17:51:39Z</time>
      </trkpt>
      <trkpt lat="42.75433" lon="2.08539">
        <ele>796</ele>
        <time>2021-12-05T17:51:45Z</time>
      </trkpt>
      <trkpt lat="42.75421" lon="2.08546">
        <ele>792</ele>
        <time>2021-12-05T17:51:47Z</time>
      </trkpt>
      <trkpt lat="42.75387" lon="2.08588">
        <ele>771</ele>
        <time>2021-12-05T17:51:55Z</time>
      </trkpt>
      <trkpt lat="42.75381" lon="2.0859">
        <ele>770</ele>
        <time>2021-12-05T17:51:56Z</time>
      </trkpt>
      <trkpt lat="42.75348" lon="2.08575">
        <ele>774</ele>
        <time>2021-12-05T17:52:02Z</time>
      </trkpt>
      <trkpt lat="42.75319" lon="2.08575">
        <ele>769</ele>
        <time>2021-12-05T17:52:07Z</time>
      </trkpt>
      <trkpt lat="42.75308" lon="2.08572">
        <ele>767</ele>
        <time>2021-12-05T17:52:09Z</time>
      </trkpt>
      <trkpt lat="42.75267" lon="2.08541">
        <ele>765</ele>
        <time>2021-12-05T17:52:18Z</time>
      </trkpt>
      <trkpt lat="42.75258" lon="2.08528">
        <ele>766</ele>
        <time>2021-12-05T17:52:20Z</time>
      </trkpt>
      <trkpt lat="42.75251" lon="2.08516">
        <ele>767</ele>
        <time>2021-12-05T17:52:22Z</time>
      </trkpt>
      <trkpt lat="42.75245" lon="2.08512">
        <ele>767</ele>
        <time>2021-12-05T17:52:23Z</time>
      </trkpt>
      <trkpt lat="42.75234" lon="2.08496">
        <ele>768</ele>
        <time>2021-12-05T17:52:26Z</time>
      </trkpt>
      <trkpt lat="42.75213" lon="2.0848">
        <ele>764</ele>
        <time>2021-12-05T17:52:30Z</time>
      </trkpt>
      <trkpt lat="42.75208" lon="2.08473">
        <ele>764</ele>
        <time>2021-12-05T17:52:32Z</time>
      </trkpt>
      <trkpt lat="42.75204" lon="2.0846">
        <ele>766</ele>
        <time>2021-12-05T17:52:34Z</time>
      </trkpt>
      <trkpt lat="42.75203" lon="2.0841">
        <ele>777</ele>
        <time>2021-12-05T17:52:40Z</time>
      </trkpt>
      <trkpt lat="42.75194" lon="2.08332">
        <ele>783</ele>
        <time>2021-12-05T17:52:50Z</time>
      </trkpt>
      <trkpt lat="42.75188" lon="2.08321">
        <ele>782</ele>
        <time>2021-12-05T17:52:52Z</time>
      </trkpt>
      <trkpt lat="42.75179" lon="2.08316">
        <ele>779</ele>
        <time>2021-12-05T17:52:54Z</time>
      </trkpt>
      <trkpt lat="42.75164" lon="2.08316">
        <ele>775</ele>
        <time>2021-12-05T17:52:57Z</time>
      </trkpt>
      <trkpt lat="42.75155" lon="2.08321">
        <ele>777</ele>
        <time>2021-12-05T17:52:58Z</time>
      </trkpt>
      <trkpt lat="42.75149" lon="2.08341">
        <ele>775</ele>
        <time>2021-12-05T17:53:01Z</time>
      </trkpt>
      <trkpt lat="42.75143" lon="2.08405">
        <ele>765</ele>
        <time>2021-12-05T17:53:10Z</time>
      </trkpt>
      <trkpt lat="42.75137" lon="2.08432">
        <ele>760</ele>
        <time>2021-12-05T17:53:13Z</time>
      </trkpt>
      <trkpt lat="42.75124" lon="2.08462">
        <ele>752</ele>
        <time>2021-12-05T17:53:18Z</time>
      </trkpt>
      <trkpt lat="42.75164" lon="2.08478">
        <ele>748</ele>
        <time>2021-12-05T17:53:25Z</time>
      </trkpt>
      <trkpt lat="42.75193" lon="2.0849">
        <ele>755</ele>
        <time>2021-12-05T17:53:31Z</time>
      </trkpt>
      <trkpt lat="42.75205" lon="2.085">
        <ele>756</ele>
        <time>2021-12-05T17:53:33Z</time>
      </trkpt>
      <trkpt lat="42.75223" lon="2.08524">
        <ele>757</ele>
        <time>2021-12-05T17:53:38Z</time>
      </trkpt>
      <trkpt lat="42.75241" lon="2.08568">
        <ele>749</ele>
        <time>2021-12-05T17:53:44Z</time>
      </trkpt>
      <trkpt lat="42.75249" lon="2.08584">
        <ele>746</ele>
        <time>2021-12-05T17:53:47Z</time>
      </trkpt>
      <trkpt lat="42.75287" lon="2.08608">
        <ele>752</ele>
        <time>2021-12-05T17:53:54Z</time>
      </trkpt>
      <trkpt lat="42.75299" lon="2.08621">
        <ele>751</ele>
        <time>2021-12-05T17:53:57Z</time>
      </trkpt>
      <trkpt lat="42.7531" lon="2.08628">
        <ele>751</ele>
        <time>2021-12-05T17:53:59Z</time>
      </trkpt>
      <trkpt lat="42.75337" lon="2.08639">
        <ele>751</ele>
        <time>2021-12-05T17:54:04Z</time>
      </trkpt>
      <trkpt lat="42.75368" lon="2.08655">
        <ele>744</ele>
        <time>2021-12-05T17:54:10Z</time>
      </trkpt>
      <trkpt lat="42.75381" lon="2.08658">
        <ele>743</ele>
        <time>2021-12-05T17:54:12Z</time>
      </trkpt>
      <trkpt lat="42.75436" lon="2.08649">
        <ele>746</ele>
        <time>2021-12-05T17:54:22Z</time>
      </trkpt>
      <trkpt lat="42.75453" lon="2.08641">
        <ele>750</ele>
        <time>2021-12-05T17:54:25Z</time>
      </trkpt>
      <trkpt lat="42.7548" lon="2.08614">
        <ele>762</ele>
        <time>2021-12-05T17:54:31Z</time>
      </trkpt>
      <trkpt lat="42.75493" lon="2.08606">
        <ele>765</ele>
        <time>2021-12-05T17:54:34Z</time>
      </trkpt>
      <trkpt lat="42.75514" lon="2.08602">
        <ele>766</ele>
        <time>2021-12-05T17:54:38Z</time>
      </trkpt>
      <trkpt lat="42.75579" lon="2.08605">
        <ele>763</ele>
        <time>2021-12-05T17:54:49Z</time>
      </trkpt>
      <trkpt lat="42.75606" lon="2.08611">
        <ele>766</ele>
        <time>2021-12-05T17:54:54Z</time>
      </trkpt>
      <trkpt lat="42.7562" lon="2.08618">
        <ele>766</ele>
        <time>2021-12-05T17:54:57Z</time>
      </trkpt>
      <trkpt lat="42.75641" lon="2.08641">
        <ele>757</ele>
        <time>2021-12-05T17:55:02Z</time>
      </trkpt>
      <trkpt lat="42.75668" lon="2.08653">
        <ele>751</ele>
        <time>2021-12-05T17:55:07Z</time>
      </trkpt>
      <trkpt lat="42.75717" lon="2.08686">
        <ele>753</ele>
        <time>2021-12-05T17:55:16Z</time>
      </trkpt>
      <trkpt lat="42.75784" lon="2.08756">
        <ele>731</ele>
        <time>2021-12-05T17:55:31Z</time>
      </trkpt>
      <trkpt lat="42.75794" lon="2.08761">
        <ele>731</ele>
        <time>2021-12-05T17:55:33Z</time>
      </trkpt>
      <trkpt lat="42.75808" lon="2.08762">
        <ele>730</ele>
        <time>2021-12-05T17:55:36Z</time>
      </trkpt>
      <trkpt lat="42.75894" lon="2.08753">
        <ele>726</ele>
        <time>2021-12-05T17:55:51Z</time>
      </trkpt>
      <trkpt lat="42.7591" lon="2.08749">
        <ele>726</ele>
        <time>2021-12-05T17:55:54Z</time>
      </trkpt>
      <trkpt lat="42.75936" lon="2.08724">
        <ele>731</ele>
        <time>2021-12-05T17:56:00Z</time>
      </trkpt>
      <trkpt lat="42.75953" lon="2.08715">
        <ele>733</ele>
        <time>2021-12-05T17:56:03Z</time>
      </trkpt>
      <trkpt lat="42.75978" lon="2.08718">
        <ele>731</ele>
        <time>2021-12-05T17:56:07Z</time>
      </trkpt>
      <trkpt lat="42.76017" lon="2.08742">
        <ele>729</ele>
        <time>2021-12-05T17:56:15Z</time>
      </trkpt>
      <trkpt lat="42.76044" lon="2.08748">
        <ele>736</ele>
        <time>2021-12-05T17:56:20Z</time>
      </trkpt>
      <trkpt lat="42.76053" lon="2.08755">
        <ele>739</ele>
        <time>2021-12-05T17:56:22Z</time>
      </trkpt>
      <trkpt lat="42.76056" lon="2.08765">
        <ele>739</ele>
        <time>2021-12-05T17:56:23Z</time>
      </trkpt>
      <trkpt lat="42.76057" lon="2.08781">
        <ele>739</ele>
        <time>2021-12-05T17:56:25Z</time>
      </trkpt>
      <trkpt lat="42.76052" lon="2.08802">
        <ele>736</ele>
        <time>2021-12-05T17:56:28Z</time>
      </trkpt>
      <trkpt lat="42.76029" lon="2.08846">
        <ele>726</ele>
        <time>2021-12-05T17:56:35Z</time>
      </trkpt>
      <trkpt lat="42.76027" lon="2.08866">
        <ele>725</ele>
        <time>2021-12-05T17:56:38Z</time>
      </trkpt>
      <trkpt lat="42.76032" lon="2.08883">
        <ele>724</ele>
        <time>2021-12-05T17:56:40Z</time>
      </trkpt>
      <trkpt lat="42.76041" lon="2.08895">
        <ele>723</ele>
        <time>2021-12-05T17:56:42Z</time>
      </trkpt>
      <trkpt lat="42.76057" lon="2.08901">
        <ele>722</ele>
        <time>2021-12-05T17:56:45Z</time>
      </trkpt>
      <trkpt lat="42.761" lon="2.089">
        <ele>728</ele>
        <time>2021-12-05T17:56:53Z</time>
      </trkpt>
      <trkpt lat="42.76125" lon="2.08904">
        <ele>735</ele>
        <time>2021-12-05T17:56:58Z</time>
      </trkpt>
      <trkpt lat="42.76152" lon="2.08914">
        <ele>740</ele>
        <time>2021-12-05T17:57:03Z</time>
      </trkpt>
      <trkpt lat="42.76168" lon="2.08927">
        <ele>741</ele>
        <time>2021-12-05T17:57:06Z</time>
      </trkpt>
      <trkpt lat="42.76181" lon="2.08944">
        <ele>741</ele>
        <time>2021-12-05T17:57:09Z</time>
      </trkpt>
      <trkpt lat="42.76191" lon="2.08959">
        <ele>740</ele>
        <time>2021-12-05T17:57:12Z</time>
      </trkpt>
      <trkpt lat="42.76197" lon="2.08978">
        <ele>735</ele>
        <time>2021-12-05T17:57:14Z</time>
      </trkpt>
      <trkpt lat="42.76202" lon="2.09023">
        <ele>725</ele>
        <time>2021-12-05T17:57:20Z</time>
      </trkpt>
      <trkpt lat="42.76207" lon="2.09047">
        <ele>722</ele>
        <time>2021-12-05T17:57:24Z</time>
      </trkpt>
      <trkpt lat="42.76216" lon="2.09065">
        <ele>718</ele>
        <time>2021-12-05T17:57:26Z</time>
      </trkpt>
      <trkpt lat="42.76229" lon="2.09076">
        <ele>714</ele>
        <time>2021-12-05T17:57:29Z</time>
      </trkpt>
      <trkpt lat="42.7628" lon="2.0909">
        <ele>724</ele>
        <time>2021-12-05T17:57:38Z</time>
      </trkpt>
      <trkpt lat="42.76303" lon="2.09102">
        <ele>732</ele>
        <time>2021-12-05T17:57:43Z</time>
      </trkpt>
      <trkpt lat="42.76323" lon="2.09116">
        <ele>734</ele>
        <time>2021-12-05T17:57:47Z</time>
      </trkpt>
      <trkpt lat="42.76352" lon="2.0913">
        <ele>740</ele>
        <time>2021-12-05T17:57:52Z</time>
      </trkpt>
      <trkpt lat="42.76373" lon="2.0915">
        <ele>739</ele>
        <time>2021-12-05T17:57:57Z</time>
      </trkpt>
      <trkpt lat="42.76395" lon="2.09194">
        <ele>733</ele>
        <time>2021-12-05T17:58:04Z</time>
      </trkpt>
      <trkpt lat="42.76404" lon="2.09222">
        <ele>728</ele>
        <time>2021-12-05T17:58:08Z</time>
      </trkpt>
      <trkpt lat="42.76408" lon="2.09247">
        <ele>721</ele>
        <time>2021-12-05T17:58:11Z</time>
      </trkpt>
      <trkpt lat="42.76431" lon="2.09433">
        <ele>708</ele>
        <time>2021-12-05T17:58:36Z</time>
      </trkpt>
      <trkpt lat="42.76432" lon="2.09497">
        <ele>705</ele>
        <time>2021-12-05T17:58:44Z</time>
      </trkpt>
      <trkpt lat="42.76436" lon="2.09514">
        <ele>706</ele>
        <time>2021-12-05T17:58:46Z</time>
      </trkpt>
      <trkpt lat="42.76448" lon="2.09527">
        <ele>707</ele>
        <time>2021-12-05T17:58:49Z</time>
      </trkpt>
      <trkpt lat="42.76461" lon="2.09535">
        <ele>709</ele>
        <time>2021-12-05T17:58:52Z</time>
      </trkpt>
      <trkpt lat="42.76498" lon="2.09551">
        <ele>708</ele>
        <time>2021-12-05T17:58:59Z</time>
      </trkpt>
      <trkpt lat="42.76514" lon="2.0956">
        <ele>715</ele>
        <time>2021-12-05T17:59:02Z</time>
      </trkpt>
      <trkpt lat="42.76524" lon="2.09572">
        <ele>719</ele>
        <time>2021-12-05T17:59:04Z</time>
      </trkpt>
      <trkpt lat="42.76529" lon="2.09584">
        <ele>718</ele>
        <time>2021-12-05T17:59:06Z</time>
      </trkpt>
      <trkpt lat="42.76532" lon="2.09603">
        <ele>718</ele>
        <time>2021-12-05T17:59:08Z</time>
      </trkpt>
      <trkpt lat="42.76533" lon="2.0964">
        <ele>714</ele>
        <time>2021-12-05T17:59:13Z</time>
      </trkpt>
      <trkpt lat="42.7653" lon="2.09676">
        <ele>709</ele>
        <time>2021-12-05T17:59:18Z</time>
      </trkpt>
      <trkpt lat="42.76519" lon="2.09732">
        <ele>704</ele>
        <time>2021-12-05T17:59:26Z</time>
      </trkpt>
      <trkpt lat="42.76518" lon="2.09766">
        <ele>703</ele>
        <time>2021-12-05T17:59:30Z</time>
      </trkpt>
      <trkpt lat="42.76526" lon="2.0979">
        <ele>704</ele>
        <time>2021-12-05T17:59:33Z</time>
      </trkpt>
      <trkpt lat="42.7658" lon="2.09879">
        <ele>708</ele>
        <time>2021-12-05T17:59:49Z</time>
      </trkpt>
      <trkpt lat="42.76585" lon="2.09897">
        <ele>706</ele>
        <time>2021-12-05T17:59:51Z</time>
      </trkpt>
      <trkpt lat="42.76587" lon="2.09926">
        <ele>703</ele>
        <time>2021-12-05T17:59:55Z</time>
      </trkpt>
      <trkpt lat="42.76585" lon="2.0997">
        <ele>695</ele>
        <time>2021-12-05T18:00:01Z</time>
      </trkpt>
      <trkpt lat="42.7658" lon="2.1004">
        <ele>686</ele>
        <time>2021-12-05T18:00:10Z</time>
      </trkpt>
      <trkpt lat="42.76582" lon="2.10069">
        <ele>681</ele>
        <time>2021-12-05T18:00:14Z</time>
      </trkpt>
      <trkpt lat="42.76584" lon="2.10081">
        <ele>680</ele>
        <time>2021-12-05T18:00:15Z</time>
      </trkpt>
      <trkpt lat="42.76572" lon="2.10086">
        <ele>685</ele>
        <time>2021-12-05T18:00:17Z</time>
      </trkpt>
      <trkpt lat="42.76561" lon="2.10094">
        <ele>690</ele>
        <time>2021-12-05T18:00:20Z</time>
      </trkpt>
      <trkpt lat="42.76545" lon="2.10107">
        <ele>700</ele>
        <time>2021-12-05T18:00:23Z</time>
      </trkpt>
      <trkpt lat="42.76541" lon="2.10111">
        <ele>702</ele>
        <time>2021-12-05T18:00:24Z</time>
      </trkpt>
      <trkpt lat="42.76541" lon="2.10144">
        <ele>706</ele>
        <time>2021-12-05T18:00:28Z</time>
      </trkpt>
      <trkpt lat="42.76555" lon="2.10166">
        <ele>699</ele>
        <time>2021-12-05T18:00:32Z</time>
      </trkpt>
      <trkpt lat="42.76586" lon="2.10199">
        <ele>689</ele>
        <time>2021-12-05T18:00:39Z</time>
      </trkpt>
      <trkpt lat="42.76604" lon="2.10243">
        <ele>697</ele>
        <time>2021-12-05T18:00:46Z</time>
      </trkpt>
      <trkpt lat="42.76609" lon="2.10277">
        <ele>701</ele>
        <time>2021-12-05T18:00:50Z</time>
      </trkpt>
      <trkpt lat="42.76604" lon="2.10353">
        <ele>713</ele>
        <time>2021-12-05T18:01:00Z</time>
      </trkpt>
      <trkpt lat="42.76614" lon="2.104">
        <ele>710</ele>
        <time>2021-12-05T18:01:06Z</time>
      </trkpt>
      <trkpt lat="42.76622" lon="2.10434">
        <ele>709</ele>
        <time>2021-12-05T18:01:11Z</time>
      </trkpt>
      <trkpt lat="42.76641" lon="2.10491">
        <ele>708</ele>
        <time>2021-12-05T18:01:19Z</time>
      </trkpt>
      <trkpt lat="42.76649" lon="2.10549">
        <ele>705</ele>
        <time>2021-12-05T18:01:27Z</time>
      </trkpt>
      <trkpt lat="42.76635" lon="2.106">
        <ele>713</ele>
        <time>2021-12-05T18:01:34Z</time>
      </trkpt>
      <trkpt lat="42.76633" lon="2.10623">
        <ele>711</ele>
        <time>2021-12-05T18:01:37Z</time>
      </trkpt>
      <trkpt lat="42.76628" lon="2.10634">
        <ele>711</ele>
        <time>2021-12-05T18:01:39Z</time>
      </trkpt>
      <trkpt lat="42.76618" lon="2.10644">
        <ele>714</ele>
        <time>2021-12-05T18:01:41Z</time>
      </trkpt>
      <trkpt lat="42.76579" lon="2.10662">
        <ele>724</ele>
        <time>2021-12-05T18:01:48Z</time>
      </trkpt>
      <trkpt lat="42.7656" lon="2.10679">
        <ele>727</ele>
        <time>2021-12-05T18:01:52Z</time>
      </trkpt>
      <trkpt lat="42.76548" lon="2.10699">
        <ele>726</ele>
        <time>2021-12-05T18:01:56Z</time>
      </trkpt>
      <trkpt lat="42.76531" lon="2.10708">
        <ele>728</ele>
        <time>2021-12-05T18:01:59Z</time>
      </trkpt>
      <trkpt lat="42.76485" lon="2.10717">
        <ele>738</ele>
        <time>2021-12-05T18:02:07Z</time>
      </trkpt>
      <trkpt lat="42.76432" lon="2.10741">
        <ele>742</ele>
        <time>2021-12-05T18:02:17Z</time>
      </trkpt>
      <trkpt lat="42.76357" lon="2.10788">
        <ele>751</ele>
        <time>2021-12-05T18:02:32Z</time>
      </trkpt>
      <trkpt lat="42.76318" lon="2.10796">
        <ele>760</ele>
        <time>2021-12-05T18:02:39Z</time>
      </trkpt>
      <trkpt lat="42.76285" lon="2.10817">
        <ele>768</ele>
        <time>2021-12-05T18:02:45Z</time>
      </trkpt>
      <trkpt lat="42.76263" lon="2.10854">
        <ele>771</ele>
        <time>2021-12-05T18:02:52Z</time>
      </trkpt>
      <trkpt lat="42.76255" lon="2.10909">
        <ele>770</ele>
        <time>2021-12-05T18:02:59Z</time>
      </trkpt>
      <trkpt lat="42.76255" lon="2.10986">
        <ele>771</ele>
        <time>2021-12-05T18:03:09Z</time>
      </trkpt>
      <trkpt lat="42.7625" lon="2.11012">
        <ele>775</ele>
        <time>2021-12-05T18:03:13Z</time>
      </trkpt>
      <trkpt lat="42.76237" lon="2.11034">
        <ele>787</ele>
        <time>2021-12-05T18:03:16Z</time>
      </trkpt>
      <trkpt lat="42.76237" lon="2.11052">
        <ele>792</ele>
        <time>2021-12-05T18:03:19Z</time>
      </trkpt>
      <trkpt lat="42.76247" lon="2.11062">
        <ele>792</ele>
        <time>2021-12-05T18:03:21Z</time>
      </trkpt>
      <trkpt lat="42.7626" lon="2.11058">
        <ele>791</ele>
        <time>2021-12-05T18:03:23Z</time>
      </trkpt>
      <trkpt lat="42.76297" lon="2.11031">
        <ele>785</ele>
        <time>2021-12-05T18:03:31Z</time>
      </trkpt>
      <trkpt lat="42.7631" lon="2.11002">
        <ele>776</ele>
        <time>2021-12-05T18:03:35Z</time>
      </trkpt>
      <trkpt lat="42.76314" lon="2.10972">
        <ele>770</ele>
        <time>2021-12-05T18:03:39Z</time>
      </trkpt>
      <trkpt lat="42.76325" lon="2.10935">
        <ele>761</ele>
        <time>2021-12-05T18:03:44Z</time>
      </trkpt>
      <trkpt lat="42.76332" lon="2.10921">
        <ele>756</ele>
        <time>2021-12-05T18:03:46Z</time>
      </trkpt>
      <trkpt lat="42.76345" lon="2.10919">
        <ele>757</ele>
        <time>2021-12-05T18:03:49Z</time>
      </trkpt>
      <trkpt lat="42.76398" lon="2.10933">
        <ele>770</ele>
        <time>2021-12-05T18:03:58Z</time>
      </trkpt>
      <trkpt lat="42.76423" lon="2.1093">
        <ele>773</ele>
        <time>2021-12-05T18:04:03Z</time>
      </trkpt>
      <trkpt lat="42.76456" lon="2.10918">
        <ele>770</ele>
        <time>2021-12-05T18:04:09Z</time>
      </trkpt>
      <trkpt lat="42.76523" lon="2.10915">
        <ele>779</ele>
        <time>2021-12-05T18:04:21Z</time>
      </trkpt>
      <trkpt lat="42.76556" lon="2.10919">
        <ele>789</ele>
        <time>2021-12-05T18:04:27Z</time>
      </trkpt>
      <trkpt lat="42.76597" lon="2.10909">
        <ele>790</ele>
        <time>2021-12-05T18:04:34Z</time>
      </trkpt>
      <trkpt lat="42.76662" lon="2.10882">
        <ele>779</ele>
        <time>2021-12-05T18:04:46Z</time>
      </trkpt>
      <trkpt lat="42.76712" lon="2.10868">
        <ele>774</ele>
        <time>2021-12-05T18:04:55Z</time>
      </trkpt>
      <trkpt lat="42.76731" lon="2.10855">
        <ele>770</ele>
        <time>2021-12-05T18:04:59Z</time>
      </trkpt>
      <trkpt lat="42.76741" lon="2.10857">
        <ele>771</ele>
        <time>2021-12-05T18:05:01Z</time>
      </trkpt>
      <trkpt lat="42.76746" lon="2.1087">
        <ele>775</ele>
        <time>2021-12-05T18:05:03Z</time>
      </trkpt>
      <trkpt lat="42.76742" lon="2.10885">
        <ele>780</ele>
        <time>2021-12-05T18:05:05Z</time>
      </trkpt>
      <trkpt lat="42.76735" lon="2.10898">
        <ele>785</ele>
        <time>2021-12-05T18:05:07Z</time>
      </trkpt>
      <trkpt lat="42.76722" lon="2.10893">
        <ele>784</ele>
        <time>2021-12-05T18:05:09Z</time>
      </trkpt>
      <trkpt lat="42.76701" lon="2.1089">
        <ele>783</ele>
        <time>2021-12-05T18:05:13Z</time>
      </trkpt>
      <trkpt lat="42.76675" lon="2.109">
        <ele>790</ele>
        <time>2021-12-05T18:05:18Z</time>
      </trkpt>
      <trkpt lat="42.76567" lon="2.10963">
        <ele>817</ele>
        <time>2021-12-05T18:05:39Z</time>
      </trkpt>
      <trkpt lat="42.76551" lon="2.10969">
        <ele>817</ele>
        <time>2021-12-05T18:05:42Z</time>
      </trkpt>
      <trkpt lat="42.76517" lon="2.1097">
        <ele>811</ele>
        <time>2021-12-05T18:05:48Z</time>
      </trkpt>
      <trkpt lat="42.76498" lon="2.10979">
        <ele>813</ele>
        <time>2021-12-05T18:05:51Z</time>
      </trkpt>
      <trkpt lat="42.7647" lon="2.10988">
        <ele>813</ele>
        <time>2021-12-05T18:05:57Z</time>
      </trkpt>
      <trkpt lat="42.7644" lon="2.11009">
        <ele>818</ele>
        <time>2021-12-05T18:06:03Z</time>
      </trkpt>
      <trkpt lat="42.76428" lon="2.11015">
        <ele>818</ele>
        <time>2021-12-05T18:06:05Z</time>
      </trkpt>
      <trkpt lat="42.764" lon="2.11023">
        <ele>813</ele>
        <time>2021-12-05T18:06:10Z</time>
      </trkpt>
      <trkpt lat="42.76387" lon="2.11035">
        <ele>813</ele>
        <time>2021-12-05T18:06:13Z</time>
      </trkpt>
      <trkpt lat="42.76376" lon="2.11061">
        <ele>820</ele>
        <time>2021-12-05T18:06:17Z</time>
      </trkpt>
      <trkpt lat="42.76363" lon="2.11106">
        <ele>834</ele>
        <time>2021-12-05T18:06:23Z</time>
      </trkpt>
      <trkpt lat="42.76348" lon="2.11132">
        <ele>840</ele>
        <time>2021-12-05T18:06:27Z</time>
      </trkpt>
      <trkpt lat="42.76316" lon="2.11159">
        <ele>846</ele>
        <time>2021-12-05T18:06:34Z</time>
      </trkpt>
      <trkpt lat="42.76289" lon="2.11177">
        <ele>854</ele>
        <time>2021-12-05T18:06:39Z</time>
      </trkpt>
      <trkpt lat="42.76259" lon="2.11193">
        <ele>859</ele>
        <time>2021-12-05T18:06:45Z</time>
      </trkpt>
      <trkpt lat="42.76245" lon="2.11195">
        <ele>859</ele>
        <time>2021-12-05T18:06:48Z</time>
      </trkpt>
      <trkpt lat="42.76223" lon="2.1119">
        <ele>858</ele>
        <time>2021-12-05T18:06:52Z</time>
      </trkpt>
      <trkpt lat="42.76186" lon="2.11161">
        <ele>846</ele>
        <time>2021-12-05T18:06:59Z</time>
      </trkpt>
      <trkpt lat="42.76167" lon="2.11186">
        <ele>858</ele>
        <time>2021-12-05T18:07:04Z</time>
      </trkpt>
      <trkpt lat="42.76152" lon="2.11197">
        <ele>862</ele>
        <time>2021-12-05T18:07:07Z</time>
      </trkpt>
      <trkpt lat="42.76142" lon="2.11199">
        <ele>863</ele>
        <time>2021-12-05T18:07:09Z</time>
      </trkpt>
      <trkpt lat="42.7613" lon="2.11194">
        <ele>859</ele>
        <time>2021-12-05T18:07:11Z</time>
      </trkpt>
      <trkpt lat="42.76116" lon="2.11175">
        <ele>848</ele>
        <time>2021-12-05T18:07:14Z</time>
      </trkpt>
      <trkpt lat="42.76104" lon="2.11174">
        <ele>846</ele>
        <time>2021-12-05T18:07:17Z</time>
      </trkpt>
      <trkpt lat="42.76087" lon="2.11183">
        <ele>850</ele>
        <time>2021-12-05T18:07:20Z</time>
      </trkpt>
      <trkpt lat="42.76065" lon="2.11185">
        <ele>846</ele>
        <time>2021-12-05T18:07:24Z</time>
      </trkpt>
      <trkpt lat="42.7603" lon="2.11208">
        <ele>849</ele>
        <time>2021-12-05T18:07:31Z</time>
      </trkpt>
      <trkpt lat="42.76018" lon="2.11228">
        <ele>855</ele>
        <time>2021-12-05T18:07:34Z</time>
      </trkpt>
      <trkpt lat="42.76009" lon="2.11262">
        <ele>866</ele>
        <time>2021-12-05T18:07:39Z</time>
      </trkpt>
      <trkpt lat="42.75997" lon="2.11273">
        <ele>866</ele>
        <time>2021-12-05T18:07:41Z</time>
      </trkpt>
      <trkpt lat="42.75978" lon="2.11278">
        <ele>862</ele>
        <time>2021-12-05T18:07:45Z</time>
      </trkpt>
      <trkpt lat="42.75977" lon="2.11278">
        <ele>862</ele>
        <time>2021-12-05T18:07:45Z</time>
      </trkpt>
      <trkpt lat="42.7597" lon="2.11282">
        <ele>861</ele>
        <time>2021-12-05T18:07:46Z</time>
      </trkpt>
      <trkpt lat="42.75956" lon="2.11296">
        <ele>862</ele>
        <time>2021-12-05T18:07:49Z</time>
      </trkpt>
      <trkpt lat="42.75943" lon="2.11321">
        <ele>868</ele>
        <time>2021-12-05T18:07:53Z</time>
      </trkpt>
      <trkpt lat="42.75924" lon="2.1134">
        <ele>870</ele>
        <time>2021-12-05T18:07:58Z</time>
      </trkpt>
      <trkpt lat="42.75897" lon="2.11355">
        <ele>875</ele>
        <time>2021-12-05T18:08:03Z</time>
      </trkpt>
      <trkpt lat="42.75867" lon="2.11356">
        <ele>877</ele>
        <time>2021-12-05T18:08:08Z</time>
      </trkpt>
      <trkpt lat="42.75834" lon="2.11349">
        <ele>874</ele>
        <time>2021-12-05T18:08:14Z</time>
      </trkpt>
      <trkpt lat="42.75815" lon="2.11338">
        <ele>871</ele>
        <time>2021-12-05T18:08:18Z</time>
      </trkpt>
      <trkpt lat="42.75784" lon="2.113">
        <ele>862</ele>
        <time>2021-12-05T18:08:25Z</time>
      </trkpt>
      <trkpt lat="42.75772" lon="2.11288">
        <ele>859</ele>
        <time>2021-12-05T18:08:28Z</time>
      </trkpt>
      <trkpt lat="42.75761" lon="2.11289">
        <ele>861</ele>
        <time>2021-12-05T18:08:30Z</time>
      </trkpt>
      <trkpt lat="42.75757" lon="2.11299">
        <ele>865</ele>
        <time>2021-12-05T18:08:31Z</time>
      </trkpt>
      <trkpt lat="42.75755" lon="2.11329">
        <ele>876</ele>
        <time>2021-12-05T18:08:35Z</time>
      </trkpt>
      <trkpt lat="42.75748" lon="2.11348">
        <ele>883</ele>
        <time>2021-12-05T18:08:38Z</time>
      </trkpt>
      <trkpt lat="42.75737" lon="2.11348">
        <ele>882</ele>
        <time>2021-12-05T18:08:40Z</time>
      </trkpt>
      <trkpt lat="42.7572" lon="2.1134">
        <ele>877</ele>
        <time>2021-12-05T18:08:43Z</time>
      </trkpt>
      <trkpt lat="42.7571" lon="2.1134">
        <ele>876</ele>
        <time>2021-12-05T18:08:45Z</time>
      </trkpt>
      <trkpt lat="42.75676" lon="2.11374">
        <ele>887</ele>
        <time>2021-12-05T18:08:52Z</time>
      </trkpt>
      <trkpt lat="42.7565" lon="2.11376">
        <ele>888</ele>
        <time>2021-12-05T18:08:57Z</time>
      </trkpt>
      <trkpt lat="42.75627" lon="2.11368">
        <ele>883</ele>
        <time>2021-12-05T18:09:01Z</time>
      </trkpt>
      <trkpt lat="42.75611" lon="2.11359">
        <ele>878</ele>
        <time>2021-12-05T18:09:04Z</time>
      </trkpt>
      <trkpt lat="42.75599" lon="2.11361">
        <ele>879</ele>
        <time>2021-12-05T18:09:06Z</time>
      </trkpt>
      <trkpt lat="42.75571" lon="2.11373">
        <ele>885</ele>
        <time>2021-12-05T18:09:12Z</time>
      </trkpt>
      <trkpt lat="42.75533" lon="2.11375">
        <ele>887</ele>
        <time>2021-12-05T18:09:18Z</time>
      </trkpt>
      <trkpt lat="42.75495" lon="2.11375">
        <ele>887</ele>
        <time>2021-12-05T18:09:25Z</time>
      </trkpt>
      <trkpt lat="42.75472" lon="2.11386">
        <ele>888</ele>
        <time>2021-12-05T18:09:30Z</time>
      </trkpt>
      <trkpt lat="42.75398" lon="2.11568">
        <ele>915</ele>
        <time>2021-12-05T18:09:57Z</time>
      </trkpt>
      <trkpt lat="42.7539" lon="2.11572">
        <ele>917</ele>
        <time>2021-12-05T18:09:58Z</time>
      </trkpt>
      <trkpt lat="42.75379" lon="2.11567">
        <ele>918</ele>
        <time>2021-12-05T18:10:00Z</time>
      </trkpt>
      <trkpt lat="42.75345" lon="2.11481">
        <ele>915</ele>
        <time>2021-12-05T18:10:13Z</time>
      </trkpt>
      <trkpt lat="42.75331" lon="2.11415">
        <ele>902</ele>
        <time>2021-12-05T18:10:22Z</time>
      </trkpt>
      <trkpt lat="42.7532" lon="2.11406">
        <ele>900</ele>
        <time>2021-12-05T18:10:24Z</time>
      </trkpt>
      <trkpt lat="42.75255" lon="2.11404">
        <ele>907</ele>
        <time>2021-12-05T18:10:36Z</time>
      </trkpt>
      <trkpt lat="42.75241" lon="2.11399">
        <ele>905</ele>
        <time>2021-12-05T18:10:39Z</time>
      </trkpt>
      <trkpt lat="42.75221" lon="2.11386">
        <ele>899</ele>
        <time>2021-12-05T18:10:42Z</time>
      </trkpt>
      <trkpt lat="42.75206" lon="2.11383">
        <ele>898</ele>
        <time>2021-12-05T18:10:45Z</time>
      </trkpt>
      <trkpt lat="42.75192" lon="2.11391">
        <ele>900</ele>
        <time>2021-12-05T18:10:48Z</time>
      </trkpt>
      <trkpt lat="42.75173" lon="2.11424">
        <ele>903</ele>
        <time>2021-12-05T18:10:53Z</time>
      </trkpt>
      <trkpt lat="42.75127" lon="2.11526">
        <ele>913</ele>
        <time>2021-12-05T18:11:09Z</time>
      </trkpt>
      <trkpt lat="42.75127" lon="2.11536">
        <ele>913</ele>
        <time>2021-12-05T18:11:10Z</time>
      </trkpt>
      <trkpt lat="42.75134" lon="2.11562">
        <ele>916</ele>
        <time>2021-12-05T18:11:14Z</time>
      </trkpt>
      <trkpt lat="42.75128" lon="2.11583">
        <ele>917</ele>
        <time>2021-12-05T18:11:17Z</time>
      </trkpt>
      <trkpt lat="42.75118" lon="2.11596">
        <ele>918</ele>
        <time>2021-12-05T18:11:19Z</time>
      </trkpt>
      <trkpt lat="42.75103" lon="2.11599">
        <ele>915</ele>
        <time>2021-12-05T18:11:22Z</time>
      </trkpt>
      <trkpt lat="42.75093" lon="2.11614">
        <ele>917</ele>
        <time>2021-12-05T18:11:25Z</time>
      </trkpt>
      <trkpt lat="42.75077" lon="2.11645">
        <ele>923</ele>
        <time>2021-12-05T18:11:30Z</time>
      </trkpt>
      <trkpt lat="42.75058" lon="2.11661">
        <ele>924</ele>
        <time>2021-12-05T18:11:34Z</time>
      </trkpt>
      <trkpt lat="42.7503" lon="2.11666">
        <ele>920</ele>
        <time>2021-12-05T18:11:39Z</time>
      </trkpt>
      <trkpt lat="42.7499" lon="2.11689">
        <ele>919</ele>
        <time>2021-12-05T18:11:46Z</time>
      </trkpt>
      <trkpt lat="42.74957" lon="2.11698">
        <ele>919</ele>
        <time>2021-12-05T18:11:52Z</time>
      </trkpt>
      <trkpt lat="42.74933" lon="2.11712">
        <ele>918</ele>
        <time>2021-12-05T18:11:57Z</time>
      </trkpt>
      <trkpt lat="42.74926" lon="2.1172">
        <ele>918</ele>
        <time>2021-12-05T18:11:59Z</time>
      </trkpt>
      <trkpt lat="42.74912" lon="2.11751">
        <ele>918</ele>
        <time>2021-12-05T18:12:03Z</time>
      </trkpt>
      <trkpt lat="42.74903" lon="2.11758">
        <ele>919</ele>
        <time>2021-12-05T18:12:05Z</time>
      </trkpt>
      <trkpt lat="42.74869" lon="2.11761">
        <ele>919</ele>
        <time>2021-12-05T18:12:11Z</time>
      </trkpt>
      <trkpt lat="42.74856" lon="2.11767">
        <ele>919</ele>
        <time>2021-12-05T18:12:14Z</time>
      </trkpt>
      <trkpt lat="42.74833" lon="2.11799">
        <ele>921</ele>
        <time>2021-12-05T18:12:20Z</time>
      </trkpt>
      <trkpt lat="42.74823" lon="2.11806">
        <ele>922</ele>
        <time>2021-12-05T18:12:22Z</time>
      </trkpt>
      <trkpt lat="42.74798" lon="2.11814">
        <ele>923</ele>
        <time>2021-12-05T18:12:26Z</time>
      </trkpt>
      <trkpt lat="42.74784" lon="2.11832">
        <ele>922</ele>
        <time>2021-12-05T18:12:30Z</time>
      </trkpt>
      <trkpt lat="42.74759" lon="2.11891">
        <ele>924</ele>
        <time>2021-12-05T18:12:38Z</time>
      </trkpt>
      <trkpt lat="42.74723" lon="2.11942">
        <ele>931</ele>
        <time>2021-12-05T18:12:48Z</time>
      </trkpt>
      <trkpt lat="42.74704" lon="2.11961">
        <ele>933</ele>
        <time>2021-12-05T18:12:52Z</time>
      </trkpt>
      <trkpt lat="42.74681" lon="2.11972">
        <ele>933</ele>
        <time>2021-12-05T18:12:56Z</time>
      </trkpt>
      <trkpt lat="42.74666" lon="2.11974">
        <ele>931</ele>
        <time>2021-12-05T18:12:59Z</time>
      </trkpt>
      <trkpt lat="42.74603" lon="2.12026">
        <ele>939</ele>
        <time>2021-12-05T18:13:12Z</time>
      </trkpt>
      <trkpt lat="42.74584" lon="2.12035">
        <ele>940</ele>
        <time>2021-12-05T18:13:16Z</time>
      </trkpt>
      <trkpt lat="42.74544" lon="2.12033">
        <ele>945</ele>
        <time>2021-12-05T18:13:23Z</time>
      </trkpt>
      <trkpt lat="42.74506" lon="2.12046">
        <ele>949</ele>
        <time>2021-12-05T18:13:30Z</time>
      </trkpt>
      <trkpt lat="42.74467" lon="2.12049">
        <ele>951</ele>
        <time>2021-12-05T18:13:37Z</time>
      </trkpt>
      <trkpt lat="42.74416" lon="2.12084">
        <ele>945</ele>
        <time>2021-12-05T18:13:47Z</time>
      </trkpt>
      <trkpt lat="42.74392" lon="2.12085">
        <ele>948</ele>
        <time>2021-12-05T18:13:51Z</time>
      </trkpt>
      <trkpt lat="42.74367" lon="2.1208">
        <ele>951</ele>
        <time>2021-12-05T18:13:56Z</time>
      </trkpt>
      <trkpt lat="42.7435" lon="2.12083">
        <ele>951</ele>
        <time>2021-12-05T18:13:59Z</time>
      </trkpt>
      <trkpt lat="42.74333" lon="2.12096">
        <ele>955</ele>
        <time>2021-12-05T18:14:02Z</time>
      </trkpt>
      <trkpt lat="42.74296" lon="2.12132">
        <ele>962</ele>
        <time>2021-12-05T18:14:10Z</time>
      </trkpt>
      <trkpt lat="42.74277" lon="2.12145">
        <ele>963</ele>
        <time>2021-12-05T18:14:14Z</time>
      </trkpt>
      <trkpt lat="42.74247" lon="2.12153">
        <ele>963</ele>
        <time>2021-12-05T18:14:19Z</time>
      </trkpt>
      <trkpt lat="42.7421" lon="2.12158">
        <ele>964</ele>
        <time>2021-12-05T18:14:26Z</time>
      </trkpt>
      <trkpt lat="42.74172" lon="2.12171">
        <ele>963</ele>
        <time>2021-12-05T18:14:33Z</time>
      </trkpt>
      <trkpt lat="42.74135" lon="2.12189">
        <ele>965</ele>
        <time>2021-12-05T18:14:40Z</time>
      </trkpt>
      <trkpt lat="42.74093" lon="2.12219">
        <ele>962</ele>
        <time>2021-12-05T18:14:48Z</time>
      </trkpt>
      <trkpt lat="42.74074" lon="2.12243">
        <ele>959</ele>
        <time>2021-12-05T18:14:53Z</time>
      </trkpt>
      <trkpt lat="42.74064" lon="2.12264">
        <ele>959</ele>
        <time>2021-12-05T18:14:56Z</time>
      </trkpt>
      <trkpt lat="42.74031" lon="2.12328">
        <ele>963</ele>
        <time>2021-12-05T18:15:06Z</time>
      </trkpt>
      <trkpt lat="42.74026" lon="2.12334">
        <ele>963</ele>
        <time>2021-12-05T18:15:08Z</time>
      </trkpt>
      <trkpt lat="42.74015" lon="2.12335">
        <ele>963</ele>
        <time>2021-12-05T18:15:10Z</time>
      </trkpt>
      <trkpt lat="42.73986" lon="2.12323">
        <ele>963</ele>
        <time>2021-12-05T18:15:15Z</time>
      </trkpt>
      <trkpt lat="42.7396" lon="2.12319">
        <ele>965</ele>
        <time>2021-12-05T18:15:20Z</time>
      </trkpt>
      <trkpt lat="42.73944" lon="2.12324">
        <ele>966</ele>
        <time>2021-12-05T18:15:23Z</time>
      </trkpt>
      <trkpt lat="42.73932" lon="2.12332">
        <ele>968</ele>
        <time>2021-12-05T18:15:25Z</time>
      </trkpt>
      <trkpt lat="42.73914" lon="2.12336">
        <ele>969</ele>
        <time>2021-12-05T18:15:28Z</time>
      </trkpt>
      <trkpt lat="42.73907" lon="2.12338">
        <ele>970</ele>
        <time>2021-12-05T18:15:30Z</time>
      </trkpt>
      <trkpt lat="42.73897" lon="2.12346">
        <ele>970</ele>
        <time>2021-12-05T18:15:32Z</time>
      </trkpt>
      <trkpt lat="42.73892" lon="2.12353">
        <ele>971</ele>
        <time>2021-12-05T18:15:33Z</time>
      </trkpt>
      <trkpt lat="42.73865" lon="2.12407">
        <ele>973</ele>
        <time>2021-12-05T18:15:41Z</time>
      </trkpt>
      <trkpt lat="42.73859" lon="2.12415">
        <ele>974</ele>
        <time>2021-12-05T18:15:43Z</time>
      </trkpt>
      <trkpt lat="42.73837" lon="2.12431">
        <ele>975</ele>
        <time>2021-12-05T18:15:47Z</time>
      </trkpt>
      <trkpt lat="42.73827" lon="2.12423">
        <ele>975</ele>
        <time>2021-12-05T18:15:49Z</time>
      </trkpt>
      <trkpt lat="42.73787" lon="2.12411">
        <ele>980</ele>
        <time>2021-12-05T18:15:57Z</time>
      </trkpt>
      <trkpt lat="42.73757" lon="2.12414">
        <ele>983</ele>
        <time>2021-12-05T18:16:02Z</time>
      </trkpt>
      <trkpt lat="42.7374" lon="2.12421">
        <ele>988</ele>
        <time>2021-12-05T18:16:05Z</time>
      </trkpt>
      <trkpt lat="42.73729" lon="2.1242">
        <ele>992</ele>
        <time>2021-12-05T18:16:07Z</time>
      </trkpt>
      <trkpt lat="42.73722" lon="2.12414">
        <ele>994</ele>
        <time>2021-12-05T18:16:09Z</time>
      </trkpt>
      <trkpt lat="42.73715" lon="2.12398">
        <ele>998</ele>
        <time>2021-12-05T18:16:11Z</time>
      </trkpt>
      <trkpt lat="42.73716" lon="2.12378">
        <ele>999</ele>
        <time>2021-12-05T18:16:14Z</time>
      </trkpt>
      <trkpt lat="42.73724" lon="2.12364">
        <ele>998</ele>
        <time>2021-12-05T18:16:16Z</time>
      </trkpt>
      <trkpt lat="42.73755" lon="2.1235">
        <ele>989</ele>
        <time>2021-12-05T18:16:22Z</time>
      </trkpt>
      <trkpt lat="42.73767" lon="2.1233">
        <ele>988</ele>
        <time>2021-12-05T18:16:25Z</time>
      </trkpt>
      <trkpt lat="42.73772" lon="2.12312">
        <ele>987</ele>
        <time>2021-12-05T18:16:28Z</time>
      </trkpt>
      <trkpt lat="42.7377" lon="2.12293">
        <ele>987</ele>
        <time>2021-12-05T18:16:30Z</time>
      </trkpt>
      <trkpt lat="42.73727" lon="2.12234">
        <ele>997</ele>
        <time>2021-12-05T18:16:41Z</time>
      </trkpt>
      <trkpt lat="42.73717" lon="2.12221">
        <ele>998</ele>
        <time>2021-12-05T18:16:44Z</time>
      </trkpt>
      <trkpt lat="42.73694" lon="2.1218">
        <ele>1000</ele>
        <time>2021-12-05T18:16:50Z</time>
      </trkpt>
      <trkpt lat="42.73682" lon="2.12171">
        <ele>1002</ele>
        <time>2021-12-05T18:16:53Z</time>
      </trkpt>
      <trkpt lat="42.73665" lon="2.12166">
        <ele>1006</ele>
        <time>2021-12-05T18:16:56Z</time>
      </trkpt>
      <trkpt lat="42.7366" lon="2.12169">
        <ele>1007</ele>
        <time>2021-12-05T18:16:57Z</time>
      </trkpt>
      <trkpt lat="42.73622" lon="2.12157">
        <ele>1010</ele>
        <time>2021-12-05T18:17:04Z</time>
      </trkpt>
      <trkpt lat="42.736" lon="2.12156">
        <ele>1012</ele>
        <time>2021-12-05T18:17:08Z</time>
      </trkpt>
      <trkpt lat="42.73558" lon="2.12166">
        <ele>1017</ele>
        <time>2021-12-05T18:17:15Z</time>
      </trkpt>
      <trkpt lat="42.73549" lon="2.12162">
        <ele>1019</ele>
        <time>2021-12-05T18:17:17Z</time>
      </trkpt>
      <trkpt lat="42.73545" lon="2.12151">
        <ele>1020</ele>
        <time>2021-12-05T18:17:18Z</time>
      </trkpt>
      <trkpt lat="42.73548" lon="2.12132">
        <ele>1021</ele>
        <time>2021-12-05T18:17:21Z</time>
      </trkpt>
      <trkpt lat="42.73568" lon="2.12103">
        <ele>1018</ele>
        <time>2021-12-05T18:17:26Z</time>
      </trkpt>
      <trkpt lat="42.73572" lon="2.12088">
        <ele>1017</ele>
        <time>2021-12-05T18:17:28Z</time>
      </trkpt>
      <trkpt lat="42.73567" lon="2.12077">
        <ele>1020</ele>
        <time>2021-12-05T18:17:30Z</time>
      </trkpt>
      <trkpt lat="42.73559" lon="2.1207">
        <ele>1023</ele>
        <time>2021-12-05T18:17:32Z</time>
      </trkpt>
      <trkpt lat="42.73547" lon="2.12072">
        <ele>1026</ele>
        <time>2021-12-05T18:17:34Z</time>
      </trkpt>
      <trkpt lat="42.73538" lon="2.12087">
        <ele>1026</ele>
        <time>2021-12-05T18:17:36Z</time>
      </trkpt>
      <trkpt lat="42.73528" lon="2.12118">
        <ele>1026</ele>
        <time>2021-12-05T18:17:41Z</time>
      </trkpt>
      <trkpt lat="42.73483" lon="2.12188">
        <ele>1031</ele>
        <time>2021-12-05T18:17:53Z</time>
      </trkpt>
      <trkpt lat="42.73465" lon="2.12226">
        <ele>1035</ele>
        <time>2021-12-05T18:17:59Z</time>
      </trkpt>
      <trkpt lat="42.7344" lon="2.12289">
        <ele>1037</ele>
        <time>2021-12-05T18:18:08Z</time>
      </trkpt>
      <trkpt lat="42.73421" lon="2.12348">
        <ele>1037</ele>
        <time>2021-12-05T18:18:17Z</time>
      </trkpt>
      <trkpt lat="42.7341" lon="2.12372">
        <ele>1038</ele>
        <time>2021-12-05T18:18:20Z</time>
      </trkpt>
      <trkpt lat="42.73399" lon="2.12407">
        <ele>1040</ele>
        <time>2021-12-05T18:18:25Z</time>
      </trkpt>
      <trkpt lat="42.73393" lon="2.12423">
        <ele>1040</ele>
        <time>2021-12-05T18:18:28Z</time>
      </trkpt>
      <trkpt lat="42.73369" lon="2.12476">
        <ele>1042</ele>
        <time>2021-12-05T18:18:36Z</time>
      </trkpt>
      <trkpt lat="42.73356" lon="2.12498">
        <ele>1044</ele>
        <time>2021-12-05T18:18:40Z</time>
      </trkpt>
      <trkpt lat="42.73335" lon="2.12487">
        <ele>1046</ele>
        <time>2021-12-05T18:18:44Z</time>
      </trkpt>
      <trkpt lat="42.73298" lon="2.12473">
        <ele>1052</ele>
        <time>2021-12-05T18:18:50Z</time>
      </trkpt>
      <trkpt lat="42.73275" lon="2.12466">
        <ele>1056</ele>
        <time>2021-12-05T18:18:55Z</time>
      </trkpt>
      <trkpt lat="42.73252" lon="2.12456">
        <ele>1059</ele>
        <time>2021-12-05T18:18:59Z</time>
      </trkpt>
      <trkpt lat="42.73239" lon="2.12428">
        <ele>1062</ele>
        <time>2021-12-05T18:19:03Z</time>
      </trkpt>
      <trkpt lat="42.73233" lon="2.12393">
        <ele>1065</ele>
        <time>2021-12-05T18:19:08Z</time>
      </trkpt>
      <trkpt lat="42.73236" lon="2.12368">
        <ele>1066</ele>
        <time>2021-12-05T18:19:11Z</time>
      </trkpt>
      <trkpt lat="42.7324" lon="2.12357">
        <ele>1065</ele>
        <time>2021-12-05T18:19:13Z</time>
      </trkpt>
      <trkpt lat="42.73294" lon="2.12274">
        <ele>1069</ele>
        <time>2021-12-05T18:19:27Z</time>
      </trkpt>
      <trkpt lat="42.73327" lon="2.12207">
        <ele>1076</ele>
        <time>2021-12-05T18:19:38Z</time>
      </trkpt>
      <trkpt lat="42.73361" lon="2.12105">
        <ele>1080</ele>
        <time>2021-12-05T18:19:52Z</time>
      </trkpt>
      <trkpt lat="42.73364" lon="2.12084">
        <ele>1082</ele>
        <time>2021-12-05T18:19:55Z</time>
      </trkpt>
      <trkpt lat="42.73368" lon="2.11932">
        <ele>1093</ele>
        <time>2021-12-05T18:20:15Z</time>
      </trkpt>
      <trkpt lat="42.73378" lon="2.11868">
        <ele>1093</ele>
        <time>2021-12-05T18:20:24Z</time>
      </trkpt>
      <trkpt lat="42.73375" lon="2.11822">
        <ele>1096</ele>
        <time>2021-12-05T18:20:30Z</time>
      </trkpt>
      <trkpt lat="42.73369" lon="2.11802">
        <ele>1098</ele>
        <time>2021-12-05T18:20:33Z</time>
      </trkpt>
      <trkpt lat="42.73357" lon="2.11771">
        <ele>1100</ele>
        <time>2021-12-05T18:20:37Z</time>
      </trkpt>
      <trkpt lat="42.73351" lon="2.11762">
        <ele>1100</ele>
        <time>2021-12-05T18:20:39Z</time>
      </trkpt>
      <trkpt lat="42.73342" lon="2.11753">
        <ele>1100</ele>
        <time>2021-12-05T18:20:41Z</time>
      </trkpt>
      <trkpt lat="42.73284" lon="2.11739">
        <ele>1099</ele>
        <time>2021-12-05T18:20:51Z</time>
      </trkpt>
      <trkpt lat="42.73269" lon="2.11728">
        <ele>1097</ele>
        <time>2021-12-05T18:20:54Z</time>
      </trkpt>
      <trkpt lat="42.73255" lon="2.11715">
        <ele>1095</ele>
        <time>2021-12-05T18:20:57Z</time>
      </trkpt>
      <trkpt lat="42.73228" lon="2.11684">
        <ele>1092</ele>
        <time>2021-12-05T18:21:03Z</time>
      </trkpt>
      <trkpt lat="42.73193" lon="2.11639">
        <ele>1085</ele>
        <time>2021-12-05T18:21:12Z</time>
      </trkpt>
      <trkpt lat="42.73185" lon="2.11636">
        <ele>1085</ele>
        <time>2021-12-05T18:21:14Z</time>
      </trkpt>
      <trkpt lat="42.73115" lon="2.11637">
        <ele>1087</ele>
        <time>2021-12-05T18:21:26Z</time>
      </trkpt>
      <trkpt lat="42.73104" lon="2.11633">
        <ele>1086</ele>
        <time>2021-12-05T18:21:28Z</time>
      </trkpt>
      <trkpt lat="42.7309" lon="2.11624">
        <ele>1084</ele>
        <time>2021-12-05T18:21:31Z</time>
      </trkpt>
      <trkpt lat="42.73068" lon="2.11601">
        <ele>1077</ele>
        <time>2021-12-05T18:21:36Z</time>
      </trkpt>
      <trkpt lat="42.73055" lon="2.11593">
        <ele>1073</ele>
        <time>2021-12-05T18:21:38Z</time>
      </trkpt>
      <trkpt lat="42.73043" lon="2.1159">
        <ele>1071</ele>
        <time>2021-12-05T18:21:40Z</time>
      </trkpt>
      <trkpt lat="42.73033" lon="2.11591">
        <ele>1071</ele>
        <time>2021-12-05T18:21:42Z</time>
      </trkpt>
      <trkpt lat="42.72995" lon="2.11616">
        <ele>1074</ele>
        <time>2021-12-05T18:21:50Z</time>
      </trkpt>
      <trkpt lat="42.72969" lon="2.1163">
        <ele>1072</ele>
        <time>2021-12-05T18:21:55Z</time>
      </trkpt>
      <trkpt lat="42.72992" lon="2.11618">
        <ele>1074</ele>
        <time>2021-12-05T18:21:59Z</time>
      </trkpt>
      <trkpt lat="42.72969" lon="2.1163">
        <ele>1072</ele>
        <time>2021-12-05T18:22:03Z</time>
      </trkpt>
      <trkpt lat="42.72949" lon="2.11644">
        <ele>1070</ele>
        <time>2021-12-05T18:22:07Z</time>
      </trkpt>
      <trkpt lat="42.7293" lon="2.1166">
        <ele>1068</ele>
        <time>2021-12-05T18:22:11Z</time>
      </trkpt>
      <trkpt lat="42.72915" lon="2.11679">
        <ele>1067</ele>
        <time>2021-12-05T18:22:15Z</time>
      </trkpt>
      <trkpt lat="42.72902" lon="2.11699">
        <ele>1065</ele>
        <time>2021-12-05T18:22:19Z</time>
      </trkpt>
      <trkpt lat="42.72879" lon="2.11757">
        <ele>1063</ele>
        <time>2021-12-05T18:22:27Z</time>
      </trkpt>
      <trkpt lat="42.72871" lon="2.11785">
        <ele>1062</ele>
        <time>2021-12-05T18:22:31Z</time>
      </trkpt>
      <trkpt lat="42.7287" lon="2.1183">
        <ele>1065</ele>
        <time>2021-12-05T18:22:37Z</time>
      </trkpt>
      <trkpt lat="42.72867" lon="2.11845">
        <ele>1065</ele>
        <time>2021-12-05T18:22:39Z</time>
      </trkpt>
      <trkpt lat="42.7286" lon="2.11855">
        <ele>1064</ele>
        <time>2021-12-05T18:22:41Z</time>
      </trkpt>
      <trkpt lat="42.7279" lon="2.11912">
        <ele>1057</ele>
        <time>2021-12-05T18:22:55Z</time>
      </trkpt>
      <trkpt lat="42.72778" lon="2.11918">
        <ele>1056</ele>
        <time>2021-12-05T18:22:58Z</time>
      </trkpt>
      <trkpt lat="42.72721" lon="2.11915">
        <ele>1048</ele>
        <time>2021-12-05T18:23:08Z</time>
      </trkpt>
      <trkpt lat="42.72705" lon="2.11916">
        <ele>1046</ele>
        <time>2021-12-05T18:23:11Z</time>
      </trkpt>
      <trkpt lat="42.72644" lon="2.11946">
        <ele>1041</ele>
        <time>2021-12-05T18:23:22Z</time>
      </trkpt>
      <trkpt lat="42.72632" lon="2.11957">
        <ele>1040</ele>
        <time>2021-12-05T18:23:25Z</time>
      </trkpt>
      <trkpt lat="42.7262" lon="2.11974">
        <ele>1039</ele>
        <time>2021-12-05T18:23:28Z</time>
      </trkpt>
      <trkpt lat="42.72557" lon="2.12089">
        <ele>1039</ele>
        <time>2021-12-05T18:23:47Z</time>
      </trkpt>
      <trkpt lat="42.72497" lon="2.12146">
        <ele>1032</ele>
        <time>2021-12-05T18:24:00Z</time>
      </trkpt>
      <trkpt lat="42.72486" lon="2.12181">
        <ele>1038</ele>
        <time>2021-12-05T18:24:05Z</time>
      </trkpt>
      <trkpt lat="42.72478" lon="2.12187">
        <ele>1038</ele>
        <time>2021-12-05T18:24:06Z</time>
      </trkpt>
      <trkpt lat="42.72469" lon="2.12188">
        <ele>1037</ele>
        <time>2021-12-05T18:24:08Z</time>
      </trkpt>
      <trkpt lat="42.72423" lon="2.12175">
        <ele>1028</ele>
        <time>2021-12-05T18:24:16Z</time>
      </trkpt>
      <trkpt lat="42.724" lon="2.12171">
        <ele>1022</ele>
        <time>2021-12-05T18:24:20Z</time>
      </trkpt>
      <trkpt lat="42.72384" lon="2.12172">
        <ele>1019</ele>
        <time>2021-12-05T18:24:23Z</time>
      </trkpt>
      <trkpt lat="42.72357" lon="2.12187">
        <ele>1017</ele>
        <time>2021-12-05T18:24:28Z</time>
      </trkpt>
      <trkpt lat="42.7234" lon="2.12201">
        <ele>1016</ele>
        <time>2021-12-05T18:24:32Z</time>
      </trkpt>
      <trkpt lat="42.72328" lon="2.12217">
        <ele>1016</ele>
        <time>2021-12-05T18:24:35Z</time>
      </trkpt>
      <trkpt lat="42.7232" lon="2.12242">
        <ele>1018</ele>
        <time>2021-12-05T18:24:38Z</time>
      </trkpt>
      <trkpt lat="42.7231" lon="2.12261">
        <ele>1019</ele>
        <time>2021-12-05T18:24:41Z</time>
      </trkpt>
      <trkpt lat="42.72285" lon="2.12273">
        <ele>1014</ele>
        <time>2021-12-05T18:24:46Z</time>
      </trkpt>
      <trkpt lat="42.72267" lon="2.12288">
        <ele>1012</ele>
        <time>2021-12-05T18:24:50Z</time>
      </trkpt>
      <trkpt lat="42.72234" lon="2.12327">
        <ele>1016</ele>
        <time>2021-12-05T18:24:58Z</time>
      </trkpt>
      <trkpt lat="42.72213" lon="2.12346">
        <ele>1018</ele>
        <time>2021-12-05T18:25:02Z</time>
      </trkpt>
      <trkpt lat="42.72204" lon="2.12347">
        <ele>1017</ele>
        <time>2021-12-05T18:25:04Z</time>
      </trkpt>
      <trkpt lat="42.72176" lon="2.12332">
        <ele>1010</ele>
        <time>2021-12-05T18:25:09Z</time>
      </trkpt>
      <trkpt lat="42.72146" lon="2.12323">
        <ele>1003</ele>
        <time>2021-12-05T18:25:15Z</time>
      </trkpt>
      <trkpt lat="42.72131" lon="2.12322">
        <ele>1001</ele>
        <time>2021-12-05T18:25:17Z</time>
      </trkpt>
      <trkpt lat="42.72112" lon="2.12326">
        <ele>1000</ele>
        <time>2021-12-05T18:25:21Z</time>
      </trkpt>
      <trkpt lat="42.72075" lon="2.12339">
        <ele>996</ele>
        <time>2021-12-05T18:25:28Z</time>
      </trkpt>
      <trkpt lat="42.72063" lon="2.12353">
        <ele>992</ele>
        <time>2021-12-05T18:25:30Z</time>
      </trkpt>
      <trkpt lat="42.72062" lon="2.12366">
        <ele>991</ele>
        <time>2021-12-05T18:25:32Z</time>
      </trkpt>
      <trkpt lat="42.72063" lon="2.12379">
        <ele>991</ele>
        <time>2021-12-05T18:25:34Z</time>
      </trkpt>
      <trkpt lat="42.72077" lon="2.12429">
        <ele>996</ele>
        <time>2021-12-05T18:25:41Z</time>
      </trkpt>
      <trkpt lat="42.72083" lon="2.12474">
        <ele>996</ele>
        <time>2021-12-05T18:25:47Z</time>
      </trkpt>
      <trkpt lat="42.72078" lon="2.12553">
        <ele>999</ele>
        <time>2021-12-05T18:25:57Z</time>
      </trkpt>
      <trkpt lat="42.72071" lon="2.12571">
        <ele>998</ele>
        <time>2021-12-05T18:26:00Z</time>
      </trkpt>
      <trkpt lat="42.72044" lon="2.126">
        <ele>995</ele>
        <time>2021-12-05T18:26:06Z</time>
      </trkpt>
      <trkpt lat="42.72025" lon="2.12612">
        <ele>992</ele>
        <time>2021-12-05T18:26:10Z</time>
      </trkpt>
      <trkpt lat="42.71996" lon="2.12622">
        <ele>986</ele>
        <time>2021-12-05T18:26:15Z</time>
      </trkpt>
      <trkpt lat="42.71965" lon="2.12642">
        <ele>985</ele>
        <time>2021-12-05T18:26:21Z</time>
      </trkpt>
      <trkpt lat="42.7195" lon="2.12647">
        <ele>983</ele>
        <time>2021-12-05T18:26:24Z</time>
      </trkpt>
      <trkpt lat="42.71918" lon="2.12652">
        <ele>977</ele>
        <time>2021-12-05T18:26:29Z</time>
      </trkpt>
      <trkpt lat="42.71891" lon="2.12662">
        <ele>972</ele>
        <time>2021-12-05T18:26:34Z</time>
      </trkpt>
      <trkpt lat="42.71876" lon="2.12678">
        <ele>971</ele>
        <time>2021-12-05T18:26:38Z</time>
      </trkpt>
      <trkpt lat="42.71858" lon="2.1271">
        <ele>972</ele>
        <time>2021-12-05T18:26:43Z</time>
      </trkpt>
      <trkpt lat="42.71846" lon="2.12736">
        <ele>974</ele>
        <time>2021-12-05T18:26:47Z</time>
      </trkpt>
      <trkpt lat="42.71843" lon="2.12762">
        <ele>980</ele>
        <time>2021-12-05T18:26:51Z</time>
      </trkpt>
      <trkpt lat="42.7184" lon="2.12768">
        <ele>981</ele>
        <time>2021-12-05T18:26:52Z</time>
      </trkpt>
      <trkpt lat="42.71831" lon="2.12775">
        <ele>982</ele>
        <time>2021-12-05T18:26:53Z</time>
      </trkpt>
      <trkpt lat="42.71813" lon="2.12783">
        <ele>982</ele>
        <time>2021-12-05T18:26:57Z</time>
      </trkpt>
      <trkpt lat="42.71802" lon="2.12783">
        <ele>981</ele>
        <time>2021-12-05T18:26:59Z</time>
      </trkpt>
      <trkpt lat="42.71785" lon="2.12774">
        <ele>976</ele>
        <time>2021-12-05T18:27:02Z</time>
      </trkpt>
      <trkpt lat="42.71769" lon="2.12761">
        <ele>969</ele>
        <time>2021-12-05T18:27:05Z</time>
      </trkpt>
      <trkpt lat="42.71757" lon="2.12757">
        <ele>966</ele>
        <time>2021-12-05T18:27:07Z</time>
      </trkpt>
      <trkpt lat="42.71741" lon="2.12757">
        <ele>964</ele>
        <time>2021-12-05T18:27:10Z</time>
      </trkpt>
      <trkpt lat="42.71719" lon="2.1276">
        <ele>960</ele>
        <time>2021-12-05T18:27:14Z</time>
      </trkpt>
      <trkpt lat="42.717" lon="2.12774">
        <ele>959</ele>
        <time>2021-12-05T18:27:18Z</time>
      </trkpt>
      <trkpt lat="42.71689" lon="2.12786">
        <ele>958</ele>
        <time>2021-12-05T18:27:21Z</time>
      </trkpt>
      <trkpt lat="42.7166" lon="2.12862">
        <ele>962</ele>
        <time>2021-12-05T18:27:32Z</time>
      </trkpt>
      <trkpt lat="42.71653" lon="2.12888">
        <ele>965</ele>
        <time>2021-12-05T18:27:35Z</time>
      </trkpt>
      <trkpt lat="42.71644" lon="2.12912">
        <ele>966</ele>
        <time>2021-12-05T18:27:39Z</time>
      </trkpt>
      <trkpt lat="42.7164" lon="2.12962">
        <ele>970</ele>
        <time>2021-12-05T18:27:46Z</time>
      </trkpt>
      <trkpt lat="42.71632" lon="2.12984">
        <ele>969</ele>
        <time>2021-12-05T18:27:49Z</time>
      </trkpt>
      <trkpt lat="42.71626" lon="2.1299">
        <ele>967</ele>
        <time>2021-12-05T18:27:50Z</time>
      </trkpt>
      <trkpt lat="42.71619" lon="2.12992">
        <ele>965</ele>
        <time>2021-12-05T18:27:51Z</time>
      </trkpt>
      <trkpt lat="42.71627" lon="2.12974">
        <ele>967</ele>
        <time>2021-12-05T18:27:54Z</time>
      </trkpt>
      <trkpt lat="42.71631" lon="2.1296">
        <ele>967</ele>
        <time>2021-12-05T18:27:56Z</time>
      </trkpt>
      <trkpt lat="42.71632" lon="2.12913">
        <ele>964</ele>
        <time>2021-12-05T18:28:02Z</time>
      </trkpt>
      <trkpt lat="42.71652" lon="2.12832">
        <ele>959</ele>
        <time>2021-12-05T18:28:13Z</time>
      </trkpt>
      <trkpt lat="42.7167" lon="2.12772">
        <ele>951</ele>
        <time>2021-12-05T18:28:22Z</time>
      </trkpt>
      <trkpt lat="42.71693" lon="2.12733">
        <ele>953</ele>
        <time>2021-12-05T18:28:28Z</time>
      </trkpt>
      <trkpt lat="42.71707" lon="2.12718">
        <ele>955</ele>
        <time>2021-12-05T18:28:32Z</time>
      </trkpt>
      <trkpt lat="42.71728" lon="2.12708">
        <ele>955</ele>
        <time>2021-12-05T18:28:35Z</time>
      </trkpt>
      <trkpt lat="42.71755" lon="2.12706">
        <ele>956</ele>
        <time>2021-12-05T18:28:40Z</time>
      </trkpt>
      <trkpt lat="42.71781" lon="2.12696">
        <ele>956</ele>
        <time>2021-12-05T18:28:45Z</time>
      </trkpt>
      <trkpt lat="42.71792" lon="2.12687">
        <ele>956</ele>
        <time>2021-12-05T18:28:47Z</time>
      </trkpt>
      <trkpt lat="42.71806" lon="2.12668">
        <ele>953</ele>
        <time>2021-12-05T18:28:51Z</time>
      </trkpt>
      <trkpt lat="42.71828" lon="2.12599">
        <ele>946</ele>
        <time>2021-12-05T18:29:01Z</time>
      </trkpt>
      <trkpt lat="42.71838" lon="2.12579">
        <ele>943</ele>
        <time>2021-12-05T18:29:04Z</time>
      </trkpt>
      <trkpt lat="42.71848" lon="2.1257">
        <ele>946</ele>
        <time>2021-12-05T18:29:06Z</time>
      </trkpt>
      <trkpt lat="42.7186" lon="2.12566">
        <ele>947</ele>
        <time>2021-12-05T18:29:08Z</time>
      </trkpt>
      <trkpt lat="42.71916" lon="2.12556">
        <ele>947</ele>
        <time>2021-12-05T18:29:18Z</time>
      </trkpt>
      <trkpt lat="42.71935" lon="2.12548">
        <ele>950</ele>
        <time>2021-12-05T18:29:22Z</time>
      </trkpt>
      <trkpt lat="42.7195" lon="2.12539">
        <ele>952</ele>
        <time>2021-12-05T18:29:25Z</time>
      </trkpt>
      <trkpt lat="42.71959" lon="2.12523">
        <ele>950</ele>
        <time>2021-12-05T18:29:27Z</time>
      </trkpt>
      <trkpt lat="42.71964" lon="2.12508">
        <ele>947</ele>
        <time>2021-12-05T18:29:30Z</time>
      </trkpt>
      <trkpt lat="42.71965" lon="2.12492">
        <ele>946</ele>
        <time>2021-12-05T18:29:32Z</time>
      </trkpt>
      <trkpt lat="42.71955" lon="2.12458">
        <ele>945</ele>
        <time>2021-12-05T18:29:36Z</time>
      </trkpt>
      <trkpt lat="42.71946" lon="2.12442">
        <ele>943</ele>
        <time>2021-12-05T18:29:39Z</time>
      </trkpt>
      <trkpt lat="42.71895" lon="2.12404">
        <ele>941</ele>
        <time>2021-12-05T18:29:49Z</time>
      </trkpt>
      <trkpt lat="42.71888" lon="2.12388">
        <ele>945</ele>
        <time>2021-12-05T18:29:52Z</time>
      </trkpt>
      <trkpt lat="42.71885" lon="2.12372">
        <ele>946</ele>
        <time>2021-12-05T18:29:54Z</time>
      </trkpt>
      <trkpt lat="42.71883" lon="2.12349">
        <ele>948</ele>
        <time>2021-12-05T18:29:57Z</time>
      </trkpt>
      <trkpt lat="42.7189" lon="2.12323">
        <ele>947</ele>
        <time>2021-12-05T18:30:01Z</time>
      </trkpt>
      <trkpt lat="42.71908" lon="2.12285">
        <ele>939</ele>
        <time>2021-12-05T18:30:07Z</time>
      </trkpt>
      <trkpt lat="42.7193" lon="2.12229">
        <ele>939</ele>
        <time>2021-12-05T18:30:15Z</time>
      </trkpt>
      <trkpt lat="42.71948" lon="2.12178">
        <ele>942</ele>
        <time>2021-12-05T18:30:22Z</time>
      </trkpt>
      <trkpt lat="42.7197" lon="2.12136">
        <ele>937</ele>
        <time>2021-12-05T18:30:29Z</time>
      </trkpt>
      <trkpt lat="42.71976" lon="2.12122">
        <ele>934</ele>
        <time>2021-12-05T18:30:31Z</time>
      </trkpt>
      <trkpt lat="42.71978" lon="2.12102">
        <ele>931</ele>
        <time>2021-12-05T18:30:34Z</time>
      </trkpt>
      <trkpt lat="42.71981" lon="2.12077">
        <ele>928</ele>
        <time>2021-12-05T18:30:37Z</time>
      </trkpt>
      <trkpt lat="42.71987" lon="2.12069">
        <ele>927</ele>
        <time>2021-12-05T18:30:39Z</time>
      </trkpt>
      <trkpt lat="42.71997" lon="2.12057">
        <ele>924</ele>
        <time>2021-12-05T18:30:41Z</time>
      </trkpt>
      <trkpt lat="42.72009" lon="2.12049">
        <ele>924</ele>
        <time>2021-12-05T18:30:43Z</time>
      </trkpt>
      <trkpt lat="42.72028" lon="2.1205">
        <ele>923</ele>
        <time>2021-12-05T18:30:47Z</time>
      </trkpt>
      <trkpt lat="42.7205" lon="2.12074">
        <ele>918</ele>
        <time>2021-12-05T18:30:52Z</time>
      </trkpt>
      <trkpt lat="42.7207" lon="2.12101">
        <ele>921</ele>
        <time>2021-12-05T18:30:57Z</time>
      </trkpt>
      <trkpt lat="42.72089" lon="2.12115">
        <ele>925</ele>
        <time>2021-12-05T18:31:01Z</time>
      </trkpt>
      <trkpt lat="42.72109" lon="2.12119">
        <ele>926</ele>
        <time>2021-12-05T18:31:04Z</time>
      </trkpt>
      <trkpt lat="42.72125" lon="2.12115">
        <ele>924</ele>
        <time>2021-12-05T18:31:07Z</time>
      </trkpt>
      <trkpt lat="42.72147" lon="2.12102">
        <ele>919</ele>
        <time>2021-12-05T18:31:11Z</time>
      </trkpt>
      <trkpt lat="42.72161" lon="2.12085">
        <ele>914</ele>
        <time>2021-12-05T18:31:15Z</time>
      </trkpt>
      <trkpt lat="42.72166" lon="2.12062">
        <ele>913</ele>
        <time>2021-12-05T18:31:18Z</time>
      </trkpt>
      <trkpt lat="42.72171" lon="2.12025">
        <ele>914</ele>
        <time>2021-12-05T18:31:23Z</time>
      </trkpt>
      <trkpt lat="42.72173" lon="2.11981">
        <ele>915</ele>
        <time>2021-12-05T18:31:28Z</time>
      </trkpt>
      <trkpt lat="42.72179" lon="2.11955">
        <ele>916</ele>
        <time>2021-12-05T18:31:32Z</time>
      </trkpt>
      <trkpt lat="42.72196" lon="2.11904">
        <ele>918</ele>
        <time>2021-12-05T18:31:39Z</time>
      </trkpt>
      <trkpt lat="42.72207" lon="2.11887">
        <ele>918</ele>
        <time>2021-12-05T18:31:42Z</time>
      </trkpt>
      <trkpt lat="42.72218" lon="2.11872">
        <ele>916</ele>
        <time>2021-12-05T18:31:45Z</time>
      </trkpt>
      <trkpt lat="42.72234" lon="2.11859">
        <ele>912</ele>
        <time>2021-12-05T18:31:48Z</time>
      </trkpt>
      <trkpt lat="42.72289" lon="2.11793">
        <ele>912</ele>
        <time>2021-12-05T18:32:01Z</time>
      </trkpt>
      <trkpt lat="42.72305" lon="2.11782">
        <ele>910</ele>
        <time>2021-12-05T18:32:05Z</time>
      </trkpt>
      <trkpt lat="42.72317" lon="2.11777">
        <ele>909</ele>
        <time>2021-12-05T18:32:07Z</time>
      </trkpt>
      <trkpt lat="42.72385" lon="2.11766">
        <ele>906</ele>
        <time>2021-12-05T18:32:19Z</time>
      </trkpt>
      <trkpt lat="42.72405" lon="2.11753">
        <ele>901</ele>
        <time>2021-12-05T18:32:23Z</time>
      </trkpt>
      <trkpt lat="42.72416" lon="2.11738">
        <ele>899</ele>
        <time>2021-12-05T18:32:26Z</time>
      </trkpt>
      <trkpt lat="42.72418" lon="2.11725">
        <ele>898</ele>
        <time>2021-12-05T18:32:27Z</time>
      </trkpt>
      <trkpt lat="42.72414" lon="2.11701">
        <ele>896</ele>
        <time>2021-12-05T18:32:31Z</time>
      </trkpt>
      <trkpt lat="42.72406" lon="2.1167">
        <ele>896</ele>
        <time>2021-12-05T18:32:35Z</time>
      </trkpt>
      <trkpt lat="42.7241" lon="2.11638">
        <ele>896</ele>
        <time>2021-12-05T18:32:39Z</time>
      </trkpt>
      <trkpt lat="42.72415" lon="2.11622">
        <ele>895</ele>
        <time>2021-12-05T18:32:42Z</time>
      </trkpt>
      <trkpt lat="42.72432" lon="2.11586">
        <ele>899</ele>
        <time>2021-12-05T18:32:47Z</time>
      </trkpt>
      <trkpt lat="42.7246" lon="2.1154">
        <ele>901</ele>
        <time>2021-12-05T18:32:55Z</time>
      </trkpt>
      <trkpt lat="42.72476" lon="2.1151">
        <ele>898</ele>
        <time>2021-12-05T18:33:00Z</time>
      </trkpt>
      <trkpt lat="42.72489" lon="2.11473">
        <ele>894</ele>
        <time>2021-12-05T18:33:05Z</time>
      </trkpt>
      <trkpt lat="42.72492" lon="2.11455">
        <ele>893</ele>
        <time>2021-12-05T18:33:08Z</time>
      </trkpt>
      <trkpt lat="42.72494" lon="2.11437">
        <ele>892</ele>
        <time>2021-12-05T18:33:10Z</time>
      </trkpt>
      <trkpt lat="42.72493" lon="2.11405">
        <ele>893</ele>
        <time>2021-12-05T18:33:14Z</time>
      </trkpt>
      <trkpt lat="42.72497" lon="2.11386">
        <ele>892</ele>
        <time>2021-12-05T18:33:17Z</time>
      </trkpt>
      <trkpt lat="42.7251" lon="2.11353">
        <ele>893</ele>
        <time>2021-12-05T18:33:22Z</time>
      </trkpt>
      <trkpt lat="42.7252" lon="2.11335">
        <ele>894</ele>
        <time>2021-12-05T18:33:25Z</time>
      </trkpt>
      <trkpt lat="42.72538" lon="2.11318">
        <ele>895</ele>
        <time>2021-12-05T18:33:28Z</time>
      </trkpt>
      <trkpt lat="42.72554" lon="2.11297">
        <ele>894</ele>
        <time>2021-12-05T18:33:32Z</time>
      </trkpt>
      <trkpt lat="42.72567" lon="2.11291">
        <ele>892</ele>
        <time>2021-12-05T18:33:35Z</time>
      </trkpt>
      <trkpt lat="42.72587" lon="2.11284">
        <ele>888</ele>
        <time>2021-12-05T18:33:39Z</time>
      </trkpt>
      <trkpt lat="42.72599" lon="2.11276">
        <ele>888</ele>
        <time>2021-12-05T18:33:41Z</time>
      </trkpt>
      <trkpt lat="42.72646" lon="2.11232">
        <ele>885</ele>
        <time>2021-12-05T18:33:51Z</time>
      </trkpt>
      <trkpt lat="42.72667" lon="2.11225">
        <ele>882</ele>
        <time>2021-12-05T18:33:55Z</time>
      </trkpt>
      <trkpt lat="42.7268" lon="2.11218">
        <ele>885</ele>
        <time>2021-12-05T18:33:57Z</time>
      </trkpt>
      <trkpt lat="42.72701" lon="2.11197">
        <ele>888</ele>
        <time>2021-12-05T18:34:02Z</time>
      </trkpt>
      <trkpt lat="42.72719" lon="2.11175">
        <ele>887</ele>
        <time>2021-12-05T18:34:06Z</time>
      </trkpt>
      <trkpt lat="42.7273" lon="2.11151">
        <ele>885</ele>
        <time>2021-12-05T18:34:10Z</time>
      </trkpt>
      <trkpt lat="42.72734" lon="2.1113">
        <ele>884</ele>
        <time>2021-12-05T18:34:13Z</time>
      </trkpt>
      <trkpt lat="42.72734" lon="2.11116">
        <ele>882</ele>
        <time>2021-12-05T18:34:15Z</time>
      </trkpt>
      <trkpt lat="42.72731" lon="2.11101">
        <ele>881</ele>
        <time>2021-12-05T18:34:17Z</time>
      </trkpt>
      <trkpt lat="42.72722" lon="2.11076">
        <ele>880</ele>
        <time>2021-12-05T18:34:20Z</time>
      </trkpt>
      <trkpt lat="42.72719" lon="2.11059">
        <ele>880</ele>
        <time>2021-12-05T18:34:23Z</time>
      </trkpt>
      <trkpt lat="42.72718" lon="2.11042">
        <ele>880</ele>
        <time>2021-12-05T18:34:25Z</time>
      </trkpt>
      <trkpt lat="42.72725" lon="2.1102">
        <ele>878</ele>
        <time>2021-12-05T18:34:28Z</time>
      </trkpt>
      <trkpt lat="42.72756" lon="2.10963">
        <ele>871</ele>
        <time>2021-12-05T18:34:37Z</time>
      </trkpt>
      <trkpt lat="42.72764" lon="2.10946">
        <ele>873</ele>
        <time>2021-12-05T18:34:40Z</time>
      </trkpt>
      <trkpt lat="42.72768" lon="2.10932">
        <ele>874</ele>
        <time>2021-12-05T18:34:42Z</time>
      </trkpt>
      <trkpt lat="42.72772" lon="2.10905">
        <ele>876</ele>
        <time>2021-12-05T18:34:45Z</time>
      </trkpt>
      <trkpt lat="42.72772" lon="2.10812">
        <ele>878</ele>
        <time>2021-12-05T18:34:58Z</time>
      </trkpt>
      <trkpt lat="42.72777" lon="2.1078">
        <ele>876</ele>
        <time>2021-12-05T18:35:02Z</time>
      </trkpt>
      <trkpt lat="42.72788" lon="2.1075">
        <ele>874</ele>
        <time>2021-12-05T18:35:06Z</time>
      </trkpt>
      <trkpt lat="42.7282" lon="2.10703">
        <ele>870</ele>
        <time>2021-12-05T18:35:15Z</time>
      </trkpt>
      <trkpt lat="42.72859" lon="2.10667">
        <ele>868</ele>
        <time>2021-12-05T18:35:23Z</time>
      </trkpt>
      <trkpt lat="42.7289" lon="2.10636">
        <ele>872</ele>
        <time>2021-12-05T18:35:30Z</time>
      </trkpt>
      <trkpt lat="42.729" lon="2.10621">
        <ele>871</ele>
        <time>2021-12-05T18:35:33Z</time>
      </trkpt>
      <trkpt lat="42.72905" lon="2.10603">
        <ele>869</ele>
        <time>2021-12-05T18:35:35Z</time>
      </trkpt>
      <trkpt lat="42.72912" lon="2.10549">
        <ele>864</ele>
        <time>2021-12-05T18:35:42Z</time>
      </trkpt>
      <trkpt lat="42.72929" lon="2.10497">
        <ele>863</ele>
        <time>2021-12-05T18:35:50Z</time>
      </trkpt>
      <trkpt lat="42.72936" lon="2.10484">
        <ele>867</ele>
        <time>2021-12-05T18:35:52Z</time>
      </trkpt>
      <trkpt lat="42.72947" lon="2.10473">
        <ele>868</ele>
        <time>2021-12-05T18:35:54Z</time>
      </trkpt>
      <trkpt lat="42.73032" lon="2.10411">
        <ele>862</ele>
        <time>2021-12-05T18:36:11Z</time>
      </trkpt>
      <trkpt lat="42.73046" lon="2.10398">
        <ele>864</ele>
        <time>2021-12-05T18:36:14Z</time>
      </trkpt>
      <trkpt lat="42.73056" lon="2.10386">
        <ele>864</ele>
        <time>2021-12-05T18:36:17Z</time>
      </trkpt>
      <trkpt lat="42.7307" lon="2.10361">
        <ele>860</ele>
        <time>2021-12-05T18:36:21Z</time>
      </trkpt>
      <trkpt lat="42.73084" lon="2.10333">
        <ele>852</ele>
        <time>2021-12-05T18:36:25Z</time>
      </trkpt>
      <trkpt lat="42.73099" lon="2.10312">
        <ele>856</ele>
        <time>2021-12-05T18:36:29Z</time>
      </trkpt>
      <trkpt lat="42.73136" lon="2.10272">
        <ele>856</ele>
        <time>2021-12-05T18:36:37Z</time>
      </trkpt>
      <trkpt lat="42.73159" lon="2.10254">
        <ele>851</ele>
        <time>2021-12-05T18:36:42Z</time>
      </trkpt>
      <trkpt lat="42.73182" lon="2.10222">
        <ele>850</ele>
        <time>2021-12-05T18:36:48Z</time>
      </trkpt>
      <trkpt lat="42.73185" lon="2.10207">
        <ele>849</ele>
        <time>2021-12-05T18:36:50Z</time>
      </trkpt>
      <trkpt lat="42.73185" lon="2.10139">
        <ele>846</ele>
        <time>2021-12-05T18:36:59Z</time>
      </trkpt>
      <trkpt lat="42.73195" lon="2.1008">
        <ele>848</ele>
        <time>2021-12-05T18:37:07Z</time>
      </trkpt>
      <trkpt lat="42.732" lon="2.1007">
        <ele>849</ele>
        <time>2021-12-05T18:37:08Z</time>
      </trkpt>
      <trkpt lat="42.73208" lon="2.10061">
        <ele>850</ele>
        <time>2021-12-05T18:37:10Z</time>
      </trkpt>
      <trkpt lat="42.73225" lon="2.1005">
        <ele>849</ele>
        <time>2021-12-05T18:37:14Z</time>
      </trkpt>
      <trkpt lat="42.73238" lon="2.10036">
        <ele>847</ele>
        <time>2021-12-05T18:37:17Z</time>
      </trkpt>
      <trkpt lat="42.73252" lon="2.10013">
        <ele>844</ele>
        <time>2021-12-05T18:37:21Z</time>
      </trkpt>
      <trkpt lat="42.7326" lon="2.10006">
        <ele>844</ele>
        <time>2021-12-05T18:37:22Z</time>
      </trkpt>
      <trkpt lat="42.73297" lon="2.09982">
        <ele>847</ele>
        <time>2021-12-05T18:37:30Z</time>
      </trkpt>
      <trkpt lat="42.73316" lon="2.0996">
        <ele>846</ele>
        <time>2021-12-05T18:37:34Z</time>
      </trkpt>
      <trkpt lat="42.7333" lon="2.0994">
        <ele>843</ele>
        <time>2021-12-05T18:37:38Z</time>
      </trkpt>
      <trkpt lat="42.73338" lon="2.09926">
        <ele>843</ele>
        <time>2021-12-05T18:37:40Z</time>
      </trkpt>
      <trkpt lat="42.73346" lon="2.09901">
        <ele>846</ele>
        <time>2021-12-05T18:37:43Z</time>
      </trkpt>
      <trkpt lat="42.7335" lon="2.09884">
        <ele>848</ele>
        <time>2021-12-05T18:37:46Z</time>
      </trkpt>
      <trkpt lat="42.73351" lon="2.09864">
        <ele>848</ele>
        <time>2021-12-05T18:37:48Z</time>
      </trkpt>
      <trkpt lat="42.73348" lon="2.09836">
        <ele>847</ele>
        <time>2021-12-05T18:37:52Z</time>
      </trkpt>
      <trkpt lat="42.73327" lon="2.09742">
        <ele>845</ele>
        <time>2021-12-05T18:38:05Z</time>
      </trkpt>
      <trkpt lat="42.73327" lon="2.09726">
        <ele>844</ele>
        <time>2021-12-05T18:38:07Z</time>
      </trkpt>
      <trkpt lat="42.7333" lon="2.09693">
        <ele>840</ele>
        <time>2021-12-05T18:38:11Z</time>
      </trkpt>
      <trkpt lat="42.73333" lon="2.09678">
        <ele>837</ele>
        <time>2021-12-05T18:38:13Z</time>
      </trkpt>
      <trkpt lat="42.73349" lon="2.09634">
        <ele>841</ele>
        <time>2021-12-05T18:38:20Z</time>
      </trkpt>
      <trkpt lat="42.73366" lon="2.09596">
        <ele>843</ele>
        <time>2021-12-05T18:38:26Z</time>
      </trkpt>
      <trkpt lat="42.73404" lon="2.0948">
        <ele>836</ele>
        <time>2021-12-05T18:38:42Z</time>
      </trkpt>
      <trkpt lat="42.73422" lon="2.0944">
        <ele>833</ele>
        <time>2021-12-05T18:38:48Z</time>
      </trkpt>
      <trkpt lat="42.73434" lon="2.0942">
        <ele>833</ele>
        <time>2021-12-05T18:38:52Z</time>
      </trkpt>
      <trkpt lat="42.73469" lon="2.09377">
        <ele>834</ele>
        <time>2021-12-05T18:39:00Z</time>
      </trkpt>
      <trkpt lat="42.73476" lon="2.09363">
        <ele>834</ele>
        <time>2021-12-05T18:39:02Z</time>
      </trkpt>
      <trkpt lat="42.73479" lon="2.09348">
        <ele>834</ele>
        <time>2021-12-05T18:39:04Z</time>
      </trkpt>
      <trkpt lat="42.73479" lon="2.09333">
        <ele>834</ele>
        <time>2021-12-05T18:39:06Z</time>
      </trkpt>
      <trkpt lat="42.73476" lon="2.09309">
        <ele>834</ele>
        <time>2021-12-05T18:39:10Z</time>
      </trkpt>
      <trkpt lat="42.73475" lon="2.0929">
        <ele>833</ele>
        <time>2021-12-05T18:39:12Z</time>
      </trkpt>
      <trkpt lat="42.73483" lon="2.09246">
        <ele>831</ele>
        <time>2021-12-05T18:39:18Z</time>
      </trkpt>
      <trkpt lat="42.73495" lon="2.0921">
        <ele>827</ele>
        <time>2021-12-05T18:39:23Z</time>
      </trkpt>
      <trkpt lat="42.73511" lon="2.09174">
        <ele>827</ele>
        <time>2021-12-05T18:39:29Z</time>
      </trkpt>
      <trkpt lat="42.73626" lon="2.09014">
        <ele>827</ele>
        <time>2021-12-05T18:39:58Z</time>
      </trkpt>
      <trkpt lat="42.7365" lon="2.0899">
        <ele>821</ele>
        <time>2021-12-05T18:40:03Z</time>
      </trkpt>
      <trkpt lat="42.73651" lon="2.08989">
        <ele>821</ele>
        <time>2021-12-05T18:40:03Z</time>
      </trkpt>
      <trkpt lat="42.73717" lon="2.08934">
        <ele>818</ele>
        <time>2021-12-05T18:40:17Z</time>
      </trkpt>
      <trkpt lat="42.73756" lon="2.08898">
        <ele>814</ele>
        <time>2021-12-05T18:40:26Z</time>
      </trkpt>
      <trkpt lat="42.73792" lon="2.08872">
        <ele>820</ele>
        <time>2021-12-05T18:40:33Z</time>
      </trkpt>
      <trkpt lat="42.73858" lon="2.08837">
        <ele>824</ele>
        <time>2021-12-05T18:40:45Z</time>
      </trkpt>
      <trkpt lat="42.7389" lon="2.088">
        <ele>826</ele>
        <time>2021-12-05T18:40:53Z</time>
      </trkpt>
      <trkpt lat="42.7391" lon="2.08755">
        <ele>808</ele>
        <time>2021-12-05T18:41:00Z</time>
      </trkpt>
      <trkpt lat="42.73921" lon="2.08749">
        <ele>805</ele>
        <time>2021-12-05T18:41:02Z</time>
      </trkpt>
      <trkpt lat="42.73932" lon="2.08749">
        <ele>806</ele>
        <time>2021-12-05T18:41:04Z</time>
      </trkpt>
      <trkpt lat="42.73948" lon="2.08756">
        <ele>809</ele>
        <time>2021-12-05T18:41:07Z</time>
      </trkpt>
      <trkpt lat="42.73979" lon="2.08781">
        <ele>824</ele>
        <time>2021-12-05T18:41:13Z</time>
      </trkpt>
      <trkpt lat="42.73988" lon="2.08782">
        <ele>825</ele>
        <time>2021-12-05T18:41:15Z</time>
      </trkpt>
      <trkpt lat="42.73995" lon="2.08779">
        <ele>824</ele>
        <time>2021-12-05T18:41:16Z</time>
      </trkpt>
      <trkpt lat="42.74008" lon="2.0876">
        <ele>811</ele>
        <time>2021-12-05T18:41:19Z</time>
      </trkpt>
      <trkpt lat="42.74014" lon="2.08748">
        <ele>805</ele>
        <time>2021-12-05T18:41:21Z</time>
      </trkpt>
      <trkpt lat="42.73995" lon="2.08742">
        <ele>808</ele>
        <time>2021-12-05T18:41:25Z</time>
      </trkpt>
      <trkpt lat="42.73977" lon="2.08731">
        <ele>811</ele>
        <time>2021-12-05T18:41:28Z</time>
      </trkpt>
      <trkpt lat="42.73957" lon="2.08709">
        <ele>816</ele>
        <time>2021-12-05T18:41:33Z</time>
      </trkpt>
      <trkpt lat="42.7394" lon="2.08698">
        <ele>819</ele>
        <time>2021-12-05T18:41:36Z</time>
      </trkpt>
      <trkpt lat="42.73926" lon="2.08698">
        <ele>820</ele>
        <time>2021-12-05T18:41:39Z</time>
      </trkpt>
      <trkpt lat="42.73903" lon="2.08707">
        <ele>819</ele>
        <time>2021-12-05T18:41:43Z</time>
      </trkpt>
      <trkpt lat="42.73865" lon="2.08725">
        <ele>815</ele>
        <time>2021-12-05T18:41:50Z</time>
      </trkpt>
      <trkpt lat="42.73842" lon="2.08728">
        <ele>815</ele>
        <time>2021-12-05T18:41:54Z</time>
      </trkpt>
      <trkpt lat="42.73826" lon="2.08726">
        <ele>817</ele>
        <time>2021-12-05T18:41:57Z</time>
      </trkpt>
      <trkpt lat="42.73809" lon="2.08716">
        <ele>821</ele>
        <time>2021-12-05T18:42:00Z</time>
      </trkpt>
      <trkpt lat="42.73784" lon="2.08692">
        <ele>827</ele>
        <time>2021-12-05T18:42:06Z</time>
      </trkpt>
      <trkpt lat="42.73701" lon="2.08642">
        <ele>831</ele>
        <time>2021-12-05T18:42:22Z</time>
      </trkpt>
      <trkpt lat="42.73667" lon="2.08604">
        <ele>832</ele>
        <time>2021-12-05T18:42:30Z</time>
      </trkpt>
      <trkpt lat="42.7363" lon="2.0859">
        <ele>834</ele>
        <time>2021-12-05T18:42:37Z</time>
      </trkpt>
      <trkpt lat="42.73582" lon="2.08577">
        <ele>833</ele>
        <time>2021-12-05T18:42:45Z</time>
      </trkpt>
      <trkpt lat="42.7353" lon="2.08554">
        <ele>839</ele>
        <time>2021-12-05T18:42:55Z</time>
      </trkpt>
      <trkpt lat="42.73515" lon="2.08546">
        <ele>840</ele>
        <time>2021-12-05T18:42:58Z</time>
      </trkpt>
      <trkpt lat="42.73511" lon="2.08541">
        <ele>841</ele>
        <time>2021-12-05T18:42:59Z</time>
      </trkpt>
      <trkpt lat="42.73511" lon="2.08532">
        <ele>843</ele>
        <time>2021-12-05T18:43:00Z</time>
      </trkpt>
      <trkpt lat="42.73515" lon="2.08527">
        <ele>843</ele>
        <time>2021-12-05T18:43:01Z</time>
      </trkpt>
      <trkpt lat="42.73524" lon="2.08521">
        <ele>844</ele>
        <time>2021-12-05T18:43:03Z</time>
      </trkpt>
      <trkpt lat="42.73538" lon="2.08519">
        <ele>844</ele>
        <time>2021-12-05T18:43:05Z</time>
      </trkpt>
      <trkpt lat="42.73555" lon="2.08528">
        <ele>842</ele>
        <time>2021-12-05T18:43:09Z</time>
      </trkpt>
      <trkpt lat="42.73572" lon="2.08539">
        <ele>840</ele>
        <time>2021-12-05T18:43:12Z</time>
      </trkpt>
      <trkpt lat="42.73589" lon="2.08541">
        <ele>840</ele>
        <time>2021-12-05T18:43:15Z</time>
      </trkpt>
      <trkpt lat="42.73608" lon="2.08531">
        <ele>844</ele>
        <time>2021-12-05T18:43:19Z</time>
      </trkpt>
      <trkpt lat="42.73626" lon="2.08524">
        <ele>848</ele>
        <time>2021-12-05T18:43:22Z</time>
      </trkpt>
      <trkpt lat="42.73657" lon="2.08532">
        <ele>850</ele>
        <time>2021-12-05T18:43:28Z</time>
      </trkpt>
      <trkpt lat="42.7367" lon="2.08539">
        <ele>851</ele>
        <time>2021-12-05T18:43:30Z</time>
      </trkpt>
      <trkpt lat="42.73677" lon="2.08537">
        <ele>854</ele>
        <time>2021-12-05T18:43:31Z</time>
      </trkpt>
      <trkpt lat="42.7368" lon="2.08527">
        <ele>859</ele>
        <time>2021-12-05T18:43:33Z</time>
      </trkpt>
      <trkpt lat="42.73674" lon="2.08518">
        <ele>859</ele>
        <time>2021-12-05T18:43:34Z</time>
      </trkpt>
      <trkpt lat="42.73665" lon="2.08518">
        <ele>856</ele>
        <time>2021-12-05T18:43:36Z</time>
      </trkpt>
      <trkpt lat="42.73627" lon="2.085">
        <ele>854</ele>
        <time>2021-12-05T18:43:43Z</time>
      </trkpt>
      <trkpt lat="42.73567" lon="2.08476">
        <ele>857</ele>
        <time>2021-12-05T18:43:54Z</time>
      </trkpt>
      <trkpt lat="42.73533" lon="2.08472">
        <ele>858</ele>
        <time>2021-12-05T18:44:00Z</time>
      </trkpt>
      <trkpt lat="42.73502" lon="2.08471">
        <ele>858</ele>
        <time>2021-12-05T18:44:06Z</time>
      </trkpt>
      <trkpt lat="42.73472" lon="2.08485">
        <ele>852</ele>
        <time>2021-12-05T18:44:11Z</time>
      </trkpt>
      <trkpt lat="42.73465" lon="2.08482">
        <ele>853</ele>
        <time>2021-12-05T18:44:13Z</time>
      </trkpt>
      <trkpt lat="42.73464" lon="2.08475">
        <ele>855</ele>
        <time>2021-12-05T18:44:14Z</time>
      </trkpt>
      <trkpt lat="42.73467" lon="2.08464">
        <ele>858</ele>
        <time>2021-12-05T18:44:15Z</time>
      </trkpt>
      <trkpt lat="42.73501" lon="2.08459">
        <ele>862</ele>
        <time>2021-12-05T18:44:21Z</time>
      </trkpt>
      <trkpt lat="42.73526" lon="2.0844">
        <ele>870</ele>
        <time>2021-12-05T18:44:26Z</time>
      </trkpt>
      <trkpt lat="42.7355" lon="2.08438">
        <ele>873</ele>
        <time>2021-12-05T18:44:31Z</time>
      </trkpt>
      <trkpt lat="42.73582" lon="2.08443">
        <ele>873</ele>
        <time>2021-12-05T18:44:36Z</time>
      </trkpt>
      <trkpt lat="42.73592" lon="2.08447">
        <ele>873</ele>
        <time>2021-12-05T18:44:38Z</time>
      </trkpt>
      <trkpt lat="42.73598" lon="2.08445">
        <ele>876</ele>
        <time>2021-12-05T18:44:39Z</time>
      </trkpt>
      <trkpt lat="42.73602" lon="2.08436">
        <ele>881</ele>
        <time>2021-12-05T18:44:41Z</time>
      </trkpt>
      <trkpt lat="42.73599" lon="2.08426">
        <ele>885</ele>
        <time>2021-12-05T18:44:42Z</time>
      </trkpt>
      <trkpt lat="42.73592" lon="2.08422">
        <ele>885</ele>
        <time>2021-12-05T18:44:44Z</time>
      </trkpt>
      <trkpt lat="42.73559" lon="2.08421">
        <ele>881</ele>
        <time>2021-12-05T18:44:49Z</time>
      </trkpt>
      <trkpt lat="42.7351" lon="2.0841">
        <ele>880</ele>
        <time>2021-12-05T18:44:58Z</time>
      </trkpt>
      <trkpt lat="42.73462" lon="2.0841">
        <ele>871</ele>
        <time>2021-12-05T18:45:07Z</time>
      </trkpt>
      <trkpt lat="42.7345" lon="2.084">
        <ele>872</ele>
        <time>2021-12-05T18:45:09Z</time>
      </trkpt>
      <trkpt lat="42.73446" lon="2.08391">
        <ele>873</ele>
        <time>2021-12-05T18:45:11Z</time>
      </trkpt>
      <trkpt lat="42.73442" lon="2.08353">
        <ele>881</ele>
        <time>2021-12-05T18:45:16Z</time>
      </trkpt>
      <trkpt lat="42.7342" lon="2.08285">
        <ele>886</ele>
        <time>2021-12-05T18:45:25Z</time>
      </trkpt>
      <trkpt lat="42.73385" lon="2.08202">
        <ele>887</ele>
        <time>2021-12-05T18:45:38Z</time>
      </trkpt>
      <trkpt lat="42.73375" lon="2.08185">
        <ele>887</ele>
        <time>2021-12-05T18:45:41Z</time>
      </trkpt>
      <trkpt lat="42.73378" lon="2.08175">
        <ele>889</ele>
        <time>2021-12-05T18:45:42Z</time>
      </trkpt>
      <trkpt lat="42.73386" lon="2.08173">
        <ele>891</ele>
        <time>2021-12-05T18:45:44Z</time>
      </trkpt>
      <trkpt lat="42.73396" lon="2.08178">
        <ele>893</ele>
        <time>2021-12-05T18:45:46Z</time>
      </trkpt>
      <trkpt lat="42.73408" lon="2.08207">
        <ele>892</ele>
        <time>2021-12-05T18:45:50Z</time>
      </trkpt>
      <trkpt lat="42.73441" lon="2.08247">
        <ele>899</ele>
        <time>2021-12-05T18:45:58Z</time>
      </trkpt>
      <trkpt lat="42.73455" lon="2.08273">
        <ele>901</ele>
        <time>2021-12-05T18:46:02Z</time>
      </trkpt>
      <trkpt lat="42.73484" lon="2.0835">
        <ele>895</ele>
        <time>2021-12-05T18:46:13Z</time>
      </trkpt>
      <trkpt lat="42.73492" lon="2.0836">
        <ele>894</ele>
        <time>2021-12-05T18:46:15Z</time>
      </trkpt>
      <trkpt lat="42.73504" lon="2.08362">
        <ele>896</ele>
        <time>2021-12-05T18:46:17Z</time>
      </trkpt>
      <trkpt lat="42.73561" lon="2.08358">
        <ele>911</ele>
        <time>2021-12-05T18:46:27Z</time>
      </trkpt>
      <trkpt lat="42.73603" lon="2.08366">
        <ele>917</ele>
        <time>2021-12-05T18:46:35Z</time>
      </trkpt>
      <trkpt lat="42.73613" lon="2.08358">
        <ele>923</ele>
        <time>2021-12-05T18:46:37Z</time>
      </trkpt>
      <trkpt lat="42.73612" lon="2.08345">
        <ele>930</ele>
        <time>2021-12-05T18:46:39Z</time>
      </trkpt>
      <trkpt lat="42.73607" lon="2.08339">
        <ele>932</ele>
        <time>2021-12-05T18:46:40Z</time>
      </trkpt>
      <trkpt lat="42.73606" lon="2.08338">
        <ele>932</ele>
        <time>2021-12-05T18:46:40Z</time>
      </trkpt>
      <trkpt lat="42.73565" lon="2.0834">
        <ele>921</ele>
        <time>2021-12-05T18:46:48Z</time>
      </trkpt>
      <trkpt lat="42.73519" lon="2.08335">
        <ele>910</ele>
        <time>2021-12-05T18:46:56Z</time>
      </trkpt>
      <trkpt lat="42.7351" lon="2.08326">
        <ele>910</ele>
        <time>2021-12-05T18:46:58Z</time>
      </trkpt>
      <trkpt lat="42.73504" lon="2.08311">
        <ele>911</ele>
        <time>2021-12-05T18:47:00Z</time>
      </trkpt>
      <trkpt lat="42.73499" lon="2.08265">
        <ele>919</ele>
        <time>2021-12-05T18:47:06Z</time>
      </trkpt>
      <trkpt lat="42.73486" lon="2.08179">
        <ele>924</ele>
        <time>2021-12-05T18:47:17Z</time>
      </trkpt>
      <trkpt lat="42.73471" lon="2.08121">
        <ele>928</ele>
        <time>2021-12-05T18:47:26Z</time>
      </trkpt>
      <trkpt lat="42.73439" lon="2.08038">
        <ele>932</ele>
        <time>2021-12-05T18:47:38Z</time>
      </trkpt>
      <trkpt lat="42.73418" lon="2.07974">
        <ele>936</ele>
        <time>2021-12-05T18:47:47Z</time>
      </trkpt>
      <trkpt lat="42.73414" lon="2.07946">
        <ele>942</ele>
        <time>2021-12-05T18:47:51Z</time>
      </trkpt>
      <trkpt lat="42.73391" lon="2.07918">
        <ele>942</ele>
        <time>2021-12-05T18:47:56Z</time>
      </trkpt>
      <trkpt lat="42.73363" lon="2.07901">
        <ele>938</ele>
        <time>2021-12-05T18:48:02Z</time>
      </trkpt>
      <trkpt lat="42.73345" lon="2.07881">
        <ele>938</ele>
        <time>2021-12-05T18:48:06Z</time>
      </trkpt>
      <trkpt lat="42.73304" lon="2.0782">
        <ele>939</ele>
        <time>2021-12-05T18:48:17Z</time>
      </trkpt>
      <trkpt lat="42.73265" lon="2.07759">
        <ele>939</ele>
        <time>2021-12-05T18:48:27Z</time>
      </trkpt>
      <trkpt lat="42.73253" lon="2.07734">
        <ele>939</ele>
        <time>2021-12-05T18:48:31Z</time>
      </trkpt>
      <trkpt lat="42.73211" lon="2.07586">
        <ele>950</ele>
        <time>2021-12-05T18:48:52Z</time>
      </trkpt>
      <trkpt lat="42.73178" lon="2.0749">
        <ele>951</ele>
        <time>2021-12-05T18:49:06Z</time>
      </trkpt>
      <trkpt lat="42.73145" lon="2.07414">
        <ele>955</ele>
        <time>2021-12-05T18:49:17Z</time>
      </trkpt>
      <trkpt lat="42.73131" lon="2.07375">
        <ele>956</ele>
        <time>2021-12-05T18:49:23Z</time>
      </trkpt>
      <trkpt lat="42.73123" lon="2.0733">
        <ele>958</ele>
        <time>2021-12-05T18:49:29Z</time>
      </trkpt>
      <trkpt lat="42.73114" lon="2.07257">
        <ele>965</ele>
        <time>2021-12-05T18:49:39Z</time>
      </trkpt>
      <trkpt lat="42.73109" lon="2.07231">
        <ele>967</ele>
        <time>2021-12-05T18:49:42Z</time>
      </trkpt>
      <trkpt lat="42.73092" lon="2.07201">
        <ele>968</ele>
        <time>2021-12-05T18:49:47Z</time>
      </trkpt>
      <trkpt lat="42.73083" lon="2.07186">
        <ele>968</ele>
        <time>2021-12-05T18:49:50Z</time>
      </trkpt>
      <trkpt lat="42.73076" lon="2.07161">
        <ele>971</ele>
        <time>2021-12-05T18:49:53Z</time>
      </trkpt>
      <trkpt lat="42.7307" lon="2.07128">
        <ele>974</ele>
        <time>2021-12-05T18:49:57Z</time>
      </trkpt>
      <trkpt lat="42.73069" lon="2.07109">
        <ele>975</ele>
        <time>2021-12-05T18:50:00Z</time>
      </trkpt>
      <trkpt lat="42.73061" lon="2.07065">
        <ele>980</ele>
        <time>2021-12-05T18:50:06Z</time>
      </trkpt>
      <trkpt lat="42.73057" lon="2.0705">
        <ele>982</ele>
        <time>2021-12-05T18:50:08Z</time>
      </trkpt>
      <trkpt lat="42.73054" lon="2.0704">
        <ele>983</ele>
        <time>2021-12-05T18:50:09Z</time>
      </trkpt>
      <trkpt lat="42.73048" lon="2.07028">
        <ele>984</ele>
        <time>2021-12-05T18:50:11Z</time>
      </trkpt>
      <trkpt lat="42.7304" lon="2.07023">
        <ele>984</ele>
        <time>2021-12-05T18:50:13Z</time>
      </trkpt>
      <trkpt lat="42.73033" lon="2.07019">
        <ele>984</ele>
        <time>2021-12-05T18:50:14Z</time>
      </trkpt>
      <trkpt lat="42.73015" lon="2.07009">
        <ele>984</ele>
        <time>2021-12-05T18:50:18Z</time>
      </trkpt>
      <trkpt lat="42.7301" lon="2.06999">
        <ele>984</ele>
        <time>2021-12-05T18:50:19Z</time>
      </trkpt>
      <trkpt lat="42.73008" lon="2.06986">
        <ele>985</ele>
        <time>2021-12-05T18:50:21Z</time>
      </trkpt>
      <trkpt lat="42.7301" lon="2.06971">
        <ele>986</ele>
        <time>2021-12-05T18:50:23Z</time>
      </trkpt>
      <trkpt lat="42.73019" lon="2.06953">
        <ele>989</ele>
        <time>2021-12-05T18:50:26Z</time>
      </trkpt>
      <trkpt lat="42.73025" lon="2.06934">
        <ele>991</ele>
        <time>2021-12-05T18:50:29Z</time>
      </trkpt>
      <trkpt lat="42.73021" lon="2.06919">
        <ele>992</ele>
        <time>2021-12-05T18:50:31Z</time>
      </trkpt>
      <trkpt lat="42.7301" lon="2.0691">
        <ele>992</ele>
        <time>2021-12-05T18:50:33Z</time>
      </trkpt>
      <trkpt lat="42.72995" lon="2.06909">
        <ele>993</ele>
        <time>2021-12-05T18:50:36Z</time>
      </trkpt>
      <trkpt lat="42.72988" lon="2.06915">
        <ele>994</ele>
        <time>2021-12-05T18:50:37Z</time>
      </trkpt>
      <trkpt lat="42.72981" lon="2.0693">
        <ele>995</ele>
        <time>2021-12-05T18:50:39Z</time>
      </trkpt>
      <trkpt lat="42.72977" lon="2.06951">
        <ele>995</ele>
        <time>2021-12-05T18:50:42Z</time>
      </trkpt>
      <trkpt lat="42.72971" lon="2.06975">
        <ele>994</ele>
        <time>2021-12-05T18:50:46Z</time>
      </trkpt>
      <trkpt lat="42.72951" lon="2.07027">
        <ele>995</ele>
        <time>2021-12-05T18:50:53Z</time>
      </trkpt>
      <trkpt lat="42.72942" lon="2.07062">
        <ele>995</ele>
        <time>2021-12-05T18:50:58Z</time>
      </trkpt>
      <trkpt lat="42.72934" lon="2.07108">
        <ele>995</ele>
        <time>2021-12-05T18:51:04Z</time>
      </trkpt>
      <trkpt lat="42.72931" lon="2.07141">
        <ele>995</ele>
        <time>2021-12-05T18:51:09Z</time>
      </trkpt>
      <trkpt lat="42.7292" lon="2.0719">
        <ele>997</ele>
        <time>2021-12-05T18:51:15Z</time>
      </trkpt>
      <trkpt lat="42.72903" lon="2.07252">
        <ele>1000</ele>
        <time>2021-12-05T18:51:24Z</time>
      </trkpt>
      <trkpt lat="42.72885" lon="2.07306">
        <ele>1001</ele>
        <time>2021-12-05T18:51:32Z</time>
      </trkpt>
      <trkpt lat="42.72872" lon="2.07341">
        <ele>1001</ele>
        <time>2021-12-05T18:51:37Z</time>
      </trkpt>
      <trkpt lat="42.72841" lon="2.07405">
        <ele>1003</ele>
        <time>2021-12-05T18:51:47Z</time>
      </trkpt>
      <trkpt lat="42.72805" lon="2.07466">
        <ele>1001</ele>
        <time>2021-12-05T18:51:57Z</time>
      </trkpt>
      <trkpt lat="42.72795" lon="2.07473">
        <ele>1002</ele>
        <time>2021-12-05T18:51:59Z</time>
      </trkpt>
      <trkpt lat="42.72784" lon="2.07478">
        <ele>1003</ele>
        <time>2021-12-05T18:52:01Z</time>
      </trkpt>
      <trkpt lat="42.72764" lon="2.07468">
        <ele>1008</ele>
        <time>2021-12-05T18:52:05Z</time>
      </trkpt>
      <trkpt lat="42.72749" lon="2.07467">
        <ele>1010</ele>
        <time>2021-12-05T18:52:08Z</time>
      </trkpt>
      <trkpt lat="42.72743" lon="2.0747">
        <ele>1010</ele>
        <time>2021-12-05T18:52:09Z</time>
      </trkpt>
      <trkpt lat="42.72716" lon="2.07496">
        <ele>1007</ele>
        <time>2021-12-05T18:52:15Z</time>
      </trkpt>
      <trkpt lat="42.72705" lon="2.07502">
        <ele>1007</ele>
        <time>2021-12-05T18:52:17Z</time>
      </trkpt>
      <trkpt lat="42.7267" lon="2.07511">
        <ele>1006</ele>
        <time>2021-12-05T18:52:23Z</time>
      </trkpt>
      <trkpt lat="42.72526" lon="2.07537">
        <ele>1007</ele>
        <time>2021-12-05T18:52:49Z</time>
      </trkpt>
      <trkpt lat="42.72474" lon="2.07559">
        <ele>1007</ele>
        <time>2021-12-05T18:52:59Z</time>
      </trkpt>
      <trkpt lat="42.72439" lon="2.07579">
        <ele>1008</ele>
        <time>2021-12-05T18:53:05Z</time>
      </trkpt>
      <trkpt lat="42.72414" lon="2.07604">
        <ele>1009</ele>
        <time>2021-12-05T18:53:11Z</time>
      </trkpt>
      <trkpt lat="42.72374" lon="2.07662">
        <ele>1014</ele>
        <time>2021-12-05T18:53:21Z</time>
      </trkpt>
      <trkpt lat="42.72336" lon="2.07708">
        <ele>1017</ele>
        <time>2021-12-05T18:53:30Z</time>
      </trkpt>
      <trkpt lat="42.72287" lon="2.07756">
        <ele>1018</ele>
        <time>2021-12-05T18:53:41Z</time>
      </trkpt>
      <trkpt lat="42.72241" lon="2.07795">
        <ele>1018</ele>
        <time>2021-12-05T18:53:51Z</time>
      </trkpt>
      <trkpt lat="42.72212" lon="2.07803">
        <ele>1018</ele>
        <time>2021-12-05T18:53:56Z</time>
      </trkpt>
      <trkpt lat="42.72189" lon="2.07794">
        <ele>1021</ele>
        <time>2021-12-05T18:54:00Z</time>
      </trkpt>
      <trkpt lat="42.72162" lon="2.0777">
        <ele>1027</ele>
        <time>2021-12-05T18:54:06Z</time>
      </trkpt>
      <trkpt lat="42.72136" lon="2.07757">
        <ele>1030</ele>
        <time>2021-12-05T18:54:11Z</time>
      </trkpt>
      <trkpt lat="42.72098" lon="2.07756">
        <ele>1032</ele>
        <time>2021-12-05T18:54:18Z</time>
      </trkpt>
      <trkpt lat="42.72071" lon="2.07767">
        <ele>1032</ele>
        <time>2021-12-05T18:54:23Z</time>
      </trkpt>
      <trkpt lat="42.72002" lon="2.07761">
        <ele>1036</ele>
        <time>2021-12-05T18:54:35Z</time>
      </trkpt>
      <trkpt lat="42.7194" lon="2.07729">
        <ele>1046</ele>
        <time>2021-12-05T18:54:47Z</time>
      </trkpt>
      <trkpt lat="42.71923" lon="2.07731">
        <ele>1047</ele>
        <time>2021-12-05T18:54:50Z</time>
      </trkpt>
      <trkpt lat="42.71904" lon="2.0775">
        <ele>1046</ele>
        <time>2021-12-05T18:54:54Z</time>
      </trkpt>
      <trkpt lat="42.71855" lon="2.07812">
        <ele>1043</ele>
        <time>2021-12-05T18:55:06Z</time>
      </trkpt>
      <trkpt lat="42.71843" lon="2.07828">
        <ele>1041</ele>
        <time>2021-12-05T18:55:09Z</time>
      </trkpt>
      <trkpt lat="42.71783" lon="2.07908">
        <ele>1050</ele>
        <time>2021-12-05T18:55:24Z</time>
      </trkpt>
      <trkpt lat="42.71771" lon="2.07931">
        <ele>1052</ele>
        <time>2021-12-05T18:55:27Z</time>
      </trkpt>
      <trkpt lat="42.71771" lon="2.07957">
        <ele>1053</ele>
        <time>2021-12-05T18:55:31Z</time>
      </trkpt>
      <trkpt lat="42.71781" lon="2.07991">
        <ele>1053</ele>
        <time>2021-12-05T18:55:36Z</time>
      </trkpt>
      <trkpt lat="42.71782" lon="2.0802">
        <ele>1051</ele>
        <time>2021-12-05T18:55:39Z</time>
      </trkpt>
      <trkpt lat="42.71774" lon="2.08054">
        <ele>1050</ele>
        <time>2021-12-05T18:55:44Z</time>
      </trkpt>
      <trkpt lat="42.7171" lon="2.08124">
        <ele>1055</ele>
        <time>2021-12-05T18:55:59Z</time>
      </trkpt>
      <trkpt lat="42.71683" lon="2.08145">
        <ele>1056</ele>
        <time>2021-12-05T18:56:04Z</time>
      </trkpt>
      <trkpt lat="42.71672" lon="2.08148">
        <ele>1057</ele>
        <time>2021-12-05T18:56:06Z</time>
      </trkpt>
      <trkpt lat="42.71617" lon="2.08142">
        <ele>1062</ele>
        <time>2021-12-05T18:56:16Z</time>
      </trkpt>
      <trkpt lat="42.71583" lon="2.08116">
        <ele>1069</ele>
        <time>2021-12-05T18:56:23Z</time>
      </trkpt>
      <trkpt lat="42.71558" lon="2.08108">
        <ele>1071</ele>
        <time>2021-12-05T18:56:28Z</time>
      </trkpt>
      <trkpt lat="42.71541" lon="2.08087">
        <ele>1075</ele>
        <time>2021-12-05T18:56:32Z</time>
      </trkpt>
      <trkpt lat="42.71531" lon="2.0808">
        <ele>1076</ele>
        <time>2021-12-05T18:56:34Z</time>
      </trkpt>
      <trkpt lat="42.71491" lon="2.08081">
        <ele>1077</ele>
        <time>2021-12-05T18:56:41Z</time>
      </trkpt>
      <trkpt lat="42.71442" lon="2.08089">
        <ele>1078</ele>
        <time>2021-12-05T18:56:50Z</time>
      </trkpt>
      <trkpt lat="42.71298" lon="2.08123">
        <ele>1089</ele>
        <time>2021-12-05T18:57:16Z</time>
      </trkpt>
      <trkpt lat="42.71253" lon="2.08138">
        <ele>1092</ele>
        <time>2021-12-05T18:57:24Z</time>
      </trkpt>
      <trkpt lat="42.71238" lon="2.08145">
        <ele>1093</ele>
        <time>2021-12-05T18:57:27Z</time>
      </trkpt>
      <trkpt lat="42.71229" lon="2.08152">
        <ele>1093</ele>
        <time>2021-12-05T18:57:28Z</time>
      </trkpt>
      <trkpt lat="42.71219" lon="2.08165">
        <ele>1092</ele>
        <time>2021-12-05T18:57:31Z</time>
      </trkpt>
      <trkpt lat="42.7121" lon="2.08183">
        <ele>1093</ele>
        <time>2021-12-05T18:57:34Z</time>
      </trkpt>
      <trkpt lat="42.71163" lon="2.08299">
        <ele>1094</ele>
        <time>2021-12-05T18:57:51Z</time>
      </trkpt>
      <trkpt lat="42.71119" lon="2.08389">
        <ele>1101</ele>
        <time>2021-12-05T18:58:05Z</time>
      </trkpt>
      <trkpt lat="42.71098" lon="2.08425">
        <ele>1102</ele>
        <time>2021-12-05T18:58:11Z</time>
      </trkpt>
      <trkpt lat="42.71019" lon="2.08538">
        <ele>1111</ele>
        <time>2021-12-05T18:58:32Z</time>
      </trkpt>
      <trkpt lat="42.70971" lon="2.08605">
        <ele>1115</ele>
        <time>2021-12-05T18:58:44Z</time>
      </trkpt>
      <trkpt lat="42.70959" lon="2.08615">
        <ele>1115</ele>
        <time>2021-12-05T18:58:46Z</time>
      </trkpt>
      <trkpt lat="42.70948" lon="2.08621">
        <ele>1116</ele>
        <time>2021-12-05T18:58:48Z</time>
      </trkpt>
      <trkpt lat="42.70934" lon="2.08632">
        <ele>1117</ele>
        <time>2021-12-05T18:58:51Z</time>
      </trkpt>
      <trkpt lat="42.70902" lon="2.08691">
        <ele>1117</ele>
        <time>2021-12-05T18:59:01Z</time>
      </trkpt>
      <trkpt lat="42.70885" lon="2.08701">
        <ele>1120</ele>
        <time>2021-12-05T18:59:04Z</time>
      </trkpt>
      <trkpt lat="42.70856" lon="2.08704">
        <ele>1123</ele>
        <time>2021-12-05T18:59:09Z</time>
      </trkpt>
      <trkpt lat="42.707" lon="2.08751">
        <ele>1137</ele>
        <time>2021-12-05T18:59:38Z</time>
      </trkpt>
      <trkpt lat="42.70653" lon="2.08768">
        <ele>1141</ele>
        <time>2021-12-05T18:59:47Z</time>
      </trkpt>
      <trkpt lat="42.70632" lon="2.0878">
        <ele>1144</ele>
        <time>2021-12-05T18:59:51Z</time>
      </trkpt>
      <trkpt lat="42.70605" lon="2.08815">
        <ele>1144</ele>
        <time>2021-12-05T18:59:57Z</time>
      </trkpt>
      <trkpt lat="42.70539" lon="2.08887">
        <ele>1147</ele>
        <time>2021-12-05T19:00:12Z</time>
      </trkpt>
      <trkpt lat="42.70454" lon="2.08951">
        <ele>1155</ele>
        <time>2021-12-05T19:00:30Z</time>
      </trkpt>
      <trkpt lat="42.70364" lon="2.09013">
        <ele>1157</ele>
        <time>2021-12-05T19:00:47Z</time>
      </trkpt>
      <trkpt lat="42.70314" lon="2.09056">
        <ele>1157</ele>
        <time>2021-12-05T19:00:58Z</time>
      </trkpt>
      <trkpt lat="42.70276" lon="2.0908">
        <ele>1157</ele>
        <time>2021-12-05T19:01:05Z</time>
      </trkpt>
      <trkpt lat="42.70251" lon="2.09088">
        <ele>1158</ele>
        <time>2021-12-05T19:01:10Z</time>
      </trkpt>
      <trkpt lat="42.70213" lon="2.09073">
        <ele>1166</ele>
        <time>2021-12-05T19:01:17Z</time>
      </trkpt>
      <trkpt lat="42.70196" lon="2.09068">
        <ele>1170</ele>
        <time>2021-12-05T19:01:20Z</time>
      </trkpt>
      <trkpt lat="42.7018" lon="2.09083">
        <ele>1171</ele>
        <time>2021-12-05T19:01:24Z</time>
      </trkpt>
      <trkpt lat="42.70175" lon="2.09107">
        <ele>1172</ele>
        <time>2021-12-05T19:01:27Z</time>
      </trkpt>
      <trkpt lat="42.70172" lon="2.09131">
        <ele>1173</ele>
        <time>2021-12-05T19:01:30Z</time>
      </trkpt>
      <trkpt lat="42.70176" lon="2.09213">
        <ele>1169</ele>
        <time>2021-12-05T19:01:41Z</time>
      </trkpt>
      <trkpt lat="42.70167" lon="2.09247">
        <ele>1168</ele>
        <time>2021-12-05T19:01:46Z</time>
      </trkpt>
      <trkpt lat="42.70153" lon="2.09275">
        <ele>1168</ele>
        <time>2021-12-05T19:01:50Z</time>
      </trkpt>
      <trkpt lat="42.70131" lon="2.09291">
        <ele>1168</ele>
        <time>2021-12-05T19:01:54Z</time>
      </trkpt>
      <trkpt lat="42.70112" lon="2.09295">
        <ele>1169</ele>
        <time>2021-12-05T19:01:58Z</time>
      </trkpt>
      <trkpt lat="42.70095" lon="2.09287">
        <ele>1171</ele>
        <time>2021-12-05T19:02:01Z</time>
      </trkpt>
      <trkpt lat="42.70071" lon="2.09266">
        <ele>1178</ele>
        <time>2021-12-05T19:02:06Z</time>
      </trkpt>
      <trkpt lat="42.70051" lon="2.0926">
        <ele>1182</ele>
        <time>2021-12-05T19:02:10Z</time>
      </trkpt>
      <trkpt lat="42.70009" lon="2.09257">
        <ele>1188</ele>
        <time>2021-12-05T19:02:17Z</time>
      </trkpt>
      <trkpt lat="42.69952" lon="2.09292">
        <ele>1190</ele>
        <time>2021-12-05T19:02:28Z</time>
      </trkpt>
      <trkpt lat="42.69925" lon="2.0933">
        <ele>1188</ele>
        <time>2021-12-05T19:02:35Z</time>
      </trkpt>
      <trkpt lat="42.69907" lon="2.09367">
        <ele>1187</ele>
        <time>2021-12-05T19:02:41Z</time>
      </trkpt>
      <trkpt lat="42.69884" lon="2.09402">
        <ele>1188</ele>
        <time>2021-12-05T19:02:47Z</time>
      </trkpt>
      <trkpt lat="42.69815" lon="2.0947">
        <ele>1192</ele>
        <time>2021-12-05T19:03:02Z</time>
      </trkpt>
      <trkpt lat="42.6979" lon="2.09478">
        <ele>1192</ele>
        <time>2021-12-05T19:03:07Z</time>
      </trkpt>
      <trkpt lat="42.6978" lon="2.09477">
        <ele>1193</ele>
        <time>2021-12-05T19:03:09Z</time>
      </trkpt>
      <trkpt lat="42.69739" lon="2.09462">
        <ele>1198</ele>
        <time>2021-12-05T19:03:16Z</time>
      </trkpt>
      <trkpt lat="42.69709" lon="2.09472">
        <ele>1200</ele>
        <time>2021-12-05T19:03:22Z</time>
      </trkpt>
      <trkpt lat="42.69585" lon="2.09554">
        <ele>1208</ele>
        <time>2021-12-05T19:03:46Z</time>
      </trkpt>
      <trkpt lat="42.69541" lon="2.09592">
        <ele>1213</ele>
        <time>2021-12-05T19:03:56Z</time>
      </trkpt>
      <trkpt lat="42.69527" lon="2.0962">
        <ele>1215</ele>
        <time>2021-12-05T19:04:00Z</time>
      </trkpt>
      <trkpt lat="42.69516" lon="2.09682">
        <ele>1217</ele>
        <time>2021-12-05T19:04:08Z</time>
      </trkpt>
      <trkpt lat="42.69518" lon="2.09702">
        <ele>1217</ele>
        <time>2021-12-05T19:04:11Z</time>
      </trkpt>
      <trkpt lat="42.69528" lon="2.09721">
        <ele>1218</ele>
        <time>2021-12-05T19:04:14Z</time>
      </trkpt>
      <trkpt lat="42.69548" lon="2.09743">
        <ele>1219</ele>
        <time>2021-12-05T19:04:19Z</time>
      </trkpt>
      <trkpt lat="42.69635" lon="2.09733">
        <ele>1218</ele>
        <time>2021-12-05T19:04:34Z</time>
      </trkpt>
      <trkpt lat="42.69681" lon="2.09716">
        <ele>1218</ele>
        <time>2021-12-05T19:04:43Z</time>
      </trkpt>
      <trkpt lat="42.69696" lon="2.09714">
        <ele>1219</ele>
        <time>2021-12-05T19:04:45Z</time>
      </trkpt>
      <trkpt lat="42.69737" lon="2.097">
        <ele>1220</ele>
        <time>2021-12-05T19:04:53Z</time>
      </trkpt>
      <trkpt lat="42.69811" lon="2.09662">
        <ele>1219</ele>
        <time>2021-12-05T19:05:07Z</time>
      </trkpt>
      <trkpt lat="42.69825" lon="2.09658">
        <ele>1220</ele>
        <time>2021-12-05T19:05:09Z</time>
      </trkpt>
      <trkpt lat="42.69838" lon="2.09666">
        <ele>1221</ele>
        <time>2021-12-05T19:05:12Z</time>
      </trkpt>
      <trkpt lat="42.69863" lon="2.09691">
        <ele>1221</ele>
        <time>2021-12-05T19:05:18Z</time>
      </trkpt>
      <trkpt lat="42.69866" lon="2.09704">
        <ele>1222</ele>
        <time>2021-12-05T19:05:19Z</time>
      </trkpt>
      <trkpt lat="42.69867" lon="2.09719">
        <ele>1223</ele>
        <time>2021-12-05T19:05:21Z</time>
      </trkpt>
      <trkpt lat="42.69865" lon="2.09728">
        <ele>1224</ele>
        <time>2021-12-05T19:05:22Z</time>
      </trkpt>
      <trkpt lat="42.69865" lon="2.09735">
        <ele>1224</ele>
        <time>2021-12-05T19:05:23Z</time>
      </trkpt>
      <trkpt lat="42.69864" lon="2.09742">
        <ele>1225</ele>
        <time>2021-12-05T19:05:24Z</time>
      </trkpt>
      <trkpt lat="42.6986" lon="2.09757">
        <ele>1226</ele>
        <time>2021-12-05T19:05:26Z</time>
      </trkpt>
      <trkpt lat="42.69843" lon="2.09791">
        <ele>1228</ele>
        <time>2021-12-05T19:05:32Z</time>
      </trkpt>
      <trkpt lat="42.69838" lon="2.0983">
        <ele>1231</ele>
        <time>2021-12-05T19:05:37Z</time>
      </trkpt>
      <trkpt lat="42.69815" lon="2.09833">
        <ele>1232</ele>
        <time>2021-12-05T19:05:41Z</time>
      </trkpt>
      <trkpt lat="42.69791" lon="2.09845">
        <ele>1234</ele>
        <time>2021-12-05T19:05:46Z</time>
      </trkpt>
      <trkpt lat="42.69786" lon="2.09852">
        <ele>1234</ele>
        <time>2021-12-05T19:05:47Z</time>
      </trkpt>
      <trkpt lat="42.69758" lon="2.09884">
        <ele>1237</ele>
        <time>2021-12-05T19:05:53Z</time>
      </trkpt>
      <trkpt lat="42.69727" lon="2.09912">
        <ele>1241</ele>
        <time>2021-12-05T19:06:00Z</time>
      </trkpt>
      <trkpt lat="42.69714" lon="2.09906">
        <ele>1243</ele>
        <time>2021-12-05T19:06:02Z</time>
      </trkpt>
      <trkpt lat="42.69699" lon="2.09892">
        <ele>1244</ele>
        <time>2021-12-05T19:06:06Z</time>
      </trkpt>
      <trkpt lat="42.69687" lon="2.09879">
        <ele>1244</ele>
        <time>2021-12-05T19:06:08Z</time>
      </trkpt>
      <trkpt lat="42.69643" lon="2.0987">
        <ele>1243</ele>
        <time>2021-12-05T19:06:16Z</time>
      </trkpt>
      <trkpt lat="42.69622" lon="2.09876">
        <ele>1244</ele>
        <time>2021-12-05T19:06:20Z</time>
      </trkpt>
      <trkpt lat="42.6959" lon="2.09914">
        <ele>1249</ele>
        <time>2021-12-05T19:06:28Z</time>
      </trkpt>
      <trkpt lat="42.69573" lon="2.09923">
        <ele>1251</ele>
        <time>2021-12-05T19:06:31Z</time>
      </trkpt>
      <trkpt lat="42.69535" lon="2.09926">
        <ele>1253</ele>
        <time>2021-12-05T19:06:38Z</time>
      </trkpt>
      <trkpt lat="42.69498" lon="2.09915">
        <ele>1252</ele>
        <time>2021-12-05T19:06:45Z</time>
      </trkpt>
      <trkpt lat="42.69459" lon="2.09915">
        <ele>1255</ele>
        <time>2021-12-05T19:06:51Z</time>
      </trkpt>
      <trkpt lat="42.69408" lon="2.09924">
        <ele>1263</ele>
        <time>2021-12-05T19:07:01Z</time>
      </trkpt>
      <trkpt lat="42.69311" lon="2.09933">
        <ele>1272</ele>
        <time>2021-12-05T19:07:18Z</time>
      </trkpt>
      <trkpt lat="42.69278" lon="2.09934">
        <ele>1275</ele>
        <time>2021-12-05T19:07:24Z</time>
      </trkpt>
      <trkpt lat="42.69248" lon="2.0992">
        <ele>1270</ele>
        <time>2021-12-05T19:07:29Z</time>
      </trkpt>
      <trkpt lat="42.69187" lon="2.09935">
        <ele>1275</ele>
        <time>2021-12-05T19:07:40Z</time>
      </trkpt>
      <trkpt lat="42.69159" lon="2.09957">
        <ele>1281</ele>
        <time>2021-12-05T19:07:46Z</time>
      </trkpt>
      <trkpt lat="42.69129" lon="2.10013">
        <ele>1292</ele>
        <time>2021-12-05T19:07:55Z</time>
      </trkpt>
      <trkpt lat="42.69091" lon="2.10088">
        <ele>1300</ele>
        <time>2021-12-05T19:08:07Z</time>
      </trkpt>
      <trkpt lat="42.69066" lon="2.10123">
        <ele>1305</ele>
        <time>2021-12-05T19:08:14Z</time>
      </trkpt>
      <trkpt lat="42.69049" lon="2.10142">
        <ele>1308</ele>
        <time>2021-12-05T19:08:17Z</time>
      </trkpt>
      <trkpt lat="42.69028" lon="2.10154">
        <ele>1310</ele>
        <time>2021-12-05T19:08:22Z</time>
      </trkpt>
      <trkpt lat="42.68966" lon="2.10155">
        <ele>1308</ele>
        <time>2021-12-05T19:08:33Z</time>
      </trkpt>
      <trkpt lat="42.68958" lon="2.10164">
        <ele>1310</ele>
        <time>2021-12-05T19:08:34Z</time>
      </trkpt>
      <trkpt lat="42.68962" lon="2.10174">
        <ele>1312</ele>
        <time>2021-12-05T19:08:36Z</time>
      </trkpt>
      <trkpt lat="42.68994" lon="2.10171">
        <ele>1311</ele>
        <time>2021-12-05T19:08:42Z</time>
      </trkpt>
      <trkpt lat="42.69063" lon="2.10178">
        <ele>1319</ele>
        <time>2021-12-05T19:08:54Z</time>
      </trkpt>
      <trkpt lat="42.69082" lon="2.10165">
        <ele>1316</ele>
        <time>2021-12-05T19:08:58Z</time>
      </trkpt>
      <trkpt lat="42.69095" lon="2.10161">
        <ele>1319</ele>
        <time>2021-12-05T19:09:00Z</time>
      </trkpt>
      <trkpt lat="42.69102" lon="2.1017">
        <ele>1324</ele>
        <time>2021-12-05T19:09:02Z</time>
      </trkpt>
      <trkpt lat="42.69102" lon="2.10182">
        <ele>1328</ele>
        <time>2021-12-05T19:09:03Z</time>
      </trkpt>
      <trkpt lat="42.69086" lon="2.10194">
        <ele>1327</ele>
        <time>2021-12-05T19:09:07Z</time>
      </trkpt>
      <trkpt lat="42.68999" lon="2.10207">
        <ele>1324</ele>
        <time>2021-12-05T19:09:22Z</time>
      </trkpt>
      <trkpt lat="42.68933" lon="2.1022">
        <ele>1324</ele>
        <time>2021-12-05T19:09:34Z</time>
      </trkpt>
      <trkpt lat="42.68917" lon="2.10231">
        <ele>1325</ele>
        <time>2021-12-05T19:09:37Z</time>
      </trkpt>
      <trkpt lat="42.68856" lon="2.10344">
        <ele>1340</ele>
        <time>2021-12-05T19:09:56Z</time>
      </trkpt>
      <trkpt lat="42.68747" lon="2.10563">
        <ele>1355</ele>
        <time>2021-12-05T19:10:30Z</time>
      </trkpt>
      <trkpt lat="42.68734" lon="2.10622">
        <ele>1360</ele>
        <time>2021-12-05T19:10:38Z</time>
      </trkpt>
      <trkpt lat="42.68736" lon="2.1066">
        <ele>1365</ele>
        <time>2021-12-05T19:10:43Z</time>
      </trkpt>
      <trkpt lat="42.68744" lon="2.10702">
        <ele>1371</ele>
        <time>2021-12-05T19:10:49Z</time>
      </trkpt>
      <trkpt lat="42.6874" lon="2.10716">
        <ele>1372</ele>
        <time>2021-12-05T19:10:51Z</time>
      </trkpt>
      <trkpt lat="42.68733" lon="2.10721">
        <ele>1372</ele>
        <time>2021-12-05T19:10:52Z</time>
      </trkpt>
      <trkpt lat="42.68673" lon="2.1073">
        <ele>1369</ele>
        <time>2021-12-05T19:11:03Z</time>
      </trkpt>
      <trkpt lat="42.68651" lon="2.1074">
        <ele>1372</ele>
        <time>2021-12-05T19:11:07Z</time>
      </trkpt>
      <trkpt lat="42.68604" lon="2.10786">
        <ele>1381</ele>
        <time>2021-12-05T19:11:17Z</time>
      </trkpt>
      <trkpt lat="42.68579" lon="2.10838">
        <ele>1387</ele>
        <time>2021-12-05T19:11:26Z</time>
      </trkpt>
      <trkpt lat="42.68573" lon="2.10881">
        <ele>1391</ele>
        <time>2021-12-05T19:11:31Z</time>
      </trkpt>
      <trkpt lat="42.6857" lon="2.10944">
        <ele>1395</ele>
        <time>2021-12-05T19:11:40Z</time>
      </trkpt>
      <trkpt lat="42.68564" lon="2.1096">
        <ele>1396</ele>
        <time>2021-12-05T19:11:42Z</time>
      </trkpt>
      <trkpt lat="42.68545" lon="2.10986">
        <ele>1398</ele>
        <time>2021-12-05T19:11:47Z</time>
      </trkpt>
      <trkpt lat="42.68515" lon="2.11036">
        <ele>1401</ele>
        <time>2021-12-05T19:11:55Z</time>
      </trkpt>
      <trkpt lat="42.68504" lon="2.11062">
        <ele>1403</ele>
        <time>2021-12-05T19:11:59Z</time>
      </trkpt>
      <trkpt lat="42.68493" lon="2.11076">
        <ele>1404</ele>
        <time>2021-12-05T19:12:02Z</time>
      </trkpt>
      <trkpt lat="42.68472" lon="2.11091">
        <ele>1404</ele>
        <time>2021-12-05T19:12:06Z</time>
      </trkpt>
      <trkpt lat="42.68456" lon="2.11107">
        <ele>1404</ele>
        <time>2021-12-05T19:12:09Z</time>
      </trkpt>
      <trkpt lat="42.68445" lon="2.11127">
        <ele>1405</ele>
        <time>2021-12-05T19:12:13Z</time>
      </trkpt>
      <trkpt lat="42.68435" lon="2.11154">
        <ele>1405</ele>
        <time>2021-12-05T19:12:17Z</time>
      </trkpt>
      <trkpt lat="42.68432" lon="2.11184">
        <ele>1407</ele>
        <time>2021-12-05T19:12:21Z</time>
      </trkpt>
      <trkpt lat="42.68424" lon="2.11222">
        <ele>1408</ele>
        <time>2021-12-05T19:12:26Z</time>
      </trkpt>
      <trkpt lat="42.68406" lon="2.11272">
        <ele>1411</ele>
        <time>2021-12-05T19:12:33Z</time>
      </trkpt>
      <trkpt lat="42.68391" lon="2.1134">
        <ele>1418</ele>
        <time>2021-12-05T19:12:42Z</time>
      </trkpt>
      <trkpt lat="42.68377" lon="2.1141">
        <ele>1423</ele>
        <time>2021-12-05T19:12:52Z</time>
      </trkpt>
      <trkpt lat="42.68371" lon="2.11458">
        <ele>1427</ele>
        <time>2021-12-05T19:12:58Z</time>
      </trkpt>
      <trkpt lat="42.6837" lon="2.11531">
        <ele>1432</ele>
        <time>2021-12-05T19:13:08Z</time>
      </trkpt>
      <trkpt lat="42.68372" lon="2.1159">
        <ele>1433</ele>
        <time>2021-12-05T19:13:16Z</time>
      </trkpt>
      <trkpt lat="42.68365" lon="2.11629">
        <ele>1435</ele>
        <time>2021-12-05T19:13:21Z</time>
      </trkpt>
      <trkpt lat="42.68335" lon="2.1169">
        <ele>1440</ele>
        <time>2021-12-05T19:13:30Z</time>
      </trkpt>
      <trkpt lat="42.68296" lon="2.11762">
        <ele>1445</ele>
        <time>2021-12-05T19:13:42Z</time>
      </trkpt>
      <trkpt lat="42.68266" lon="2.11827">
        <ele>1450</ele>
        <time>2021-12-05T19:13:52Z</time>
      </trkpt>
      <trkpt lat="42.68261" lon="2.1185">
        <ele>1452</ele>
        <time>2021-12-05T19:13:55Z</time>
      </trkpt>
      <trkpt lat="42.6826" lon="2.11881">
        <ele>1454</ele>
        <time>2021-12-05T19:13:59Z</time>
      </trkpt>
      <trkpt lat="42.68291" lon="2.11998">
        <ele>1463</ele>
        <time>2021-12-05T19:14:16Z</time>
      </trkpt>
      <trkpt lat="42.68303" lon="2.12052">
        <ele>1467</ele>
        <time>2021-12-05T19:14:23Z</time>
      </trkpt>
      <trkpt lat="42.68304" lon="2.12093">
        <ele>1469</ele>
        <time>2021-12-05T19:14:28Z</time>
      </trkpt>
      <trkpt lat="42.68292" lon="2.12149">
        <ele>1472</ele>
        <time>2021-12-05T19:14:36Z</time>
      </trkpt>
      <trkpt lat="42.68284" lon="2.12175">
        <ele>1473</ele>
        <time>2021-12-05T19:14:40Z</time>
      </trkpt>
      <trkpt lat="42.68284" lon="2.12231">
        <ele>1475</ele>
        <time>2021-12-05T19:14:47Z</time>
      </trkpt>
      <trkpt lat="42.68304" lon="2.12379">
        <ele>1481</ele>
        <time>2021-12-05T19:15:07Z</time>
      </trkpt>
      <trkpt lat="42.68314" lon="2.12428">
        <ele>1481</ele>
        <time>2021-12-05T19:15:13Z</time>
      </trkpt>
      <trkpt lat="42.68316" lon="2.12458">
        <ele>1479</ele>
        <time>2021-12-05T19:15:17Z</time>
      </trkpt>
      <trkpt lat="42.68315" lon="2.12477">
        <ele>1479</ele>
        <time>2021-12-05T19:15:20Z</time>
      </trkpt>
      <trkpt lat="42.68309" lon="2.125">
        <ele>1478</ele>
        <time>2021-12-05T19:15:23Z</time>
      </trkpt>
      <trkpt lat="42.68299" lon="2.12511">
        <ele>1478</ele>
        <time>2021-12-05T19:15:25Z</time>
      </trkpt>
      <trkpt lat="42.68283" lon="2.12524">
        <ele>1477</ele>
        <time>2021-12-05T19:15:29Z</time>
      </trkpt>
      <trkpt lat="42.68233" lon="2.12538">
        <ele>1481</ele>
        <time>2021-12-05T19:15:38Z</time>
      </trkpt>
      <trkpt lat="42.6822" lon="2.12547">
        <ele>1483</ele>
        <time>2021-12-05T19:15:40Z</time>
      </trkpt>
      <trkpt lat="42.68208" lon="2.12559">
        <ele>1483</ele>
        <time>2021-12-05T19:15:43Z</time>
      </trkpt>
      <trkpt lat="42.68197" lon="2.12577">
        <ele>1483</ele>
        <time>2021-12-05T19:15:46Z</time>
      </trkpt>
      <trkpt lat="42.68196" lon="2.12589">
        <ele>1482</ele>
        <time>2021-12-05T19:15:47Z</time>
      </trkpt>
      <trkpt lat="42.68198" lon="2.126">
        <ele>1480</ele>
        <time>2021-12-05T19:15:49Z</time>
      </trkpt>
      <trkpt lat="42.68208" lon="2.12623">
        <ele>1476</ele>
        <time>2021-12-05T19:15:52Z</time>
      </trkpt>
      <trkpt lat="42.68219" lon="2.12666">
        <ele>1469</ele>
        <time>2021-12-05T19:15:58Z</time>
      </trkpt>
      <trkpt lat="42.68218" lon="2.12698">
        <ele>1466</ele>
        <time>2021-12-05T19:16:03Z</time>
      </trkpt>
      <trkpt lat="42.68204" lon="2.12726">
        <ele>1468</ele>
        <time>2021-12-05T19:16:07Z</time>
      </trkpt>
      <trkpt lat="42.6813" lon="2.12814">
        <ele>1474</ele>
        <time>2021-12-05T19:16:25Z</time>
      </trkpt>
      <trkpt lat="42.68095" lon="2.12883">
        <ele>1470</ele>
        <time>2021-12-05T19:16:35Z</time>
      </trkpt>
      <trkpt lat="42.68043" lon="2.12953">
        <ele>1468</ele>
        <time>2021-12-05T19:16:48Z</time>
      </trkpt>
      <trkpt lat="42.68002" lon="2.1299">
        <ele>1468</ele>
        <time>2021-12-05T19:16:57Z</time>
      </trkpt>
      <trkpt lat="42.67946" lon="2.13066">
        <ele>1461</ele>
        <time>2021-12-05T19:17:11Z</time>
      </trkpt>
      <trkpt lat="42.67897" lon="2.1312">
        <ele>1461</ele>
        <time>2021-12-05T19:17:23Z</time>
      </trkpt>
      <trkpt lat="42.67877" lon="2.13134">
        <ele>1463</ele>
        <time>2021-12-05T19:17:27Z</time>
      </trkpt>
      <trkpt lat="42.67829" lon="2.13216">
        <ele>1459</ele>
        <time>2021-12-05T19:17:40Z</time>
      </trkpt>
      <trkpt lat="42.67815" lon="2.13248">
        <ele>1455</ele>
        <time>2021-12-05T19:17:45Z</time>
      </trkpt>
      <trkpt lat="42.67804" lon="2.13268">
        <ele>1452</ele>
        <time>2021-12-05T19:17:48Z</time>
      </trkpt>
      <trkpt lat="42.67789" lon="2.13273">
        <ele>1452</ele>
        <time>2021-12-05T19:17:51Z</time>
      </trkpt>
      <trkpt lat="42.67773" lon="2.13267">
        <ele>1455</ele>
        <time>2021-12-05T19:17:54Z</time>
      </trkpt>
      <trkpt lat="42.67737" lon="2.13266">
        <ele>1458</ele>
        <time>2021-12-05T19:18:01Z</time>
      </trkpt>
      <trkpt lat="42.67708" lon="2.13279">
        <ele>1457</ele>
        <time>2021-12-05T19:18:06Z</time>
      </trkpt>
      <trkpt lat="42.67679" lon="2.13286">
        <ele>1457</ele>
        <time>2021-12-05T19:18:11Z</time>
      </trkpt>
      <trkpt lat="42.67663" lon="2.13298">
        <ele>1457</ele>
        <time>2021-12-05T19:18:14Z</time>
      </trkpt>
      <trkpt lat="42.67655" lon="2.13315">
        <ele>1456</ele>
        <time>2021-12-05T19:18:17Z</time>
      </trkpt>
      <trkpt lat="42.67642" lon="2.13379">
        <ele>1454</ele>
        <time>2021-12-05T19:18:26Z</time>
      </trkpt>
      <trkpt lat="42.67635" lon="2.1344">
        <ele>1451</ele>
        <time>2021-12-05T19:18:34Z</time>
      </trkpt>
      <trkpt lat="42.6764" lon="2.13494">
        <ele>1445</ele>
        <time>2021-12-05T19:18:41Z</time>
      </trkpt>
      <trkpt lat="42.67632" lon="2.1353">
        <ele>1444</ele>
        <time>2021-12-05T19:18:46Z</time>
      </trkpt>
      <trkpt lat="42.67617" lon="2.13582">
        <ele>1443</ele>
        <time>2021-12-05T19:18:53Z</time>
      </trkpt>
      <trkpt lat="42.67606" lon="2.13605">
        <ele>1441</ele>
        <time>2021-12-05T19:18:57Z</time>
      </trkpt>
      <trkpt lat="42.67582" lon="2.13625">
        <ele>1442</ele>
        <time>2021-12-05T19:19:02Z</time>
      </trkpt>
      <trkpt lat="42.67548" lon="2.13638">
        <ele>1439</ele>
        <time>2021-12-05T19:19:08Z</time>
      </trkpt>
      <trkpt lat="42.67502" lon="2.13648">
        <ele>1436</ele>
        <time>2021-12-05T19:19:16Z</time>
      </trkpt>
      <trkpt lat="42.67487" lon="2.13643">
        <ele>1437</ele>
        <time>2021-12-05T19:19:19Z</time>
      </trkpt>
      <trkpt lat="42.67468" lon="2.13628">
        <ele>1442</ele>
        <time>2021-12-05T19:19:23Z</time>
      </trkpt>
      <trkpt lat="42.67402" lon="2.1363">
        <ele>1439</ele>
        <time>2021-12-05T19:19:35Z</time>
      </trkpt>
      <trkpt lat="42.6737" lon="2.13619">
        <ele>1446</ele>
        <time>2021-12-05T19:19:41Z</time>
      </trkpt>
      <trkpt lat="42.67344" lon="2.13618">
        <ele>1448</ele>
        <time>2021-12-05T19:19:45Z</time>
      </trkpt>
      <trkpt lat="42.6733" lon="2.13629">
        <ele>1443</ele>
        <time>2021-12-05T19:19:48Z</time>
      </trkpt>
      <trkpt lat="42.67301" lon="2.13645">
        <ele>1436</ele>
        <time>2021-12-05T19:19:54Z</time>
      </trkpt>
      <trkpt lat="42.67272" lon="2.13648">
        <ele>1436</ele>
        <time>2021-12-05T19:19:59Z</time>
      </trkpt>
      <trkpt lat="42.67235" lon="2.13665">
        <ele>1427</ele>
        <time>2021-12-05T19:20:06Z</time>
      </trkpt>
      <trkpt lat="42.67214" lon="2.13666">
        <ele>1424</ele>
        <time>2021-12-05T19:20:10Z</time>
      </trkpt>
      <trkpt lat="42.67199" lon="2.13654">
        <ele>1425</ele>
        <time>2021-12-05T19:20:13Z</time>
      </trkpt>
      <trkpt lat="42.67184" lon="2.13612">
        <ele>1437</ele>
        <time>2021-12-05T19:20:19Z</time>
      </trkpt>
      <trkpt lat="42.67169" lon="2.13587">
        <ele>1441</ele>
        <time>2021-12-05T19:20:23Z</time>
      </trkpt>
      <trkpt lat="42.67151" lon="2.13572">
        <ele>1444</ele>
        <time>2021-12-05T19:20:27Z</time>
      </trkpt>
      <trkpt lat="42.67129" lon="2.13562">
        <ele>1444</ele>
        <time>2021-12-05T19:20:31Z</time>
      </trkpt>
      <trkpt lat="42.67088" lon="2.13561">
        <ele>1438</ele>
        <time>2021-12-05T19:20:38Z</time>
      </trkpt>
      <trkpt lat="42.67056" lon="2.13566">
        <ele>1437</ele>
        <time>2021-12-05T19:20:44Z</time>
      </trkpt>
      <trkpt lat="42.67038" lon="2.13551">
        <ele>1444</ele>
        <time>2021-12-05T19:20:48Z</time>
      </trkpt>
      <trkpt lat="42.67029" lon="2.13547">
        <ele>1446</ele>
        <time>2021-12-05T19:20:49Z</time>
      </trkpt>
      <trkpt lat="42.6701" lon="2.13557">
        <ele>1444</ele>
        <time>2021-12-05T19:20:53Z</time>
      </trkpt>
      <trkpt lat="42.66981" lon="2.13588">
        <ele>1437</ele>
        <time>2021-12-05T19:21:00Z</time>
      </trkpt>
      <trkpt lat="42.66943" lon="2.13609">
        <ele>1434</ele>
        <time>2021-12-05T19:21:07Z</time>
      </trkpt>
      <trkpt lat="42.66927" lon="2.13627">
        <ele>1429</ele>
        <time>2021-12-05T19:21:11Z</time>
      </trkpt>
      <trkpt lat="42.66911" lon="2.1363">
        <ele>1428</ele>
        <time>2021-12-05T19:21:13Z</time>
      </trkpt>
      <trkpt lat="42.66898" lon="2.13626">
        <ele>1427</ele>
        <time>2021-12-05T19:21:16Z</time>
      </trkpt>
      <trkpt lat="42.66879" lon="2.1361">
        <ele>1431</ele>
        <time>2021-12-05T19:21:20Z</time>
      </trkpt>
      <trkpt lat="42.66845" lon="2.13591">
        <ele>1433</ele>
        <time>2021-12-05T19:21:26Z</time>
      </trkpt>
      <trkpt lat="42.66817" lon="2.13571">
        <ele>1435</ele>
        <time>2021-12-05T19:21:32Z</time>
      </trkpt>
      <trkpt lat="42.66777" lon="2.13536">
        <ele>1438</ele>
        <time>2021-12-05T19:21:40Z</time>
      </trkpt>
      <trkpt lat="42.6675" lon="2.13517">
        <ele>1437</ele>
        <time>2021-12-05T19:21:46Z</time>
      </trkpt>
      <trkpt lat="42.66734" lon="2.13513">
        <ele>1432</ele>
        <time>2021-12-05T19:21:49Z</time>
      </trkpt>
      <trkpt lat="42.66716" lon="2.13508">
        <ele>1426</ele>
        <time>2021-12-05T19:21:52Z</time>
      </trkpt>
      <trkpt lat="42.66707" lon="2.13499">
        <ele>1425</ele>
        <time>2021-12-05T19:21:54Z</time>
      </trkpt>
      <trkpt lat="42.66684" lon="2.13449">
        <ele>1433</ele>
        <time>2021-12-05T19:22:02Z</time>
      </trkpt>
      <trkpt lat="42.6664" lon="2.13371">
        <ele>1443</ele>
        <time>2021-12-05T19:22:15Z</time>
      </trkpt>
      <trkpt lat="42.66583" lon="2.13289">
        <ele>1439</ele>
        <time>2021-12-05T19:22:29Z</time>
      </trkpt>
      <trkpt lat="42.66575" lon="2.13263">
        <ele>1439</ele>
        <time>2021-12-05T19:22:33Z</time>
      </trkpt>
      <trkpt lat="42.6657" lon="2.13241">
        <ele>1439</ele>
        <time>2021-12-05T19:22:36Z</time>
      </trkpt>
      <trkpt lat="42.66576" lon="2.13175">
        <ele>1439</ele>
        <time>2021-12-05T19:22:45Z</time>
      </trkpt>
      <trkpt lat="42.66594" lon="2.13137">
        <ele>1441</ele>
        <time>2021-12-05T19:22:51Z</time>
      </trkpt>
      <trkpt lat="42.666" lon="2.13099">
        <ele>1437</ele>
        <time>2021-12-05T19:22:56Z</time>
      </trkpt>
      <trkpt lat="42.66606" lon="2.13079">
        <ele>1436</ele>
        <time>2021-12-05T19:22:59Z</time>
      </trkpt>
      <trkpt lat="42.66638" lon="2.13057">
        <ele>1443</ele>
        <time>2021-12-05T19:23:05Z</time>
      </trkpt>
      <trkpt lat="42.66645" lon="2.13043">
        <ele>1444</ele>
        <time>2021-12-05T19:23:07Z</time>
      </trkpt>
      <trkpt lat="42.66642" lon="2.13018">
        <ele>1442</ele>
        <time>2021-12-05T19:23:10Z</time>
      </trkpt>
      <trkpt lat="42.66622" lon="2.1298">
        <ele>1440</ele>
        <time>2021-12-05T19:23:17Z</time>
      </trkpt>
      <trkpt lat="42.66599" lon="2.12953">
        <ele>1438</ele>
        <time>2021-12-05T19:23:22Z</time>
      </trkpt>
      <trkpt lat="42.66579" lon="2.12942">
        <ele>1436</ele>
        <time>2021-12-05T19:23:26Z</time>
      </trkpt>
      <trkpt lat="42.66517" lon="2.12938">
        <ele>1431</ele>
        <time>2021-12-05T19:23:37Z</time>
      </trkpt>
      <trkpt lat="42.66506" lon="2.12932">
        <ele>1431</ele>
        <time>2021-12-05T19:23:39Z</time>
      </trkpt>
      <trkpt lat="42.66498" lon="2.12922">
        <ele>1430</ele>
        <time>2021-12-05T19:23:41Z</time>
      </trkpt>
      <trkpt lat="42.66486" lon="2.12893">
        <ele>1431</ele>
        <time>2021-12-05T19:23:45Z</time>
      </trkpt>
      <trkpt lat="42.66474" lon="2.12883">
        <ele>1430</ele>
        <time>2021-12-05T19:23:48Z</time>
      </trkpt>
      <trkpt lat="42.66463" lon="2.12879">
        <ele>1429</ele>
        <time>2021-12-05T19:23:50Z</time>
      </trkpt>
      <trkpt lat="42.66402" lon="2.12871">
        <ele>1422</ele>
        <time>2021-12-05T19:24:01Z</time>
      </trkpt>
      <trkpt lat="42.66392" lon="2.1286">
        <ele>1421</ele>
        <time>2021-12-05T19:24:03Z</time>
      </trkpt>
      <trkpt lat="42.66384" lon="2.1284">
        <ele>1420</ele>
        <time>2021-12-05T19:24:06Z</time>
      </trkpt>
      <trkpt lat="42.66384" lon="2.12793">
        <ele>1423</ele>
        <time>2021-12-05T19:24:12Z</time>
      </trkpt>
      <trkpt lat="42.66377" lon="2.12783">
        <ele>1423</ele>
        <time>2021-12-05T19:24:14Z</time>
      </trkpt>
      <trkpt lat="42.66365" lon="2.12778">
        <ele>1421</ele>
        <time>2021-12-05T19:24:16Z</time>
      </trkpt>
      <trkpt lat="42.66341" lon="2.12777">
        <ele>1417</ele>
        <time>2021-12-05T19:24:20Z</time>
      </trkpt>
      <trkpt lat="42.66324" lon="2.12768">
        <ele>1414</ele>
        <time>2021-12-05T19:24:24Z</time>
      </trkpt>
      <trkpt lat="42.66249" lon="2.12656">
        <ele>1408</ele>
        <time>2021-12-05T19:24:43Z</time>
      </trkpt>
      <trkpt lat="42.66223" lon="2.12593">
        <ele>1416</ele>
        <time>2021-12-05T19:24:53Z</time>
      </trkpt>
      <trkpt lat="42.66211" lon="2.12581">
        <ele>1415</ele>
        <time>2021-12-05T19:24:56Z</time>
      </trkpt>
      <trkpt lat="42.662" lon="2.12579">
        <ele>1412</ele>
        <time>2021-12-05T19:24:58Z</time>
      </trkpt>
      <trkpt lat="42.66185" lon="2.12572">
        <ele>1408</ele>
        <time>2021-12-05T19:25:00Z</time>
      </trkpt>
      <trkpt lat="42.66175" lon="2.12559">
        <ele>1408</ele>
        <time>2021-12-05T19:25:03Z</time>
      </trkpt>
      <trkpt lat="42.66156" lon="2.12525">
        <ele>1411</ele>
        <time>2021-12-05T19:25:08Z</time>
      </trkpt>
      <trkpt lat="42.6615" lon="2.12522">
        <ele>1410</ele>
        <time>2021-12-05T19:25:10Z</time>
      </trkpt>
      <trkpt lat="42.66133" lon="2.12524">
        <ele>1405</ele>
        <time>2021-12-05T19:25:13Z</time>
      </trkpt>
      <trkpt lat="42.66117" lon="2.12523">
        <ele>1401</ele>
        <time>2021-12-05T19:25:15Z</time>
      </trkpt>
      <trkpt lat="42.66098" lon="2.12514">
        <ele>1397</ele>
        <time>2021-12-05T19:25:19Z</time>
      </trkpt>
      <trkpt lat="42.66089" lon="2.125">
        <ele>1397</ele>
        <time>2021-12-05T19:25:21Z</time>
      </trkpt>
      <trkpt lat="42.66076" lon="2.12459">
        <ele>1403</ele>
        <time>2021-12-05T19:25:27Z</time>
      </trkpt>
      <trkpt lat="42.66064" lon="2.12429">
        <ele>1405</ele>
        <time>2021-12-05T19:25:32Z</time>
      </trkpt>
      <trkpt lat="42.66056" lon="2.12415">
        <ele>1405</ele>
        <time>2021-12-05T19:25:34Z</time>
      </trkpt>
      <trkpt lat="42.66025" lon="2.12384">
        <ele>1400</ele>
        <time>2021-12-05T19:25:41Z</time>
      </trkpt>
      <trkpt lat="42.66006" lon="2.12354">
        <ele>1398</ele>
        <time>2021-12-05T19:25:46Z</time>
      </trkpt>
      <trkpt lat="42.65999" lon="2.12347">
        <ele>1398</ele>
        <time>2021-12-05T19:25:48Z</time>
      </trkpt>
      <trkpt lat="42.6599" lon="2.12345">
        <ele>1398</ele>
        <time>2021-12-05T19:25:49Z</time>
      </trkpt>
      <trkpt lat="42.65975" lon="2.12351">
        <ele>1396</ele>
        <time>2021-12-05T19:25:52Z</time>
      </trkpt>
      <trkpt lat="42.65956" lon="2.12354">
        <ele>1395</ele>
        <time>2021-12-05T19:25:55Z</time>
      </trkpt>
      <trkpt lat="42.65913" lon="2.12359">
        <ele>1393</ele>
        <time>2021-12-05T19:26:03Z</time>
      </trkpt>
      <trkpt lat="42.6589" lon="2.12368">
        <ele>1391</ele>
        <time>2021-12-05T19:26:07Z</time>
      </trkpt>
      <trkpt lat="42.65838" lon="2.12407">
        <ele>1384</ele>
        <time>2021-12-05T19:26:18Z</time>
      </trkpt>
      <trkpt lat="42.65828" lon="2.12411">
        <ele>1383</ele>
        <time>2021-12-05T19:26:20Z</time>
      </trkpt>
      <trkpt lat="42.65808" lon="2.12409">
        <ele>1384</ele>
        <time>2021-12-05T19:26:23Z</time>
      </trkpt>
      <trkpt lat="42.65764" lon="2.12395">
        <ele>1388</ele>
        <time>2021-12-05T19:26:31Z</time>
      </trkpt>
      <trkpt lat="42.65743" lon="2.12384">
        <ele>1390</ele>
        <time>2021-12-05T19:26:35Z</time>
      </trkpt>
      <trkpt lat="42.65726" lon="2.12372">
        <ele>1393</ele>
        <time>2021-12-05T19:26:39Z</time>
      </trkpt>
      <trkpt lat="42.65715" lon="2.12357">
        <ele>1396</ele>
        <time>2021-12-05T19:26:42Z</time>
      </trkpt>
      <trkpt lat="42.65708" lon="2.12349">
        <ele>1398</ele>
        <time>2021-12-05T19:26:43Z</time>
      </trkpt>
      <trkpt lat="42.65679" lon="2.12329">
        <ele>1404</ele>
        <time>2021-12-05T19:26:49Z</time>
      </trkpt>
      <trkpt lat="42.65662" lon="2.12327">
        <ele>1406</ele>
        <time>2021-12-05T19:26:52Z</time>
      </trkpt>
      <trkpt lat="42.6564" lon="2.12331">
        <ele>1410</ele>
        <time>2021-12-05T19:26:56Z</time>
      </trkpt>
      <trkpt lat="42.65599" lon="2.12352">
        <ele>1413</ele>
        <time>2021-12-05T19:27:04Z</time>
      </trkpt>
      <trkpt lat="42.65576" lon="2.12367">
        <ele>1412</ele>
        <time>2021-12-05T19:27:08Z</time>
      </trkpt>
      <trkpt lat="42.65559" lon="2.12385">
        <ele>1409</ele>
        <time>2021-12-05T19:27:12Z</time>
      </trkpt>
      <trkpt lat="42.65556" lon="2.12389">
        <ele>1408</ele>
        <time>2021-12-05T19:27:13Z</time>
      </trkpt>
      <trkpt lat="42.65485" lon="2.1239">
        <ele>1413</ele>
        <time>2021-12-05T19:27:26Z</time>
      </trkpt>
      <trkpt lat="42.65423" lon="2.12385">
        <ele>1412</ele>
        <time>2021-12-05T19:27:37Z</time>
      </trkpt>
      <trkpt lat="42.65402" lon="2.12378">
        <ele>1412</ele>
        <time>2021-12-05T19:27:40Z</time>
      </trkpt>
      <trkpt lat="42.65391" lon="2.1237">
        <ele>1413</ele>
        <time>2021-12-05T19:27:43Z</time>
      </trkpt>
      <trkpt lat="42.65328" lon="2.12312">
        <ele>1416</ele>
        <time>2021-12-05T19:27:56Z</time>
      </trkpt>
      <trkpt lat="42.65314" lon="2.12303">
        <ele>1419</ele>
        <time>2021-12-05T19:27:59Z</time>
      </trkpt>
      <trkpt lat="42.65302" lon="2.12299">
        <ele>1420</ele>
        <time>2021-12-05T19:28:01Z</time>
      </trkpt>
      <trkpt lat="42.65287" lon="2.12297">
        <ele>1420</ele>
        <time>2021-12-05T19:28:04Z</time>
      </trkpt>
      <trkpt lat="42.65272" lon="2.12298">
        <ele>1419</ele>
        <time>2021-12-05T19:28:06Z</time>
      </trkpt>
      <trkpt lat="42.65255" lon="2.12305">
        <ele>1416</ele>
        <time>2021-12-05T19:28:10Z</time>
      </trkpt>
      <trkpt lat="42.65208" lon="2.12331">
        <ele>1412</ele>
        <time>2021-12-05T19:28:19Z</time>
      </trkpt>
      <trkpt lat="42.65198" lon="2.12334">
        <ele>1412</ele>
        <time>2021-12-05T19:28:21Z</time>
      </trkpt>
      <trkpt lat="42.65188" lon="2.12333">
        <ele>1413</ele>
        <time>2021-12-05T19:28:22Z</time>
      </trkpt>
      <trkpt lat="42.65166" lon="2.12322">
        <ele>1416</ele>
        <time>2021-12-05T19:28:26Z</time>
      </trkpt>
      <trkpt lat="42.65078" lon="2.12253">
        <ele>1422</ele>
        <time>2021-12-05T19:28:45Z</time>
      </trkpt>
      <trkpt lat="42.65065" lon="2.12237">
        <ele>1424</ele>
        <time>2021-12-05T19:28:48Z</time>
      </trkpt>
      <trkpt lat="42.65058" lon="2.12224">
        <ele>1425</ele>
        <time>2021-12-05T19:28:50Z</time>
      </trkpt>
      <trkpt lat="42.65028" lon="2.12133">
        <ele>1429</ele>
        <time>2021-12-05T19:29:03Z</time>
      </trkpt>
      <trkpt lat="42.65024" lon="2.12113">
        <ele>1429</ele>
        <time>2021-12-05T19:29:06Z</time>
      </trkpt>
      <trkpt lat="42.65021" lon="2.12031">
        <ele>1435</ele>
        <time>2021-12-05T19:29:16Z</time>
      </trkpt>
      <trkpt lat="42.65018" lon="2.12007">
        <ele>1437</ele>
        <time>2021-12-05T19:29:19Z</time>
      </trkpt>
      <trkpt lat="42.65013" lon="2.11989">
        <ele>1438</ele>
        <time>2021-12-05T19:29:22Z</time>
      </trkpt>
      <trkpt lat="42.65004" lon="2.11968">
        <ele>1438</ele>
        <time>2021-12-05T19:29:25Z</time>
      </trkpt>
      <trkpt lat="42.64841" lon="2.11715">
        <ele>1447</ele>
        <time>2021-12-05T19:30:09Z</time>
      </trkpt>
      <trkpt lat="42.64826" lon="2.11696">
        <ele>1447</ele>
        <time>2021-12-05T19:30:13Z</time>
      </trkpt>
      <trkpt lat="42.64634" lon="2.11494">
        <ele>1456</ele>
        <time>2021-12-05T19:30:56Z</time>
      </trkpt>
      <trkpt lat="42.64601" lon="2.1146">
        <ele>1457</ele>
        <time>2021-12-05T19:31:03Z</time>
      </trkpt>
      <trkpt lat="42.6449" lon="2.11356">
        <ele>1457</ele>
        <time>2021-12-05T19:31:27Z</time>
      </trkpt>
      <trkpt lat="42.64473" lon="2.11335">
        <ele>1456</ele>
        <time>2021-12-05T19:31:31Z</time>
      </trkpt>
      <trkpt lat="42.64464" lon="2.11315">
        <ele>1455</ele>
        <time>2021-12-05T19:31:35Z</time>
      </trkpt>
      <trkpt lat="42.64456" lon="2.11284">
        <ele>1455</ele>
        <time>2021-12-05T19:31:39Z</time>
      </trkpt>
      <trkpt lat="42.64435" lon="2.11194">
        <ele>1455</ele>
        <time>2021-12-05T19:31:51Z</time>
      </trkpt>
      <trkpt lat="42.64442" lon="2.11189">
        <ele>1456</ele>
        <time>2021-12-05T19:31:53Z</time>
      </trkpt>
      <trkpt lat="42.64439" lon="2.11183">
        <ele>1456</ele>
        <time>2021-12-05T19:31:54Z</time>
      </trkpt>
      <trkpt lat="42.64423" lon="2.11152">
        <ele>1454</ele>
        <time>2021-12-05T19:31:58Z</time>
      </trkpt>
      <trkpt lat="42.64419" lon="2.11147">
        <ele>1454</ele>
        <time>2021-12-05T19:31:59Z</time>
      </trkpt>
      <trkpt lat="42.64415" lon="2.11143">
        <ele>1453</ele>
        <time>2021-12-05T19:32:00Z</time>
      </trkpt>
      <trkpt lat="42.64407" lon="2.11135">
        <ele>1453</ele>
        <time>2021-12-05T19:32:02Z</time>
      </trkpt>
      <trkpt lat="42.64369" lon="2.11113">
        <ele>1449</ele>
        <time>2021-12-05T19:32:09Z</time>
      </trkpt>
      <trkpt lat="42.64354" lon="2.1111">
        <ele>1448</ele>
        <time>2021-12-05T19:32:12Z</time>
      </trkpt>
      <trkpt lat="42.64342" lon="2.11113">
        <ele>1447</ele>
        <time>2021-12-05T19:32:14Z</time>
      </trkpt>
      <trkpt lat="42.64334" lon="2.11115">
        <ele>1447</ele>
        <time>2021-12-05T19:32:16Z</time>
      </trkpt>
      <trkpt lat="42.64329" lon="2.11118">
        <ele>1447</ele>
        <time>2021-12-05T19:32:17Z</time>
      </trkpt>
      <trkpt lat="42.64317" lon="2.11127">
        <ele>1447</ele>
        <time>2021-12-05T19:32:19Z</time>
      </trkpt>
      <trkpt lat="42.64312" lon="2.11142">
        <ele>1447</ele>
        <time>2021-12-05T19:32:21Z</time>
      </trkpt>
      <trkpt lat="42.64275" lon="2.11167">
        <ele>1445</ele>
        <time>2021-12-05T19:32:29Z</time>
      </trkpt>
      <trkpt lat="42.64235" lon="2.11206">
        <ele>1442</ele>
        <time>2021-12-05T19:32:37Z</time>
      </trkpt>
      <trkpt lat="42.64216" lon="2.1123">
        <ele>1439</ele>
        <time>2021-12-05T19:32:42Z</time>
      </trkpt>
      <trkpt lat="42.64213" lon="2.11235">
        <ele>1439</ele>
        <time>2021-12-05T19:32:43Z</time>
      </trkpt>
      <trkpt lat="42.6421" lon="2.11239">
        <ele>1438</ele>
        <time>2021-12-05T19:32:44Z</time>
      </trkpt>
      <trkpt lat="42.64191" lon="2.11268">
        <ele>1435</ele>
        <time>2021-12-05T19:32:49Z</time>
      </trkpt>
      <trkpt lat="42.64178" lon="2.11294">
        <ele>1432</ele>
        <time>2021-12-05T19:32:53Z</time>
      </trkpt>
      <trkpt lat="42.64162" lon="2.11318">
        <ele>1430</ele>
        <time>2021-12-05T19:32:57Z</time>
      </trkpt>
      <trkpt lat="42.64139" lon="2.11352">
        <ele>1433</ele>
        <time>2021-12-05T19:33:03Z</time>
      </trkpt>
      <trkpt lat="42.64133" lon="2.11359">
        <ele>1434</ele>
        <time>2021-12-05T19:33:05Z</time>
      </trkpt>
      <trkpt lat="42.64128" lon="2.11365">
        <ele>1435</ele>
        <time>2021-12-05T19:33:06Z</time>
      </trkpt>
      <trkpt lat="42.64113" lon="2.11378">
        <ele>1438</ele>
        <time>2021-12-05T19:33:09Z</time>
      </trkpt>
      <trkpt lat="42.64106" lon="2.11385">
        <ele>1439</ele>
        <time>2021-12-05T19:33:10Z</time>
      </trkpt>
      <trkpt lat="42.64079" lon="2.11411">
        <ele>1444</ele>
        <time>2021-12-05T19:33:16Z</time>
      </trkpt>
      <trkpt lat="42.64074" lon="2.11415">
        <ele>1445</ele>
        <time>2021-12-05T19:33:17Z</time>
      </trkpt>
      <trkpt lat="42.6407" lon="2.11418">
        <ele>1445</ele>
        <time>2021-12-05T19:33:18Z</time>
      </trkpt>
      <trkpt lat="42.63972" lon="2.11507">
        <ele>1445</ele>
        <time>2021-12-05T19:33:39Z</time>
      </trkpt>
      <trkpt lat="42.63966" lon="2.11512">
        <ele>1445</ele>
        <time>2021-12-05T19:33:40Z</time>
      </trkpt>
      <trkpt lat="42.63963" lon="2.11516">
        <ele>1445</ele>
        <time>2021-12-05T19:33:41Z</time>
      </trkpt>
      <trkpt lat="42.63938" lon="2.11538">
        <ele>1446</ele>
        <time>2021-12-05T19:33:46Z</time>
      </trkpt>
      <trkpt lat="42.63927" lon="2.11541">
        <ele>1447</ele>
        <time>2021-12-05T19:33:48Z</time>
      </trkpt>
      <trkpt lat="42.63905" lon="2.1156">
        <ele>1448</ele>
        <time>2021-12-05T19:33:53Z</time>
      </trkpt>
      <trkpt lat="42.63891" lon="2.11574">
        <ele>1449</ele>
        <time>2021-12-05T19:33:56Z</time>
      </trkpt>
      <trkpt lat="42.63882" lon="2.1159">
        <ele>1449</ele>
        <time>2021-12-05T19:33:59Z</time>
      </trkpt>
      <trkpt lat="42.63854" lon="2.11615">
        <ele>1451</ele>
        <time>2021-12-05T19:34:05Z</time>
      </trkpt>
      <trkpt lat="42.6385" lon="2.11618">
        <ele>1451</ele>
        <time>2021-12-05T19:34:06Z</time>
      </trkpt>
      <trkpt lat="42.63847" lon="2.11621">
        <ele>1451</ele>
        <time>2021-12-05T19:34:06Z</time>
      </trkpt>
      <trkpt lat="42.63832" lon="2.1163">
        <ele>1452</ele>
        <time>2021-12-05T19:34:09Z</time>
      </trkpt>
      <trkpt lat="42.63818" lon="2.11643">
        <ele>1454</ele>
        <time>2021-12-05T19:34:12Z</time>
      </trkpt>
      <trkpt lat="42.63805" lon="2.11656">
        <ele>1455</ele>
        <time>2021-12-05T19:34:15Z</time>
      </trkpt>
      <trkpt lat="42.63799" lon="2.11665">
        <ele>1455</ele>
        <time>2021-12-05T19:34:17Z</time>
      </trkpt>
      <trkpt lat="42.63772" lon="2.1169">
        <ele>1456</ele>
        <time>2021-12-05T19:34:22Z</time>
      </trkpt>
      <trkpt lat="42.63759" lon="2.117">
        <ele>1456</ele>
        <time>2021-12-05T19:34:25Z</time>
      </trkpt>
      <trkpt lat="42.6374" lon="2.11707">
        <ele>1457</ele>
        <time>2021-12-05T19:34:29Z</time>
      </trkpt>
      <trkpt lat="42.6373" lon="2.11707">
        <ele>1457</ele>
        <time>2021-12-05T19:34:30Z</time>
      </trkpt>
      <trkpt lat="42.63457" lon="2.11695">
        <ele>1463</ele>
        <time>2021-12-05T19:35:19Z</time>
      </trkpt>
      <trkpt lat="42.63453" lon="2.11694">
        <ele>1463</ele>
        <time>2021-12-05T19:35:20Z</time>
      </trkpt>
      <trkpt lat="42.6345" lon="2.11694">
        <ele>1463</ele>
        <time>2021-12-05T19:35:20Z</time>
      </trkpt>
      <trkpt lat="42.63287" lon="2.11688">
        <ele>1466</ele>
        <time>2021-12-05T19:35:49Z</time>
      </trkpt>
      <trkpt lat="42.63268" lon="2.11684">
        <ele>1466</ele>
        <time>2021-12-05T19:35:53Z</time>
      </trkpt>
      <trkpt lat="42.63231" lon="2.11665">
        <ele>1468</ele>
        <time>2021-12-05T19:36:00Z</time>
      </trkpt>
      <trkpt lat="42.63177" lon="2.11632">
        <ele>1469</ele>
        <time>2021-12-05T19:36:10Z</time>
      </trkpt>
      <trkpt lat="42.63172" lon="2.11628">
        <ele>1469</ele>
        <time>2021-12-05T19:36:11Z</time>
      </trkpt>
      <trkpt lat="42.63168" lon="2.11626">
        <ele>1469</ele>
        <time>2021-12-05T19:36:12Z</time>
      </trkpt>
      <trkpt lat="42.63034" lon="2.11542">
        <ele>1476</ele>
        <time>2021-12-05T19:36:38Z</time>
      </trkpt>
      <trkpt lat="42.62971" lon="2.11501">
        <ele>1480</ele>
        <time>2021-12-05T19:36:51Z</time>
      </trkpt>
      <trkpt lat="42.62962" lon="2.11496">
        <ele>1479</ele>
        <time>2021-12-05T19:36:52Z</time>
      </trkpt>
      <trkpt lat="42.62959" lon="2.11506">
        <ele>1478</ele>
        <time>2021-12-05T19:36:54Z</time>
      </trkpt>
      <trkpt lat="42.62884" lon="2.11462">
        <ele>1477</ele>
        <time>2021-12-05T19:37:08Z</time>
      </trkpt>
      <trkpt lat="42.6264" lon="2.1133">
        <ele>1478</ele>
        <time>2021-12-05T19:37:55Z</time>
      </trkpt>
      <trkpt lat="42.62582" lon="2.11297">
        <ele>1479</ele>
        <time>2021-12-05T19:38:06Z</time>
      </trkpt>
      <trkpt lat="42.62508" lon="2.11248">
        <ele>1482</ele>
        <time>2021-12-05T19:38:21Z</time>
      </trkpt>
      <trkpt lat="42.62512" lon="2.11237">
        <ele>1483</ele>
        <time>2021-12-05T19:38:23Z</time>
      </trkpt>
      <trkpt lat="42.62419" lon="2.11177">
        <ele>1481</ele>
        <time>2021-12-05T19:38:41Z</time>
      </trkpt>
      <trkpt lat="42.62387" lon="2.1116">
        <ele>1482</ele>
        <time>2021-12-05T19:38:47Z</time>
      </trkpt>
      <trkpt lat="42.62305" lon="2.11122">
        <ele>1484</ele>
        <time>2021-12-05T19:39:02Z</time>
      </trkpt>
      <trkpt lat="42.62145" lon="2.11054">
        <ele>1487</ele>
        <time>2021-12-05T19:39:32Z</time>
      </trkpt>
      <trkpt lat="42.62122" lon="2.11043">
        <ele>1487</ele>
        <time>2021-12-05T19:39:37Z</time>
      </trkpt>
      <trkpt lat="42.62103" lon="2.11031">
        <ele>1487</ele>
        <time>2021-12-05T19:39:40Z</time>
      </trkpt>
      <trkpt lat="42.62086" lon="2.11015">
        <ele>1487</ele>
        <time>2021-12-05T19:39:44Z</time>
      </trkpt>
      <trkpt lat="42.61773" lon="2.10697">
        <ele>1493</ele>
        <time>2021-12-05T19:40:54Z</time>
      </trkpt>
      <trkpt lat="42.61761" lon="2.10696">
        <ele>1492</ele>
        <time>2021-12-05T19:40:56Z</time>
      </trkpt>
      <trkpt lat="42.61759" lon="2.10693">
        <ele>1492</ele>
        <time>2021-12-05T19:40:56Z</time>
      </trkpt>
      <trkpt lat="42.61752" lon="2.10686">
        <ele>1492</ele>
        <time>2021-12-05T19:40:58Z</time>
      </trkpt>
      <trkpt lat="42.61715" lon="2.10646">
        <ele>1494</ele>
        <time>2021-12-05T19:41:06Z</time>
      </trkpt>
      <trkpt lat="42.61675" lon="2.10613">
        <ele>1495</ele>
        <time>2021-12-05T19:41:14Z</time>
      </trkpt>
      <trkpt lat="42.61643" lon="2.10591">
        <ele>1496</ele>
        <time>2021-12-05T19:41:21Z</time>
      </trkpt>
      <trkpt lat="42.61612" lon="2.10567">
        <ele>1498</ele>
        <time>2021-12-05T19:41:27Z</time>
      </trkpt>
      <trkpt lat="42.61596" lon="2.10554">
        <ele>1499</ele>
        <time>2021-12-05T19:41:31Z</time>
      </trkpt>
      <trkpt lat="42.6158" lon="2.10541">
        <ele>1500</ele>
        <time>2021-12-05T19:41:34Z</time>
      </trkpt>
      <trkpt lat="42.61542" lon="2.10511">
        <ele>1501</ele>
        <time>2021-12-05T19:41:42Z</time>
      </trkpt>
      <trkpt lat="42.61521" lon="2.10484">
        <ele>1502</ele>
        <time>2021-12-05T19:41:47Z</time>
      </trkpt>
      <trkpt lat="42.61491" lon="2.10445">
        <ele>1504</ele>
        <time>2021-12-05T19:41:54Z</time>
      </trkpt>
      <trkpt lat="42.61475" lon="2.10425">
        <ele>1505</ele>
        <time>2021-12-05T19:41:58Z</time>
      </trkpt>
      <trkpt lat="42.6146" lon="2.10399">
        <ele>1506</ele>
        <time>2021-12-05T19:42:02Z</time>
      </trkpt>
      <trkpt lat="42.61455" lon="2.10387">
        <ele>1506</ele>
        <time>2021-12-05T19:42:04Z</time>
      </trkpt>
      <trkpt lat="42.61449" lon="2.10368">
        <ele>1507</ele>
        <time>2021-12-05T19:42:07Z</time>
      </trkpt>
      <trkpt lat="42.61445" lon="2.10351">
        <ele>1508</ele>
        <time>2021-12-05T19:42:09Z</time>
      </trkpt>
      <trkpt lat="42.61443" lon="2.10342">
        <ele>1508</ele>
        <time>2021-12-05T19:42:10Z</time>
      </trkpt>
      <trkpt lat="42.61438" lon="2.10324">
        <ele>1509</ele>
        <time>2021-12-05T19:42:13Z</time>
      </trkpt>
      <trkpt lat="42.61436" lon="2.10316">
        <ele>1509</ele>
        <time>2021-12-05T19:42:14Z</time>
      </trkpt>
      <trkpt lat="42.61433" lon="2.10303">
        <ele>1510</ele>
        <time>2021-12-05T19:42:16Z</time>
      </trkpt>
      <trkpt lat="42.61428" lon="2.10284">
        <ele>1510</ele>
        <time>2021-12-05T19:42:19Z</time>
      </trkpt>
      <trkpt lat="42.61423" lon="2.10277">
        <ele>1510</ele>
        <time>2021-12-05T19:42:20Z</time>
      </trkpt>
      <trkpt lat="42.61415" lon="2.10275">
        <ele>1510</ele>
        <time>2021-12-05T19:42:21Z</time>
      </trkpt>
      <trkpt lat="42.61406" lon="2.10274">
        <ele>1510</ele>
        <time>2021-12-05T19:42:23Z</time>
      </trkpt>
      <trkpt lat="42.61398" lon="2.10271">
        <ele>1511</ele>
        <time>2021-12-05T19:42:24Z</time>
      </trkpt>
      <trkpt lat="42.6139" lon="2.10267">
        <ele>1511</ele>
        <time>2021-12-05T19:42:26Z</time>
      </trkpt>
      <trkpt lat="42.61387" lon="2.10269">
        <ele>1511</ele>
        <time>2021-12-05T19:42:26Z</time>
      </trkpt>
      <trkpt lat="42.61382" lon="2.10271">
        <ele>1511</ele>
        <time>2021-12-05T19:42:27Z</time>
      </trkpt>
      <trkpt lat="42.61378" lon="2.10271">
        <ele>1511</ele>
        <time>2021-12-05T19:42:28Z</time>
      </trkpt>
      <trkpt lat="42.6136" lon="2.10271">
        <ele>1512</ele>
        <time>2021-12-05T19:42:31Z</time>
      </trkpt>
      <trkpt lat="42.6135" lon="2.1027">
        <ele>1512</ele>
        <time>2021-12-05T19:42:33Z</time>
      </trkpt>
      <trkpt lat="42.61343" lon="2.1027">
        <ele>1512</ele>
        <time>2021-12-05T19:42:34Z</time>
      </trkpt>
      <trkpt lat="42.61339" lon="2.10272">
        <ele>1512</ele>
        <time>2021-12-05T19:42:35Z</time>
      </trkpt>
      <trkpt lat="42.61333" lon="2.10278">
        <ele>1512</ele>
        <time>2021-12-05T19:42:36Z</time>
      </trkpt>
      <trkpt lat="42.61329" lon="2.10284">
        <ele>1513</ele>
        <time>2021-12-05T19:42:37Z</time>
      </trkpt>
      <trkpt lat="42.61325" lon="2.10298">
        <ele>1513</ele>
        <time>2021-12-05T19:42:39Z</time>
      </trkpt>
      <trkpt lat="42.61319" lon="2.10327">
        <ele>1514</ele>
        <time>2021-12-05T19:42:43Z</time>
      </trkpt>
      <trkpt lat="42.61319" lon="2.10332">
        <ele>1513</ele>
        <time>2021-12-05T19:42:44Z</time>
      </trkpt>
      <trkpt lat="42.61317" lon="2.10346">
        <ele>1514</ele>
        <time>2021-12-05T19:42:46Z</time>
      </trkpt>
      <trkpt lat="42.61313" lon="2.10374">
        <ele>1514</ele>
        <time>2021-12-05T19:42:50Z</time>
      </trkpt>
      <trkpt lat="42.61303" lon="2.10435">
        <ele>1516</ele>
        <time>2021-12-05T19:42:58Z</time>
      </trkpt>
      <trkpt lat="42.61297" lon="2.10463">
        <ele>1517</ele>
        <time>2021-12-05T19:43:02Z</time>
      </trkpt>
      <trkpt lat="42.61292" lon="2.10484">
        <ele>1518</ele>
        <time>2021-12-05T19:43:05Z</time>
      </trkpt>
      <trkpt lat="42.61285" lon="2.105">
        <ele>1519</ele>
        <time>2021-12-05T19:43:07Z</time>
      </trkpt>
      <trkpt lat="42.61284" lon="2.10502">
        <ele>1519</ele>
        <time>2021-12-05T19:43:07Z</time>
      </trkpt>
      <trkpt lat="42.61275" lon="2.10517">
        <ele>1519</ele>
        <time>2021-12-05T19:43:10Z</time>
      </trkpt>
      <trkpt lat="42.61265" lon="2.1053">
        <ele>1520</ele>
        <time>2021-12-05T19:43:12Z</time>
      </trkpt>
      <trkpt lat="42.61257" lon="2.10536">
        <ele>1521</ele>
        <time>2021-12-05T19:43:14Z</time>
      </trkpt>
      <trkpt lat="42.6124" lon="2.10545">
        <ele>1522</ele>
        <time>2021-12-05T19:43:17Z</time>
      </trkpt>
      <trkpt lat="42.61211" lon="2.10559">
        <ele>1522</ele>
        <time>2021-12-05T19:43:23Z</time>
      </trkpt>
      <trkpt lat="42.61209" lon="2.10551">
        <ele>1523</ele>
        <time>2021-12-05T19:43:24Z</time>
      </trkpt>
      <trkpt lat="42.61183" lon="2.10517">
        <ele>1524</ele>
        <time>2021-12-05T19:43:30Z</time>
      </trkpt>
      <trkpt lat="42.61179" lon="2.10503">
        <ele>1525</ele>
        <time>2021-12-05T19:43:32Z</time>
      </trkpt>
      <trkpt lat="42.61173" lon="2.10481">
        <ele>1526</ele>
        <time>2021-12-05T19:43:35Z</time>
      </trkpt>
      <trkpt lat="42.61157" lon="2.10388">
        <ele>1530</ele>
        <time>2021-12-05T19:43:48Z</time>
      </trkpt>
      <trkpt lat="42.61151" lon="2.10358">
        <ele>1532</ele>
        <time>2021-12-05T19:43:52Z</time>
      </trkpt>
      <trkpt lat="42.61147" lon="2.10344">
        <ele>1533</ele>
        <time>2021-12-05T19:43:54Z</time>
      </trkpt>
      <trkpt lat="42.61142" lon="2.10334">
        <ele>1533</ele>
        <time>2021-12-05T19:43:55Z</time>
      </trkpt>
      <trkpt lat="42.61137" lon="2.10329">
        <ele>1534</ele>
        <time>2021-12-05T19:43:56Z</time>
      </trkpt>
      <trkpt lat="42.61129" lon="2.10324">
        <ele>1535</ele>
        <time>2021-12-05T19:43:58Z</time>
      </trkpt>
      <trkpt lat="42.61122" lon="2.10322">
        <ele>1536</ele>
        <time>2021-12-05T19:43:59Z</time>
      </trkpt>
      <trkpt lat="42.61111" lon="2.10322">
        <ele>1536</ele>
        <time>2021-12-05T19:44:01Z</time>
      </trkpt>
      <trkpt lat="42.60972" lon="2.10354">
        <ele>1536</ele>
        <time>2021-12-05T19:44:26Z</time>
      </trkpt>
      <trkpt lat="42.6089" lon="2.10369">
        <ele>1539</ele>
        <time>2021-12-05T19:44:41Z</time>
      </trkpt>
      <trkpt lat="42.60864" lon="2.10368">
        <ele>1540</ele>
        <time>2021-12-05T19:44:46Z</time>
      </trkpt>
      <trkpt lat="42.60766" lon="2.10343">
        <ele>1543</ele>
        <time>2021-12-05T19:45:03Z</time>
      </trkpt>
      <trkpt lat="42.60719" lon="2.10329">
        <ele>1544</ele>
        <time>2021-12-05T19:45:12Z</time>
      </trkpt>
      <trkpt lat="42.6069" lon="2.10317">
        <ele>1544</ele>
        <time>2021-12-05T19:45:17Z</time>
      </trkpt>
      <trkpt lat="42.60648" lon="2.10291">
        <ele>1545</ele>
        <time>2021-12-05T19:45:26Z</time>
      </trkpt>
      <trkpt lat="42.60627" lon="2.1028">
        <ele>1546</ele>
        <time>2021-12-05T19:45:30Z</time>
      </trkpt>
      <trkpt lat="42.60602" lon="2.10272">
        <ele>1546</ele>
        <time>2021-12-05T19:45:34Z</time>
      </trkpt>
      <trkpt lat="42.60563" lon="2.10261">
        <ele>1549</ele>
        <time>2021-12-05T19:45:41Z</time>
      </trkpt>
      <trkpt lat="42.60539" lon="2.10254">
        <ele>1552</ele>
        <time>2021-12-05T19:45:46Z</time>
      </trkpt>
      <trkpt lat="42.6049" lon="2.10241">
        <ele>1558</ele>
        <time>2021-12-05T19:45:54Z</time>
      </trkpt>
      <trkpt lat="42.60428" lon="2.10223">
        <ele>1561</ele>
        <time>2021-12-05T19:46:06Z</time>
      </trkpt>
      <trkpt lat="42.60402" lon="2.1021">
        <ele>1563</ele>
        <time>2021-12-05T19:46:11Z</time>
      </trkpt>
      <trkpt lat="42.60383" lon="2.10194">
        <ele>1565</ele>
        <time>2021-12-05T19:46:15Z</time>
      </trkpt>
      <trkpt lat="42.60342" lon="2.10138">
        <ele>1567</ele>
        <time>2021-12-05T19:46:25Z</time>
      </trkpt>
      <trkpt lat="42.60305" lon="2.10105">
        <ele>1571</ele>
        <time>2021-12-05T19:46:33Z</time>
      </trkpt>
      <trkpt lat="42.60278" lon="2.10086">
        <ele>1573</ele>
        <time>2021-12-05T19:46:38Z</time>
      </trkpt>
      <trkpt lat="42.60228" lon="2.10062">
        <ele>1575</ele>
        <time>2021-12-05T19:46:48Z</time>
      </trkpt>
      <trkpt lat="42.60178" lon="2.10045">
        <ele>1576</ele>
        <time>2021-12-05T19:46:57Z</time>
      </trkpt>
      <trkpt lat="42.60066" lon="2.10003">
        <ele>1579</ele>
        <time>2021-12-05T19:47:18Z</time>
      </trkpt>
      <trkpt lat="42.59412" lon="2.09745">
        <ele>1596</ele>
        <time>2021-12-05T19:49:19Z</time>
      </trkpt>
      <trkpt lat="42.59372" lon="2.0972">
        <ele>1594</ele>
        <time>2021-12-05T19:49:27Z</time>
      </trkpt>
      <trkpt lat="42.59318" lon="2.09674">
        <ele>1592</ele>
        <time>2021-12-05T19:49:38Z</time>
      </trkpt>
      <trkpt lat="42.59219" lon="2.096">
        <ele>1590</ele>
        <time>2021-12-05T19:49:58Z</time>
      </trkpt>
      <trkpt lat="42.59203" lon="2.09588">
        <ele>1590</ele>
        <time>2021-12-05T19:50:01Z</time>
      </trkpt>
      <trkpt lat="42.59184" lon="2.09567">
        <ele>1590</ele>
        <time>2021-12-05T19:50:06Z</time>
      </trkpt>
      <trkpt lat="42.59132" lon="2.09506">
        <ele>1594</ele>
        <time>2021-12-05T19:50:18Z</time>
      </trkpt>
      <trkpt lat="42.59026" lon="2.09373">
        <ele>1597</ele>
        <time>2021-12-05T19:50:44Z</time>
      </trkpt>
      <trkpt lat="42.58999" lon="2.09335">
        <ele>1597</ele>
        <time>2021-12-05T19:50:50Z</time>
      </trkpt>
      <trkpt lat="42.58885" lon="2.09183">
        <ele>1600</ele>
        <time>2021-12-05T19:51:19Z</time>
      </trkpt>
      <trkpt lat="42.58847" lon="2.09111">
        <ele>1601</ele>
        <time>2021-12-05T19:51:30Z</time>
      </trkpt>
      <trkpt lat="42.58822" lon="2.09051">
        <ele>1601</ele>
        <time>2021-12-05T19:51:40Z</time>
      </trkpt>
      <trkpt lat="42.58797" lon="2.09007">
        <ele>1600</ele>
        <time>2021-12-05T19:51:47Z</time>
      </trkpt>
      <trkpt lat="42.58782" lon="2.08985">
        <ele>1600</ele>
        <time>2021-12-05T19:51:51Z</time>
      </trkpt>
      <trkpt lat="42.58757" lon="2.08956">
        <ele>1601</ele>
        <time>2021-12-05T19:51:57Z</time>
      </trkpt>
      <trkpt lat="42.58735" lon="2.08935">
        <ele>1601</ele>
        <time>2021-12-05T19:52:01Z</time>
      </trkpt>
      <trkpt lat="42.587" lon="2.08884">
        <ele>1600</ele>
        <time>2021-12-05T19:52:10Z</time>
      </trkpt>
      <trkpt lat="42.58627" lon="2.08765">
        <ele>1598</ele>
        <time>2021-12-05T19:52:31Z</time>
      </trkpt>
      <trkpt lat="42.58601" lon="2.08734">
        <ele>1597</ele>
        <time>2021-12-05T19:52:37Z</time>
      </trkpt>
      <trkpt lat="42.58587" lon="2.08713">
        <ele>1596</ele>
        <time>2021-12-05T19:52:41Z</time>
      </trkpt>
      <trkpt lat="42.58581" lon="2.08702">
        <ele>1596</ele>
        <time>2021-12-05T19:52:42Z</time>
      </trkpt>
      <trkpt lat="42.58573" lon="2.0868">
        <ele>1596</ele>
        <time>2021-12-05T19:52:46Z</time>
      </trkpt>
      <trkpt lat="42.58555" lon="2.0859">
        <ele>1597</ele>
        <time>2021-12-05T19:52:58Z</time>
      </trkpt>
      <trkpt lat="42.58544" lon="2.08563">
        <ele>1597</ele>
        <time>2021-12-05T19:53:02Z</time>
      </trkpt>
      <trkpt lat="42.58532" lon="2.08543">
        <ele>1597</ele>
        <time>2021-12-05T19:53:05Z</time>
      </trkpt>
      <trkpt lat="42.58491" lon="2.08499">
        <ele>1597</ele>
        <time>2021-12-05T19:53:15Z</time>
      </trkpt>
      <trkpt lat="42.5847" lon="2.08464">
        <ele>1597</ele>
        <time>2021-12-05T19:53:21Z</time>
      </trkpt>
      <trkpt lat="42.58429" lon="2.08391">
        <ele>1598</ele>
        <time>2021-12-05T19:53:33Z</time>
      </trkpt>
      <trkpt lat="42.58386" lon="2.08304">
        <ele>1601</ele>
        <time>2021-12-05T19:53:46Z</time>
      </trkpt>
      <trkpt lat="42.58344" lon="2.08216">
        <ele>1606</ele>
        <time>2021-12-05T19:54:00Z</time>
      </trkpt>
      <trkpt lat="42.58315" lon="2.08165">
        <ele>1608</ele>
        <time>2021-12-05T19:54:08Z</time>
      </trkpt>
      <trkpt lat="42.58271" lon="2.08118">
        <ele>1611</ele>
        <time>2021-12-05T19:54:18Z</time>
      </trkpt>
      <trkpt lat="42.5825" lon="2.08092">
        <ele>1613</ele>
        <time>2021-12-05T19:54:23Z</time>
      </trkpt>
      <trkpt lat="42.58206" lon="2.08027">
        <ele>1616</ele>
        <time>2021-12-05T19:54:35Z</time>
      </trkpt>
      <trkpt lat="42.58199" lon="2.08014">
        <ele>1616</ele>
        <time>2021-12-05T19:54:37Z</time>
      </trkpt>
      <trkpt lat="42.58188" lon="2.07982">
        <ele>1618</ele>
        <time>2021-12-05T19:54:42Z</time>
      </trkpt>
      <trkpt lat="42.58138" lon="2.07903">
        <ele>1622</ele>
        <time>2021-12-05T19:54:55Z</time>
      </trkpt>
      <trkpt lat="42.58112" lon="2.07832">
        <ele>1628</ele>
        <time>2021-12-05T19:55:06Z</time>
      </trkpt>
      <trkpt lat="42.58103" lon="2.07818">
        <ele>1629</ele>
        <time>2021-12-05T19:55:08Z</time>
      </trkpt>
      <trkpt lat="42.58067" lon="2.07789">
        <ele>1629</ele>
        <time>2021-12-05T19:55:16Z</time>
      </trkpt>
      <trkpt lat="42.58044" lon="2.07777">
        <ele>1629</ele>
        <time>2021-12-05T19:55:20Z</time>
      </trkpt>
      <trkpt lat="42.57999" lon="2.07766">
        <ele>1629</ele>
        <time>2021-12-05T19:55:28Z</time>
      </trkpt>
      <trkpt lat="42.57971" lon="2.07766">
        <ele>1628</ele>
        <time>2021-12-05T19:55:33Z</time>
      </trkpt>
      <trkpt lat="42.57947" lon="2.07763">
        <ele>1629</ele>
        <time>2021-12-05T19:55:37Z</time>
      </trkpt>
      <trkpt lat="42.57928" lon="2.07754">
        <ele>1630</ele>
        <time>2021-12-05T19:55:41Z</time>
      </trkpt>
      <trkpt lat="42.57908" lon="2.07739">
        <ele>1632</ele>
        <time>2021-12-05T19:55:45Z</time>
      </trkpt>
      <trkpt lat="42.57892" lon="2.07724">
        <ele>1632</ele>
        <time>2021-12-05T19:55:49Z</time>
      </trkpt>
      <trkpt lat="42.57832" lon="2.07648">
        <ele>1636</ele>
        <time>2021-12-05T19:56:03Z</time>
      </trkpt>
      <trkpt lat="42.57801" lon="2.07598">
        <ele>1641</ele>
        <time>2021-12-05T19:56:12Z</time>
      </trkpt>
      <trkpt lat="42.57792" lon="2.07578">
        <ele>1643</ele>
        <time>2021-12-05T19:56:15Z</time>
      </trkpt>
      <trkpt lat="42.57786" lon="2.07564">
        <ele>1644</ele>
        <time>2021-12-05T19:56:17Z</time>
      </trkpt>
      <trkpt lat="42.57783" lon="2.07549">
        <ele>1646</ele>
        <time>2021-12-05T19:56:19Z</time>
      </trkpt>
      <trkpt lat="42.57782" lon="2.07532">
        <ele>1649</ele>
        <time>2021-12-05T19:56:21Z</time>
      </trkpt>
      <trkpt lat="42.57786" lon="2.07505">
        <ele>1653</ele>
        <time>2021-12-05T19:56:25Z</time>
      </trkpt>
      <trkpt lat="42.57784" lon="2.07496">
        <ele>1653</ele>
        <time>2021-12-05T19:56:26Z</time>
      </trkpt>
      <trkpt lat="42.57762" lon="2.0745">
        <ele>1655</ele>
        <time>2021-12-05T19:56:33Z</time>
      </trkpt>
      <trkpt lat="42.57754" lon="2.07417">
        <ele>1656</ele>
        <time>2021-12-05T19:56:38Z</time>
      </trkpt>
      <trkpt lat="42.5775" lon="2.07412">
        <ele>1656</ele>
        <time>2021-12-05T19:56:39Z</time>
      </trkpt>
      <trkpt lat="42.57739" lon="2.07401">
        <ele>1656</ele>
        <time>2021-12-05T19:56:41Z</time>
      </trkpt>
      <trkpt lat="42.57742" lon="2.07396">
        <ele>1657</ele>
        <time>2021-12-05T19:56:42Z</time>
      </trkpt>
      <trkpt lat="42.57754" lon="2.07377">
        <ele>1657</ele>
        <time>2021-12-05T19:56:45Z</time>
      </trkpt>
      <trkpt lat="42.57761" lon="2.07364">
        <ele>1658</ele>
        <time>2021-12-05T19:56:47Z</time>
      </trkpt>
      <trkpt lat="42.57764" lon="2.07359">
        <ele>1658</ele>
        <time>2021-12-05T19:56:48Z</time>
      </trkpt>
      <trkpt lat="42.57768" lon="2.07341">
        <ele>1659</ele>
        <time>2021-12-05T19:56:51Z</time>
      </trkpt>
      <trkpt lat="42.57767" lon="2.07333">
        <ele>1659</ele>
        <time>2021-12-05T19:56:52Z</time>
      </trkpt>
      <trkpt lat="42.57766" lon="2.07324">
        <ele>1660</ele>
        <time>2021-12-05T19:56:53Z</time>
      </trkpt>
      <trkpt lat="42.57765" lon="2.0732">
        <ele>1660</ele>
        <time>2021-12-05T19:56:54Z</time>
      </trkpt>
      <trkpt lat="42.5776" lon="2.07297">
        <ele>1659</ele>
        <time>2021-12-05T19:56:57Z</time>
      </trkpt>
      <trkpt lat="42.57758" lon="2.07283">
        <ele>1660</ele>
        <time>2021-12-05T19:56:59Z</time>
      </trkpt>
      <trkpt lat="42.57757" lon="2.07275">
        <ele>1660</ele>
        <time>2021-12-05T19:57:00Z</time>
      </trkpt>
      <trkpt lat="42.57758" lon="2.07262">
        <ele>1660</ele>
        <time>2021-12-05T19:57:01Z</time>
      </trkpt>
      <trkpt lat="42.57756" lon="2.07256">
        <ele>1660</ele>
        <time>2021-12-05T19:57:02Z</time>
      </trkpt>
      <trkpt lat="42.57752" lon="2.07247">
        <ele>1659</ele>
        <time>2021-12-05T19:57:04Z</time>
      </trkpt>
      <trkpt lat="42.57744" lon="2.07211">
        <ele>1659</ele>
        <time>2021-12-05T19:57:08Z</time>
      </trkpt>
      <trkpt lat="42.57742" lon="2.07206">
        <ele>1659</ele>
        <time>2021-12-05T19:57:09Z</time>
      </trkpt>
      <trkpt lat="42.57734" lon="2.07182">
        <ele>1659</ele>
        <time>2021-12-05T19:57:13Z</time>
      </trkpt>
      <trkpt lat="42.57727" lon="2.07171">
        <ele>1659</ele>
        <time>2021-12-05T19:57:15Z</time>
      </trkpt>
      <trkpt lat="42.57721" lon="2.07159">
        <ele>1659</ele>
        <time>2021-12-05T19:57:16Z</time>
      </trkpt>
      <trkpt lat="42.57714" lon="2.07147">
        <ele>1658</ele>
        <time>2021-12-05T19:57:18Z</time>
      </trkpt>
      <trkpt lat="42.57665" lon="2.07066">
        <ele>1658</ele>
        <time>2021-12-05T19:57:32Z</time>
      </trkpt>
      <trkpt lat="42.57634" lon="2.07014">
        <ele>1658</ele>
        <time>2021-12-05T19:57:41Z</time>
      </trkpt>
      <trkpt lat="42.5763" lon="2.07008">
        <ele>1658</ele>
        <time>2021-12-05T19:57:42Z</time>
      </trkpt>
      <trkpt lat="42.57625" lon="2.07002">
        <ele>1658</ele>
        <time>2021-12-05T19:57:43Z</time>
      </trkpt>
      <trkpt lat="42.57622" lon="2.06997">
        <ele>1658</ele>
        <time>2021-12-05T19:57:44Z</time>
      </trkpt>
      <trkpt lat="42.57588" lon="2.06946">
        <ele>1660</ele>
        <time>2021-12-05T19:57:53Z</time>
      </trkpt>
      <trkpt lat="42.57571" lon="2.06932">
        <ele>1661</ele>
        <time>2021-12-05T19:57:57Z</time>
      </trkpt>
      <trkpt lat="42.5755" lon="2.06925">
        <ele>1661</ele>
        <time>2021-12-05T19:58:00Z</time>
      </trkpt>
      <trkpt lat="42.57548" lon="2.06924">
        <ele>1661</ele>
        <time>2021-12-05T19:58:01Z</time>
      </trkpt>
      <trkpt lat="42.57528" lon="2.0693">
        <ele>1661</ele>
        <time>2021-12-05T19:58:05Z</time>
      </trkpt>
      <trkpt lat="42.57519" lon="2.06936">
        <ele>1661</ele>
        <time>2021-12-05T19:58:06Z</time>
      </trkpt>
      <trkpt lat="42.57509" lon="2.06947">
        <ele>1660</ele>
        <time>2021-12-05T19:58:09Z</time>
      </trkpt>
      <trkpt lat="42.57507" lon="2.06943">
        <ele>1660</ele>
        <time>2021-12-05T19:58:09Z</time>
      </trkpt>
      <trkpt lat="42.57502" lon="2.06939">
        <ele>1660</ele>
        <time>2021-12-05T19:58:10Z</time>
      </trkpt>
      <trkpt lat="42.57497" lon="2.0694">
        <ele>1661</ele>
        <time>2021-12-05T19:58:11Z</time>
      </trkpt>
      <trkpt lat="42.57493" lon="2.06945">
        <ele>1661</ele>
        <time>2021-12-05T19:58:12Z</time>
      </trkpt>
      <trkpt lat="42.57492" lon="2.06955">
        <ele>1660</ele>
        <time>2021-12-05T19:58:13Z</time>
      </trkpt>
      <trkpt lat="42.57495" lon="2.0696">
        <ele>1659</ele>
        <time>2021-12-05T19:58:14Z</time>
      </trkpt>
      <trkpt lat="42.57478" lon="2.06991">
        <ele>1658</ele>
        <time>2021-12-05T19:58:19Z</time>
      </trkpt>
      <trkpt lat="42.57457" lon="2.07014">
        <ele>1657</ele>
        <time>2021-12-05T19:58:24Z</time>
      </trkpt>
      <trkpt lat="42.57443" lon="2.07022">
        <ele>1656</ele>
        <time>2021-12-05T19:58:27Z</time>
      </trkpt>
      <trkpt lat="42.57356" lon="2.07045">
        <ele>1659</ele>
        <time>2021-12-05T19:58:43Z</time>
      </trkpt>
      <trkpt lat="42.57349" lon="2.07047">
        <ele>1660</ele>
        <time>2021-12-05T19:58:44Z</time>
      </trkpt>
      <trkpt lat="42.57333" lon="2.07052">
        <ele>1660</ele>
        <time>2021-12-05T19:58:47Z</time>
      </trkpt>
      <trkpt lat="42.57316" lon="2.07064">
        <ele>1662</ele>
        <time>2021-12-05T19:58:50Z</time>
      </trkpt>
      <trkpt lat="42.57289" lon="2.07096">
        <ele>1662</ele>
        <time>2021-12-05T19:58:57Z</time>
      </trkpt>
      <trkpt lat="42.5724" lon="2.0716">
        <ele>1662</ele>
        <time>2021-12-05T19:59:09Z</time>
      </trkpt>
      <trkpt lat="42.57235" lon="2.07166">
        <ele>1663</ele>
        <time>2021-12-05T19:59:10Z</time>
      </trkpt>
      <trkpt lat="42.5723" lon="2.07174">
        <ele>1663</ele>
        <time>2021-12-05T19:59:11Z</time>
      </trkpt>
      <trkpt lat="42.57194" lon="2.07219">
        <ele>1666</ele>
        <time>2021-12-05T19:59:20Z</time>
      </trkpt>
      <trkpt lat="42.57182" lon="2.07234">
        <ele>1667</ele>
        <time>2021-12-05T19:59:23Z</time>
      </trkpt>
      <trkpt lat="42.57176" lon="2.07242">
        <ele>1667</ele>
        <time>2021-12-05T19:59:24Z</time>
      </trkpt>
      <trkpt lat="42.57171" lon="2.07248">
        <ele>1667</ele>
        <time>2021-12-05T19:59:26Z</time>
      </trkpt>
      <trkpt lat="42.57151" lon="2.07271">
        <ele>1669</ele>
        <time>2021-12-05T19:59:30Z</time>
      </trkpt>
      <trkpt lat="42.57143" lon="2.0728">
        <ele>1670</ele>
        <time>2021-12-05T19:59:32Z</time>
      </trkpt>
      <trkpt lat="42.5712" lon="2.07307">
        <ele>1670</ele>
        <time>2021-12-05T19:59:37Z</time>
      </trkpt>
      <trkpt lat="42.57086" lon="2.07346">
        <ele>1670</ele>
        <time>2021-12-05T19:59:45Z</time>
      </trkpt>
      <trkpt lat="42.57064" lon="2.07371">
        <ele>1670</ele>
        <time>2021-12-05T19:59:50Z</time>
      </trkpt>
      <trkpt lat="42.57051" lon="2.07382">
        <ele>1670</ele>
        <time>2021-12-05T19:59:53Z</time>
      </trkpt>
      <trkpt lat="42.57037" lon="2.07391">
        <ele>1670</ele>
        <time>2021-12-05T19:59:56Z</time>
      </trkpt>
      <trkpt lat="42.57016" lon="2.07398">
        <ele>1672</ele>
        <time>2021-12-05T20:00:00Z</time>
      </trkpt>
      <trkpt lat="42.56997" lon="2.07402">
        <ele>1673</ele>
        <time>2021-12-05T20:00:03Z</time>
      </trkpt>
      <trkpt lat="42.56991" lon="2.07403">
        <ele>1673</ele>
        <time>2021-12-05T20:00:04Z</time>
      </trkpt>
      <trkpt lat="42.5697" lon="2.07402">
        <ele>1673</ele>
        <time>2021-12-05T20:00:08Z</time>
      </trkpt>
      <trkpt lat="42.56955" lon="2.07397">
        <ele>1673</ele>
        <time>2021-12-05T20:00:11Z</time>
      </trkpt>
      <trkpt lat="42.56943" lon="2.07387">
        <ele>1675</ele>
        <time>2021-12-05T20:00:13Z</time>
      </trkpt>
      <trkpt lat="42.56928" lon="2.07372">
        <ele>1678</ele>
        <time>2021-12-05T20:00:17Z</time>
      </trkpt>
      <trkpt lat="42.56904" lon="2.07338">
        <ele>1683</ele>
        <time>2021-12-05T20:00:23Z</time>
      </trkpt>
      <trkpt lat="42.56891" lon="2.07325">
        <ele>1685</ele>
        <time>2021-12-05T20:00:26Z</time>
      </trkpt>
      <trkpt lat="42.5688" lon="2.07318">
        <ele>1686</ele>
        <time>2021-12-05T20:00:28Z</time>
      </trkpt>
      <trkpt lat="42.56869" lon="2.07311">
        <ele>1687</ele>
        <time>2021-12-05T20:00:30Z</time>
      </trkpt>
      <trkpt lat="42.56831" lon="2.07301">
        <ele>1686</ele>
        <time>2021-12-05T20:00:37Z</time>
      </trkpt>
      <trkpt lat="42.56823" lon="2.07299">
        <ele>1686</ele>
        <time>2021-12-05T20:00:38Z</time>
      </trkpt>
      <trkpt lat="42.56803" lon="2.07292">
        <ele>1687</ele>
        <time>2021-12-05T20:00:42Z</time>
      </trkpt>
      <trkpt lat="42.56767" lon="2.07278">
        <ele>1687</ele>
        <time>2021-12-05T20:00:49Z</time>
      </trkpt>
      <trkpt lat="42.56757" lon="2.07273">
        <ele>1688</ele>
        <time>2021-12-05T20:00:51Z</time>
      </trkpt>
      <trkpt lat="42.56744" lon="2.07264">
        <ele>1688</ele>
        <time>2021-12-05T20:00:53Z</time>
      </trkpt>
      <trkpt lat="42.56721" lon="2.07252">
        <ele>1690</ele>
        <time>2021-12-05T20:00:58Z</time>
      </trkpt>
      <trkpt lat="42.56676" lon="2.07242">
        <ele>1692</ele>
        <time>2021-12-05T20:01:06Z</time>
      </trkpt>
      <trkpt lat="42.5661" lon="2.07233">
        <ele>1695</ele>
        <time>2021-12-05T20:01:17Z</time>
      </trkpt>
      <trkpt lat="42.56582" lon="2.07229">
        <ele>1697</ele>
        <time>2021-12-05T20:01:22Z</time>
      </trkpt>
      <trkpt lat="42.56554" lon="2.0723">
        <ele>1699</ele>
        <time>2021-12-05T20:01:27Z</time>
      </trkpt>
      <trkpt lat="42.56513" lon="2.07246">
        <ele>1697</ele>
        <time>2021-12-05T20:01:35Z</time>
      </trkpt>
      <trkpt lat="42.56474" lon="2.07277">
        <ele>1697</ele>
        <time>2021-12-05T20:01:43Z</time>
      </trkpt>
      <trkpt lat="42.5642" lon="2.07327">
        <ele>1695</ele>
        <time>2021-12-05T20:01:55Z</time>
      </trkpt>
      <trkpt lat="42.56401" lon="2.07348">
        <ele>1695</ele>
        <time>2021-12-05T20:01:59Z</time>
      </trkpt>
      <trkpt lat="42.56365" lon="2.07394">
        <ele>1692</ele>
        <time>2021-12-05T20:02:08Z</time>
      </trkpt>
      <trkpt lat="42.56329" lon="2.07424">
        <ele>1690</ele>
        <time>2021-12-05T20:02:15Z</time>
      </trkpt>
      <trkpt lat="42.56299" lon="2.07443">
        <ele>1689</ele>
        <time>2021-12-05T20:02:21Z</time>
      </trkpt>
      <trkpt lat="42.56279" lon="2.07452">
        <ele>1689</ele>
        <time>2021-12-05T20:02:25Z</time>
      </trkpt>
      <trkpt lat="42.56256" lon="2.07459">
        <ele>1690</ele>
        <time>2021-12-05T20:02:29Z</time>
      </trkpt>
      <trkpt lat="42.56225" lon="2.07462">
        <ele>1692</ele>
        <time>2021-12-05T20:02:35Z</time>
      </trkpt>
      <trkpt lat="42.56207" lon="2.07466">
        <ele>1692</ele>
        <time>2021-12-05T20:02:38Z</time>
      </trkpt>
      <trkpt lat="42.56179" lon="2.0748">
        <ele>1692</ele>
        <time>2021-12-05T20:02:43Z</time>
      </trkpt>
      <trkpt lat="42.56166" lon="2.07492">
        <ele>1691</ele>
        <time>2021-12-05T20:02:46Z</time>
      </trkpt>
      <trkpt lat="42.56145" lon="2.07516">
        <ele>1690</ele>
        <time>2021-12-05T20:02:51Z</time>
      </trkpt>
      <trkpt lat="42.5614" lon="2.07521">
        <ele>1690</ele>
        <time>2021-12-05T20:02:52Z</time>
      </trkpt>
      <trkpt lat="42.56126" lon="2.07536">
        <ele>1690</ele>
        <time>2021-12-05T20:02:55Z</time>
      </trkpt>
      <trkpt lat="42.56079" lon="2.07587">
        <ele>1687</ele>
        <time>2021-12-05T20:03:06Z</time>
      </trkpt>
      <trkpt lat="42.56066" lon="2.07601">
        <ele>1688</ele>
        <time>2021-12-05T20:03:09Z</time>
      </trkpt>
      <trkpt lat="42.56029" lon="2.07641">
        <ele>1689</ele>
        <time>2021-12-05T20:03:17Z</time>
      </trkpt>
      <trkpt lat="42.55971" lon="2.07701">
        <ele>1687</ele>
        <time>2021-12-05T20:03:30Z</time>
      </trkpt>
      <trkpt lat="42.55953" lon="2.07718">
        <ele>1686</ele>
        <time>2021-12-05T20:03:34Z</time>
      </trkpt>
      <trkpt lat="42.5594" lon="2.07724">
        <ele>1686</ele>
        <time>2021-12-05T20:03:37Z</time>
      </trkpt>
      <trkpt lat="42.55921" lon="2.0773">
        <ele>1687</ele>
        <time>2021-12-05T20:03:40Z</time>
      </trkpt>
      <trkpt lat="42.55876" lon="2.07733">
        <ele>1684</ele>
        <time>2021-12-05T20:03:48Z</time>
      </trkpt>
      <trkpt lat="42.55829" lon="2.07734">
        <ele>1682</ele>
        <time>2021-12-05T20:03:57Z</time>
      </trkpt>
      <trkpt lat="42.55823" lon="2.07735">
        <ele>1682</ele>
        <time>2021-12-05T20:03:58Z</time>
      </trkpt>
      <trkpt lat="42.55784" lon="2.07739">
        <ele>1682</ele>
        <time>2021-12-05T20:04:05Z</time>
      </trkpt>
      <trkpt lat="42.55707" lon="2.07751">
        <ele>1681</ele>
        <time>2021-12-05T20:04:18Z</time>
      </trkpt>
      <trkpt lat="42.55681" lon="2.07757">
        <ele>1681</ele>
        <time>2021-12-05T20:04:23Z</time>
      </trkpt>
      <trkpt lat="42.5567" lon="2.07759">
        <ele>1681</ele>
        <time>2021-12-05T20:04:25Z</time>
      </trkpt>
      <trkpt lat="42.55654" lon="2.07764">
        <ele>1682</ele>
        <time>2021-12-05T20:04:28Z</time>
      </trkpt>
      <trkpt lat="42.55643" lon="2.0777">
        <ele>1682</ele>
        <time>2021-12-05T20:04:30Z</time>
      </trkpt>
      <trkpt lat="42.55633" lon="2.07778">
        <ele>1683</ele>
        <time>2021-12-05T20:04:32Z</time>
      </trkpt>
      <trkpt lat="42.55623" lon="2.07792">
        <ele>1684</ele>
        <time>2021-12-05T20:04:35Z</time>
      </trkpt>
      <trkpt lat="42.55615" lon="2.07808">
        <ele>1685</ele>
        <time>2021-12-05T20:04:37Z</time>
      </trkpt>
      <trkpt lat="42.55607" lon="2.07834">
        <ele>1685</ele>
        <time>2021-12-05T20:04:41Z</time>
      </trkpt>
      <trkpt lat="42.55596" lon="2.07883">
        <ele>1688</ele>
        <time>2021-12-05T20:04:48Z</time>
      </trkpt>
      <trkpt lat="42.55586" lon="2.07914">
        <ele>1689</ele>
        <time>2021-12-05T20:04:52Z</time>
      </trkpt>
      <trkpt lat="42.5557" lon="2.0794">
        <ele>1690</ele>
        <time>2021-12-05T20:04:56Z</time>
      </trkpt>
      <trkpt lat="42.55562" lon="2.07951">
        <ele>1690</ele>
        <time>2021-12-05T20:04:58Z</time>
      </trkpt>
      <trkpt lat="42.55554" lon="2.07962">
        <ele>1690</ele>
        <time>2021-12-05T20:05:01Z</time>
      </trkpt>
      <trkpt lat="42.55525" lon="2.07993">
        <ele>1691</ele>
        <time>2021-12-05T20:05:07Z</time>
      </trkpt>
      <trkpt lat="42.55509" lon="2.08005">
        <ele>1692</ele>
        <time>2021-12-05T20:05:10Z</time>
      </trkpt>
      <trkpt lat="42.55491" lon="2.08013">
        <ele>1693</ele>
        <time>2021-12-05T20:05:14Z</time>
      </trkpt>
      <trkpt lat="42.55474" lon="2.0802">
        <ele>1693</ele>
        <time>2021-12-05T20:05:17Z</time>
      </trkpt>
      <trkpt lat="42.55458" lon="2.08023">
        <ele>1695</ele>
        <time>2021-12-05T20:05:20Z</time>
      </trkpt>
      <trkpt lat="42.55445" lon="2.08023">
        <ele>1696</ele>
        <time>2021-12-05T20:05:22Z</time>
      </trkpt>
      <trkpt lat="42.55431" lon="2.08024">
        <ele>1697</ele>
        <time>2021-12-05T20:05:25Z</time>
      </trkpt>
      <trkpt lat="42.5541" lon="2.08031">
        <ele>1699</ele>
        <time>2021-12-05T20:05:28Z</time>
      </trkpt>
      <trkpt lat="42.55392" lon="2.08045">
        <ele>1699</ele>
        <time>2021-12-05T20:05:32Z</time>
      </trkpt>
      <trkpt lat="42.5538" lon="2.08063">
        <ele>1699</ele>
        <time>2021-12-05T20:05:35Z</time>
      </trkpt>
      <trkpt lat="42.55372" lon="2.08079">
        <ele>1698</ele>
        <time>2021-12-05T20:05:38Z</time>
      </trkpt>
      <trkpt lat="42.55365" lon="2.08103">
        <ele>1698</ele>
        <time>2021-12-05T20:05:41Z</time>
      </trkpt>
      <trkpt lat="42.55357" lon="2.08122">
        <ele>1698</ele>
        <time>2021-12-05T20:05:44Z</time>
      </trkpt>
      <trkpt lat="42.55349" lon="2.08136">
        <ele>1699</ele>
        <time>2021-12-05T20:05:46Z</time>
      </trkpt>
      <trkpt lat="42.55331" lon="2.08156">
        <ele>1700</ele>
        <time>2021-12-05T20:05:51Z</time>
      </trkpt>
      <trkpt lat="42.55322" lon="2.08171">
        <ele>1702</ele>
        <time>2021-12-05T20:05:53Z</time>
      </trkpt>
      <trkpt lat="42.55311" lon="2.08195">
        <ele>1703</ele>
        <time>2021-12-05T20:05:57Z</time>
      </trkpt>
      <trkpt lat="42.55282" lon="2.08272">
        <ele>1703</ele>
        <time>2021-12-05T20:06:08Z</time>
      </trkpt>
      <trkpt lat="42.5527" lon="2.08294">
        <ele>1703</ele>
        <time>2021-12-05T20:06:12Z</time>
      </trkpt>
      <trkpt lat="42.55177" lon="2.08413">
        <ele>1708</ele>
        <time>2021-12-05T20:06:34Z</time>
      </trkpt>
      <trkpt lat="42.55161" lon="2.08438">
        <ele>1707</ele>
        <time>2021-12-05T20:06:39Z</time>
      </trkpt>
      <trkpt lat="42.55134" lon="2.08491">
        <ele>1704</ele>
        <time>2021-12-05T20:06:47Z</time>
      </trkpt>
      <trkpt lat="42.5511" lon="2.08527">
        <ele>1705</ele>
        <time>2021-12-05T20:06:54Z</time>
      </trkpt>
      <trkpt lat="42.55095" lon="2.08544">
        <ele>1706</ele>
        <time>2021-12-05T20:06:57Z</time>
      </trkpt>
      <trkpt lat="42.55071" lon="2.08566">
        <ele>1707</ele>
        <time>2021-12-05T20:07:02Z</time>
      </trkpt>
      <trkpt lat="42.55046" lon="2.08586">
        <ele>1708</ele>
        <time>2021-12-05T20:07:07Z</time>
      </trkpt>
      <trkpt lat="42.54996" lon="2.08614">
        <ele>1710</ele>
        <time>2021-12-05T20:07:17Z</time>
      </trkpt>
      <trkpt lat="42.54937" lon="2.08641">
        <ele>1711</ele>
        <time>2021-12-05T20:07:28Z</time>
      </trkpt>
      <trkpt lat="42.5492" lon="2.08652">
        <ele>1711</ele>
        <time>2021-12-05T20:07:31Z</time>
      </trkpt>
      <trkpt lat="42.5479" lon="2.08754">
        <ele>1717</ele>
        <time>2021-12-05T20:07:58Z</time>
      </trkpt>
      <trkpt lat="42.54763" lon="2.08781">
        <ele>1719</ele>
        <time>2021-12-05T20:08:04Z</time>
      </trkpt>
      <trkpt lat="42.54688" lon="2.08866">
        <ele>1720</ele>
        <time>2021-12-05T20:08:21Z</time>
      </trkpt>
      <trkpt lat="42.54643" lon="2.08936">
        <ele>1721</ele>
        <time>2021-12-05T20:08:34Z</time>
      </trkpt>
      <trkpt lat="42.5463" lon="2.08953">
        <ele>1722</ele>
        <time>2021-12-05T20:08:37Z</time>
      </trkpt>
      <trkpt lat="42.54614" lon="2.08967">
        <ele>1723</ele>
        <time>2021-12-05T20:08:40Z</time>
      </trkpt>
      <trkpt lat="42.54598" lon="2.08978">
        <ele>1723</ele>
        <time>2021-12-05T20:08:43Z</time>
      </trkpt>
      <trkpt lat="42.54547" lon="2.09016">
        <ele>1723</ele>
        <time>2021-12-05T20:08:54Z</time>
      </trkpt>
      <trkpt lat="42.5453" lon="2.09039">
        <ele>1723</ele>
        <time>2021-12-05T20:08:58Z</time>
      </trkpt>
      <trkpt lat="42.54523" lon="2.09054">
        <ele>1722</ele>
        <time>2021-12-05T20:09:00Z</time>
      </trkpt>
      <trkpt lat="42.54518" lon="2.09068">
        <ele>1722</ele>
        <time>2021-12-05T20:09:02Z</time>
      </trkpt>
      <trkpt lat="42.54504" lon="2.09121">
        <ele>1722</ele>
        <time>2021-12-05T20:09:10Z</time>
      </trkpt>
      <trkpt lat="42.54493" lon="2.09162">
        <ele>1723</ele>
        <time>2021-12-05T20:09:16Z</time>
      </trkpt>
      <trkpt lat="42.54481" lon="2.09189">
        <ele>1724</ele>
        <time>2021-12-05T20:09:20Z</time>
      </trkpt>
      <trkpt lat="42.54476" lon="2.09196">
        <ele>1724</ele>
        <time>2021-12-05T20:09:21Z</time>
      </trkpt>
      <trkpt lat="42.54469" lon="2.09208">
        <ele>1724</ele>
        <time>2021-12-05T20:09:23Z</time>
      </trkpt>
      <trkpt lat="42.54457" lon="2.09226">
        <ele>1725</ele>
        <time>2021-12-05T20:09:26Z</time>
      </trkpt>
      <trkpt lat="42.54445" lon="2.09246">
        <ele>1725</ele>
        <time>2021-12-05T20:09:30Z</time>
      </trkpt>
      <trkpt lat="42.54438" lon="2.09273">
        <ele>1725</ele>
        <time>2021-12-05T20:09:33Z</time>
      </trkpt>
      <trkpt lat="42.54436" lon="2.0933">
        <ele>1725</ele>
        <time>2021-12-05T20:09:41Z</time>
      </trkpt>
      <trkpt lat="42.54433" lon="2.09347">
        <ele>1725</ele>
        <time>2021-12-05T20:09:43Z</time>
      </trkpt>
      <trkpt lat="42.54419" lon="2.09384">
        <ele>1723</ele>
        <time>2021-12-05T20:09:49Z</time>
      </trkpt>
      <trkpt lat="42.54379" lon="2.09456">
        <ele>1722</ele>
        <time>2021-12-05T20:10:00Z</time>
      </trkpt>
      <trkpt lat="42.54363" lon="2.09497">
        <ele>1722</ele>
        <time>2021-12-05T20:10:06Z</time>
      </trkpt>
      <trkpt lat="42.54339" lon="2.09569">
        <ele>1721</ele>
        <time>2021-12-05T20:10:17Z</time>
      </trkpt>
      <trkpt lat="42.54335" lon="2.0959">
        <ele>1721</ele>
        <time>2021-12-05T20:10:20Z</time>
      </trkpt>
      <trkpt lat="42.54335" lon="2.0961">
        <ele>1721</ele>
        <time>2021-12-05T20:10:22Z</time>
      </trkpt>
      <trkpt lat="42.54337" lon="2.0963">
        <ele>1722</ele>
        <time>2021-12-05T20:10:25Z</time>
      </trkpt>
      <trkpt lat="42.54344" lon="2.09658">
        <ele>1722</ele>
        <time>2021-12-05T20:10:29Z</time>
      </trkpt>
      <trkpt lat="42.54373" lon="2.09771">
        <ele>1725</ele>
        <time>2021-12-05T20:10:44Z</time>
      </trkpt>
      <trkpt lat="42.54389" lon="2.0982">
        <ele>1725</ele>
        <time>2021-12-05T20:10:51Z</time>
      </trkpt>
      <trkpt lat="42.54405" lon="2.09864">
        <ele>1725</ele>
        <time>2021-12-05T20:10:58Z</time>
      </trkpt>
      <trkpt lat="42.54409" lon="2.09883">
        <ele>1724</ele>
        <time>2021-12-05T20:11:00Z</time>
      </trkpt>
      <trkpt lat="42.54412" lon="2.09898">
        <ele>1724</ele>
        <time>2021-12-05T20:11:03Z</time>
      </trkpt>
      <trkpt lat="42.54411" lon="2.09917">
        <ele>1724</ele>
        <time>2021-12-05T20:11:05Z</time>
      </trkpt>
      <trkpt lat="42.54407" lon="2.09935">
        <ele>1723</ele>
        <time>2021-12-05T20:11:07Z</time>
      </trkpt>
      <trkpt lat="42.54395" lon="2.09961">
        <ele>1724</ele>
        <time>2021-12-05T20:11:12Z</time>
      </trkpt>
      <trkpt lat="42.54384" lon="2.09976">
        <ele>1724</ele>
        <time>2021-12-05T20:11:14Z</time>
      </trkpt>
      <trkpt lat="42.54369" lon="2.09992">
        <ele>1725</ele>
        <time>2021-12-05T20:11:18Z</time>
      </trkpt>
      <trkpt lat="42.54361" lon="2.1">
        <ele>1725</ele>
        <time>2021-12-05T20:11:19Z</time>
      </trkpt>
      <trkpt lat="42.54353" lon="2.1001">
        <ele>1725</ele>
        <time>2021-12-05T20:11:21Z</time>
      </trkpt>
      <trkpt lat="42.54346" lon="2.10006">
        <ele>1726</ele>
        <time>2021-12-05T20:11:23Z</time>
      </trkpt>
      <trkpt lat="42.54334" lon="2.10008">
        <ele>1727</ele>
        <time>2021-12-05T20:11:25Z</time>
      </trkpt>
      <trkpt lat="42.54316" lon="2.10014">
        <ele>1728</ele>
        <time>2021-12-05T20:11:28Z</time>
      </trkpt>
      <trkpt lat="42.54258" lon="2.10038">
        <ele>1729</ele>
        <time>2021-12-05T20:11:39Z</time>
      </trkpt>
      <trkpt lat="42.54193" lon="2.10071">
        <ele>1729</ele>
        <time>2021-12-05T20:11:51Z</time>
      </trkpt>
      <trkpt lat="42.54168" lon="2.10082">
        <ele>1729</ele>
        <time>2021-12-05T20:11:56Z</time>
      </trkpt>
      <trkpt lat="42.5416" lon="2.10084">
        <ele>1729</ele>
        <time>2021-12-05T20:11:57Z</time>
      </trkpt>
      <trkpt lat="42.54104" lon="2.10085">
        <ele>1727</ele>
        <time>2021-12-05T20:12:07Z</time>
      </trkpt>
      <trkpt lat="42.54075" lon="2.10083">
        <ele>1727</ele>
        <time>2021-12-05T20:12:13Z</time>
      </trkpt>
      <trkpt lat="42.54036" lon="2.10075">
        <ele>1730</ele>
        <time>2021-12-05T20:12:20Z</time>
      </trkpt>
      <trkpt lat="42.53909" lon="2.10041">
        <ele>1741</ele>
        <time>2021-12-05T20:12:43Z</time>
      </trkpt>
      <trkpt lat="42.5388" lon="2.10035">
        <ele>1743</ele>
        <time>2021-12-05T20:12:48Z</time>
      </trkpt>
      <trkpt lat="42.53848" lon="2.10034">
        <ele>1745</ele>
        <time>2021-12-05T20:12:54Z</time>
      </trkpt>
      <trkpt lat="42.53812" lon="2.10045">
        <ele>1745</ele>
        <time>2021-12-05T20:13:00Z</time>
      </trkpt>
      <trkpt lat="42.53787" lon="2.10051">
        <ele>1745</ele>
        <time>2021-12-05T20:13:05Z</time>
      </trkpt>
      <trkpt lat="42.53713" lon="2.10052">
        <ele>1748</ele>
        <time>2021-12-05T20:13:18Z</time>
      </trkpt>
      <trkpt lat="42.53686" lon="2.10056">
        <ele>1750</ele>
        <time>2021-12-05T20:13:23Z</time>
      </trkpt>
      <trkpt lat="42.5367" lon="2.10065">
        <ele>1751</ele>
        <time>2021-12-05T20:13:26Z</time>
      </trkpt>
      <trkpt lat="42.53655" lon="2.10082">
        <ele>1752</ele>
        <time>2021-12-05T20:13:29Z</time>
      </trkpt>
      <trkpt lat="42.53648" lon="2.10098">
        <ele>1752</ele>
        <time>2021-12-05T20:13:32Z</time>
      </trkpt>
      <trkpt lat="42.53638" lon="2.10128">
        <ele>1752</ele>
        <time>2021-12-05T20:13:36Z</time>
      </trkpt>
      <trkpt lat="42.5363" lon="2.10144">
        <ele>1752</ele>
        <time>2021-12-05T20:13:38Z</time>
      </trkpt>
      <trkpt lat="42.5362" lon="2.10159">
        <ele>1752</ele>
        <time>2021-12-05T20:13:41Z</time>
      </trkpt>
      <trkpt lat="42.53524" lon="2.10223">
        <ele>1760</ele>
        <time>2021-12-05T20:14:00Z</time>
      </trkpt>
      <trkpt lat="42.53505" lon="2.10242">
        <ele>1762</ele>
        <time>2021-12-05T20:14:04Z</time>
      </trkpt>
      <trkpt lat="42.53485" lon="2.10266">
        <ele>1763</ele>
        <time>2021-12-05T20:14:09Z</time>
      </trkpt>
      <trkpt lat="42.53462" lon="2.10284">
        <ele>1764</ele>
        <time>2021-12-05T20:14:14Z</time>
      </trkpt>
      <trkpt lat="42.53442" lon="2.10289">
        <ele>1766</ele>
        <time>2021-12-05T20:14:17Z</time>
      </trkpt>
      <trkpt lat="42.5335" lon="2.10288">
        <ele>1763</ele>
        <time>2021-12-05T20:14:34Z</time>
      </trkpt>
      <trkpt lat="42.53326" lon="2.10284">
        <ele>1762</ele>
        <time>2021-12-05T20:14:38Z</time>
      </trkpt>
      <trkpt lat="42.5329" lon="2.1027">
        <ele>1759</ele>
        <time>2021-12-05T20:14:45Z</time>
      </trkpt>
      <trkpt lat="42.53273" lon="2.10266">
        <ele>1758</ele>
        <time>2021-12-05T20:14:48Z</time>
      </trkpt>
      <trkpt lat="42.53255" lon="2.10268">
        <ele>1757</ele>
        <time>2021-12-05T20:14:51Z</time>
      </trkpt>
      <trkpt lat="42.53184" lon="2.10284">
        <ele>1753</ele>
        <time>2021-12-05T20:15:04Z</time>
      </trkpt>
      <trkpt lat="42.53165" lon="2.10283">
        <ele>1753</ele>
        <time>2021-12-05T20:15:07Z</time>
      </trkpt>
      <trkpt lat="42.53116" lon="2.10262">
        <ele>1752</ele>
        <time>2021-12-05T20:15:16Z</time>
      </trkpt>
      <trkpt lat="42.53102" lon="2.10262">
        <ele>1751</ele>
        <time>2021-12-05T20:15:19Z</time>
      </trkpt>
      <trkpt lat="42.53089" lon="2.10266">
        <ele>1750</ele>
        <time>2021-12-05T20:15:21Z</time>
      </trkpt>
      <trkpt lat="42.53079" lon="2.10273">
        <ele>1749</ele>
        <time>2021-12-05T20:15:23Z</time>
      </trkpt>
      <trkpt lat="42.53019" lon="2.10349">
        <ele>1742</ele>
        <time>2021-12-05T20:15:38Z</time>
      </trkpt>
      <trkpt lat="42.53002" lon="2.10362">
        <ele>1740</ele>
        <time>2021-12-05T20:15:41Z</time>
      </trkpt>
      <trkpt lat="42.52987" lon="2.10368">
        <ele>1740</ele>
        <time>2021-12-05T20:15:44Z</time>
      </trkpt>
      <trkpt lat="42.52932" lon="2.10377">
        <ele>1741</ele>
        <time>2021-12-05T20:15:54Z</time>
      </trkpt>
      <trkpt lat="42.52904" lon="2.10389">
        <ele>1741</ele>
        <time>2021-12-05T20:15:59Z</time>
      </trkpt>
      <trkpt lat="42.52863" lon="2.10416">
        <ele>1740</ele>
        <time>2021-12-05T20:16:07Z</time>
      </trkpt>
      <trkpt lat="42.52833" lon="2.10442">
        <ele>1739</ele>
        <time>2021-12-05T20:16:14Z</time>
      </trkpt>
      <trkpt lat="42.528" lon="2.10486">
        <ele>1738</ele>
        <time>2021-12-05T20:16:22Z</time>
      </trkpt>
      <trkpt lat="42.5279" lon="2.10508">
        <ele>1737</ele>
        <time>2021-12-05T20:16:25Z</time>
      </trkpt>
      <trkpt lat="42.52777" lon="2.10553">
        <ele>1734</ele>
        <time>2021-12-05T20:16:32Z</time>
      </trkpt>
      <trkpt lat="42.52768" lon="2.10577">
        <ele>1732</ele>
        <time>2021-12-05T20:16:35Z</time>
      </trkpt>
      <trkpt lat="42.5276" lon="2.10589">
        <ele>1731</ele>
        <time>2021-12-05T20:16:37Z</time>
      </trkpt>
      <trkpt lat="42.52747" lon="2.10599">
        <ele>1729</ele>
        <time>2021-12-05T20:16:40Z</time>
      </trkpt>
      <trkpt lat="42.52649" lon="2.1065">
        <ele>1726</ele>
        <time>2021-12-05T20:16:59Z</time>
      </trkpt>
      <trkpt lat="42.52625" lon="2.10666">
        <ele>1725</ele>
        <time>2021-12-05T20:17:03Z</time>
      </trkpt>
      <trkpt lat="42.5261" lon="2.10681">
        <ele>1723</ele>
        <time>2021-12-05T20:17:07Z</time>
      </trkpt>
      <trkpt lat="42.52599" lon="2.10699">
        <ele>1721</ele>
        <time>2021-12-05T20:17:10Z</time>
      </trkpt>
      <trkpt lat="42.5257" lon="2.10763">
        <ele>1710</ele>
        <time>2021-12-05T20:17:20Z</time>
      </trkpt>
      <trkpt lat="42.52559" lon="2.10778">
        <ele>1707</ele>
        <time>2021-12-05T20:17:22Z</time>
      </trkpt>
      <trkpt lat="42.52542" lon="2.10788">
        <ele>1704</ele>
        <time>2021-12-05T20:17:26Z</time>
      </trkpt>
      <trkpt lat="42.52507" lon="2.10797">
        <ele>1701</ele>
        <time>2021-12-05T20:17:32Z</time>
      </trkpt>
      <trkpt lat="42.52489" lon="2.10798">
        <ele>1701</ele>
        <time>2021-12-05T20:17:35Z</time>
      </trkpt>
      <trkpt lat="42.52397" lon="2.10775">
        <ele>1705</ele>
        <time>2021-12-05T20:17:52Z</time>
      </trkpt>
      <trkpt lat="42.52378" lon="2.10772">
        <ele>1706</ele>
        <time>2021-12-05T20:17:55Z</time>
      </trkpt>
      <trkpt lat="42.52357" lon="2.10778">
        <ele>1705</ele>
        <time>2021-12-05T20:17:59Z</time>
      </trkpt>
      <trkpt lat="42.5233" lon="2.10793">
        <ele>1700</ele>
        <time>2021-12-05T20:18:04Z</time>
      </trkpt>
      <trkpt lat="42.52298" lon="2.10817">
        <ele>1696</ele>
        <time>2021-12-05T20:18:11Z</time>
      </trkpt>
      <trkpt lat="42.52248" lon="2.10845">
        <ele>1693</ele>
        <time>2021-12-05T20:18:20Z</time>
      </trkpt>
      <trkpt lat="42.52237" lon="2.10853">
        <ele>1692</ele>
        <time>2021-12-05T20:18:23Z</time>
      </trkpt>
      <trkpt lat="42.52207" lon="2.10895">
        <ele>1685</ele>
        <time>2021-12-05T20:18:30Z</time>
      </trkpt>
      <trkpt lat="42.52189" lon="2.10914">
        <ele>1682</ele>
        <time>2021-12-05T20:18:34Z</time>
      </trkpt>
      <trkpt lat="42.52125" lon="2.10956">
        <ele>1679</ele>
        <time>2021-12-05T20:18:47Z</time>
      </trkpt>
      <trkpt lat="42.52073" lon="2.10985">
        <ele>1675</ele>
        <time>2021-12-05T20:18:57Z</time>
      </trkpt>
      <trkpt lat="42.52038" lon="2.11011">
        <ele>1672</ele>
        <time>2021-12-05T20:19:04Z</time>
      </trkpt>
      <trkpt lat="42.52008" lon="2.11039">
        <ele>1669</ele>
        <time>2021-12-05T20:19:11Z</time>
      </trkpt>
      <trkpt lat="42.51924" lon="2.11129">
        <ele>1658</ele>
        <time>2021-12-05T20:19:30Z</time>
      </trkpt>
      <trkpt lat="42.51888" lon="2.1116">
        <ele>1654</ele>
        <time>2021-12-05T20:19:37Z</time>
      </trkpt>
      <trkpt lat="42.51856" lon="2.1119">
        <ele>1650</ele>
        <time>2021-12-05T20:19:44Z</time>
      </trkpt>
      <trkpt lat="42.51803" lon="2.11251">
        <ele>1641</ele>
        <time>2021-12-05T20:19:56Z</time>
      </trkpt>
      <trkpt lat="42.51791" lon="2.11262">
        <ele>1640</ele>
        <time>2021-12-05T20:19:59Z</time>
      </trkpt>
      <trkpt lat="42.51753" lon="2.11279">
        <ele>1638</ele>
        <time>2021-12-05T20:20:06Z</time>
      </trkpt>
      <trkpt lat="42.51674" lon="2.11307">
        <ele>1633</ele>
        <time>2021-12-05T20:20:21Z</time>
      </trkpt>
      <trkpt lat="42.5166" lon="2.11315">
        <ele>1631</ele>
        <time>2021-12-05T20:20:23Z</time>
      </trkpt>
      <trkpt lat="42.51652" lon="2.11324">
        <ele>1629</ele>
        <time>2021-12-05T20:20:25Z</time>
      </trkpt>
      <trkpt lat="42.51625" lon="2.11367">
        <ele>1624</ele>
        <time>2021-12-05T20:20:33Z</time>
      </trkpt>
      <trkpt lat="42.51613" lon="2.11381">
        <ele>1623</ele>
        <time>2021-12-05T20:20:35Z</time>
      </trkpt>
      <trkpt lat="42.5161" lon="2.11384">
        <ele>1623</ele>
        <time>2021-12-05T20:20:36Z</time>
      </trkpt>
      <trkpt lat="42.51595" lon="2.11395">
        <ele>1622</ele>
        <time>2021-12-05T20:20:39Z</time>
      </trkpt>
      <trkpt lat="42.51594" lon="2.11401">
        <ele>1622</ele>
        <time>2021-12-05T20:20:40Z</time>
      </trkpt>
      <trkpt lat="42.51593" lon="2.1141">
        <ele>1621</ele>
        <time>2021-12-05T20:20:41Z</time>
      </trkpt>
      <trkpt lat="42.5159" lon="2.11417">
        <ele>1621</ele>
        <time>2021-12-05T20:20:42Z</time>
      </trkpt>
      <trkpt lat="42.51583" lon="2.11424">
        <ele>1621</ele>
        <time>2021-12-05T20:20:44Z</time>
      </trkpt>
      <trkpt lat="42.51581" lon="2.11426">
        <ele>1621</ele>
        <time>2021-12-05T20:20:44Z</time>
      </trkpt>
      <trkpt lat="42.51564" lon="2.11402">
        <ele>1620</ele>
        <time>2021-12-05T20:20:49Z</time>
      </trkpt>
      <trkpt lat="42.51548" lon="2.11369">
        <ele>1619</ele>
        <time>2021-12-05T20:20:54Z</time>
      </trkpt>
      <trkpt lat="42.51528" lon="2.11328">
        <ele>1617</ele>
        <time>2021-12-05T20:21:00Z</time>
      </trkpt>
      <trkpt lat="42.51513" lon="2.11294">
        <ele>1615</ele>
        <time>2021-12-05T20:21:05Z</time>
      </trkpt>
      <trkpt lat="42.51486" lon="2.11239">
        <ele>1610</ele>
        <time>2021-12-05T20:21:14Z</time>
      </trkpt>
      <trkpt lat="42.51482" lon="2.11219">
        <ele>1610</ele>
        <time>2021-12-05T20:21:17Z</time>
      </trkpt>
      <trkpt lat="42.51483" lon="2.11203">
        <ele>1610</ele>
        <time>2021-12-05T20:21:19Z</time>
      </trkpt>
      <trkpt lat="42.51498" lon="2.1114">
        <ele>1617</ele>
        <time>2021-12-05T20:21:28Z</time>
      </trkpt>
      <trkpt lat="42.51498" lon="2.1111">
        <ele>1617</ele>
        <time>2021-12-05T20:21:32Z</time>
      </trkpt>
      <trkpt lat="42.51495" lon="2.11094">
        <ele>1617</ele>
        <time>2021-12-05T20:21:34Z</time>
      </trkpt>
      <trkpt lat="42.51489" lon="2.11077">
        <ele>1615</ele>
        <time>2021-12-05T20:21:36Z</time>
      </trkpt>
      <trkpt lat="42.51478" lon="2.11065">
        <ele>1613</ele>
        <time>2021-12-05T20:21:39Z</time>
      </trkpt>
      <trkpt lat="42.51463" lon="2.11059">
        <ele>1610</ele>
        <time>2021-12-05T20:21:41Z</time>
      </trkpt>
      <trkpt lat="42.5139" lon="2.11045">
        <ele>1608</ele>
        <time>2021-12-05T20:21:55Z</time>
      </trkpt>
      <trkpt lat="42.51378" lon="2.1105">
        <ele>1610</ele>
        <time>2021-12-05T20:21:57Z</time>
      </trkpt>
      <trkpt lat="42.51367" lon="2.11058">
        <ele>1611</ele>
        <time>2021-12-05T20:21:59Z</time>
      </trkpt>
      <trkpt lat="42.51358" lon="2.11078">
        <ele>1609</ele>
        <time>2021-12-05T20:22:02Z</time>
      </trkpt>
      <trkpt lat="42.51345" lon="2.11114">
        <ele>1605</ele>
        <time>2021-12-05T20:22:07Z</time>
      </trkpt>
      <trkpt lat="42.51328" lon="2.11142">
        <ele>1603</ele>
        <time>2021-12-05T20:22:12Z</time>
      </trkpt>
      <trkpt lat="42.51281" lon="2.11208">
        <ele>1601</ele>
        <time>2021-12-05T20:22:24Z</time>
      </trkpt>
      <trkpt lat="42.5125" lon="2.1126">
        <ele>1601</ele>
        <time>2021-12-05T20:22:33Z</time>
      </trkpt>
      <trkpt lat="42.51228" lon="2.11309">
        <ele>1598</ele>
        <time>2021-12-05T20:22:40Z</time>
      </trkpt>
      <trkpt lat="42.51225" lon="2.11329">
        <ele>1596</ele>
        <time>2021-12-05T20:22:43Z</time>
      </trkpt>
      <trkpt lat="42.51215" lon="2.11433">
        <ele>1593</ele>
        <time>2021-12-05T20:22:57Z</time>
      </trkpt>
      <trkpt lat="42.51206" lon="2.11457">
        <ele>1592</ele>
        <time>2021-12-05T20:23:00Z</time>
      </trkpt>
      <trkpt lat="42.51191" lon="2.11469">
        <ele>1593</ele>
        <time>2021-12-05T20:23:04Z</time>
      </trkpt>
      <trkpt lat="42.51173" lon="2.11471">
        <ele>1595</ele>
        <time>2021-12-05T20:23:07Z</time>
      </trkpt>
      <trkpt lat="42.51144" lon="2.11461">
        <ele>1597</ele>
        <time>2021-12-05T20:23:12Z</time>
      </trkpt>
      <trkpt lat="42.51134" lon="2.11453">
        <ele>1597</ele>
        <time>2021-12-05T20:23:14Z</time>
      </trkpt>
      <trkpt lat="42.51121" lon="2.11442">
        <ele>1597</ele>
        <time>2021-12-05T20:23:17Z</time>
      </trkpt>
      <trkpt lat="42.51113" lon="2.11431">
        <ele>1598</ele>
        <time>2021-12-05T20:23:19Z</time>
      </trkpt>
      <trkpt lat="42.51113" lon="2.11428">
        <ele>1598</ele>
        <time>2021-12-05T20:23:19Z</time>
      </trkpt>
      <trkpt lat="42.51117" lon="2.1141">
        <ele>1598</ele>
        <time>2021-12-05T20:23:22Z</time>
      </trkpt>
      <trkpt lat="42.51121" lon="2.11401">
        <ele>1598</ele>
        <time>2021-12-05T20:23:23Z</time>
      </trkpt>
      <trkpt lat="42.51143" lon="2.11369">
        <ele>1600</ele>
        <time>2021-12-05T20:23:29Z</time>
      </trkpt>
      <trkpt lat="42.51153" lon="2.11353">
        <ele>1600</ele>
        <time>2021-12-05T20:23:32Z</time>
      </trkpt>
      <trkpt lat="42.51162" lon="2.11324">
        <ele>1602</ele>
        <time>2021-12-05T20:23:36Z</time>
      </trkpt>
      <trkpt lat="42.51167" lon="2.11287">
        <ele>1605</ele>
        <time>2021-12-05T20:23:41Z</time>
      </trkpt>
      <trkpt lat="42.5118" lon="2.11204">
        <ele>1610</ele>
        <time>2021-12-05T20:23:52Z</time>
      </trkpt>
      <trkpt lat="42.51184" lon="2.11181">
        <ele>1611</ele>
        <time>2021-12-05T20:23:55Z</time>
      </trkpt>
      <trkpt lat="42.51193" lon="2.11134">
        <ele>1615</ele>
        <time>2021-12-05T20:24:01Z</time>
      </trkpt>
      <trkpt lat="42.51208" lon="2.11061">
        <ele>1623</ele>
        <time>2021-12-05T20:24:11Z</time>
      </trkpt>
      <trkpt lat="42.51214" lon="2.11043">
        <ele>1626</ele>
        <time>2021-12-05T20:24:14Z</time>
      </trkpt>
      <trkpt lat="42.51221" lon="2.11031">
        <ele>1628</ele>
        <time>2021-12-05T20:24:16Z</time>
      </trkpt>
      <trkpt lat="42.51231" lon="2.11022">
        <ele>1630</ele>
        <time>2021-12-05T20:24:18Z</time>
      </trkpt>
      <trkpt lat="42.51239" lon="2.11016">
        <ele>1632</ele>
        <time>2021-12-05T20:24:20Z</time>
      </trkpt>
      <trkpt lat="42.51248" lon="2.11013">
        <ele>1633</ele>
        <time>2021-12-05T20:24:21Z</time>
      </trkpt>
      <trkpt lat="42.51304" lon="2.11004">
        <ele>1631</ele>
        <time>2021-12-05T20:24:31Z</time>
      </trkpt>
      <trkpt lat="42.51313" lon="2.10998">
        <ele>1632</ele>
        <time>2021-12-05T20:24:33Z</time>
      </trkpt>
      <trkpt lat="42.51322" lon="2.1099">
        <ele>1633</ele>
        <time>2021-12-05T20:24:35Z</time>
      </trkpt>
      <trkpt lat="42.5135" lon="2.10932">
        <ele>1643</ele>
        <time>2021-12-05T20:24:44Z</time>
      </trkpt>
      <trkpt lat="42.51414" lon="2.1084">
        <ele>1642</ele>
        <time>2021-12-05T20:25:01Z</time>
      </trkpt>
      <trkpt lat="42.51428" lon="2.10816">
        <ele>1642</ele>
        <time>2021-12-05T20:25:05Z</time>
      </trkpt>
      <trkpt lat="42.51433" lon="2.10802">
        <ele>1642</ele>
        <time>2021-12-05T20:25:07Z</time>
      </trkpt>
      <trkpt lat="42.51437" lon="2.10769">
        <ele>1644</ele>
        <time>2021-12-05T20:25:11Z</time>
      </trkpt>
      <trkpt lat="42.51437" lon="2.10751">
        <ele>1646</ele>
        <time>2021-12-05T20:25:13Z</time>
      </trkpt>
      <trkpt lat="42.51433" lon="2.10736">
        <ele>1646</ele>
        <time>2021-12-05T20:25:16Z</time>
      </trkpt>
      <trkpt lat="42.51425" lon="2.10714">
        <ele>1646</ele>
        <time>2021-12-05T20:25:19Z</time>
      </trkpt>
      <trkpt lat="42.51376" lon="2.10603">
        <ele>1645</ele>
        <time>2021-12-05T20:25:36Z</time>
      </trkpt>
      <trkpt lat="42.51352" lon="2.1054">
        <ele>1646</ele>
        <time>2021-12-05T20:25:45Z</time>
      </trkpt>
      <trkpt lat="42.51341" lon="2.10503">
        <ele>1647</ele>
        <time>2021-12-05T20:25:50Z</time>
      </trkpt>
      <trkpt lat="42.51334" lon="2.10473">
        <ele>1647</ele>
        <time>2021-12-05T20:25:54Z</time>
      </trkpt>
      <trkpt lat="42.51326" lon="2.10425">
        <ele>1648</ele>
        <time>2021-12-05T20:26:01Z</time>
      </trkpt>
      <trkpt lat="42.51317" lon="2.10374">
        <ele>1650</ele>
        <time>2021-12-05T20:26:08Z</time>
      </trkpt>
      <trkpt lat="42.51305" lon="2.10291">
        <ele>1652</ele>
        <time>2021-12-05T20:26:19Z</time>
      </trkpt>
      <trkpt lat="42.51294" lon="2.10233">
        <ele>1654</ele>
        <time>2021-12-05T20:26:27Z</time>
      </trkpt>
      <trkpt lat="42.51283" lon="2.10201">
        <ele>1656</ele>
        <time>2021-12-05T20:26:31Z</time>
      </trkpt>
      <trkpt lat="42.51271" lon="2.10181">
        <ele>1658</ele>
        <time>2021-12-05T20:26:35Z</time>
      </trkpt>
      <trkpt lat="42.51249" lon="2.1014">
        <ele>1659</ele>
        <time>2021-12-05T20:26:41Z</time>
      </trkpt>
      <trkpt lat="42.51229" lon="2.10102">
        <ele>1662</ele>
        <time>2021-12-05T20:26:47Z</time>
      </trkpt>
      <trkpt lat="42.51217" lon="2.10066">
        <ele>1663</ele>
        <time>2021-12-05T20:26:53Z</time>
      </trkpt>
      <trkpt lat="42.5121" lon="2.10038">
        <ele>1664</ele>
        <time>2021-12-05T20:26:56Z</time>
      </trkpt>
      <trkpt lat="42.51207" lon="2.10012">
        <ele>1664</ele>
        <time>2021-12-05T20:27:00Z</time>
      </trkpt>
      <trkpt lat="42.51203" lon="2.09928">
        <ele>1664</ele>
        <time>2021-12-05T20:27:11Z</time>
      </trkpt>
      <trkpt lat="42.51195" lon="2.09887">
        <ele>1665</ele>
        <time>2021-12-05T20:27:17Z</time>
      </trkpt>
      <trkpt lat="42.51188" lon="2.09866">
        <ele>1666</ele>
        <time>2021-12-05T20:27:20Z</time>
      </trkpt>
      <trkpt lat="42.5115" lon="2.09779">
        <ele>1671</ele>
        <time>2021-12-05T20:27:33Z</time>
      </trkpt>
      <trkpt lat="42.51137" lon="2.09728">
        <ele>1673</ele>
        <time>2021-12-05T20:27:40Z</time>
      </trkpt>
      <trkpt lat="42.51125" lon="2.0969">
        <ele>1673</ele>
        <time>2021-12-05T20:27:45Z</time>
      </trkpt>
      <trkpt lat="42.51108" lon="2.09624">
        <ele>1674</ele>
        <time>2021-12-05T20:27:55Z</time>
      </trkpt>
      <trkpt lat="42.511" lon="2.09585">
        <ele>1675</ele>
        <time>2021-12-05T20:28:00Z</time>
      </trkpt>
      <trkpt lat="42.51093" lon="2.09525">
        <ele>1674</ele>
        <time>2021-12-05T20:28:08Z</time>
      </trkpt>
      <trkpt lat="42.5109" lon="2.09486">
        <ele>1673</ele>
        <time>2021-12-05T20:28:13Z</time>
      </trkpt>
      <trkpt lat="42.51096" lon="2.09293">
        <ele>1676</ele>
        <time>2021-12-05T20:28:38Z</time>
      </trkpt>
      <trkpt lat="42.51099" lon="2.09263">
        <ele>1676</ele>
        <time>2021-12-05T20:28:42Z</time>
      </trkpt>
      <trkpt lat="42.511" lon="2.09244">
        <ele>1677</ele>
        <time>2021-12-05T20:28:45Z</time>
      </trkpt>
      <trkpt lat="42.51112" lon="2.09162">
        <ele>1679</ele>
        <time>2021-12-05T20:28:56Z</time>
      </trkpt>
      <trkpt lat="42.51115" lon="2.09115">
        <ele>1680</ele>
        <time>2021-12-05T20:29:02Z</time>
      </trkpt>
      <trkpt lat="42.51112" lon="2.09086">
        <ele>1681</ele>
        <time>2021-12-05T20:29:06Z</time>
      </trkpt>
      <trkpt lat="42.51109" lon="2.0902">
        <ele>1683</ele>
        <time>2021-12-05T20:29:14Z</time>
      </trkpt>
      <trkpt lat="42.51109" lon="2.08987">
        <ele>1684</ele>
        <time>2021-12-05T20:29:19Z</time>
      </trkpt>
      <trkpt lat="42.51115" lon="2.08929">
        <ele>1686</ele>
        <time>2021-12-05T20:29:26Z</time>
      </trkpt>
      <trkpt lat="42.51128" lon="2.08847">
        <ele>1689</ele>
        <time>2021-12-05T20:29:37Z</time>
      </trkpt>
      <trkpt lat="42.5113" lon="2.08826">
        <ele>1689</ele>
        <time>2021-12-05T20:29:40Z</time>
      </trkpt>
      <trkpt lat="42.51128" lon="2.08766">
        <ele>1691</ele>
        <time>2021-12-05T20:29:48Z</time>
      </trkpt>
      <trkpt lat="42.51119" lon="2.08636">
        <ele>1697</ele>
        <time>2021-12-05T20:30:05Z</time>
      </trkpt>
      <trkpt lat="42.51117" lon="2.08609">
        <ele>1698</ele>
        <time>2021-12-05T20:30:09Z</time>
      </trkpt>
      <trkpt lat="42.51115" lon="2.08548">
        <ele>1701</ele>
        <time>2021-12-05T20:30:17Z</time>
      </trkpt>
      <trkpt lat="42.51119" lon="2.08519">
        <ele>1704</ele>
        <time>2021-12-05T20:30:21Z</time>
      </trkpt>
      <trkpt lat="42.51128" lon="2.08476">
        <ele>1707</ele>
        <time>2021-12-05T20:30:26Z</time>
      </trkpt>
      <trkpt lat="42.51133" lon="2.08458">
        <ele>1708</ele>
        <time>2021-12-05T20:30:29Z</time>
      </trkpt>
      <trkpt lat="42.51152" lon="2.08417">
        <ele>1708</ele>
        <time>2021-12-05T20:30:35Z</time>
      </trkpt>
      <trkpt lat="42.51164" lon="2.08391">
        <ele>1709</ele>
        <time>2021-12-05T20:30:39Z</time>
      </trkpt>
      <trkpt lat="42.51169" lon="2.08383">
        <ele>1709</ele>
        <time>2021-12-05T20:30:41Z</time>
      </trkpt>
      <trkpt lat="42.51178" lon="2.08364">
        <ele>1711</ele>
        <time>2021-12-05T20:30:44Z</time>
      </trkpt>
      <trkpt lat="42.51253" lon="2.08163">
        <ele>1714</ele>
        <time>2021-12-05T20:31:13Z</time>
      </trkpt>
      <trkpt lat="42.51305" lon="2.08035">
        <ele>1723</ele>
        <time>2021-12-05T20:31:32Z</time>
      </trkpt>
      <trkpt lat="42.51328" lon="2.07987">
        <ele>1725</ele>
        <time>2021-12-05T20:31:40Z</time>
      </trkpt>
      <trkpt lat="42.51425" lon="2.07786">
        <ele>1735</ele>
        <time>2021-12-05T20:32:11Z</time>
      </trkpt>
      <trkpt lat="42.51469" lon="2.07712">
        <ele>1732</ele>
        <time>2021-12-05T20:32:24Z</time>
      </trkpt>
      <trkpt lat="42.51487" lon="2.07684">
        <ele>1731</ele>
        <time>2021-12-05T20:32:29Z</time>
      </trkpt>
      <trkpt lat="42.51513" lon="2.07641">
        <ele>1731</ele>
        <time>2021-12-05T20:32:36Z</time>
      </trkpt>
      <trkpt lat="42.51524" lon="2.07613">
        <ele>1731</ele>
        <time>2021-12-05T20:32:40Z</time>
      </trkpt>
      <trkpt lat="42.51526" lon="2.07592">
        <ele>1731</ele>
        <time>2021-12-05T20:32:43Z</time>
      </trkpt>
      <trkpt lat="42.5152" lon="2.07476">
        <ele>1731</ele>
        <time>2021-12-05T20:32:58Z</time>
      </trkpt>
      <trkpt lat="42.51517" lon="2.07447">
        <ele>1731</ele>
        <time>2021-12-05T20:33:02Z</time>
      </trkpt>
      <trkpt lat="42.51512" lon="2.07422">
        <ele>1731</ele>
        <time>2021-12-05T20:33:06Z</time>
      </trkpt>
      <trkpt lat="42.5151" lon="2.07409">
        <ele>1731</ele>
        <time>2021-12-05T20:33:07Z</time>
      </trkpt>
      <trkpt lat="42.51498" lon="2.07369">
        <ele>1731</ele>
        <time>2021-12-05T20:33:13Z</time>
      </trkpt>
      <trkpt lat="42.51485" lon="2.07332">
        <ele>1732</ele>
        <time>2021-12-05T20:33:18Z</time>
      </trkpt>
      <trkpt lat="42.5148" lon="2.07315">
        <ele>1733</ele>
        <time>2021-12-05T20:33:21Z</time>
      </trkpt>
      <trkpt lat="42.51476" lon="2.07274">
        <ele>1735</ele>
        <time>2021-12-05T20:33:26Z</time>
      </trkpt>
      <trkpt lat="42.51477" lon="2.0725">
        <ele>1736</ele>
        <time>2021-12-05T20:33:29Z</time>
      </trkpt>
      <trkpt lat="42.51481" lon="2.07222">
        <ele>1737</ele>
        <time>2021-12-05T20:33:33Z</time>
      </trkpt>
      <trkpt lat="42.5149" lon="2.0719">
        <ele>1738</ele>
        <time>2021-12-05T20:33:38Z</time>
      </trkpt>
      <trkpt lat="42.5153" lon="2.07084">
        <ele>1740</ele>
        <time>2021-12-05T20:33:53Z</time>
      </trkpt>
      <trkpt lat="42.51537" lon="2.07056">
        <ele>1741</ele>
        <time>2021-12-05T20:33:57Z</time>
      </trkpt>
      <trkpt lat="42.51542" lon="2.07029">
        <ele>1741</ele>
        <time>2021-12-05T20:34:01Z</time>
      </trkpt>
      <trkpt lat="42.51561" lon="2.07017">
        <ele>1742</ele>
        <time>2021-12-05T20:34:04Z</time>
      </trkpt>
      <trkpt lat="42.51647" lon="2.06918">
        <ele>1747</ele>
        <time>2021-12-05T20:34:24Z</time>
      </trkpt>
      <trkpt lat="42.51659" lon="2.06908">
        <ele>1748</ele>
        <time>2021-12-05T20:34:27Z</time>
      </trkpt>
      <trkpt lat="42.51697" lon="2.06867">
        <ele>1753</ele>
        <time>2021-12-05T20:34:36Z</time>
      </trkpt>
      <trkpt lat="42.51736" lon="2.0684">
        <ele>1756</ele>
        <time>2021-12-05T20:34:43Z</time>
      </trkpt>
      <trkpt lat="42.51783" lon="2.06829">
        <ele>1760</ele>
        <time>2021-12-05T20:34:52Z</time>
      </trkpt>
      <trkpt lat="42.51861" lon="2.06819">
        <ele>1768</ele>
        <time>2021-12-05T20:35:06Z</time>
      </trkpt>
      <trkpt lat="42.5189" lon="2.06809">
        <ele>1770</ele>
        <time>2021-12-05T20:35:11Z</time>
      </trkpt>
      <trkpt lat="42.5192" lon="2.06789">
        <ele>1772</ele>
        <time>2021-12-05T20:35:17Z</time>
      </trkpt>
      <trkpt lat="42.51942" lon="2.06767">
        <ele>1775</ele>
        <time>2021-12-05T20:35:22Z</time>
      </trkpt>
      <trkpt lat="42.5196" lon="2.06735">
        <ele>1778</ele>
        <time>2021-12-05T20:35:27Z</time>
      </trkpt>
      <trkpt lat="42.51976" lon="2.06694">
        <ele>1779</ele>
        <time>2021-12-05T20:35:33Z</time>
      </trkpt>
      <trkpt lat="42.52085" lon="2.0633">
        <ele>1781</ele>
        <time>2021-12-05T20:36:25Z</time>
      </trkpt>
      <trkpt lat="42.52092" lon="2.06304">
        <ele>1783</ele>
        <time>2021-12-05T20:36:28Z</time>
      </trkpt>
      <trkpt lat="42.52097" lon="2.06275">
        <ele>1784</ele>
        <time>2021-12-05T20:36:32Z</time>
      </trkpt>
      <trkpt lat="42.52128" lon="2.06057">
        <ele>1785</ele>
        <time>2021-12-05T20:37:01Z</time>
      </trkpt>
      <trkpt lat="42.52127" lon="2.06039">
        <ele>1785</ele>
        <time>2021-12-05T20:37:04Z</time>
      </trkpt>
      <trkpt lat="42.5212" lon="2.06032">
        <ele>1784</ele>
        <time>2021-12-05T20:37:05Z</time>
      </trkpt>
      <trkpt lat="42.52047" lon="2.0598">
        <ele>1779</ele>
        <time>2021-12-05T20:37:20Z</time>
      </trkpt>
    </trkseg>
  </trk>
</gpx>